<?xml version="1.0" encoding="UTF-8" standalone="no" ?>
<gpx xmlns="http://www.topografix.com/GPX/1/1" xmlns:xsi="http://www.w3.org/2001/XMLSchema-instance" xsi:schemaLocation="http://www.topografix.com/GPX/1/1 http://www.topografix.com/GPX/1/1/gpx.xsd" version="1.1" creator="VisuGPX - https://www.visugpx.com">
  <metadata>
    <name>course pédestre pays du gier 20 kms</name>
    <desc><![CDATA[sous un gros orage, ce fut délirant]]></desc>
  </metadata>
  <trk>
    <name><![CDATA[pays du gier]]></name>
    <trkseg>
      <trkpt lat="45.47318" lon="4.53416">
        <ele>383.36849975586</ele>
        <time>2015-04-25T13:01:00Z</time>
      </trkpt>
      <trkpt lat="45.4734" lon="4.53439">
        <ele>382.02767944336</ele>
        <time>2015-04-25T13:01:12Z</time>
      </trkpt>
      <trkpt lat="45.47348" lon="4.53444">
        <ele>382.03030395508</ele>
        <time>2015-04-25T13:01:15Z</time>
      </trkpt>
      <trkpt lat="45.47353" lon="4.53449">
        <ele>381.95916748047</ele>
        <time>2015-04-25T13:01:17Z</time>
      </trkpt>
      <trkpt lat="45.47358" lon="4.53453">
        <ele>381.90570068359</ele>
        <time>2015-04-25T13:01:19Z</time>
      </trkpt>
      <trkpt lat="45.47363" lon="4.53459">
        <ele>381.6865234375</ele>
        <time>2015-04-25T13:01:21Z</time>
      </trkpt>
      <trkpt lat="45.47368" lon="4.53465">
        <ele>381.46606445312</ele>
        <time>2015-04-25T13:01:23Z</time>
      </trkpt>
      <trkpt lat="45.47375" lon="4.53473">
        <ele>381.09524536133</ele>
        <time>2015-04-25T13:01:26Z</time>
      </trkpt>
      <trkpt lat="45.4738" lon="4.53478">
        <ele>380.83459472656</ele>
        <time>2015-04-25T13:01:28Z</time>
      </trkpt>
      <trkpt lat="45.47384" lon="4.53484">
        <ele>380.48260498047</ele>
        <time>2015-04-25T13:01:30Z</time>
      </trkpt>
      <trkpt lat="45.47388" lon="4.53491">
        <ele>380.05963134766</ele>
        <time>2015-04-25T13:01:32Z</time>
      </trkpt>
      <trkpt lat="45.47393" lon="4.53496">
        <ele>379.73941040039</ele>
        <time>2015-04-25T13:01:34Z</time>
      </trkpt>
      <trkpt lat="45.47396" lon="4.53504">
        <ele>379.56506347656</ele>
        <time>2015-04-25T13:01:36Z</time>
      </trkpt>
      <trkpt lat="45.474" lon="4.5351">
        <ele>379.6926574707</ele>
        <time>2015-04-25T13:01:38Z</time>
      </trkpt>
      <trkpt lat="45.47403" lon="4.53517">
        <ele>379.76712036133</ele>
        <time>2015-04-25T13:01:40Z</time>
      </trkpt>
      <trkpt lat="45.47406" lon="4.53524">
        <ele>379.78472900391</ele>
        <time>2015-04-25T13:01:42Z</time>
      </trkpt>
      <trkpt lat="45.4741" lon="4.53531">
        <ele>379.73178100586</ele>
        <time>2015-04-25T13:01:44Z</time>
      </trkpt>
      <trkpt lat="45.47416" lon="4.53542">
        <ele>379.50924682617</ele>
        <time>2015-04-25T13:01:47Z</time>
      </trkpt>
      <trkpt lat="45.4742" lon="4.5355">
        <ele>379.49594116211</ele>
        <time>2015-04-25T13:01:49Z</time>
      </trkpt>
      <trkpt lat="45.47424" lon="4.53558">
        <ele>379.48559570312</ele>
        <time>2015-04-25T13:01:51Z</time>
      </trkpt>
      <trkpt lat="45.47431" lon="4.53567">
        <ele>379.44314575195</ele>
        <time>2015-04-25T13:01:54Z</time>
      </trkpt>
      <trkpt lat="45.47438" lon="4.5357">
        <ele>379.43487548828</ele>
        <time>2015-04-25T13:01:56Z</time>
      </trkpt>
      <trkpt lat="45.47444" lon="4.53574">
        <ele>379.3899230957</ele>
        <time>2015-04-25T13:01:58Z</time>
      </trkpt>
      <trkpt lat="45.47451" lon="4.53576">
        <ele>379.33062744141</ele>
        <time>2015-04-25T13:02:00Z</time>
      </trkpt>
      <trkpt lat="45.47458" lon="4.53586">
        <ele>378.96807861328</ele>
        <time>2015-04-25T13:02:03Z</time>
      </trkpt>
      <trkpt lat="45.47463" lon="4.53591">
        <ele>378.86764526367</ele>
        <time>2015-04-25T13:02:05Z</time>
      </trkpt>
      <trkpt lat="45.47469" lon="4.53596">
        <ele>378.72534179688</ele>
        <time>2015-04-25T13:02:07Z</time>
      </trkpt>
      <trkpt lat="45.47474" lon="4.53602">
        <ele>378.5192565918</ele>
        <time>2015-04-25T13:02:09Z</time>
      </trkpt>
      <trkpt lat="45.47479" lon="4.53607">
        <ele>378.29086303711</ele>
        <time>2015-04-25T13:02:11Z</time>
      </trkpt>
      <trkpt lat="45.47484" lon="4.53614">
        <ele>377.97290039062</ele>
        <time>2015-04-25T13:02:13Z</time>
      </trkpt>
      <trkpt lat="45.47493" lon="4.53621">
        <ele>377.42816162109</ele>
        <time>2015-04-25T13:02:16Z</time>
      </trkpt>
      <trkpt lat="45.47499" lon="4.53626">
        <ele>376.99026489258</ele>
        <time>2015-04-25T13:02:18Z</time>
      </trkpt>
      <trkpt lat="45.47504" lon="4.53632">
        <ele>376.76254272461</ele>
        <time>2015-04-25T13:02:20Z</time>
      </trkpt>
      <trkpt lat="45.47509" lon="4.53638">
        <ele>376.61572265625</ele>
        <time>2015-04-25T13:02:22Z</time>
      </trkpt>
      <trkpt lat="45.47515" lon="4.53642">
        <ele>376.52697753906</ele>
        <time>2015-04-25T13:02:24Z</time>
      </trkpt>
      <trkpt lat="45.4752" lon="4.53647">
        <ele>376.34716796875</ele>
        <time>2015-04-25T13:02:26Z</time>
      </trkpt>
      <trkpt lat="45.47527" lon="4.53656">
        <ele>375.93676757812</ele>
        <time>2015-04-25T13:02:29Z</time>
      </trkpt>
      <trkpt lat="45.47532" lon="4.53661">
        <ele>375.73822021484</ele>
        <time>2015-04-25T13:02:31Z</time>
      </trkpt>
      <trkpt lat="45.47536" lon="4.53665">
        <ele>375.55911254883</ele>
        <time>2015-04-25T13:02:33Z</time>
      </trkpt>
      <trkpt lat="45.47544" lon="4.53672">
        <ele>375.3918762207</ele>
        <time>2015-04-25T13:02:36Z</time>
      </trkpt>
      <trkpt lat="45.47549" lon="4.53676">
        <ele>375.28619384766</ele>
        <time>2015-04-25T13:02:38Z</time>
      </trkpt>
      <trkpt lat="45.47557" lon="4.53682">
        <ele>375.03536987305</ele>
        <time>2015-04-25T13:02:41Z</time>
      </trkpt>
      <trkpt lat="45.47563" lon="4.53685">
        <ele>374.88131713867</ele>
        <time>2015-04-25T13:02:43Z</time>
      </trkpt>
      <trkpt lat="45.47568" lon="4.53688">
        <ele>374.67535400391</ele>
        <time>2015-04-25T13:02:45Z</time>
      </trkpt>
      <trkpt lat="45.47573" lon="4.5369">
        <ele>374.43756103516</ele>
        <time>2015-04-25T13:02:47Z</time>
      </trkpt>
      <trkpt lat="45.47579" lon="4.5369">
        <ele>374.35513305664</ele>
        <time>2015-04-25T13:02:49Z</time>
      </trkpt>
      <trkpt lat="45.47583" lon="4.53688">
        <ele>374.44393920898</ele>
        <time>2015-04-25T13:02:51Z</time>
      </trkpt>
      <trkpt lat="45.47589" lon="4.53689">
        <ele>374.44174194336</ele>
        <time>2015-04-25T13:02:53Z</time>
      </trkpt>
      <trkpt lat="45.47598" lon="4.53689">
        <ele>374.57681274414</ele>
        <time>2015-04-25T13:02:56Z</time>
      </trkpt>
      <trkpt lat="45.47604" lon="4.53688">
        <ele>374.73431396484</ele>
        <time>2015-04-25T13:02:58Z</time>
      </trkpt>
      <trkpt lat="45.47614" lon="4.53685">
        <ele>375.13385009766</ele>
        <time>2015-04-25T13:03:01Z</time>
      </trkpt>
      <trkpt lat="45.47619" lon="4.53684">
        <ele>375.27340698242</ele>
        <time>2015-04-25T13:03:03Z</time>
      </trkpt>
      <trkpt lat="45.47625" lon="4.53685">
        <ele>375.21743774414</ele>
        <time>2015-04-25T13:03:05Z</time>
      </trkpt>
      <trkpt lat="45.47629" lon="4.53691">
        <ele>374.67687988281</ele>
        <time>2015-04-25T13:03:07Z</time>
      </trkpt>
      <trkpt lat="45.47634" lon="4.53706">
        <ele>373.25775146484</ele>
        <time>2015-04-25T13:03:10Z</time>
      </trkpt>
      <trkpt lat="45.47638" lon="4.53719">
        <ele>371.9143371582</ele>
        <time>2015-04-25T13:03:13Z</time>
      </trkpt>
      <trkpt lat="45.47643" lon="4.53733">
        <ele>370.37609863281</ele>
        <time>2015-04-25T13:03:16Z</time>
      </trkpt>
      <trkpt lat="45.47647" lon="4.53741">
        <ele>369.48175048828</ele>
        <time>2015-04-25T13:03:18Z</time>
      </trkpt>
      <trkpt lat="45.47652" lon="4.53746">
        <ele>368.77209472656</ele>
        <time>2015-04-25T13:03:20Z</time>
      </trkpt>
      <trkpt lat="45.47662" lon="4.5375">
        <ele>368.12295532227</ele>
        <time>2015-04-25T13:03:23Z</time>
      </trkpt>
      <trkpt lat="45.47672" lon="4.53754">
        <ele>367.89422607422</ele>
        <time>2015-04-25T13:03:26Z</time>
      </trkpt>
      <trkpt lat="45.47679" lon="4.53756">
        <ele>367.78680419922</ele>
        <time>2015-04-25T13:03:28Z</time>
      </trkpt>
      <trkpt lat="45.47686" lon="4.53758">
        <ele>367.67163085938</ele>
        <time>2015-04-25T13:03:30Z</time>
      </trkpt>
      <trkpt lat="45.47694" lon="4.53759">
        <ele>367.58483886719</ele>
        <time>2015-04-25T13:03:32Z</time>
      </trkpt>
      <trkpt lat="45.47706" lon="4.53762">
        <ele>367.3219909668</ele>
        <time>2015-04-25T13:03:35Z</time>
      </trkpt>
      <trkpt lat="45.47714" lon="4.53764">
        <ele>367.11117553711</ele>
        <time>2015-04-25T13:03:37Z</time>
      </trkpt>
      <trkpt lat="45.47725" lon="4.53766">
        <ele>366.8346862793</ele>
        <time>2015-04-25T13:03:40Z</time>
      </trkpt>
      <trkpt lat="45.47733" lon="4.53766">
        <ele>366.68890380859</ele>
        <time>2015-04-25T13:03:42Z</time>
      </trkpt>
      <trkpt lat="45.4774" lon="4.53767">
        <ele>366.50012207031</ele>
        <time>2015-04-25T13:03:44Z</time>
      </trkpt>
      <trkpt lat="45.47746" lon="4.53767">
        <ele>366.37719726562</ele>
        <time>2015-04-25T13:03:46Z</time>
      </trkpt>
      <trkpt lat="45.47754" lon="4.53768">
        <ele>366.19152832031</ele>
        <time>2015-04-25T13:03:48Z</time>
      </trkpt>
      <trkpt lat="45.4776" lon="4.5377">
        <ele>365.95620727539</ele>
        <time>2015-04-25T13:03:50Z</time>
      </trkpt>
      <trkpt lat="45.47767" lon="4.5377">
        <ele>365.79330444336</ele>
        <time>2015-04-25T13:03:52Z</time>
      </trkpt>
      <trkpt lat="45.47774" lon="4.53772">
        <ele>365.54379272461</ele>
        <time>2015-04-25T13:03:54Z</time>
      </trkpt>
      <trkpt lat="45.47781" lon="4.53771">
        <ele>365.46282958984</ele>
        <time>2015-04-25T13:03:56Z</time>
      </trkpt>
      <trkpt lat="45.47787" lon="4.53771">
        <ele>365.3996887207</ele>
        <time>2015-04-25T13:03:58Z</time>
      </trkpt>
      <trkpt lat="45.47794" lon="4.53771">
        <ele>365.26702880859</ele>
        <time>2015-04-25T13:04:00Z</time>
      </trkpt>
      <trkpt lat="45.47803" lon="4.5377">
        <ele>365.23837280273</ele>
        <time>2015-04-25T13:04:03Z</time>
      </trkpt>
      <trkpt lat="45.4781" lon="4.53771">
        <ele>365.06661987305</ele>
        <time>2015-04-25T13:04:05Z</time>
      </trkpt>
      <trkpt lat="45.47816" lon="4.53774">
        <ele>364.62182617188</ele>
        <time>2015-04-25T13:04:07Z</time>
      </trkpt>
      <trkpt lat="45.47822" lon="4.53779">
        <ele>364.07662963867</ele>
        <time>2015-04-25T13:04:09Z</time>
      </trkpt>
      <trkpt lat="45.47828" lon="4.53785">
        <ele>363.28927612305</ele>
        <time>2015-04-25T13:04:11Z</time>
      </trkpt>
      <trkpt lat="45.47837" lon="4.53795">
        <ele>362.00762939453</ele>
        <time>2015-04-25T13:04:14Z</time>
      </trkpt>
      <trkpt lat="45.47842" lon="4.53804">
        <ele>360.99368286133</ele>
        <time>2015-04-25T13:04:16Z</time>
      </trkpt>
      <trkpt lat="45.47847" lon="4.53814">
        <ele>359.80236816406</ele>
        <time>2015-04-25T13:04:18Z</time>
      </trkpt>
      <trkpt lat="45.47848" lon="4.53824">
        <ele>358.65338134766</ele>
        <time>2015-04-25T13:04:20Z</time>
      </trkpt>
      <trkpt lat="45.47849" lon="4.53835">
        <ele>357.57788085938</ele>
        <time>2015-04-25T13:04:22Z</time>
      </trkpt>
      <trkpt lat="45.4785" lon="4.53845">
        <ele>357.34017944336</ele>
        <time>2015-04-25T13:04:24Z</time>
      </trkpt>
      <trkpt lat="45.4785" lon="4.53856">
        <ele>357.13357543945</ele>
        <time>2015-04-25T13:04:26Z</time>
      </trkpt>
      <trkpt lat="45.4785" lon="4.53866">
        <ele>356.91314697266</ele>
        <time>2015-04-25T13:04:28Z</time>
      </trkpt>
      <trkpt lat="45.47851" lon="4.53876">
        <ele>356.62591552734</ele>
        <time>2015-04-25T13:04:30Z</time>
      </trkpt>
      <trkpt lat="45.47854" lon="4.53885">
        <ele>356.27734375</ele>
        <time>2015-04-25T13:04:32Z</time>
      </trkpt>
      <trkpt lat="45.47857" lon="4.53893">
        <ele>355.92343139648</ele>
        <time>2015-04-25T13:04:34Z</time>
      </trkpt>
      <trkpt lat="45.4786" lon="4.53901">
        <ele>355.54312133789</ele>
        <time>2015-04-25T13:04:36Z</time>
      </trkpt>
      <trkpt lat="45.47863" lon="4.53907">
        <ele>355.10504150391</ele>
        <time>2015-04-25T13:04:38Z</time>
      </trkpt>
      <trkpt lat="45.47868" lon="4.53914">
        <ele>354.57479858398</ele>
        <time>2015-04-25T13:04:40Z</time>
      </trkpt>
      <trkpt lat="45.47873" lon="4.53918">
        <ele>354.10269165039</ele>
        <time>2015-04-25T13:04:42Z</time>
      </trkpt>
      <trkpt lat="45.47879" lon="4.53923">
        <ele>353.61029052734</ele>
        <time>2015-04-25T13:04:44Z</time>
      </trkpt>
      <trkpt lat="45.47884" lon="4.53928">
        <ele>353.18896484375</ele>
        <time>2015-04-25T13:04:46Z</time>
      </trkpt>
      <trkpt lat="45.47888" lon="4.53933">
        <ele>352.85565185547</ele>
        <time>2015-04-25T13:04:48Z</time>
      </trkpt>
      <trkpt lat="45.47895" lon="4.5394">
        <ele>352.35931396484</ele>
        <time>2015-04-25T13:04:51Z</time>
      </trkpt>
      <trkpt lat="45.47899" lon="4.53947">
        <ele>352.04684448242</ele>
        <time>2015-04-25T13:04:53Z</time>
      </trkpt>
      <trkpt lat="45.47904" lon="4.53953">
        <ele>351.70275878906</ele>
        <time>2015-04-25T13:04:55Z</time>
      </trkpt>
      <trkpt lat="45.4791" lon="4.53958">
        <ele>351.34478759766</ele>
        <time>2015-04-25T13:04:57Z</time>
      </trkpt>
      <trkpt lat="45.47915" lon="4.53963">
        <ele>351.07287597656</ele>
        <time>2015-04-25T13:04:59Z</time>
      </trkpt>
      <trkpt lat="45.4792" lon="4.53967">
        <ele>350.92370605469</ele>
        <time>2015-04-25T13:05:01Z</time>
      </trkpt>
      <trkpt lat="45.47926" lon="4.53975">
        <ele>350.76806640625</ele>
        <time>2015-04-25T13:05:04Z</time>
      </trkpt>
      <trkpt lat="45.4793" lon="4.53981">
        <ele>350.67651367188</ele>
        <time>2015-04-25T13:05:06Z</time>
      </trkpt>
      <trkpt lat="45.47934" lon="4.53987">
        <ele>350.5849609375</ele>
        <time>2015-04-25T13:05:08Z</time>
      </trkpt>
      <trkpt lat="45.4794" lon="4.53995">
        <ele>350.44763183594</ele>
        <time>2015-04-25T13:05:11Z</time>
      </trkpt>
      <trkpt lat="45.47943" lon="4.54001">
        <ele>350.32250976562</ele>
        <time>2015-04-25T13:05:13Z</time>
      </trkpt>
      <trkpt lat="45.47946" lon="4.54007">
        <ele>349.91217041016</ele>
        <time>2015-04-25T13:05:15Z</time>
      </trkpt>
      <trkpt lat="45.4795" lon="4.54015">
        <ele>349.47027587891</ele>
        <time>2015-04-25T13:05:17Z</time>
      </trkpt>
      <trkpt lat="45.47952" lon="4.54023">
        <ele>349.06900024414</ele>
        <time>2015-04-25T13:05:19Z</time>
      </trkpt>
      <trkpt lat="45.47955" lon="4.54031">
        <ele>348.6950378418</ele>
        <time>2015-04-25T13:05:21Z</time>
      </trkpt>
      <trkpt lat="45.47959" lon="4.54038">
        <ele>348.42529296875</ele>
        <time>2015-04-25T13:05:23Z</time>
      </trkpt>
      <trkpt lat="45.47964" lon="4.54039">
        <ele>348.39776611328</ele>
        <time>2015-04-25T13:05:25Z</time>
      </trkpt>
      <trkpt lat="45.47969" lon="4.54041">
        <ele>348.34887695312</ele>
        <time>2015-04-25T13:05:27Z</time>
      </trkpt>
      <trkpt lat="45.47976" lon="4.54042">
        <ele>348.33410644531</ele>
        <time>2015-04-25T13:05:29Z</time>
      </trkpt>
      <trkpt lat="45.47982" lon="4.54044">
        <ele>348.33666992188</ele>
        <time>2015-04-25T13:05:31Z</time>
      </trkpt>
      <trkpt lat="45.47988" lon="4.54046">
        <ele>348.32971191406</ele>
        <time>2015-04-25T13:05:33Z</time>
      </trkpt>
      <trkpt lat="45.47994" lon="4.54049">
        <ele>348.34671020508</ele>
        <time>2015-04-25T13:05:35Z</time>
      </trkpt>
      <trkpt lat="45.48" lon="4.5405">
        <ele>348.40545654297</ele>
        <time>2015-04-25T13:05:37Z</time>
      </trkpt>
      <trkpt lat="45.48006" lon="4.54053">
        <ele>348.48077392578</ele>
        <time>2015-04-25T13:05:39Z</time>
      </trkpt>
      <trkpt lat="45.48013" lon="4.54057">
        <ele>348.57968139648</ele>
        <time>2015-04-25T13:05:41Z</time>
      </trkpt>
      <trkpt lat="45.48019" lon="4.54059">
        <ele>348.70230102539</ele>
        <time>2015-04-25T13:05:43Z</time>
      </trkpt>
      <trkpt lat="45.48024" lon="4.54061">
        <ele>348.83224487305</ele>
        <time>2015-04-25T13:05:45Z</time>
      </trkpt>
      <trkpt lat="45.48031" lon="4.54064">
        <ele>348.99630737305</ele>
        <time>2015-04-25T13:05:47Z</time>
      </trkpt>
      <trkpt lat="45.48037" lon="4.54065">
        <ele>349.16186523438</ele>
        <time>2015-04-25T13:05:49Z</time>
      </trkpt>
      <trkpt lat="45.48043" lon="4.54068">
        <ele>349.35131835938</ele>
        <time>2015-04-25T13:05:51Z</time>
      </trkpt>
      <trkpt lat="45.4805" lon="4.5407">
        <ele>349.56622314453</ele>
        <time>2015-04-25T13:05:53Z</time>
      </trkpt>
      <trkpt lat="45.48056" lon="4.54072">
        <ele>349.79266357422</ele>
        <time>2015-04-25T13:05:55Z</time>
      </trkpt>
      <trkpt lat="45.48063" lon="4.54073">
        <ele>350.02548217773</ele>
        <time>2015-04-25T13:05:57Z</time>
      </trkpt>
      <trkpt lat="45.4807" lon="4.54076">
        <ele>350.2995300293</ele>
        <time>2015-04-25T13:05:59Z</time>
      </trkpt>
      <trkpt lat="45.48077" lon="4.54077">
        <ele>350.56448364258</ele>
        <time>2015-04-25T13:06:01Z</time>
      </trkpt>
      <trkpt lat="45.48086" lon="4.5408">
        <ele>350.7751159668</ele>
        <time>2015-04-25T13:06:04Z</time>
      </trkpt>
      <trkpt lat="45.48092" lon="4.54083">
        <ele>350.5856628418</ele>
        <time>2015-04-25T13:06:06Z</time>
      </trkpt>
      <trkpt lat="45.48098" lon="4.54085">
        <ele>350.2448425293</ele>
        <time>2015-04-25T13:06:08Z</time>
      </trkpt>
      <trkpt lat="45.48104" lon="4.54087">
        <ele>349.81262207031</ele>
        <time>2015-04-25T13:06:10Z</time>
      </trkpt>
      <trkpt lat="45.48111" lon="4.54089">
        <ele>349.41897583008</ele>
        <time>2015-04-25T13:06:12Z</time>
      </trkpt>
      <trkpt lat="45.48117" lon="4.54092">
        <ele>349.04949951172</ele>
        <time>2015-04-25T13:06:14Z</time>
      </trkpt>
      <trkpt lat="45.48122" lon="4.54095">
        <ele>348.71429443359</ele>
        <time>2015-04-25T13:06:16Z</time>
      </trkpt>
      <trkpt lat="45.48127" lon="4.54098">
        <ele>348.38885498047</ele>
        <time>2015-04-25T13:06:18Z</time>
      </trkpt>
      <trkpt lat="45.48133" lon="4.541">
        <ele>348.10446166992</ele>
        <time>2015-04-25T13:06:20Z</time>
      </trkpt>
      <trkpt lat="45.48138" lon="4.541">
        <ele>347.87524414062</ele>
        <time>2015-04-25T13:06:22Z</time>
      </trkpt>
      <trkpt lat="45.48144" lon="4.541">
        <ele>347.67956542969</ele>
        <time>2015-04-25T13:06:24Z</time>
      </trkpt>
      <trkpt lat="45.48149" lon="4.541">
        <ele>347.45251464844</ele>
        <time>2015-04-25T13:06:26Z</time>
      </trkpt>
      <trkpt lat="45.48154" lon="4.54102">
        <ele>347.24542236328</ele>
        <time>2015-04-25T13:06:28Z</time>
      </trkpt>
      <trkpt lat="45.48159" lon="4.54108">
        <ele>346.97030639648</ele>
        <time>2015-04-25T13:06:30Z</time>
      </trkpt>
      <trkpt lat="45.48163" lon="4.54117">
        <ele>346.69900512695</ele>
        <time>2015-04-25T13:06:32Z</time>
      </trkpt>
      <trkpt lat="45.48168" lon="4.54124">
        <ele>346.44528198242</ele>
        <time>2015-04-25T13:06:34Z</time>
      </trkpt>
      <trkpt lat="45.48172" lon="4.54131">
        <ele>346.20761108398</ele>
        <time>2015-04-25T13:06:36Z</time>
      </trkpt>
      <trkpt lat="45.48177" lon="4.54136">
        <ele>345.97201538086</ele>
        <time>2015-04-25T13:06:38Z</time>
      </trkpt>
      <trkpt lat="45.48183" lon="4.54139">
        <ele>345.75491333008</ele>
        <time>2015-04-25T13:06:40Z</time>
      </trkpt>
      <trkpt lat="45.48188" lon="4.54142">
        <ele>345.55654907227</ele>
        <time>2015-04-25T13:06:42Z</time>
      </trkpt>
      <trkpt lat="45.48195" lon="4.54144">
        <ele>345.30560302734</ele>
        <time>2015-04-25T13:06:44Z</time>
      </trkpt>
      <trkpt lat="45.48201" lon="4.54147">
        <ele>345.10772705078</ele>
        <time>2015-04-25T13:06:46Z</time>
      </trkpt>
      <trkpt lat="45.48207" lon="4.54149">
        <ele>344.93328857422</ele>
        <time>2015-04-25T13:06:48Z</time>
      </trkpt>
      <trkpt lat="45.48214" lon="4.54152">
        <ele>344.7546081543</ele>
        <time>2015-04-25T13:06:50Z</time>
      </trkpt>
      <trkpt lat="45.4822" lon="4.54155">
        <ele>344.59701538086</ele>
        <time>2015-04-25T13:06:52Z</time>
      </trkpt>
      <trkpt lat="45.48229" lon="4.5416">
        <ele>344.41632080078</ele>
        <time>2015-04-25T13:06:55Z</time>
      </trkpt>
      <trkpt lat="45.48235" lon="4.54164">
        <ele>344.30908203125</ele>
        <time>2015-04-25T13:06:57Z</time>
      </trkpt>
      <trkpt lat="45.48241" lon="4.54167">
        <ele>344.19476318359</ele>
        <time>2015-04-25T13:06:59Z</time>
      </trkpt>
      <trkpt lat="45.48248" lon="4.54171">
        <ele>343.99938964844</ele>
        <time>2015-04-25T13:07:01Z</time>
      </trkpt>
      <trkpt lat="45.48254" lon="4.54176">
        <ele>343.61505126953</ele>
        <time>2015-04-25T13:07:03Z</time>
      </trkpt>
      <trkpt lat="45.4826" lon="4.5418">
        <ele>343.1530456543</ele>
        <time>2015-04-25T13:07:05Z</time>
      </trkpt>
      <trkpt lat="45.48266" lon="4.54184">
        <ele>342.73062133789</ele>
        <time>2015-04-25T13:07:07Z</time>
      </trkpt>
      <trkpt lat="45.48271" lon="4.54189">
        <ele>342.34323120117</ele>
        <time>2015-04-25T13:07:09Z</time>
      </trkpt>
      <trkpt lat="45.48277" lon="4.54194">
        <ele>341.94555664062</ele>
        <time>2015-04-25T13:07:11Z</time>
      </trkpt>
      <trkpt lat="45.48284" lon="4.54206">
        <ele>341.47882080078</ele>
        <time>2015-04-25T13:07:14Z</time>
      </trkpt>
      <trkpt lat="45.48287" lon="4.54216">
        <ele>341.28039550781</ele>
        <time>2015-04-25T13:07:16Z</time>
      </trkpt>
      <trkpt lat="45.48289" lon="4.54225">
        <ele>341.14120483398</ele>
        <time>2015-04-25T13:07:18Z</time>
      </trkpt>
      <trkpt lat="45.48295" lon="4.54233">
        <ele>340.83294677734</ele>
        <time>2015-04-25T13:07:20Z</time>
      </trkpt>
      <trkpt lat="45.48294" lon="4.54243">
        <ele>340.86083984375</ele>
        <time>2015-04-25T13:07:22Z</time>
      </trkpt>
      <trkpt lat="45.483" lon="4.54252">
        <ele>340.45587158203</ele>
        <time>2015-04-25T13:07:24Z</time>
      </trkpt>
      <trkpt lat="45.48308" lon="4.5426">
        <ele>339.47735595703</ele>
        <time>2015-04-25T13:07:26Z</time>
      </trkpt>
      <trkpt lat="45.4831" lon="4.54269">
        <ele>338.72262573242</ele>
        <time>2015-04-25T13:07:28Z</time>
      </trkpt>
      <trkpt lat="45.48312" lon="4.54277">
        <ele>338.04000854492</ele>
        <time>2015-04-25T13:07:30Z</time>
      </trkpt>
      <trkpt lat="45.48314" lon="4.54286">
        <ele>337.35946655273</ele>
        <time>2015-04-25T13:07:32Z</time>
      </trkpt>
      <trkpt lat="45.48314" lon="4.54295">
        <ele>336.69918823242</ele>
        <time>2015-04-25T13:07:34Z</time>
      </trkpt>
      <trkpt lat="45.48316" lon="4.54304">
        <ele>336.0407409668</ele>
        <time>2015-04-25T13:07:36Z</time>
      </trkpt>
      <trkpt lat="45.48318" lon="4.54313">
        <ele>335.38583374023</ele>
        <time>2015-04-25T13:07:38Z</time>
      </trkpt>
      <trkpt lat="45.48321" lon="4.54322">
        <ele>334.75924682617</ele>
        <time>2015-04-25T13:07:40Z</time>
      </trkpt>
      <trkpt lat="45.48323" lon="4.54331">
        <ele>334.13342285156</ele>
        <time>2015-04-25T13:07:42Z</time>
      </trkpt>
      <trkpt lat="45.48325" lon="4.54341">
        <ele>333.58694458008</ele>
        <time>2015-04-25T13:07:44Z</time>
      </trkpt>
      <trkpt lat="45.48327" lon="4.54349">
        <ele>333.07290649414</ele>
        <time>2015-04-25T13:07:46Z</time>
      </trkpt>
      <trkpt lat="45.48329" lon="4.54359">
        <ele>332.49325561523</ele>
        <time>2015-04-25T13:07:48Z</time>
      </trkpt>
      <trkpt lat="45.48331" lon="4.54369">
        <ele>331.88595581055</ele>
        <time>2015-04-25T13:07:50Z</time>
      </trkpt>
      <trkpt lat="45.48333" lon="4.54378">
        <ele>331.33294677734</ele>
        <time>2015-04-25T13:07:52Z</time>
      </trkpt>
      <trkpt lat="45.48335" lon="4.54387">
        <ele>330.80822753906</ele>
        <time>2015-04-25T13:07:54Z</time>
      </trkpt>
      <trkpt lat="45.48336" lon="4.54401">
        <ele>329.97741699219</ele>
        <time>2015-04-25T13:07:57Z</time>
      </trkpt>
      <trkpt lat="45.48336" lon="4.54411">
        <ele>329.39147949219</ele>
        <time>2015-04-25T13:07:59Z</time>
      </trkpt>
      <trkpt lat="45.48337" lon="4.5442">
        <ele>329.03063964844</ele>
        <time>2015-04-25T13:08:01Z</time>
      </trkpt>
      <trkpt lat="45.48338" lon="4.54429">
        <ele>328.91418457031</ele>
        <time>2015-04-25T13:08:03Z</time>
      </trkpt>
      <trkpt lat="45.48339" lon="4.54439">
        <ele>328.77947998047</ele>
        <time>2015-04-25T13:08:05Z</time>
      </trkpt>
      <trkpt lat="45.48339" lon="4.54448">
        <ele>328.62915039062</ele>
        <time>2015-04-25T13:08:07Z</time>
      </trkpt>
      <trkpt lat="45.48341" lon="4.54458">
        <ele>328.46829223633</ele>
        <time>2015-04-25T13:08:09Z</time>
      </trkpt>
      <trkpt lat="45.48342" lon="4.54466">
        <ele>328.30297851562</ele>
        <time>2015-04-25T13:08:11Z</time>
      </trkpt>
      <trkpt lat="45.48345" lon="4.54474">
        <ele>328.10952758789</ele>
        <time>2015-04-25T13:08:13Z</time>
      </trkpt>
      <trkpt lat="45.48347" lon="4.54482">
        <ele>327.90817260742</ele>
        <time>2015-04-25T13:08:15Z</time>
      </trkpt>
      <trkpt lat="45.48349" lon="4.5449">
        <ele>327.65798950195</ele>
        <time>2015-04-25T13:08:17Z</time>
      </trkpt>
      <trkpt lat="45.48352" lon="4.54498">
        <ele>327.37118530273</ele>
        <time>2015-04-25T13:08:19Z</time>
      </trkpt>
      <trkpt lat="45.48356" lon="4.54506">
        <ele>327.40991210938</ele>
        <time>2015-04-25T13:08:21Z</time>
      </trkpt>
      <trkpt lat="45.48359" lon="4.54514">
        <ele>327.59381103516</ele>
        <time>2015-04-25T13:08:23Z</time>
      </trkpt>
      <trkpt lat="45.48362" lon="4.54521">
        <ele>327.71157836914</ele>
        <time>2015-04-25T13:08:25Z</time>
      </trkpt>
      <trkpt lat="45.48366" lon="4.54529">
        <ele>327.82369995117</ele>
        <time>2015-04-25T13:08:27Z</time>
      </trkpt>
      <trkpt lat="45.48369" lon="4.54537">
        <ele>327.92456054688</ele>
        <time>2015-04-25T13:08:29Z</time>
      </trkpt>
      <trkpt lat="45.48372" lon="4.54543">
        <ele>327.96942138672</ele>
        <time>2015-04-25T13:08:31Z</time>
      </trkpt>
      <trkpt lat="45.48375" lon="4.5455">
        <ele>328.03497314453</ele>
        <time>2015-04-25T13:08:33Z</time>
      </trkpt>
      <trkpt lat="45.48378" lon="4.54557">
        <ele>328.02838134766</ele>
        <time>2015-04-25T13:08:35Z</time>
      </trkpt>
      <trkpt lat="45.48381" lon="4.54564">
        <ele>328.02755737305</ele>
        <time>2015-04-25T13:08:37Z</time>
      </trkpt>
      <trkpt lat="45.48385" lon="4.5457">
        <ele>327.92684936523</ele>
        <time>2015-04-25T13:08:39Z</time>
      </trkpt>
      <trkpt lat="45.48388" lon="4.54577">
        <ele>327.89678955078</ele>
        <time>2015-04-25T13:08:41Z</time>
      </trkpt>
      <trkpt lat="45.48391" lon="4.54585">
        <ele>327.91619873047</ele>
        <time>2015-04-25T13:08:43Z</time>
      </trkpt>
      <trkpt lat="45.48393" lon="4.54593">
        <ele>328.05877685547</ele>
        <time>2015-04-25T13:08:45Z</time>
      </trkpt>
      <trkpt lat="45.48396" lon="4.54601">
        <ele>328.21850585938</ele>
        <time>2015-04-25T13:08:47Z</time>
      </trkpt>
      <trkpt lat="45.48398" lon="4.54608">
        <ele>328.31918334961</ele>
        <time>2015-04-25T13:08:49Z</time>
      </trkpt>
      <trkpt lat="45.484" lon="4.54615">
        <ele>328.41525268555</ele>
        <time>2015-04-25T13:08:51Z</time>
      </trkpt>
      <trkpt lat="45.48403" lon="4.54622">
        <ele>328.44747924805</ele>
        <time>2015-04-25T13:08:53Z</time>
      </trkpt>
      <trkpt lat="45.48405" lon="4.5463">
        <ele>328.60427856445</ele>
        <time>2015-04-25T13:08:55Z</time>
      </trkpt>
      <trkpt lat="45.48406" lon="4.54637">
        <ele>328.7721862793</ele>
        <time>2015-04-25T13:08:57Z</time>
      </trkpt>
      <trkpt lat="45.48408" lon="4.54645">
        <ele>328.89880371094</ele>
        <time>2015-04-25T13:08:59Z</time>
      </trkpt>
      <trkpt lat="45.4841" lon="4.54652">
        <ele>329.04721069336</ele>
        <time>2015-04-25T13:09:01Z</time>
      </trkpt>
      <trkpt lat="45.48412" lon="4.5466">
        <ele>329.17303466797</ele>
        <time>2015-04-25T13:09:03Z</time>
      </trkpt>
      <trkpt lat="45.48413" lon="4.54667">
        <ele>329.2785949707</ele>
        <time>2015-04-25T13:09:05Z</time>
      </trkpt>
      <trkpt lat="45.48415" lon="4.54674">
        <ele>329.63418579102</ele>
        <time>2015-04-25T13:09:07Z</time>
      </trkpt>
      <trkpt lat="45.48417" lon="4.54681">
        <ele>330.03179931641</ele>
        <time>2015-04-25T13:09:09Z</time>
      </trkpt>
      <trkpt lat="45.48419" lon="4.54689">
        <ele>330.44375610352</ele>
        <time>2015-04-25T13:09:11Z</time>
      </trkpt>
      <trkpt lat="45.48421" lon="4.54696">
        <ele>330.82049560547</ele>
        <time>2015-04-25T13:09:13Z</time>
      </trkpt>
      <trkpt lat="45.48423" lon="4.54703">
        <ele>331.19610595703</ele>
        <time>2015-04-25T13:09:15Z</time>
      </trkpt>
      <trkpt lat="45.48425" lon="4.54715">
        <ele>331.84823608398</ele>
        <time>2015-04-25T13:09:18Z</time>
      </trkpt>
      <trkpt lat="45.48426" lon="4.54722">
        <ele>332.22055053711</ele>
        <time>2015-04-25T13:09:20Z</time>
      </trkpt>
      <trkpt lat="45.48429" lon="4.54729">
        <ele>332.48452758789</ele>
        <time>2015-04-25T13:09:22Z</time>
      </trkpt>
      <trkpt lat="45.48432" lon="4.54735">
        <ele>332.72836303711</ele>
        <time>2015-04-25T13:09:24Z</time>
      </trkpt>
      <trkpt lat="45.48434" lon="4.54742">
        <ele>332.98348999023</ele>
        <time>2015-04-25T13:09:26Z</time>
      </trkpt>
      <trkpt lat="45.48436" lon="4.54748">
        <ele>333.2458190918</ele>
        <time>2015-04-25T13:09:28Z</time>
      </trkpt>
      <trkpt lat="45.48439" lon="4.54755">
        <ele>333.41073608398</ele>
        <time>2015-04-25T13:09:30Z</time>
      </trkpt>
      <trkpt lat="45.48441" lon="4.54762">
        <ele>333.60018920898</ele>
        <time>2015-04-25T13:09:32Z</time>
      </trkpt>
      <trkpt lat="45.48442" lon="4.54769">
        <ele>333.80078125</ele>
        <time>2015-04-25T13:09:34Z</time>
      </trkpt>
      <trkpt lat="45.48444" lon="4.54775">
        <ele>334.02835083008</ele>
        <time>2015-04-25T13:09:36Z</time>
      </trkpt>
      <trkpt lat="45.48446" lon="4.54782">
        <ele>334.23114013672</ele>
        <time>2015-04-25T13:09:38Z</time>
      </trkpt>
      <trkpt lat="45.48448" lon="4.54789">
        <ele>334.41278076172</ele>
        <time>2015-04-25T13:09:40Z</time>
      </trkpt>
      <trkpt lat="45.4845" lon="4.54796">
        <ele>334.62091064453</ele>
        <time>2015-04-25T13:09:42Z</time>
      </trkpt>
      <trkpt lat="45.48452" lon="4.54803">
        <ele>334.86447143555</ele>
        <time>2015-04-25T13:09:44Z</time>
      </trkpt>
      <trkpt lat="45.48454" lon="4.5481">
        <ele>335.08731079102</ele>
        <time>2015-04-25T13:09:46Z</time>
      </trkpt>
      <trkpt lat="45.48456" lon="4.54817">
        <ele>335.26232910156</ele>
        <time>2015-04-25T13:09:48Z</time>
      </trkpt>
      <trkpt lat="45.48458" lon="4.54824">
        <ele>335.46813964844</ele>
        <time>2015-04-25T13:09:50Z</time>
      </trkpt>
      <trkpt lat="45.48461" lon="4.54831">
        <ele>335.68725585938</ele>
        <time>2015-04-25T13:09:52Z</time>
      </trkpt>
      <trkpt lat="45.48462" lon="4.5484">
        <ele>335.68737792969</ele>
        <time>2015-04-25T13:09:54Z</time>
      </trkpt>
      <trkpt lat="45.48463" lon="4.54849">
        <ele>335.59887695312</ele>
        <time>2015-04-25T13:09:56Z</time>
      </trkpt>
      <trkpt lat="45.48464" lon="4.54857">
        <ele>335.49468994141</ele>
        <time>2015-04-25T13:09:58Z</time>
      </trkpt>
      <trkpt lat="45.48466" lon="4.54866">
        <ele>335.37728881836</ele>
        <time>2015-04-25T13:10:00Z</time>
      </trkpt>
      <trkpt lat="45.48467" lon="4.54874">
        <ele>335.29183959961</ele>
        <time>2015-04-25T13:10:02Z</time>
      </trkpt>
      <trkpt lat="45.48468" lon="4.54882">
        <ele>335.23376464844</ele>
        <time>2015-04-25T13:10:04Z</time>
      </trkpt>
      <trkpt lat="45.48468" lon="4.5489">
        <ele>335.18118286133</ele>
        <time>2015-04-25T13:10:06Z</time>
      </trkpt>
      <trkpt lat="45.48468" lon="4.54898">
        <ele>335.16842651367</ele>
        <time>2015-04-25T13:10:08Z</time>
      </trkpt>
      <trkpt lat="45.48468" lon="4.54907">
        <ele>335.16979980469</ele>
        <time>2015-04-25T13:10:10Z</time>
      </trkpt>
      <trkpt lat="45.48467" lon="4.54914">
        <ele>335.19873046875</ele>
        <time>2015-04-25T13:10:12Z</time>
      </trkpt>
      <trkpt lat="45.48464" lon="4.54921">
        <ele>335.28869628906</ele>
        <time>2015-04-25T13:10:14Z</time>
      </trkpt>
      <trkpt lat="45.48462" lon="4.54927">
        <ele>335.37109375</ele>
        <time>2015-04-25T13:10:16Z</time>
      </trkpt>
      <trkpt lat="45.4846" lon="4.54934">
        <ele>335.42602539062</ele>
        <time>2015-04-25T13:10:18Z</time>
      </trkpt>
      <trkpt lat="45.48459" lon="4.54941">
        <ele>335.46722412109</ele>
        <time>2015-04-25T13:10:20Z</time>
      </trkpt>
      <trkpt lat="45.48458" lon="4.54947">
        <ele>335.52215576172</ele>
        <time>2015-04-25T13:10:22Z</time>
      </trkpt>
      <trkpt lat="45.48455" lon="4.54951">
        <ele>335.60455322266</ele>
        <time>2015-04-25T13:10:24Z</time>
      </trkpt>
      <trkpt lat="45.48452" lon="4.54956">
        <ele>335.71441650391</ele>
        <time>2015-04-25T13:10:26Z</time>
      </trkpt>
      <trkpt lat="45.48449" lon="4.5496">
        <ele>335.82427978516</ele>
        <time>2015-04-25T13:10:28Z</time>
      </trkpt>
      <trkpt lat="45.48445" lon="4.54964">
        <ele>335.97534179688</ele>
        <time>2015-04-25T13:10:30Z</time>
      </trkpt>
      <trkpt lat="45.4844" lon="4.54969">
        <ele>336.15386962891</ele>
        <time>2015-04-25T13:10:32Z</time>
      </trkpt>
      <trkpt lat="45.48436" lon="4.54973">
        <ele>336.29119873047</ele>
        <time>2015-04-25T13:10:34Z</time>
      </trkpt>
      <trkpt lat="45.48431" lon="4.54976">
        <ele>336.4697265625</ele>
        <time>2015-04-25T13:10:36Z</time>
      </trkpt>
      <trkpt lat="45.48423" lon="4.54976">
        <ele>336.75811767578</ele>
        <time>2015-04-25T13:10:39Z</time>
      </trkpt>
      <trkpt lat="45.48418" lon="4.54976">
        <ele>336.93664550781</ele>
        <time>2015-04-25T13:10:41Z</time>
      </trkpt>
      <trkpt lat="45.48413" lon="4.54976">
        <ele>337.31326293945</ele>
        <time>2015-04-25T13:10:43Z</time>
      </trkpt>
      <trkpt lat="45.48408" lon="4.54975">
        <ele>337.78176879883</ele>
        <time>2015-04-25T13:10:45Z</time>
      </trkpt>
      <trkpt lat="45.48403" lon="4.54973">
        <ele>338.21948242188</ele>
        <time>2015-04-25T13:10:47Z</time>
      </trkpt>
      <trkpt lat="45.48398" lon="4.54971">
        <ele>338.62670898438</ele>
        <time>2015-04-25T13:10:49Z</time>
      </trkpt>
      <trkpt lat="45.48394" lon="4.54969">
        <ele>339.03790283203</ele>
        <time>2015-04-25T13:10:51Z</time>
      </trkpt>
      <trkpt lat="45.48389" lon="4.54967">
        <ele>339.45065307617</ele>
        <time>2015-04-25T13:10:53Z</time>
      </trkpt>
      <trkpt lat="45.48384" lon="4.54965">
        <ele>339.86773681641</ele>
        <time>2015-04-25T13:10:55Z</time>
      </trkpt>
      <trkpt lat="45.4838" lon="4.54963">
        <ele>340.32025146484</ele>
        <time>2015-04-25T13:10:57Z</time>
      </trkpt>
      <trkpt lat="45.48375" lon="4.5496">
        <ele>340.74655151367</ele>
        <time>2015-04-25T13:10:59Z</time>
      </trkpt>
      <trkpt lat="45.4837" lon="4.54957">
        <ele>341.17440795898</ele>
        <time>2015-04-25T13:11:01Z</time>
      </trkpt>
      <trkpt lat="45.48366" lon="4.54955">
        <ele>341.56796264648</ele>
        <time>2015-04-25T13:11:03Z</time>
      </trkpt>
      <trkpt lat="45.48362" lon="4.54952">
        <ele>342.00506591797</ele>
        <time>2015-04-25T13:11:05Z</time>
      </trkpt>
      <trkpt lat="45.48357" lon="4.54952">
        <ele>342.42596435547</ele>
        <time>2015-04-25T13:11:07Z</time>
      </trkpt>
      <trkpt lat="45.48352" lon="4.54951">
        <ele>342.91839599609</ele>
        <time>2015-04-25T13:11:09Z</time>
      </trkpt>
      <trkpt lat="45.48347" lon="4.54951">
        <ele>343.36996459961</ele>
        <time>2015-04-25T13:11:11Z</time>
      </trkpt>
      <trkpt lat="45.48341" lon="4.54952">
        <ele>343.84744262695</ele>
        <time>2015-04-25T13:11:13Z</time>
      </trkpt>
      <trkpt lat="45.48336" lon="4.54952">
        <ele>344.33422851562</ele>
        <time>2015-04-25T13:11:15Z</time>
      </trkpt>
      <trkpt lat="45.48331" lon="4.5495">
        <ele>344.75903320312</ele>
        <time>2015-04-25T13:11:17Z</time>
      </trkpt>
      <trkpt lat="45.48326" lon="4.54949">
        <ele>345.20108032227</ele>
        <time>2015-04-25T13:11:19Z</time>
      </trkpt>
      <trkpt lat="45.48322" lon="4.54948">
        <ele>345.650390625</ele>
        <time>2015-04-25T13:11:21Z</time>
      </trkpt>
      <trkpt lat="45.48317" lon="4.54947">
        <ele>346.06845092773</ele>
        <time>2015-04-25T13:11:23Z</time>
      </trkpt>
      <trkpt lat="45.48313" lon="4.54945">
        <ele>346.47076416016</ele>
        <time>2015-04-25T13:11:25Z</time>
      </trkpt>
      <trkpt lat="45.48308" lon="4.54942">
        <ele>346.92086791992</ele>
        <time>2015-04-25T13:11:27Z</time>
      </trkpt>
      <trkpt lat="45.48303" lon="4.54941">
        <ele>347.38098144531</ele>
        <time>2015-04-25T13:11:29Z</time>
      </trkpt>
      <trkpt lat="45.48298" lon="4.5494">
        <ele>347.85766601562</ele>
        <time>2015-04-25T13:11:31Z</time>
      </trkpt>
      <trkpt lat="45.48294" lon="4.54939">
        <ele>348.29467773438</ele>
        <time>2015-04-25T13:11:33Z</time>
      </trkpt>
      <trkpt lat="45.48289" lon="4.54936">
        <ele>348.75961303711</ele>
        <time>2015-04-25T13:11:35Z</time>
      </trkpt>
      <trkpt lat="45.48285" lon="4.54934">
        <ele>349.23403930664</ele>
        <time>2015-04-25T13:11:37Z</time>
      </trkpt>
      <trkpt lat="45.4828" lon="4.54932">
        <ele>349.6989440918</ele>
        <time>2015-04-25T13:11:39Z</time>
      </trkpt>
      <trkpt lat="45.48275" lon="4.54931">
        <ele>350.23187255859</ele>
        <time>2015-04-25T13:11:41Z</time>
      </trkpt>
      <trkpt lat="45.4827" lon="4.54929">
        <ele>350.67520141602</ele>
        <time>2015-04-25T13:11:43Z</time>
      </trkpt>
      <trkpt lat="45.48266" lon="4.54927">
        <ele>351.15414428711</ele>
        <time>2015-04-25T13:11:45Z</time>
      </trkpt>
      <trkpt lat="45.48261" lon="4.54925">
        <ele>351.65179443359</ele>
        <time>2015-04-25T13:11:47Z</time>
      </trkpt>
      <trkpt lat="45.48257" lon="4.54923">
        <ele>352.10632324219</ele>
        <time>2015-04-25T13:11:49Z</time>
      </trkpt>
      <trkpt lat="45.48253" lon="4.54921">
        <ele>352.58200073242</ele>
        <time>2015-04-25T13:11:51Z</time>
      </trkpt>
      <trkpt lat="45.48249" lon="4.54918">
        <ele>353.07070922852</ele>
        <time>2015-04-25T13:11:53Z</time>
      </trkpt>
      <trkpt lat="45.48245" lon="4.54916">
        <ele>353.73080444336</ele>
        <time>2015-04-25T13:11:55Z</time>
      </trkpt>
      <trkpt lat="45.48241" lon="4.54914">
        <ele>354.21377563477</ele>
        <time>2015-04-25T13:11:57Z</time>
      </trkpt>
      <trkpt lat="45.48237" lon="4.54912">
        <ele>354.75891113281</ele>
        <time>2015-04-25T13:11:59Z</time>
      </trkpt>
      <trkpt lat="45.48232" lon="4.5491">
        <ele>355.34506225586</ele>
        <time>2015-04-25T13:12:01Z</time>
      </trkpt>
      <trkpt lat="45.48227" lon="4.54908">
        <ele>356.00820922852</ele>
        <time>2015-04-25T13:12:03Z</time>
      </trkpt>
      <trkpt lat="45.48222" lon="4.54907">
        <ele>356.68276977539</ele>
        <time>2015-04-25T13:12:05Z</time>
      </trkpt>
      <trkpt lat="45.48217" lon="4.54908">
        <ele>357.50735473633</ele>
        <time>2015-04-25T13:12:07Z</time>
      </trkpt>
      <trkpt lat="45.48212" lon="4.54907">
        <ele>358.12652587891</ele>
        <time>2015-04-25T13:12:09Z</time>
      </trkpt>
      <trkpt lat="45.48208" lon="4.54906">
        <ele>358.66567993164</ele>
        <time>2015-04-25T13:12:11Z</time>
      </trkpt>
      <trkpt lat="45.48204" lon="4.54904">
        <ele>359.19946289062</ele>
        <time>2015-04-25T13:12:13Z</time>
      </trkpt>
      <trkpt lat="45.482" lon="4.54901">
        <ele>359.63217163086</ele>
        <time>2015-04-25T13:12:15Z</time>
      </trkpt>
      <trkpt lat="45.48195" lon="4.54899">
        <ele>360.18768310547</ele>
        <time>2015-04-25T13:12:17Z</time>
      </trkpt>
      <trkpt lat="45.48191" lon="4.54897">
        <ele>360.66729736328</ele>
        <time>2015-04-25T13:12:19Z</time>
      </trkpt>
      <trkpt lat="45.48187" lon="4.54894">
        <ele>361.12069702148</ele>
        <time>2015-04-25T13:12:21Z</time>
      </trkpt>
      <trkpt lat="45.48183" lon="4.54892">
        <ele>361.61026000977</ele>
        <time>2015-04-25T13:12:23Z</time>
      </trkpt>
      <trkpt lat="45.48179" lon="4.54889">
        <ele>362.01333618164</ele>
        <time>2015-04-25T13:12:25Z</time>
      </trkpt>
      <trkpt lat="45.48175" lon="4.54886">
        <ele>362.4599609375</ele>
        <time>2015-04-25T13:12:27Z</time>
      </trkpt>
      <trkpt lat="45.4817" lon="4.54885">
        <ele>362.95370483398</ele>
        <time>2015-04-25T13:12:29Z</time>
      </trkpt>
      <trkpt lat="45.48167" lon="4.54882">
        <ele>363.33712768555</ele>
        <time>2015-04-25T13:12:31Z</time>
      </trkpt>
      <trkpt lat="45.48162" lon="4.54881">
        <ele>363.69082641602</ele>
        <time>2015-04-25T13:12:33Z</time>
      </trkpt>
      <trkpt lat="45.48159" lon="4.54879">
        <ele>363.99649047852</ele>
        <time>2015-04-25T13:12:35Z</time>
      </trkpt>
      <trkpt lat="45.48154" lon="4.54878">
        <ele>364.37149047852</ele>
        <time>2015-04-25T13:12:37Z</time>
      </trkpt>
      <trkpt lat="45.48151" lon="4.54876">
        <ele>364.68936157227</ele>
        <time>2015-04-25T13:12:39Z</time>
      </trkpt>
      <trkpt lat="45.48147" lon="4.54875">
        <ele>365.01541137695</ele>
        <time>2015-04-25T13:12:41Z</time>
      </trkpt>
      <trkpt lat="45.48143" lon="4.54874">
        <ele>365.38619995117</ele>
        <time>2015-04-25T13:12:43Z</time>
      </trkpt>
      <trkpt lat="45.48139" lon="4.54873">
        <ele>365.74462890625</ele>
        <time>2015-04-25T13:12:45Z</time>
      </trkpt>
      <trkpt lat="45.48135" lon="4.54872">
        <ele>366.05236816406</ele>
        <time>2015-04-25T13:12:47Z</time>
      </trkpt>
      <trkpt lat="45.48131" lon="4.54872">
        <ele>366.49865722656</ele>
        <time>2015-04-25T13:12:49Z</time>
      </trkpt>
      <trkpt lat="45.48128" lon="4.54872">
        <ele>366.83407592773</ele>
        <time>2015-04-25T13:12:51Z</time>
      </trkpt>
      <trkpt lat="45.48124" lon="4.54872">
        <ele>367.24090576172</ele>
        <time>2015-04-25T13:12:53Z</time>
      </trkpt>
      <trkpt lat="45.4812" lon="4.54873">
        <ele>367.69616699219</ele>
        <time>2015-04-25T13:12:55Z</time>
      </trkpt>
      <trkpt lat="45.48116" lon="4.54874">
        <ele>368.11560058594</ele>
        <time>2015-04-25T13:12:57Z</time>
      </trkpt>
      <trkpt lat="45.48111" lon="4.54873">
        <ele>368.64053344727</ele>
        <time>2015-04-25T13:13:00Z</time>
      </trkpt>
      <trkpt lat="45.48107" lon="4.54872">
        <ele>368.95223999023</ele>
        <time>2015-04-25T13:13:02Z</time>
      </trkpt>
      <trkpt lat="45.48103" lon="4.54871">
        <ele>369.30404663086</ele>
        <time>2015-04-25T13:13:04Z</time>
      </trkpt>
      <trkpt lat="45.48098" lon="4.54872">
        <ele>369.9182434082</ele>
        <time>2015-04-25T13:13:07Z</time>
      </trkpt>
      <trkpt lat="45.48094" lon="4.54872">
        <ele>370.27005004883</ele>
        <time>2015-04-25T13:13:09Z</time>
      </trkpt>
      <trkpt lat="45.4809" lon="4.54872">
        <ele>370.68389892578</ele>
        <time>2015-04-25T13:13:11Z</time>
      </trkpt>
      <trkpt lat="45.48086" lon="4.54873">
        <ele>371.14999389648</ele>
        <time>2015-04-25T13:13:13Z</time>
      </trkpt>
      <trkpt lat="45.48082" lon="4.54874">
        <ele>371.5705871582</ele>
        <time>2015-04-25T13:13:15Z</time>
      </trkpt>
      <trkpt lat="45.48078" lon="4.54875">
        <ele>371.89395141602</ele>
        <time>2015-04-25T13:13:17Z</time>
      </trkpt>
      <trkpt lat="45.48074" lon="4.54876">
        <ele>372.26901245117</ele>
        <time>2015-04-25T13:13:19Z</time>
      </trkpt>
      <trkpt lat="45.4807" lon="4.54878">
        <ele>372.64877319336</ele>
        <time>2015-04-25T13:13:21Z</time>
      </trkpt>
      <trkpt lat="45.48066" lon="4.54879">
        <ele>372.9563293457</ele>
        <time>2015-04-25T13:13:23Z</time>
      </trkpt>
      <trkpt lat="45.48062" lon="4.54879">
        <ele>373.27725219727</ele>
        <time>2015-04-25T13:13:25Z</time>
      </trkpt>
      <trkpt lat="45.48058" lon="4.54879">
        <ele>373.54702758789</ele>
        <time>2015-04-25T13:13:27Z</time>
      </trkpt>
      <trkpt lat="45.48054" lon="4.5488">
        <ele>373.89529418945</ele>
        <time>2015-04-25T13:13:29Z</time>
      </trkpt>
      <trkpt lat="45.4805" lon="4.54881">
        <ele>374.21051025391</ele>
        <time>2015-04-25T13:13:31Z</time>
      </trkpt>
      <trkpt lat="45.48046" lon="4.54883">
        <ele>374.58547973633</ele>
        <time>2015-04-25T13:13:33Z</time>
      </trkpt>
      <trkpt lat="45.48041" lon="4.54884">
        <ele>374.95861816406</ele>
        <time>2015-04-25T13:13:35Z</time>
      </trkpt>
      <trkpt lat="45.48038" lon="4.54886">
        <ele>375.23257446289</ele>
        <time>2015-04-25T13:13:37Z</time>
      </trkpt>
      <trkpt lat="45.48034" lon="4.54887">
        <ele>375.52709960938</ele>
        <time>2015-04-25T13:13:39Z</time>
      </trkpt>
      <trkpt lat="45.4803" lon="4.54888">
        <ele>375.79196166992</ele>
        <time>2015-04-25T13:13:41Z</time>
      </trkpt>
      <trkpt lat="45.48026" lon="4.54889">
        <ele>376.14019775391</ele>
        <time>2015-04-25T13:13:43Z</time>
      </trkpt>
      <trkpt lat="45.48021" lon="4.5489">
        <ele>376.47994995117</ele>
        <time>2015-04-25T13:13:45Z</time>
      </trkpt>
      <trkpt lat="45.48017" lon="4.54892">
        <ele>376.78869628906</ele>
        <time>2015-04-25T13:13:47Z</time>
      </trkpt>
      <trkpt lat="45.48014" lon="4.54892">
        <ele>377.03161621094</ele>
        <time>2015-04-25T13:13:49Z</time>
      </trkpt>
      <trkpt lat="45.48009" lon="4.54892">
        <ele>377.35830688477</ele>
        <time>2015-04-25T13:13:51Z</time>
      </trkpt>
      <trkpt lat="45.48005" lon="4.54894">
        <ele>377.65713500977</ele>
        <time>2015-04-25T13:13:53Z</time>
      </trkpt>
      <trkpt lat="45.48001" lon="4.54895">
        <ele>377.92364501953</ele>
        <time>2015-04-25T13:13:55Z</time>
      </trkpt>
      <trkpt lat="45.47997" lon="4.54896">
        <ele>378.13037109375</ele>
        <time>2015-04-25T13:13:57Z</time>
      </trkpt>
      <trkpt lat="45.47993" lon="4.54896">
        <ele>378.33178710938</ele>
        <time>2015-04-25T13:13:59Z</time>
      </trkpt>
      <trkpt lat="45.47989" lon="4.54898">
        <ele>378.51489257812</ele>
        <time>2015-04-25T13:14:01Z</time>
      </trkpt>
      <trkpt lat="45.47985" lon="4.54899">
        <ele>378.71630859375</ele>
        <time>2015-04-25T13:14:03Z</time>
      </trkpt>
      <trkpt lat="45.4798" lon="4.549">
        <ele>378.93603515625</ele>
        <time>2015-04-25T13:14:05Z</time>
      </trkpt>
      <trkpt lat="45.47976" lon="4.549">
        <ele>379.15576171875</ele>
        <time>2015-04-25T13:14:07Z</time>
      </trkpt>
      <trkpt lat="45.47971" lon="4.549">
        <ele>379.37548828125</ele>
        <time>2015-04-25T13:14:09Z</time>
      </trkpt>
      <trkpt lat="45.47967" lon="4.54903">
        <ele>379.57690429688</ele>
        <time>2015-04-25T13:14:11Z</time>
      </trkpt>
      <trkpt lat="45.47963" lon="4.54907">
        <ele>379.76000976562</ele>
        <time>2015-04-25T13:14:13Z</time>
      </trkpt>
      <trkpt lat="45.4796" lon="4.5491">
        <ele>379.94311523438</ele>
        <time>2015-04-25T13:14:15Z</time>
      </trkpt>
      <trkpt lat="45.47956" lon="4.54913">
        <ele>380.10791015625</ele>
        <time>2015-04-25T13:14:17Z</time>
      </trkpt>
      <trkpt lat="45.47952" lon="4.54916">
        <ele>380.291015625</ele>
        <time>2015-04-25T13:14:19Z</time>
      </trkpt>
      <trkpt lat="45.47948" lon="4.5492">
        <ele>380.36972045898</ele>
        <time>2015-04-25T13:14:21Z</time>
      </trkpt>
      <trkpt lat="45.47945" lon="4.54923">
        <ele>380.44100952148</ele>
        <time>2015-04-25T13:14:23Z</time>
      </trkpt>
      <trkpt lat="45.47941" lon="4.54927">
        <ele>380.48568725586</ele>
        <time>2015-04-25T13:14:25Z</time>
      </trkpt>
      <trkpt lat="45.47938" lon="4.54932">
        <ele>380.51214599609</ele>
        <time>2015-04-25T13:14:27Z</time>
      </trkpt>
      <trkpt lat="45.47934" lon="4.54935">
        <ele>380.61196899414</ele>
        <time>2015-04-25T13:14:29Z</time>
      </trkpt>
      <trkpt lat="45.47931" lon="4.54939">
        <ele>380.71536254883</ele>
        <time>2015-04-25T13:14:31Z</time>
      </trkpt>
      <trkpt lat="45.47927" lon="4.54942">
        <ele>380.81060791016</ele>
        <time>2015-04-25T13:14:33Z</time>
      </trkpt>
      <trkpt lat="45.47924" lon="4.54946">
        <ele>380.90139770508</ele>
        <time>2015-04-25T13:14:35Z</time>
      </trkpt>
      <trkpt lat="45.4792" lon="4.5495">
        <ele>381.01693725586</ele>
        <time>2015-04-25T13:14:37Z</time>
      </trkpt>
      <trkpt lat="45.47916" lon="4.54954">
        <ele>381.1315612793</ele>
        <time>2015-04-25T13:14:39Z</time>
      </trkpt>
      <trkpt lat="45.47911" lon="4.54957">
        <ele>381.14419555664</ele>
        <time>2015-04-25T13:14:41Z</time>
      </trkpt>
      <trkpt lat="45.47907" lon="4.54962">
        <ele>381.16204833984</ele>
        <time>2015-04-25T13:14:43Z</time>
      </trkpt>
      <trkpt lat="45.47903" lon="4.54967">
        <ele>381.16217041016</ele>
        <time>2015-04-25T13:14:45Z</time>
      </trkpt>
      <trkpt lat="45.47898" lon="4.54972">
        <ele>381.20693969727</ele>
        <time>2015-04-25T13:14:47Z</time>
      </trkpt>
      <trkpt lat="45.47893" lon="4.54976">
        <ele>381.25720214844</ele>
        <time>2015-04-25T13:14:49Z</time>
      </trkpt>
      <trkpt lat="45.47888" lon="4.54981">
        <ele>381.32562255859</ele>
        <time>2015-04-25T13:14:51Z</time>
      </trkpt>
      <trkpt lat="45.47884" lon="4.54985">
        <ele>381.39111328125</ele>
        <time>2015-04-25T13:14:53Z</time>
      </trkpt>
      <trkpt lat="45.47879" lon="4.54991">
        <ele>381.47711181641</ele>
        <time>2015-04-25T13:14:55Z</time>
      </trkpt>
      <trkpt lat="45.47874" lon="4.54995">
        <ele>381.5788269043</ele>
        <time>2015-04-25T13:14:57Z</time>
      </trkpt>
      <trkpt lat="45.4787" lon="4.54999">
        <ele>381.68127441406</ele>
        <time>2015-04-25T13:14:59Z</time>
      </trkpt>
      <trkpt lat="45.47866" lon="4.55003">
        <ele>381.7067565918</ele>
        <time>2015-04-25T13:15:01Z</time>
      </trkpt>
      <trkpt lat="45.47861" lon="4.55007">
        <ele>381.71170043945</ele>
        <time>2015-04-25T13:15:03Z</time>
      </trkpt>
      <trkpt lat="45.47857" lon="4.55012">
        <ele>381.72808837891</ele>
        <time>2015-04-25T13:15:05Z</time>
      </trkpt>
      <trkpt lat="45.47852" lon="4.55015">
        <ele>381.78582763672</ele>
        <time>2015-04-25T13:15:07Z</time>
      </trkpt>
      <trkpt lat="45.47848" lon="4.5502">
        <ele>381.84429931641</ele>
        <time>2015-04-25T13:15:09Z</time>
      </trkpt>
      <trkpt lat="45.47844" lon="4.55024">
        <ele>381.9147644043</ele>
        <time>2015-04-25T13:15:11Z</time>
      </trkpt>
      <trkpt lat="45.47839" lon="4.55028">
        <ele>382.00857543945</ele>
        <time>2015-04-25T13:15:13Z</time>
      </trkpt>
      <trkpt lat="45.47835" lon="4.55032">
        <ele>382.14825439453</ele>
        <time>2015-04-25T13:15:15Z</time>
      </trkpt>
      <trkpt lat="45.4783" lon="4.55036">
        <ele>382.29705810547</ele>
        <time>2015-04-25T13:15:17Z</time>
      </trkpt>
      <trkpt lat="45.47826" lon="4.5504">
        <ele>382.46115112305</ele>
        <time>2015-04-25T13:15:19Z</time>
      </trkpt>
      <trkpt lat="45.47821" lon="4.55043">
        <ele>382.66864013672</ele>
        <time>2015-04-25T13:15:21Z</time>
      </trkpt>
      <trkpt lat="45.47816" lon="4.55045">
        <ele>382.89370727539</ele>
        <time>2015-04-25T13:15:23Z</time>
      </trkpt>
      <trkpt lat="45.47811" lon="4.55047">
        <ele>383.14126586914</ele>
        <time>2015-04-25T13:15:25Z</time>
      </trkpt>
      <trkpt lat="45.47806" lon="4.55048">
        <ele>383.41104125977</ele>
        <time>2015-04-25T13:15:27Z</time>
      </trkpt>
      <trkpt lat="45.47801" lon="4.55048">
        <ele>383.6923828125</ele>
        <time>2015-04-25T13:15:29Z</time>
      </trkpt>
      <trkpt lat="45.47796" lon="4.55048">
        <ele>383.95208740234</ele>
        <time>2015-04-25T13:15:31Z</time>
      </trkpt>
      <trkpt lat="45.47792" lon="4.55048">
        <ele>384.19131469727</ele>
        <time>2015-04-25T13:15:33Z</time>
      </trkpt>
      <trkpt lat="45.47788" lon="4.55048">
        <ele>384.43026733398</ele>
        <time>2015-04-25T13:15:35Z</time>
      </trkpt>
      <trkpt lat="45.47783" lon="4.55048">
        <ele>384.68856811523</ele>
        <time>2015-04-25T13:15:37Z</time>
      </trkpt>
      <trkpt lat="45.47778" lon="4.55048">
        <ele>385.01251220703</ele>
        <time>2015-04-25T13:15:39Z</time>
      </trkpt>
      <trkpt lat="45.47773" lon="4.55048">
        <ele>385.27178955078</ele>
        <time>2015-04-25T13:15:41Z</time>
      </trkpt>
      <trkpt lat="45.47768" lon="4.55048">
        <ele>385.57662963867</ele>
        <time>2015-04-25T13:15:43Z</time>
      </trkpt>
      <trkpt lat="45.4776" lon="4.55049">
        <ele>386.01568603516</ele>
        <time>2015-04-25T13:15:46Z</time>
      </trkpt>
      <trkpt lat="45.47754" lon="4.55049">
        <ele>386.34085083008</ele>
        <time>2015-04-25T13:15:48Z</time>
      </trkpt>
      <trkpt lat="45.47748" lon="4.5505">
        <ele>386.60946655273</ele>
        <time>2015-04-25T13:15:50Z</time>
      </trkpt>
      <trkpt lat="45.47743" lon="4.5505">
        <ele>386.64767456055</ele>
        <time>2015-04-25T13:15:52Z</time>
      </trkpt>
      <trkpt lat="45.47737" lon="4.55051">
        <ele>386.70648193359</ele>
        <time>2015-04-25T13:15:54Z</time>
      </trkpt>
      <trkpt lat="45.47732" lon="4.55051">
        <ele>386.74847412109</ele>
        <time>2015-04-25T13:15:56Z</time>
      </trkpt>
      <trkpt lat="45.47727" lon="4.55053">
        <ele>386.80551147461</ele>
        <time>2015-04-25T13:15:58Z</time>
      </trkpt>
      <trkpt lat="45.47721" lon="4.55053">
        <ele>386.85940551758</ele>
        <time>2015-04-25T13:16:00Z</time>
      </trkpt>
      <trkpt lat="45.47715" lon="4.55052">
        <ele>386.88562011719</ele>
        <time>2015-04-25T13:16:02Z</time>
      </trkpt>
      <trkpt lat="45.47709" lon="4.55052">
        <ele>386.93225097656</ele>
        <time>2015-04-25T13:16:04Z</time>
      </trkpt>
      <trkpt lat="45.47704" lon="4.55052">
        <ele>386.9723815918</ele>
        <time>2015-04-25T13:16:06Z</time>
      </trkpt>
      <trkpt lat="45.47698" lon="4.55053">
        <ele>387.03115844727</ele>
        <time>2015-04-25T13:16:08Z</time>
      </trkpt>
      <trkpt lat="45.47693" lon="4.55053">
        <ele>387.07769775391</ele>
        <time>2015-04-25T13:16:10Z</time>
      </trkpt>
      <trkpt lat="45.47688" lon="4.55053">
        <ele>387.1086730957</ele>
        <time>2015-04-25T13:16:12Z</time>
      </trkpt>
      <trkpt lat="45.47682" lon="4.55053">
        <ele>387.15966796875</ele>
        <time>2015-04-25T13:16:14Z</time>
      </trkpt>
      <trkpt lat="45.47677" lon="4.55056">
        <ele>387.25112915039</ele>
        <time>2015-04-25T13:16:16Z</time>
      </trkpt>
      <trkpt lat="45.47671" lon="4.55058">
        <ele>387.3659362793</ele>
        <time>2015-04-25T13:16:18Z</time>
      </trkpt>
      <trkpt lat="45.47665" lon="4.55061">
        <ele>387.58499145508</ele>
        <time>2015-04-25T13:16:20Z</time>
      </trkpt>
      <trkpt lat="45.4766" lon="4.55065">
        <ele>388.10821533203</ele>
        <time>2015-04-25T13:16:22Z</time>
      </trkpt>
      <trkpt lat="45.47656" lon="4.55067">
        <ele>388.54232788086</ele>
        <time>2015-04-25T13:16:24Z</time>
      </trkpt>
      <trkpt lat="45.47652" lon="4.5507">
        <ele>388.96395874023</ele>
        <time>2015-04-25T13:16:26Z</time>
      </trkpt>
      <trkpt lat="45.47648" lon="4.55072">
        <ele>389.33023071289</ele>
        <time>2015-04-25T13:16:28Z</time>
      </trkpt>
      <trkpt lat="45.47644" lon="4.55075">
        <ele>389.74597167969</ele>
        <time>2015-04-25T13:16:30Z</time>
      </trkpt>
      <trkpt lat="45.4764" lon="4.55078">
        <ele>390.13705444336</ele>
        <time>2015-04-25T13:16:32Z</time>
      </trkpt>
      <trkpt lat="45.47636" lon="4.55083">
        <ele>390.56372070312</ele>
        <time>2015-04-25T13:16:34Z</time>
      </trkpt>
      <trkpt lat="45.47633" lon="4.55086">
        <ele>390.75897216797</ele>
        <time>2015-04-25T13:16:36Z</time>
      </trkpt>
      <trkpt lat="45.4763" lon="4.5509">
        <ele>390.95349121094</ele>
        <time>2015-04-25T13:16:38Z</time>
      </trkpt>
      <trkpt lat="45.47627" lon="4.55094">
        <ele>391.09313964844</ele>
        <time>2015-04-25T13:16:40Z</time>
      </trkpt>
      <trkpt lat="45.47623" lon="4.55097">
        <ele>391.32772827148</ele>
        <time>2015-04-25T13:16:42Z</time>
      </trkpt>
      <trkpt lat="45.47619" lon="4.551">
        <ele>391.603515625</ele>
        <time>2015-04-25T13:16:44Z</time>
      </trkpt>
      <trkpt lat="45.47614" lon="4.55102">
        <ele>391.97204589844</ele>
        <time>2015-04-25T13:16:46Z</time>
      </trkpt>
      <trkpt lat="45.47609" lon="4.55103">
        <ele>392.33709716797</ele>
        <time>2015-04-25T13:16:48Z</time>
      </trkpt>
      <trkpt lat="45.47606" lon="4.55105">
        <ele>392.55224609375</ele>
        <time>2015-04-25T13:16:50Z</time>
      </trkpt>
      <trkpt lat="45.47604" lon="4.5511">
        <ele>392.59802246094</ele>
        <time>2015-04-25T13:16:52Z</time>
      </trkpt>
      <trkpt lat="45.47604" lon="4.55119">
        <ele>392.369140625</ele>
        <time>2015-04-25T13:16:54Z</time>
      </trkpt>
      <trkpt lat="45.47604" lon="4.55128">
        <ele>392.18603515625</ele>
        <time>2015-04-25T13:16:56Z</time>
      </trkpt>
      <trkpt lat="45.47604" lon="4.55136">
        <ele>391.99606323242</ele>
        <time>2015-04-25T13:16:58Z</time>
      </trkpt>
      <trkpt lat="45.47604" lon="4.55143">
        <ele>391.83239746094</ele>
        <time>2015-04-25T13:17:00Z</time>
      </trkpt>
      <trkpt lat="45.47603" lon="4.55151">
        <ele>391.73284912109</ele>
        <time>2015-04-25T13:17:02Z</time>
      </trkpt>
      <trkpt lat="45.47601" lon="4.55158">
        <ele>391.69049072266</ele>
        <time>2015-04-25T13:17:04Z</time>
      </trkpt>
      <trkpt lat="45.47599" lon="4.55166">
        <ele>391.70422363281</ele>
        <time>2015-04-25T13:17:06Z</time>
      </trkpt>
      <trkpt lat="45.47597" lon="4.55172">
        <ele>391.86254882812</ele>
        <time>2015-04-25T13:17:08Z</time>
      </trkpt>
      <trkpt lat="45.47596" lon="4.55181">
        <ele>391.94546508789</ele>
        <time>2015-04-25T13:17:10Z</time>
      </trkpt>
      <trkpt lat="45.47594" lon="4.55188">
        <ele>392.09875488281</ele>
        <time>2015-04-25T13:17:12Z</time>
      </trkpt>
      <trkpt lat="45.47592" lon="4.55195">
        <ele>392.22253417969</ele>
        <time>2015-04-25T13:17:14Z</time>
      </trkpt>
      <trkpt lat="45.4759" lon="4.55203">
        <ele>392.38256835938</ele>
        <time>2015-04-25T13:17:16Z</time>
      </trkpt>
      <trkpt lat="45.47589" lon="4.55209">
        <ele>392.4446105957</ele>
        <time>2015-04-25T13:17:18Z</time>
      </trkpt>
      <trkpt lat="45.47589" lon="4.55217">
        <ele>392.50796508789</ele>
        <time>2015-04-25T13:17:20Z</time>
      </trkpt>
      <trkpt lat="45.47587" lon="4.55224">
        <ele>392.67825317383</ele>
        <time>2015-04-25T13:17:22Z</time>
      </trkpt>
      <trkpt lat="45.47584" lon="4.5523">
        <ele>392.92370605469</ele>
        <time>2015-04-25T13:17:24Z</time>
      </trkpt>
      <trkpt lat="45.47582" lon="4.55238">
        <ele>393.08221435547</ele>
        <time>2015-04-25T13:17:26Z</time>
      </trkpt>
      <trkpt lat="45.4758" lon="4.55246">
        <ele>393.24737548828</ele>
        <time>2015-04-25T13:17:28Z</time>
      </trkpt>
      <trkpt lat="45.47578" lon="4.55253">
        <ele>393.333984375</ele>
        <time>2015-04-25T13:17:30Z</time>
      </trkpt>
      <trkpt lat="45.47575" lon="4.5526">
        <ele>393.37054443359</ele>
        <time>2015-04-25T13:17:32Z</time>
      </trkpt>
      <trkpt lat="45.47572" lon="4.55267">
        <ele>393.40322875977</ele>
        <time>2015-04-25T13:17:34Z</time>
      </trkpt>
      <trkpt lat="45.47569" lon="4.55275">
        <ele>393.39611816406</ele>
        <time>2015-04-25T13:17:36Z</time>
      </trkpt>
      <trkpt lat="45.47566" lon="4.55282">
        <ele>393.39337158203</ele>
        <time>2015-04-25T13:17:38Z</time>
      </trkpt>
      <trkpt lat="45.47563" lon="4.55288">
        <ele>393.44622802734</ele>
        <time>2015-04-25T13:17:40Z</time>
      </trkpt>
      <trkpt lat="45.4756" lon="4.55295">
        <ele>393.46621704102</ele>
        <time>2015-04-25T13:17:42Z</time>
      </trkpt>
      <trkpt lat="45.47557" lon="4.55302">
        <ele>393.4596862793</ele>
        <time>2015-04-25T13:17:44Z</time>
      </trkpt>
      <trkpt lat="45.47554" lon="4.55308">
        <ele>393.48992919922</ele>
        <time>2015-04-25T13:17:46Z</time>
      </trkpt>
      <trkpt lat="45.47551" lon="4.55315">
        <ele>393.49783325195</ele>
        <time>2015-04-25T13:17:48Z</time>
      </trkpt>
      <trkpt lat="45.47547" lon="4.55321">
        <ele>393.53750610352</ele>
        <time>2015-04-25T13:17:50Z</time>
      </trkpt>
      <trkpt lat="45.47544" lon="4.55327">
        <ele>393.53240966797</ele>
        <time>2015-04-25T13:17:52Z</time>
      </trkpt>
      <trkpt lat="45.47541" lon="4.55333">
        <ele>393.56457519531</ele>
        <time>2015-04-25T13:17:54Z</time>
      </trkpt>
      <trkpt lat="45.47538" lon="4.55339">
        <ele>393.9690246582</ele>
        <time>2015-04-25T13:17:56Z</time>
      </trkpt>
      <trkpt lat="45.47535" lon="4.55345">
        <ele>394.30313110352</ele>
        <time>2015-04-25T13:17:58Z</time>
      </trkpt>
      <trkpt lat="45.47532" lon="4.55352">
        <ele>394.66070556641</ele>
        <time>2015-04-25T13:18:00Z</time>
      </trkpt>
      <trkpt lat="45.47529" lon="4.55358">
        <ele>394.96713256836</ele>
        <time>2015-04-25T13:18:02Z</time>
      </trkpt>
      <trkpt lat="45.47527" lon="4.55363">
        <ele>395.20571899414</ele>
        <time>2015-04-25T13:18:04Z</time>
      </trkpt>
      <trkpt lat="45.47523" lon="4.55368">
        <ele>395.42730712891</ele>
        <time>2015-04-25T13:18:06Z</time>
      </trkpt>
      <trkpt lat="45.4752" lon="4.55373">
        <ele>395.61169433594</ele>
        <time>2015-04-25T13:18:08Z</time>
      </trkpt>
      <trkpt lat="45.47516" lon="4.55378">
        <ele>395.75207519531</ele>
        <time>2015-04-25T13:18:10Z</time>
      </trkpt>
      <trkpt lat="45.47512" lon="4.55382">
        <ele>395.86407470703</ele>
        <time>2015-04-25T13:18:12Z</time>
      </trkpt>
      <trkpt lat="45.47508" lon="4.55386">
        <ele>395.94583129883</ele>
        <time>2015-04-25T13:18:14Z</time>
      </trkpt>
      <trkpt lat="45.47503" lon="4.5539">
        <ele>395.99328613281</ele>
        <time>2015-04-25T13:18:16Z</time>
      </trkpt>
      <trkpt lat="45.47497" lon="4.55394">
        <ele>396.21267700195</ele>
        <time>2015-04-25T13:18:18Z</time>
      </trkpt>
      <trkpt lat="45.47491" lon="4.55396">
        <ele>396.64068603516</ele>
        <time>2015-04-25T13:18:20Z</time>
      </trkpt>
      <trkpt lat="45.47486" lon="4.55397">
        <ele>397.04006958008</ele>
        <time>2015-04-25T13:18:22Z</time>
      </trkpt>
      <trkpt lat="45.47481" lon="4.55397">
        <ele>397.41073608398</ele>
        <time>2015-04-25T13:18:24Z</time>
      </trkpt>
      <trkpt lat="45.47477" lon="4.55395">
        <ele>397.73007202148</ele>
        <time>2015-04-25T13:18:26Z</time>
      </trkpt>
      <trkpt lat="45.47473" lon="4.55392">
        <ele>398.02981567383</ele>
        <time>2015-04-25T13:18:28Z</time>
      </trkpt>
      <trkpt lat="45.47469" lon="4.55388">
        <ele>398.33267211914</ele>
        <time>2015-04-25T13:18:30Z</time>
      </trkpt>
      <trkpt lat="45.47466" lon="4.55385">
        <ele>398.64172363281</ele>
        <time>2015-04-25T13:18:32Z</time>
      </trkpt>
      <trkpt lat="45.47462" lon="4.55381">
        <ele>398.92660522461</ele>
        <time>2015-04-25T13:18:34Z</time>
      </trkpt>
      <trkpt lat="45.47458" lon="4.55376">
        <ele>399.2502746582</ele>
        <time>2015-04-25T13:18:36Z</time>
      </trkpt>
      <trkpt lat="45.47455" lon="4.55371">
        <ele>399.54772949219</ele>
        <time>2015-04-25T13:18:38Z</time>
      </trkpt>
      <trkpt lat="45.47452" lon="4.55366">
        <ele>399.79132080078</ele>
        <time>2015-04-25T13:18:40Z</time>
      </trkpt>
      <trkpt lat="45.47449" lon="4.55362">
        <ele>400.06674194336</ele>
        <time>2015-04-25T13:18:42Z</time>
      </trkpt>
      <trkpt lat="45.47446" lon="4.55357">
        <ele>400.32022094727</ele>
        <time>2015-04-25T13:18:44Z</time>
      </trkpt>
      <trkpt lat="45.47444" lon="4.55352">
        <ele>400.5393371582</ele>
        <time>2015-04-25T13:18:46Z</time>
      </trkpt>
      <trkpt lat="45.47441" lon="4.55347">
        <ele>400.82907104492</ele>
        <time>2015-04-25T13:18:48Z</time>
      </trkpt>
      <trkpt lat="45.47438" lon="4.55343">
        <ele>401.08773803711</ele>
        <time>2015-04-25T13:18:50Z</time>
      </trkpt>
      <trkpt lat="45.47436" lon="4.55338">
        <ele>401.34854125977</ele>
        <time>2015-04-25T13:18:52Z</time>
      </trkpt>
      <trkpt lat="45.47433" lon="4.55334">
        <ele>401.64880371094</ele>
        <time>2015-04-25T13:18:54Z</time>
      </trkpt>
      <trkpt lat="45.4743" lon="4.5533">
        <ele>401.97085571289</ele>
        <time>2015-04-25T13:18:56Z</time>
      </trkpt>
      <trkpt lat="45.47426" lon="4.55326">
        <ele>402.3957824707</ele>
        <time>2015-04-25T13:18:58Z</time>
      </trkpt>
      <trkpt lat="45.47423" lon="4.55321">
        <ele>402.80014038086</ele>
        <time>2015-04-25T13:19:00Z</time>
      </trkpt>
      <trkpt lat="45.47419" lon="4.55316">
        <ele>403.19158935547</ele>
        <time>2015-04-25T13:19:02Z</time>
      </trkpt>
      <trkpt lat="45.47416" lon="4.55312">
        <ele>403.57632446289</ele>
        <time>2015-04-25T13:19:04Z</time>
      </trkpt>
      <trkpt lat="45.47413" lon="4.55307">
        <ele>403.93618774414</ele>
        <time>2015-04-25T13:19:06Z</time>
      </trkpt>
      <trkpt lat="45.47411" lon="4.55302">
        <ele>404.22451782227</ele>
        <time>2015-04-25T13:19:08Z</time>
      </trkpt>
      <trkpt lat="45.47408" lon="4.55298">
        <ele>404.53237915039</ele>
        <time>2015-04-25T13:19:10Z</time>
      </trkpt>
      <trkpt lat="45.47404" lon="4.55293">
        <ele>404.91693115234</ele>
        <time>2015-04-25T13:19:12Z</time>
      </trkpt>
      <trkpt lat="45.47401" lon="4.55289">
        <ele>405.23983764648</ele>
        <time>2015-04-25T13:19:14Z</time>
      </trkpt>
      <trkpt lat="45.47398" lon="4.55286">
        <ele>405.55224609375</ele>
        <time>2015-04-25T13:19:16Z</time>
      </trkpt>
      <trkpt lat="45.47395" lon="4.55282">
        <ele>405.86654663086</ele>
        <time>2015-04-25T13:19:18Z</time>
      </trkpt>
      <trkpt lat="45.47392" lon="4.55278">
        <ele>406.17849731445</ele>
        <time>2015-04-25T13:19:20Z</time>
      </trkpt>
      <trkpt lat="45.4739" lon="4.55275">
        <ele>406.45251464844</ele>
        <time>2015-04-25T13:19:22Z</time>
      </trkpt>
      <trkpt lat="45.47386" lon="4.55271">
        <ele>406.77456665039</ele>
        <time>2015-04-25T13:19:24Z</time>
      </trkpt>
      <trkpt lat="45.47383" lon="4.55268">
        <ele>407.06497192383</ele>
        <time>2015-04-25T13:19:26Z</time>
      </trkpt>
      <trkpt lat="45.4738" lon="4.55265">
        <ele>407.32070922852</ele>
        <time>2015-04-25T13:19:28Z</time>
      </trkpt>
      <trkpt lat="45.47377" lon="4.55262">
        <ele>407.63562011719</ele>
        <time>2015-04-25T13:19:30Z</time>
      </trkpt>
      <trkpt lat="45.47372" lon="4.55257">
        <ele>408.09426879883</ele>
        <time>2015-04-25T13:19:33Z</time>
      </trkpt>
      <trkpt lat="45.47369" lon="4.55254">
        <ele>408.3440246582</ele>
        <time>2015-04-25T13:19:35Z</time>
      </trkpt>
      <trkpt lat="45.47366" lon="4.5525">
        <ele>408.6252746582</ele>
        <time>2015-04-25T13:19:37Z</time>
      </trkpt>
      <trkpt lat="45.47364" lon="4.55246">
        <ele>409.01119995117</ele>
        <time>2015-04-25T13:19:39Z</time>
      </trkpt>
      <trkpt lat="45.47361" lon="4.55243">
        <ele>409.34527587891</ele>
        <time>2015-04-25T13:19:41Z</time>
      </trkpt>
      <trkpt lat="45.47358" lon="4.5524">
        <ele>409.78302001953</ele>
        <time>2015-04-25T13:19:43Z</time>
      </trkpt>
      <trkpt lat="45.47356" lon="4.55235">
        <ele>410.23376464844</ele>
        <time>2015-04-25T13:19:45Z</time>
      </trkpt>
      <trkpt lat="45.47353" lon="4.55231">
        <ele>410.63223266602</ele>
        <time>2015-04-25T13:19:47Z</time>
      </trkpt>
      <trkpt lat="45.47351" lon="4.55227">
        <ele>411.06204223633</ele>
        <time>2015-04-25T13:19:49Z</time>
      </trkpt>
      <trkpt lat="45.47348" lon="4.55223">
        <ele>411.48663330078</ele>
        <time>2015-04-25T13:19:51Z</time>
      </trkpt>
      <trkpt lat="45.47345" lon="4.55219">
        <ele>411.98785400391</ele>
        <time>2015-04-25T13:19:53Z</time>
      </trkpt>
      <trkpt lat="45.47342" lon="4.55215">
        <ele>412.42730712891</ele>
        <time>2015-04-25T13:19:55Z</time>
      </trkpt>
      <trkpt lat="45.4734" lon="4.5521">
        <ele>412.86273193359</ele>
        <time>2015-04-25T13:19:57Z</time>
      </trkpt>
      <trkpt lat="45.47338" lon="4.55206">
        <ele>413.24853515625</ele>
        <time>2015-04-25T13:19:59Z</time>
      </trkpt>
      <trkpt lat="45.47336" lon="4.55202">
        <ele>413.66662597656</ele>
        <time>2015-04-25T13:20:01Z</time>
      </trkpt>
      <trkpt lat="45.47334" lon="4.55197">
        <ele>414.11706542969</ele>
        <time>2015-04-25T13:20:03Z</time>
      </trkpt>
      <trkpt lat="45.47332" lon="4.55193">
        <ele>414.50512695312</ele>
        <time>2015-04-25T13:20:05Z</time>
      </trkpt>
      <trkpt lat="45.47329" lon="4.55188">
        <ele>414.90823364258</ele>
        <time>2015-04-25T13:20:07Z</time>
      </trkpt>
      <trkpt lat="45.47325" lon="4.55183">
        <ele>415.31420898438</ele>
        <time>2015-04-25T13:20:09Z</time>
      </trkpt>
      <trkpt lat="45.47322" lon="4.55178">
        <ele>415.66839599609</ele>
        <time>2015-04-25T13:20:11Z</time>
      </trkpt>
      <trkpt lat="45.47319" lon="4.55173">
        <ele>416.00250244141</ele>
        <time>2015-04-25T13:20:13Z</time>
      </trkpt>
      <trkpt lat="45.47317" lon="4.55169">
        <ele>416.29473876953</ele>
        <time>2015-04-25T13:20:15Z</time>
      </trkpt>
      <trkpt lat="45.47314" lon="4.55164">
        <ele>416.48712158203</ele>
        <time>2015-04-25T13:20:17Z</time>
      </trkpt>
      <trkpt lat="45.47311" lon="4.55159">
        <ele>416.57720947266</ele>
        <time>2015-04-25T13:20:19Z</time>
      </trkpt>
      <trkpt lat="45.47308" lon="4.55154">
        <ele>416.66052246094</ele>
        <time>2015-04-25T13:20:21Z</time>
      </trkpt>
      <trkpt lat="45.47306" lon="4.55149">
        <ele>416.73583984375</ele>
        <time>2015-04-25T13:20:23Z</time>
      </trkpt>
      <trkpt lat="45.47303" lon="4.55144">
        <ele>416.79620361328</ele>
        <time>2015-04-25T13:20:25Z</time>
      </trkpt>
      <trkpt lat="45.47301" lon="4.55138">
        <ele>416.85665893555</ele>
        <time>2015-04-25T13:20:27Z</time>
      </trkpt>
      <trkpt lat="45.47297" lon="4.55133">
        <ele>416.91928100586</ele>
        <time>2015-04-25T13:20:29Z</time>
      </trkpt>
      <trkpt lat="45.47293" lon="4.55127">
        <ele>416.97714233398</ele>
        <time>2015-04-25T13:20:31Z</time>
      </trkpt>
      <trkpt lat="45.4729" lon="4.55122">
        <ele>417.01797485352</ele>
        <time>2015-04-25T13:20:33Z</time>
      </trkpt>
      <trkpt lat="45.47287" lon="4.55117">
        <ele>417.0495300293</ele>
        <time>2015-04-25T13:20:35Z</time>
      </trkpt>
      <trkpt lat="45.47282" lon="4.55113">
        <ele>417.08151245117</ele>
        <time>2015-04-25T13:20:37Z</time>
      </trkpt>
      <trkpt lat="45.47277" lon="4.55109">
        <ele>417.10382080078</ele>
        <time>2015-04-25T13:20:39Z</time>
      </trkpt>
      <trkpt lat="45.47273" lon="4.55105">
        <ele>417.11840820312</ele>
        <time>2015-04-25T13:20:41Z</time>
      </trkpt>
      <trkpt lat="45.47269" lon="4.55102">
        <ele>417.12149047852</ele>
        <time>2015-04-25T13:20:43Z</time>
      </trkpt>
      <trkpt lat="45.47264" lon="4.55098">
        <ele>417.11877441406</ele>
        <time>2015-04-25T13:20:45Z</time>
      </trkpt>
      <trkpt lat="45.4726" lon="4.55095">
        <ele>417.10983276367</ele>
        <time>2015-04-25T13:20:47Z</time>
      </trkpt>
      <trkpt lat="45.47255" lon="4.55092">
        <ele>417.08865356445</ele>
        <time>2015-04-25T13:20:49Z</time>
      </trkpt>
      <trkpt lat="45.4725" lon="4.55088">
        <ele>417.05810546875</ele>
        <time>2015-04-25T13:20:51Z</time>
      </trkpt>
      <trkpt lat="45.47245" lon="4.55084">
        <ele>416.95141601562</ele>
        <time>2015-04-25T13:20:53Z</time>
      </trkpt>
      <trkpt lat="45.4724" lon="4.55081">
        <ele>416.7629699707</ele>
        <time>2015-04-25T13:20:55Z</time>
      </trkpt>
      <trkpt lat="45.47235" lon="4.55076">
        <ele>416.51446533203</ele>
        <time>2015-04-25T13:20:57Z</time>
      </trkpt>
      <trkpt lat="45.47231" lon="4.55072">
        <ele>416.24578857422</ele>
        <time>2015-04-25T13:20:59Z</time>
      </trkpt>
      <trkpt lat="45.47226" lon="4.55068">
        <ele>415.96377563477</ele>
        <time>2015-04-25T13:21:01Z</time>
      </trkpt>
      <trkpt lat="45.47221" lon="4.55064">
        <ele>415.63977050781</ele>
        <time>2015-04-25T13:21:03Z</time>
      </trkpt>
      <trkpt lat="45.47215" lon="4.5506">
        <ele>415.26077270508</ele>
        <time>2015-04-25T13:21:05Z</time>
      </trkpt>
      <trkpt lat="45.4721" lon="4.55055">
        <ele>414.85592651367</ele>
        <time>2015-04-25T13:21:07Z</time>
      </trkpt>
      <trkpt lat="45.47205" lon="4.55051">
        <ele>414.46829223633</ele>
        <time>2015-04-25T13:21:09Z</time>
      </trkpt>
      <trkpt lat="45.472" lon="4.55047">
        <ele>414.02697753906</ele>
        <time>2015-04-25T13:21:11Z</time>
      </trkpt>
      <trkpt lat="45.47195" lon="4.55042">
        <ele>413.56573486328</ele>
        <time>2015-04-25T13:21:13Z</time>
      </trkpt>
      <trkpt lat="45.4719" lon="4.55038">
        <ele>413.12112426758</ele>
        <time>2015-04-25T13:21:15Z</time>
      </trkpt>
      <trkpt lat="45.47186" lon="4.55035">
        <ele>412.6901550293</ele>
        <time>2015-04-25T13:21:17Z</time>
      </trkpt>
      <trkpt lat="45.47181" lon="4.55031">
        <ele>412.19204711914</ele>
        <time>2015-04-25T13:21:19Z</time>
      </trkpt>
      <trkpt lat="45.47176" lon="4.55026">
        <ele>411.60922241211</ele>
        <time>2015-04-25T13:21:21Z</time>
      </trkpt>
      <trkpt lat="45.47171" lon="4.55022">
        <ele>411.05947875977</ele>
        <time>2015-04-25T13:21:23Z</time>
      </trkpt>
      <trkpt lat="45.47166" lon="4.55018">
        <ele>410.55136108398</ele>
        <time>2015-04-25T13:21:25Z</time>
      </trkpt>
      <trkpt lat="45.47161" lon="4.55014">
        <ele>410.28469848633</ele>
        <time>2015-04-25T13:21:27Z</time>
      </trkpt>
      <trkpt lat="45.47156" lon="4.55009">
        <ele>409.96713256836</ele>
        <time>2015-04-25T13:21:29Z</time>
      </trkpt>
      <trkpt lat="45.47152" lon="4.55003">
        <ele>409.65643310547</ele>
        <time>2015-04-25T13:21:31Z</time>
      </trkpt>
      <trkpt lat="45.47147" lon="4.54998">
        <ele>409.34527587891</ele>
        <time>2015-04-25T13:21:33Z</time>
      </trkpt>
      <trkpt lat="45.47143" lon="4.54992">
        <ele>409.11016845703</ele>
        <time>2015-04-25T13:21:35Z</time>
      </trkpt>
      <trkpt lat="45.47138" lon="4.54987">
        <ele>408.94552612305</ele>
        <time>2015-04-25T13:21:37Z</time>
      </trkpt>
      <trkpt lat="45.47134" lon="4.54981">
        <ele>408.73251342773</ele>
        <time>2015-04-25T13:21:39Z</time>
      </trkpt>
      <trkpt lat="45.4713" lon="4.54976">
        <ele>408.54479980469</ele>
        <time>2015-04-25T13:21:41Z</time>
      </trkpt>
      <trkpt lat="45.47126" lon="4.54971">
        <ele>408.38949584961</ele>
        <time>2015-04-25T13:21:43Z</time>
      </trkpt>
      <trkpt lat="45.47121" lon="4.54965">
        <ele>408.23001098633</ele>
        <time>2015-04-25T13:21:45Z</time>
      </trkpt>
      <trkpt lat="45.47117" lon="4.54961">
        <ele>408.10708618164</ele>
        <time>2015-04-25T13:21:47Z</time>
      </trkpt>
      <trkpt lat="45.47113" lon="4.54955">
        <ele>407.96148681641</ele>
        <time>2015-04-25T13:21:49Z</time>
      </trkpt>
      <trkpt lat="45.47108" lon="4.5495">
        <ele>407.81600952148</ele>
        <time>2015-04-25T13:21:51Z</time>
      </trkpt>
      <trkpt lat="45.47104" lon="4.54946">
        <ele>407.75231933594</ele>
        <time>2015-04-25T13:21:53Z</time>
      </trkpt>
      <trkpt lat="45.471" lon="4.54942">
        <ele>407.67196655273</ele>
        <time>2015-04-25T13:21:55Z</time>
      </trkpt>
      <trkpt lat="45.47095" lon="4.54936">
        <ele>407.52322387695</ele>
        <time>2015-04-25T13:21:57Z</time>
      </trkpt>
      <trkpt lat="45.47092" lon="4.5493">
        <ele>407.38012695312</ele>
        <time>2015-04-25T13:21:59Z</time>
      </trkpt>
      <trkpt lat="45.47089" lon="4.54924">
        <ele>407.16833496094</ele>
        <time>2015-04-25T13:22:01Z</time>
      </trkpt>
      <trkpt lat="45.47085" lon="4.5492">
        <ele>407.09408569336</ele>
        <time>2015-04-25T13:22:03Z</time>
      </trkpt>
      <trkpt lat="45.47079" lon="4.54916">
        <ele>407.30020141602</ele>
        <time>2015-04-25T13:22:05Z</time>
      </trkpt>
      <trkpt lat="45.47074" lon="4.54909">
        <ele>407.33413696289</ele>
        <time>2015-04-25T13:22:07Z</time>
      </trkpt>
      <trkpt lat="45.4707" lon="4.54904">
        <ele>407.40545654297</ele>
        <time>2015-04-25T13:22:09Z</time>
      </trkpt>
      <trkpt lat="45.47065" lon="4.54898">
        <ele>407.44000244141</ele>
        <time>2015-04-25T13:22:11Z</time>
      </trkpt>
      <trkpt lat="45.47061" lon="4.54892">
        <ele>407.52288818359</ele>
        <time>2015-04-25T13:22:13Z</time>
      </trkpt>
      <trkpt lat="45.47055" lon="4.54885">
        <ele>407.66519165039</ele>
        <time>2015-04-25T13:22:16Z</time>
      </trkpt>
      <trkpt lat="45.47051" lon="4.54881">
        <ele>407.77062988281</ele>
        <time>2015-04-25T13:22:18Z</time>
      </trkpt>
      <trkpt lat="45.47047" lon="4.54876">
        <ele>407.81011962891</ele>
        <time>2015-04-25T13:22:20Z</time>
      </trkpt>
      <trkpt lat="45.47043" lon="4.54871">
        <ele>407.90997314453</ele>
        <time>2015-04-25T13:22:22Z</time>
      </trkpt>
      <trkpt lat="45.47039" lon="4.54867">
        <ele>408.06994628906</ele>
        <time>2015-04-25T13:22:24Z</time>
      </trkpt>
      <trkpt lat="45.47035" lon="4.54862">
        <ele>408.16702270508</ele>
        <time>2015-04-25T13:22:26Z</time>
      </trkpt>
      <trkpt lat="45.47031" lon="4.54858">
        <ele>408.31704711914</ele>
        <time>2015-04-25T13:22:28Z</time>
      </trkpt>
      <trkpt lat="45.47026" lon="4.54853">
        <ele>408.54104614258</ele>
        <time>2015-04-25T13:22:30Z</time>
      </trkpt>
      <trkpt lat="45.47021" lon="4.54848">
        <ele>408.71142578125</ele>
        <time>2015-04-25T13:22:32Z</time>
      </trkpt>
      <trkpt lat="45.47018" lon="4.54844">
        <ele>408.85238647461</ele>
        <time>2015-04-25T13:22:34Z</time>
      </trkpt>
      <trkpt lat="45.47013" lon="4.5484">
        <ele>409.0295715332</ele>
        <time>2015-04-25T13:22:36Z</time>
      </trkpt>
      <trkpt lat="45.4701" lon="4.54835">
        <ele>409.17086791992</ele>
        <time>2015-04-25T13:22:38Z</time>
      </trkpt>
      <trkpt lat="45.47006" lon="4.54831">
        <ele>409.34173583984</ele>
        <time>2015-04-25T13:22:40Z</time>
      </trkpt>
      <trkpt lat="45.47002" lon="4.54825">
        <ele>409.49481201172</ele>
        <time>2015-04-25T13:22:42Z</time>
      </trkpt>
      <trkpt lat="45.46999" lon="4.5482">
        <ele>409.69024658203</ele>
        <time>2015-04-25T13:22:44Z</time>
      </trkpt>
      <trkpt lat="45.46995" lon="4.54815">
        <ele>410.02386474609</ele>
        <time>2015-04-25T13:22:46Z</time>
      </trkpt>
      <trkpt lat="45.46991" lon="4.54811">
        <ele>410.31771850586</ele>
        <time>2015-04-25T13:22:48Z</time>
      </trkpt>
      <trkpt lat="45.46988" lon="4.54807">
        <ele>410.67504882812</ele>
        <time>2015-04-25T13:22:50Z</time>
      </trkpt>
      <trkpt lat="45.46984" lon="4.54802">
        <ele>411.04025268555</ele>
        <time>2015-04-25T13:22:52Z</time>
      </trkpt>
      <trkpt lat="45.4698" lon="4.54798">
        <ele>411.43795776367</ele>
        <time>2015-04-25T13:22:54Z</time>
      </trkpt>
      <trkpt lat="45.46977" lon="4.54794">
        <ele>411.74948120117</ele>
        <time>2015-04-25T13:22:56Z</time>
      </trkpt>
      <trkpt lat="45.46974" lon="4.54788">
        <ele>411.97930908203</ele>
        <time>2015-04-25T13:22:58Z</time>
      </trkpt>
      <trkpt lat="45.46972" lon="4.54782">
        <ele>412.14831542969</ele>
        <time>2015-04-25T13:23:00Z</time>
      </trkpt>
      <trkpt lat="45.46969" lon="4.54776">
        <ele>412.39587402344</ele>
        <time>2015-04-25T13:23:02Z</time>
      </trkpt>
      <trkpt lat="45.46967" lon="4.54771">
        <ele>412.61416625977</ele>
        <time>2015-04-25T13:23:04Z</time>
      </trkpt>
      <trkpt lat="45.46965" lon="4.54765">
        <ele>412.83285522461</ele>
        <time>2015-04-25T13:23:06Z</time>
      </trkpt>
      <trkpt lat="45.4696" lon="4.5476">
        <ele>413.34963989258</ele>
        <time>2015-04-25T13:23:08Z</time>
      </trkpt>
      <trkpt lat="45.46957" lon="4.54752">
        <ele>413.79571533203</ele>
        <time>2015-04-25T13:23:10Z</time>
      </trkpt>
      <trkpt lat="45.46954" lon="4.54744">
        <ele>413.93823242188</ele>
        <time>2015-04-25T13:23:12Z</time>
      </trkpt>
      <trkpt lat="45.46951" lon="4.54737">
        <ele>414.08526611328</ele>
        <time>2015-04-25T13:23:14Z</time>
      </trkpt>
      <trkpt lat="45.46948" lon="4.54729">
        <ele>414.17141723633</ele>
        <time>2015-04-25T13:23:16Z</time>
      </trkpt>
      <trkpt lat="45.46944" lon="4.54721">
        <ele>414.47311401367</ele>
        <time>2015-04-25T13:23:18Z</time>
      </trkpt>
      <trkpt lat="45.46941" lon="4.54714">
        <ele>414.65258789062</ele>
        <time>2015-04-25T13:23:20Z</time>
      </trkpt>
      <trkpt lat="45.46938" lon="4.54706">
        <ele>414.66815185547</ele>
        <time>2015-04-25T13:23:22Z</time>
      </trkpt>
      <trkpt lat="45.46937" lon="4.54699">
        <ele>414.49368286133</ele>
        <time>2015-04-25T13:23:24Z</time>
      </trkpt>
      <trkpt lat="45.46936" lon="4.54692">
        <ele>414.39022827148</ele>
        <time>2015-04-25T13:23:26Z</time>
      </trkpt>
      <trkpt lat="45.46933" lon="4.54685">
        <ele>414.42144775391</ele>
        <time>2015-04-25T13:23:28Z</time>
      </trkpt>
      <trkpt lat="45.46931" lon="4.54677">
        <ele>414.46432495117</ele>
        <time>2015-04-25T13:23:30Z</time>
      </trkpt>
      <trkpt lat="45.4693" lon="4.54669">
        <ele>414.24359130859</ele>
        <time>2015-04-25T13:23:32Z</time>
      </trkpt>
      <trkpt lat="45.46926" lon="4.54663">
        <ele>414.39770507812</ele>
        <time>2015-04-25T13:23:34Z</time>
      </trkpt>
      <trkpt lat="45.46922" lon="4.54663">
        <ele>414.8962097168</ele>
        <time>2015-04-25T13:23:36Z</time>
      </trkpt>
      <trkpt lat="45.46918" lon="4.54665">
        <ele>415.71401977539</ele>
        <time>2015-04-25T13:23:38Z</time>
      </trkpt>
      <trkpt lat="45.46913" lon="4.54668">
        <ele>416.59814453125</ele>
        <time>2015-04-25T13:23:40Z</time>
      </trkpt>
      <trkpt lat="45.46909" lon="4.5467">
        <ele>417.43719482422</ele>
        <time>2015-04-25T13:23:42Z</time>
      </trkpt>
      <trkpt lat="45.46904" lon="4.54674">
        <ele>418.25253295898</ele>
        <time>2015-04-25T13:23:44Z</time>
      </trkpt>
      <trkpt lat="45.46901" lon="4.54676">
        <ele>418.93859863281</ele>
        <time>2015-04-25T13:23:46Z</time>
      </trkpt>
      <trkpt lat="45.46897" lon="4.54679">
        <ele>419.5837097168</ele>
        <time>2015-04-25T13:23:48Z</time>
      </trkpt>
      <trkpt lat="45.46894" lon="4.54681">
        <ele>420.13967895508</ele>
        <time>2015-04-25T13:23:50Z</time>
      </trkpt>
      <trkpt lat="45.4689" lon="4.54683">
        <ele>420.84936523438</ele>
        <time>2015-04-25T13:23:52Z</time>
      </trkpt>
      <trkpt lat="45.46886" lon="4.54682">
        <ele>421.44100952148</ele>
        <time>2015-04-25T13:23:54Z</time>
      </trkpt>
      <trkpt lat="45.46883" lon="4.5468">
        <ele>421.77255249023</ele>
        <time>2015-04-25T13:23:56Z</time>
      </trkpt>
      <trkpt lat="45.4688" lon="4.5468">
        <ele>422.17861938477</ele>
        <time>2015-04-25T13:23:58Z</time>
      </trkpt>
      <trkpt lat="45.46878" lon="4.5468">
        <ele>422.58471679688</ele>
        <time>2015-04-25T13:24:00Z</time>
      </trkpt>
      <trkpt lat="45.46875" lon="4.54679">
        <ele>422.89660644531</ele>
        <time>2015-04-25T13:24:02Z</time>
      </trkpt>
      <trkpt lat="45.46872" lon="4.54676">
        <ele>423.29745483398</ele>
        <time>2015-04-25T13:24:05Z</time>
      </trkpt>
      <trkpt lat="45.46869" lon="4.54674">
        <ele>423.6545715332</ele>
        <time>2015-04-25T13:24:07Z</time>
      </trkpt>
      <trkpt lat="45.46865" lon="4.54672">
        <ele>424.15884399414</ele>
        <time>2015-04-25T13:24:09Z</time>
      </trkpt>
      <trkpt lat="45.46862" lon="4.5467">
        <ele>424.63702392578</ele>
        <time>2015-04-25T13:24:11Z</time>
      </trkpt>
      <trkpt lat="45.46859" lon="4.5467">
        <ele>425.17807006836</ele>
        <time>2015-04-25T13:24:13Z</time>
      </trkpt>
      <trkpt lat="45.46855" lon="4.54673">
        <ele>425.78063964844</ele>
        <time>2015-04-25T13:24:15Z</time>
      </trkpt>
      <trkpt lat="45.46852" lon="4.54676">
        <ele>426.35369873047</ele>
        <time>2015-04-25T13:24:17Z</time>
      </trkpt>
      <trkpt lat="45.4685" lon="4.5468">
        <ele>426.82504272461</ele>
        <time>2015-04-25T13:24:20Z</time>
      </trkpt>
      <trkpt lat="45.46848" lon="4.54683">
        <ele>427.11907958984</ele>
        <time>2015-04-25T13:24:22Z</time>
      </trkpt>
      <trkpt lat="45.46846" lon="4.54685">
        <ele>427.46343994141</ele>
        <time>2015-04-25T13:24:24Z</time>
      </trkpt>
      <trkpt lat="45.46845" lon="4.54687">
        <ele>427.75088500977</ele>
        <time>2015-04-25T13:24:26Z</time>
      </trkpt>
      <trkpt lat="45.46843" lon="4.54689">
        <ele>428.09609985352</ele>
        <time>2015-04-25T13:24:28Z</time>
      </trkpt>
      <trkpt lat="45.46842" lon="4.5469">
        <ele>428.30258178711</ele>
        <time>2015-04-25T13:24:30Z</time>
      </trkpt>
      <trkpt lat="45.4684" lon="4.54692">
        <ele>428.63897705078</ele>
        <time>2015-04-25T13:24:32Z</time>
      </trkpt>
      <trkpt lat="45.46838" lon="4.54694">
        <ele>429.02966308594</ele>
        <time>2015-04-25T13:24:34Z</time>
      </trkpt>
      <trkpt lat="45.46836" lon="4.54697">
        <ele>429.30993652344</ele>
        <time>2015-04-25T13:24:36Z</time>
      </trkpt>
      <trkpt lat="45.46834" lon="4.54699">
        <ele>429.64657592773</ele>
        <time>2015-04-25T13:24:38Z</time>
      </trkpt>
      <trkpt lat="45.46833" lon="4.54701">
        <ele>429.89407348633</ele>
        <time>2015-04-25T13:24:40Z</time>
      </trkpt>
      <trkpt lat="45.46831" lon="4.54703">
        <ele>430.14791870117</ele>
        <time>2015-04-25T13:24:42Z</time>
      </trkpt>
      <trkpt lat="45.46829" lon="4.54705">
        <ele>430.40148925781</ele>
        <time>2015-04-25T13:24:44Z</time>
      </trkpt>
      <trkpt lat="45.46827" lon="4.54707">
        <ele>430.66738891602</ele>
        <time>2015-04-25T13:24:46Z</time>
      </trkpt>
      <trkpt lat="45.46825" lon="4.54709">
        <ele>430.93011474609</ele>
        <time>2015-04-25T13:24:48Z</time>
      </trkpt>
      <trkpt lat="45.46823" lon="4.54712">
        <ele>431.212890625</ele>
        <time>2015-04-25T13:24:50Z</time>
      </trkpt>
      <trkpt lat="45.46822" lon="4.54714">
        <ele>431.40588378906</ele>
        <time>2015-04-25T13:24:52Z</time>
      </trkpt>
      <trkpt lat="45.4682" lon="4.54716">
        <ele>431.69076538086</ele>
        <time>2015-04-25T13:24:54Z</time>
      </trkpt>
      <trkpt lat="45.46818" lon="4.54719">
        <ele>431.98065185547</ele>
        <time>2015-04-25T13:24:56Z</time>
      </trkpt>
      <trkpt lat="45.46816" lon="4.54721">
        <ele>432.26266479492</ele>
        <time>2015-04-25T13:24:58Z</time>
      </trkpt>
      <trkpt lat="45.46814" lon="4.54723">
        <ele>432.56219482422</ele>
        <time>2015-04-25T13:25:00Z</time>
      </trkpt>
      <trkpt lat="45.46811" lon="4.54727">
        <ele>433.05749511719</ele>
        <time>2015-04-25T13:25:04Z</time>
      </trkpt>
      <trkpt lat="45.46809" lon="4.54729">
        <ele>433.35946655273</ele>
        <time>2015-04-25T13:25:06Z</time>
      </trkpt>
      <trkpt lat="45.46808" lon="4.54731">
        <ele>433.61968994141</ele>
        <time>2015-04-25T13:25:08Z</time>
      </trkpt>
      <trkpt lat="45.46806" lon="4.54733">
        <ele>433.97659301758</ele>
        <time>2015-04-25T13:25:10Z</time>
      </trkpt>
      <trkpt lat="45.46804" lon="4.54735">
        <ele>434.26422119141</ele>
        <time>2015-04-25T13:25:12Z</time>
      </trkpt>
      <trkpt lat="45.46802" lon="4.54738">
        <ele>434.60586547852</ele>
        <time>2015-04-25T13:25:14Z</time>
      </trkpt>
      <trkpt lat="45.468" lon="4.54741">
        <ele>435.01782226562</ele>
        <time>2015-04-25T13:25:16Z</time>
      </trkpt>
      <trkpt lat="45.46796" lon="4.54745">
        <ele>435.63827514648</ele>
        <time>2015-04-25T13:25:18Z</time>
      </trkpt>
      <trkpt lat="45.46794" lon="4.54747">
        <ele>436.04907226562</ele>
        <time>2015-04-25T13:25:20Z</time>
      </trkpt>
      <trkpt lat="45.46792" lon="4.5475">
        <ele>436.41152954102</ele>
        <time>2015-04-25T13:25:22Z</time>
      </trkpt>
      <trkpt lat="45.4679" lon="4.54752">
        <ele>436.72137451172</ele>
        <time>2015-04-25T13:25:24Z</time>
      </trkpt>
      <trkpt lat="45.46788" lon="4.54754">
        <ele>437.01760864258</ele>
        <time>2015-04-25T13:25:26Z</time>
      </trkpt>
      <trkpt lat="45.46787" lon="4.54756">
        <ele>437.26217651367</ele>
        <time>2015-04-25T13:25:28Z</time>
      </trkpt>
      <trkpt lat="45.46785" lon="4.54758">
        <ele>437.55715942383</ele>
        <time>2015-04-25T13:25:30Z</time>
      </trkpt>
      <trkpt lat="45.46783" lon="4.5476">
        <ele>437.85720825195</ele>
        <time>2015-04-25T13:25:32Z</time>
      </trkpt>
      <trkpt lat="45.46781" lon="4.54762">
        <ele>438.15716552734</ele>
        <time>2015-04-25T13:25:34Z</time>
      </trkpt>
      <trkpt lat="45.46779" lon="4.54763">
        <ele>438.44998168945</ele>
        <time>2015-04-25T13:25:36Z</time>
      </trkpt>
      <trkpt lat="45.46776" lon="4.54766">
        <ele>438.98217773438</ele>
        <time>2015-04-25T13:25:39Z</time>
      </trkpt>
      <trkpt lat="45.46772" lon="4.54768">
        <ele>439.51138305664</ele>
        <time>2015-04-25T13:25:42Z</time>
      </trkpt>
      <trkpt lat="45.46769" lon="4.54769">
        <ele>439.97314453125</ele>
        <time>2015-04-25T13:25:44Z</time>
      </trkpt>
      <trkpt lat="45.46765" lon="4.54771">
        <ele>440.62045288086</ele>
        <time>2015-04-25T13:25:46Z</time>
      </trkpt>
      <trkpt lat="45.46761" lon="4.54773">
        <ele>441.32318115234</ele>
        <time>2015-04-25T13:25:48Z</time>
      </trkpt>
      <trkpt lat="45.46756" lon="4.54775">
        <ele>441.97549438477</ele>
        <time>2015-04-25T13:25:50Z</time>
      </trkpt>
      <trkpt lat="45.46752" lon="4.54777">
        <ele>442.71560668945</ele>
        <time>2015-04-25T13:25:52Z</time>
      </trkpt>
      <trkpt lat="45.46748" lon="4.54779">
        <ele>443.30627441406</ele>
        <time>2015-04-25T13:25:54Z</time>
      </trkpt>
      <trkpt lat="45.46744" lon="4.54781">
        <ele>443.73669433594</ele>
        <time>2015-04-25T13:25:56Z</time>
      </trkpt>
      <trkpt lat="45.46742" lon="4.54782">
        <ele>444.02633666992</ele>
        <time>2015-04-25T13:25:58Z</time>
      </trkpt>
      <trkpt lat="45.46739" lon="4.54784">
        <ele>444.39462280273</ele>
        <time>2015-04-25T13:26:00Z</time>
      </trkpt>
      <trkpt lat="45.46736" lon="4.54785">
        <ele>444.72262573242</ele>
        <time>2015-04-25T13:26:02Z</time>
      </trkpt>
      <trkpt lat="45.46734" lon="4.54786">
        <ele>445.01376342773</ele>
        <time>2015-04-25T13:26:04Z</time>
      </trkpt>
      <trkpt lat="45.46731" lon="4.54787">
        <ele>445.33929443359</ele>
        <time>2015-04-25T13:26:06Z</time>
      </trkpt>
      <trkpt lat="45.46729" lon="4.54788">
        <ele>445.6784362793</ele>
        <time>2015-04-25T13:26:08Z</time>
      </trkpt>
      <trkpt lat="45.46725" lon="4.54791">
        <ele>446.2043762207</ele>
        <time>2015-04-25T13:26:10Z</time>
      </trkpt>
      <trkpt lat="45.4672" lon="4.54793">
        <ele>446.79574584961</ele>
        <time>2015-04-25T13:26:12Z</time>
      </trkpt>
      <trkpt lat="45.46716" lon="4.54795">
        <ele>447.30978393555</ele>
        <time>2015-04-25T13:26:14Z</time>
      </trkpt>
      <trkpt lat="45.46712" lon="4.54797">
        <ele>447.82778930664</ele>
        <time>2015-04-25T13:26:16Z</time>
      </trkpt>
      <trkpt lat="45.46709" lon="4.54798">
        <ele>448.22332763672</ele>
        <time>2015-04-25T13:26:18Z</time>
      </trkpt>
      <trkpt lat="45.46706" lon="4.54799">
        <ele>448.58139038086</ele>
        <time>2015-04-25T13:26:20Z</time>
      </trkpt>
      <trkpt lat="45.46704" lon="4.548">
        <ele>448.9250793457</ele>
        <time>2015-04-25T13:26:22Z</time>
      </trkpt>
      <trkpt lat="45.46701" lon="4.54801">
        <ele>449.27029418945</ele>
        <time>2015-04-25T13:26:24Z</time>
      </trkpt>
      <trkpt lat="45.46697" lon="4.54803">
        <ele>449.82077026367</ele>
        <time>2015-04-25T13:26:26Z</time>
      </trkpt>
      <trkpt lat="45.46692" lon="4.54805">
        <ele>450.44549560547</ele>
        <time>2015-04-25T13:26:28Z</time>
      </trkpt>
      <trkpt lat="45.46688" lon="4.54807">
        <ele>450.98690795898</ele>
        <time>2015-04-25T13:26:30Z</time>
      </trkpt>
      <trkpt lat="45.46685" lon="4.54808">
        <ele>451.4638671875</ele>
        <time>2015-04-25T13:26:32Z</time>
      </trkpt>
      <trkpt lat="45.46681" lon="4.5481">
        <ele>451.97933959961</ele>
        <time>2015-04-25T13:26:34Z</time>
      </trkpt>
      <trkpt lat="45.46677" lon="4.54811">
        <ele>452.51153564453</ele>
        <time>2015-04-25T13:26:36Z</time>
      </trkpt>
      <trkpt lat="45.46674" lon="4.54811">
        <ele>452.90213012695</ele>
        <time>2015-04-25T13:26:38Z</time>
      </trkpt>
      <trkpt lat="45.46671" lon="4.54813">
        <ele>453.28421020508</ele>
        <time>2015-04-25T13:26:40Z</time>
      </trkpt>
      <trkpt lat="45.46668" lon="4.54813">
        <ele>453.61727905273</ele>
        <time>2015-04-25T13:26:42Z</time>
      </trkpt>
      <trkpt lat="45.46666" lon="4.54815">
        <ele>453.87615966797</ele>
        <time>2015-04-25T13:26:44Z</time>
      </trkpt>
      <trkpt lat="45.46664" lon="4.54816">
        <ele>453.87887573242</ele>
        <time>2015-04-25T13:26:46Z</time>
      </trkpt>
      <trkpt lat="45.46661" lon="4.54816">
        <ele>453.86364746094</ele>
        <time>2015-04-25T13:26:48Z</time>
      </trkpt>
      <trkpt lat="45.46659" lon="4.54817">
        <ele>453.83697509766</ele>
        <time>2015-04-25T13:26:50Z</time>
      </trkpt>
      <trkpt lat="45.46655" lon="4.54818">
        <ele>453.84902954102</ele>
        <time>2015-04-25T13:26:52Z</time>
      </trkpt>
      <trkpt lat="45.46653" lon="4.54822">
        <ele>454.00955200195</ele>
        <time>2015-04-25T13:26:54Z</time>
      </trkpt>
      <trkpt lat="45.46653" lon="4.54827">
        <ele>454.30767822266</ele>
        <time>2015-04-25T13:26:56Z</time>
      </trkpt>
      <trkpt lat="45.46652" lon="4.54833">
        <ele>454.60540771484</ele>
        <time>2015-04-25T13:26:58Z</time>
      </trkpt>
      <trkpt lat="45.46651" lon="4.54838">
        <ele>454.76715087891</ele>
        <time>2015-04-25T13:27:00Z</time>
      </trkpt>
      <trkpt lat="45.46651" lon="4.54844">
        <ele>454.91351318359</ele>
        <time>2015-04-25T13:27:02Z</time>
      </trkpt>
      <trkpt lat="45.4665" lon="4.54849">
        <ele>455.05197143555</ele>
        <time>2015-04-25T13:27:04Z</time>
      </trkpt>
      <trkpt lat="45.46649" lon="4.54854">
        <ele>455.17501831055</ele>
        <time>2015-04-25T13:27:06Z</time>
      </trkpt>
      <trkpt lat="45.46648" lon="4.5486">
        <ele>455.33282470703</ele>
        <time>2015-04-25T13:27:08Z</time>
      </trkpt>
      <trkpt lat="45.46648" lon="4.54866">
        <ele>455.51141357422</ele>
        <time>2015-04-25T13:27:10Z</time>
      </trkpt>
      <trkpt lat="45.46647" lon="4.54873">
        <ele>455.69357299805</ele>
        <time>2015-04-25T13:27:12Z</time>
      </trkpt>
      <trkpt lat="45.46647" lon="4.54879">
        <ele>455.88696289062</ele>
        <time>2015-04-25T13:27:14Z</time>
      </trkpt>
      <trkpt lat="45.46646" lon="4.54886">
        <ele>456.07077026367</ele>
        <time>2015-04-25T13:27:16Z</time>
      </trkpt>
      <trkpt lat="45.46645" lon="4.54892">
        <ele>456.24426269531</ele>
        <time>2015-04-25T13:27:18Z</time>
      </trkpt>
      <trkpt lat="45.46645" lon="4.54898">
        <ele>456.42599487305</ele>
        <time>2015-04-25T13:27:20Z</time>
      </trkpt>
      <trkpt lat="45.46644" lon="4.54904">
        <ele>456.61950683594</ele>
        <time>2015-04-25T13:27:22Z</time>
      </trkpt>
      <trkpt lat="45.46643" lon="4.5491">
        <ele>456.79962158203</ele>
        <time>2015-04-25T13:27:24Z</time>
      </trkpt>
      <trkpt lat="45.46642" lon="4.54916">
        <ele>456.98812866211</ele>
        <time>2015-04-25T13:27:26Z</time>
      </trkpt>
      <trkpt lat="45.46641" lon="4.54923">
        <ele>457.16793823242</ele>
        <time>2015-04-25T13:27:28Z</time>
      </trkpt>
      <trkpt lat="45.4664" lon="4.54929">
        <ele>457.34384155273</ele>
        <time>2015-04-25T13:27:30Z</time>
      </trkpt>
      <trkpt lat="45.46639" lon="4.54935">
        <ele>457.51843261719</ele>
        <time>2015-04-25T13:27:32Z</time>
      </trkpt>
      <trkpt lat="45.46638" lon="4.54941">
        <ele>457.68237304688</ele>
        <time>2015-04-25T13:27:34Z</time>
      </trkpt>
      <trkpt lat="45.46638" lon="4.54947">
        <ele>457.8489074707</ele>
        <time>2015-04-25T13:27:36Z</time>
      </trkpt>
      <trkpt lat="45.46637" lon="4.54953">
        <ele>458.01742553711</ele>
        <time>2015-04-25T13:27:38Z</time>
      </trkpt>
      <trkpt lat="45.46637" lon="4.54958">
        <ele>458.18255615234</ele>
        <time>2015-04-25T13:27:40Z</time>
      </trkpt>
      <trkpt lat="45.46637" lon="4.54964">
        <ele>458.35507202148</ele>
        <time>2015-04-25T13:27:42Z</time>
      </trkpt>
      <trkpt lat="45.46636" lon="4.54971">
        <ele>458.53121948242</ele>
        <time>2015-04-25T13:27:44Z</time>
      </trkpt>
      <trkpt lat="45.46635" lon="4.54977">
        <ele>458.72015380859</ele>
        <time>2015-04-25T13:27:46Z</time>
      </trkpt>
      <trkpt lat="45.46634" lon="4.54983">
        <ele>458.89654541016</ele>
        <time>2015-04-25T13:27:48Z</time>
      </trkpt>
      <trkpt lat="45.46633" lon="4.54989">
        <ele>459.07699584961</ele>
        <time>2015-04-25T13:27:50Z</time>
      </trkpt>
      <trkpt lat="45.46632" lon="4.54995">
        <ele>459.26153564453</ele>
        <time>2015-04-25T13:27:52Z</time>
      </trkpt>
      <trkpt lat="45.46632" lon="4.55001">
        <ele>459.48107910156</ele>
        <time>2015-04-25T13:27:54Z</time>
      </trkpt>
      <trkpt lat="45.46631" lon="4.55007">
        <ele>459.83773803711</ele>
        <time>2015-04-25T13:27:56Z</time>
      </trkpt>
      <trkpt lat="45.4663" lon="4.55013">
        <ele>460.23135375977</ele>
        <time>2015-04-25T13:27:58Z</time>
      </trkpt>
      <trkpt lat="45.4663" lon="4.5502">
        <ele>460.63906860352</ele>
        <time>2015-04-25T13:28:00Z</time>
      </trkpt>
      <trkpt lat="45.46629" lon="4.55025">
        <ele>461.03289794922</ele>
        <time>2015-04-25T13:28:02Z</time>
      </trkpt>
      <trkpt lat="45.46629" lon="4.55031">
        <ele>461.37591552734</ele>
        <time>2015-04-25T13:28:04Z</time>
      </trkpt>
      <trkpt lat="45.46628" lon="4.55037">
        <ele>461.78616333008</ele>
        <time>2015-04-25T13:28:06Z</time>
      </trkpt>
      <trkpt lat="45.46627" lon="4.55043">
        <ele>462.20257568359</ele>
        <time>2015-04-25T13:28:08Z</time>
      </trkpt>
      <trkpt lat="45.46626" lon="4.55049">
        <ele>462.67318725586</ele>
        <time>2015-04-25T13:28:10Z</time>
      </trkpt>
      <trkpt lat="45.46626" lon="4.55055">
        <ele>463.09490966797</ele>
        <time>2015-04-25T13:28:12Z</time>
      </trkpt>
      <trkpt lat="45.46626" lon="4.5506">
        <ele>463.43521118164</ele>
        <time>2015-04-25T13:28:14Z</time>
      </trkpt>
      <trkpt lat="45.46625" lon="4.55066">
        <ele>463.82409667969</ele>
        <time>2015-04-25T13:28:16Z</time>
      </trkpt>
      <trkpt lat="45.46624" lon="4.55072">
        <ele>464.32263183594</ele>
        <time>2015-04-25T13:28:18Z</time>
      </trkpt>
      <trkpt lat="45.46623" lon="4.55078">
        <ele>464.84173583984</ele>
        <time>2015-04-25T13:28:20Z</time>
      </trkpt>
      <trkpt lat="45.46622" lon="4.55084">
        <ele>465.34228515625</ele>
        <time>2015-04-25T13:28:22Z</time>
      </trkpt>
      <trkpt lat="45.46621" lon="4.5509">
        <ele>465.96768188477</ele>
        <time>2015-04-25T13:28:24Z</time>
      </trkpt>
      <trkpt lat="45.46621" lon="4.55096">
        <ele>466.56433105469</ele>
        <time>2015-04-25T13:28:26Z</time>
      </trkpt>
      <trkpt lat="45.46621" lon="4.55101">
        <ele>467.06625366211</ele>
        <time>2015-04-25T13:28:28Z</time>
      </trkpt>
      <trkpt lat="45.46621" lon="4.55106">
        <ele>467.52502441406</ele>
        <time>2015-04-25T13:28:30Z</time>
      </trkpt>
      <trkpt lat="45.46621" lon="4.55112">
        <ele>468.09460449219</ele>
        <time>2015-04-25T13:28:32Z</time>
      </trkpt>
      <trkpt lat="45.4662" lon="4.55117">
        <ele>468.61987304688</ele>
        <time>2015-04-25T13:28:34Z</time>
      </trkpt>
      <trkpt lat="45.4662" lon="4.55122">
        <ele>469.07550048828</ele>
        <time>2015-04-25T13:28:36Z</time>
      </trkpt>
      <trkpt lat="45.46619" lon="4.55125">
        <ele>469.52795410156</ele>
        <time>2015-04-25T13:28:38Z</time>
      </trkpt>
      <trkpt lat="45.46617" lon="4.5513">
        <ele>470.10366821289</ele>
        <time>2015-04-25T13:28:40Z</time>
      </trkpt>
      <trkpt lat="45.46614" lon="4.55134">
        <ele>470.76763916016</ele>
        <time>2015-04-25T13:28:43Z</time>
      </trkpt>
      <trkpt lat="45.46614" lon="4.55138">
        <ele>471.10415649414</ele>
        <time>2015-04-25T13:28:45Z</time>
      </trkpt>
      <trkpt lat="45.46613" lon="4.5514">
        <ele>471.37301635742</ele>
        <time>2015-04-25T13:28:47Z</time>
      </trkpt>
      <trkpt lat="45.46613" lon="4.55145">
        <ele>471.86566162109</ele>
        <time>2015-04-25T13:28:49Z</time>
      </trkpt>
      <trkpt lat="45.46612" lon="4.55149">
        <ele>472.31369018555</ele>
        <time>2015-04-25T13:28:51Z</time>
      </trkpt>
      <trkpt lat="45.46612" lon="4.55155">
        <ele>472.81985473633</ele>
        <time>2015-04-25T13:28:53Z</time>
      </trkpt>
      <trkpt lat="45.46612" lon="4.5516">
        <ele>473.30841064453</ele>
        <time>2015-04-25T13:28:55Z</time>
      </trkpt>
      <trkpt lat="45.46612" lon="4.55166">
        <ele>473.83657836914</ele>
        <time>2015-04-25T13:28:57Z</time>
      </trkpt>
      <trkpt lat="45.46612" lon="4.5517">
        <ele>474.2903137207</ele>
        <time>2015-04-25T13:28:59Z</time>
      </trkpt>
      <trkpt lat="45.46611" lon="4.55174">
        <ele>474.66928100586</ele>
        <time>2015-04-25T13:29:01Z</time>
      </trkpt>
      <trkpt lat="45.46611" lon="4.55178">
        <ele>475.02774047852</ele>
        <time>2015-04-25T13:29:03Z</time>
      </trkpt>
      <trkpt lat="45.4661" lon="4.55182">
        <ele>475.44625854492</ele>
        <time>2015-04-25T13:29:05Z</time>
      </trkpt>
      <trkpt lat="45.46609" lon="4.55187">
        <ele>475.84997558594</ele>
        <time>2015-04-25T13:29:07Z</time>
      </trkpt>
      <trkpt lat="45.46609" lon="4.55192">
        <ele>476.33792114258</ele>
        <time>2015-04-25T13:29:09Z</time>
      </trkpt>
      <trkpt lat="45.46609" lon="4.55198">
        <ele>476.87915039062</ele>
        <time>2015-04-25T13:29:11Z</time>
      </trkpt>
      <trkpt lat="45.46609" lon="4.55204">
        <ele>477.37936401367</ele>
        <time>2015-04-25T13:29:13Z</time>
      </trkpt>
      <trkpt lat="45.46608" lon="4.55209">
        <ele>477.80767822266</ele>
        <time>2015-04-25T13:29:15Z</time>
      </trkpt>
      <trkpt lat="45.46608" lon="4.55212">
        <ele>478.12399291992</ele>
        <time>2015-04-25T13:29:17Z</time>
      </trkpt>
      <trkpt lat="45.46607" lon="4.55216">
        <ele>478.462890625</ele>
        <time>2015-04-25T13:29:19Z</time>
      </trkpt>
      <trkpt lat="45.46606" lon="4.5522">
        <ele>478.76123046875</ele>
        <time>2015-04-25T13:29:21Z</time>
      </trkpt>
      <trkpt lat="45.46606" lon="4.55224">
        <ele>479.07662963867</ele>
        <time>2015-04-25T13:29:23Z</time>
      </trkpt>
      <trkpt lat="45.46606" lon="4.55227">
        <ele>479.39312744141</ele>
        <time>2015-04-25T13:29:25Z</time>
      </trkpt>
      <trkpt lat="45.46605" lon="4.55231">
        <ele>479.68713378906</ele>
        <time>2015-04-25T13:29:27Z</time>
      </trkpt>
      <trkpt lat="45.46605" lon="4.55234">
        <ele>479.96823120117</ele>
        <time>2015-04-25T13:29:29Z</time>
      </trkpt>
      <trkpt lat="45.46605" lon="4.55238">
        <ele>480.25537109375</ele>
        <time>2015-04-25T13:29:31Z</time>
      </trkpt>
      <trkpt lat="45.46604" lon="4.55241">
        <ele>480.56060791016</ele>
        <time>2015-04-25T13:29:33Z</time>
      </trkpt>
      <trkpt lat="45.46604" lon="4.55245">
        <ele>480.86956787109</ele>
        <time>2015-04-25T13:29:35Z</time>
      </trkpt>
      <trkpt lat="45.46604" lon="4.55249">
        <ele>481.18194580078</ele>
        <time>2015-04-25T13:29:37Z</time>
      </trkpt>
      <trkpt lat="45.46603" lon="4.55253">
        <ele>481.50042724609</ele>
        <time>2015-04-25T13:29:39Z</time>
      </trkpt>
      <trkpt lat="45.46603" lon="4.55257">
        <ele>481.79858398438</ele>
        <time>2015-04-25T13:29:41Z</time>
      </trkpt>
      <trkpt lat="45.46603" lon="4.55261">
        <ele>482.10565185547</ele>
        <time>2015-04-25T13:29:43Z</time>
      </trkpt>
      <trkpt lat="45.46604" lon="4.55265">
        <ele>482.41900634766</ele>
        <time>2015-04-25T13:29:45Z</time>
      </trkpt>
      <trkpt lat="45.46605" lon="4.55268">
        <ele>482.73867797852</ele>
        <time>2015-04-25T13:29:47Z</time>
      </trkpt>
      <trkpt lat="45.46605" lon="4.55272">
        <ele>483.06378173828</ele>
        <time>2015-04-25T13:29:49Z</time>
      </trkpt>
      <trkpt lat="45.46605" lon="4.55276">
        <ele>483.38110351562</ele>
        <time>2015-04-25T13:29:51Z</time>
      </trkpt>
      <trkpt lat="45.46605" lon="4.5528">
        <ele>483.70022583008</ele>
        <time>2015-04-25T13:29:53Z</time>
      </trkpt>
      <trkpt lat="45.46605" lon="4.55284">
        <ele>483.99884033203</ele>
        <time>2015-04-25T13:29:55Z</time>
      </trkpt>
      <trkpt lat="45.46605" lon="4.55287">
        <ele>484.26641845703</ele>
        <time>2015-04-25T13:29:57Z</time>
      </trkpt>
      <trkpt lat="45.46605" lon="4.55291">
        <ele>484.56887817383</ele>
        <time>2015-04-25T13:29:59Z</time>
      </trkpt>
      <trkpt lat="45.46605" lon="4.55294">
        <ele>484.85195922852</ele>
        <time>2015-04-25T13:30:01Z</time>
      </trkpt>
      <trkpt lat="45.46605" lon="4.55297">
        <ele>485.10403442383</ele>
        <time>2015-04-25T13:30:03Z</time>
      </trkpt>
      <trkpt lat="45.46605" lon="4.55299">
        <ele>485.24075317383</ele>
        <time>2015-04-25T13:30:06Z</time>
      </trkpt>
      <trkpt lat="45.46605" lon="4.55301">
        <ele>485.37805175781</ele>
        <time>2015-04-25T13:30:17Z</time>
      </trkpt>
      <trkpt lat="45.46605" lon="4.55303">
        <ele>485.59475708008</ele>
        <time>2015-04-25T13:30:19Z</time>
      </trkpt>
      <trkpt lat="45.46605" lon="4.55306">
        <ele>485.8430480957</ele>
        <time>2015-04-25T13:30:21Z</time>
      </trkpt>
      <trkpt lat="45.46606" lon="4.55309">
        <ele>486.08529663086</ele>
        <time>2015-04-25T13:30:23Z</time>
      </trkpt>
      <trkpt lat="45.46606" lon="4.55312">
        <ele>486.3623046875</ele>
        <time>2015-04-25T13:30:25Z</time>
      </trkpt>
      <trkpt lat="45.46606" lon="4.55315">
        <ele>486.61590576172</ele>
        <time>2015-04-25T13:30:27Z</time>
      </trkpt>
      <trkpt lat="45.46606" lon="4.55319">
        <ele>486.90878295898</ele>
        <time>2015-04-25T13:30:29Z</time>
      </trkpt>
      <trkpt lat="45.46606" lon="4.55323">
        <ele>487.24401855469</ele>
        <time>2015-04-25T13:30:32Z</time>
      </trkpt>
      <trkpt lat="45.46606" lon="4.55326">
        <ele>487.53430175781</ele>
        <time>2015-04-25T13:30:34Z</time>
      </trkpt>
      <trkpt lat="45.46607" lon="4.55329">
        <ele>487.77081298828</ele>
        <time>2015-04-25T13:30:36Z</time>
      </trkpt>
      <trkpt lat="45.46607" lon="4.55335">
        <ele>488.27307128906</ele>
        <time>2015-04-25T13:30:38Z</time>
      </trkpt>
      <trkpt lat="45.46607" lon="4.55342">
        <ele>488.8876953125</ele>
        <time>2015-04-25T13:30:40Z</time>
      </trkpt>
      <trkpt lat="45.46609" lon="4.55348">
        <ele>489.48529052734</ele>
        <time>2015-04-25T13:30:42Z</time>
      </trkpt>
      <trkpt lat="45.46609" lon="4.55352">
        <ele>489.89337158203</ele>
        <time>2015-04-25T13:30:44Z</time>
      </trkpt>
      <trkpt lat="45.46609" lon="4.55358">
        <ele>490.39944458008</ele>
        <time>2015-04-25T13:30:46Z</time>
      </trkpt>
      <trkpt lat="45.4661" lon="4.55364">
        <ele>490.99572753906</ele>
        <time>2015-04-25T13:30:48Z</time>
      </trkpt>
      <trkpt lat="45.46609" lon="4.55371">
        <ele>491.51614379883</ele>
        <time>2015-04-25T13:30:50Z</time>
      </trkpt>
      <trkpt lat="45.46609" lon="4.55375">
        <ele>491.88870239258</ele>
        <time>2015-04-25T13:30:52Z</time>
      </trkpt>
      <trkpt lat="45.46609" lon="4.5538">
        <ele>492.33172607422</ele>
        <time>2015-04-25T13:30:54Z</time>
      </trkpt>
      <trkpt lat="45.46609" lon="4.55385">
        <ele>492.74975585938</ele>
        <time>2015-04-25T13:30:56Z</time>
      </trkpt>
      <trkpt lat="45.46608" lon="4.55391">
        <ele>493.22567749023</ele>
        <time>2015-04-25T13:30:58Z</time>
      </trkpt>
      <trkpt lat="45.46608" lon="4.55396">
        <ele>493.7102355957</ele>
        <time>2015-04-25T13:31:00Z</time>
      </trkpt>
      <trkpt lat="45.46607" lon="4.55402">
        <ele>494.12442016602</ele>
        <time>2015-04-25T13:31:02Z</time>
      </trkpt>
      <trkpt lat="45.46607" lon="4.55408">
        <ele>494.66903686523</ele>
        <time>2015-04-25T13:31:04Z</time>
      </trkpt>
      <trkpt lat="45.46606" lon="4.55414">
        <ele>495.17352294922</ele>
        <time>2015-04-25T13:31:06Z</time>
      </trkpt>
      <trkpt lat="45.46608" lon="4.55422">
        <ele>495.82675170898</ele>
        <time>2015-04-25T13:31:08Z</time>
      </trkpt>
      <trkpt lat="45.46608" lon="4.55429">
        <ele>496.29177856445</ele>
        <time>2015-04-25T13:31:10Z</time>
      </trkpt>
      <trkpt lat="45.46608" lon="4.55437">
        <ele>496.81005859375</ele>
        <time>2015-04-25T13:31:12Z</time>
      </trkpt>
      <trkpt lat="45.46608" lon="4.55444">
        <ele>497.29956054688</ele>
        <time>2015-04-25T13:31:14Z</time>
      </trkpt>
      <trkpt lat="45.46608" lon="4.5545">
        <ele>497.75485229492</ele>
        <time>2015-04-25T13:31:16Z</time>
      </trkpt>
      <trkpt lat="45.46609" lon="4.55455">
        <ele>498.16488647461</ele>
        <time>2015-04-25T13:31:18Z</time>
      </trkpt>
      <trkpt lat="45.4661" lon="4.55462">
        <ele>498.64495849609</ele>
        <time>2015-04-25T13:31:20Z</time>
      </trkpt>
      <trkpt lat="45.46609" lon="4.55468">
        <ele>499.04864501953</ele>
        <time>2015-04-25T13:31:22Z</time>
      </trkpt>
      <trkpt lat="45.4661" lon="4.55474">
        <ele>499.49005126953</ele>
        <time>2015-04-25T13:31:24Z</time>
      </trkpt>
      <trkpt lat="45.46609" lon="4.5548">
        <ele>499.87948608398</ele>
        <time>2015-04-25T13:31:26Z</time>
      </trkpt>
      <trkpt lat="45.46609" lon="4.55487">
        <ele>500.2900390625</ele>
        <time>2015-04-25T13:31:28Z</time>
      </trkpt>
      <trkpt lat="45.46609" lon="4.55493">
        <ele>500.66387939453</ele>
        <time>2015-04-25T13:31:30Z</time>
      </trkpt>
      <trkpt lat="45.46608" lon="4.55499">
        <ele>501.03317260742</ele>
        <time>2015-04-25T13:31:32Z</time>
      </trkpt>
      <trkpt lat="45.46608" lon="4.55506">
        <ele>501.58084106445</ele>
        <time>2015-04-25T13:31:34Z</time>
      </trkpt>
      <trkpt lat="45.46608" lon="4.55513">
        <ele>502.15362548828</ele>
        <time>2015-04-25T13:31:36Z</time>
      </trkpt>
      <trkpt lat="45.46607" lon="4.55519">
        <ele>502.61822509766</ele>
        <time>2015-04-25T13:31:38Z</time>
      </trkpt>
      <trkpt lat="45.46607" lon="4.55525">
        <ele>503.14697265625</ele>
        <time>2015-04-25T13:31:40Z</time>
      </trkpt>
      <trkpt lat="45.46607" lon="4.55532">
        <ele>503.6516418457</ele>
        <time>2015-04-25T13:31:42Z</time>
      </trkpt>
      <trkpt lat="45.46607" lon="4.55538">
        <ele>504.18035888672</ele>
        <time>2015-04-25T13:31:44Z</time>
      </trkpt>
      <trkpt lat="45.46607" lon="4.55544">
        <ele>504.66900634766</ele>
        <time>2015-04-25T13:31:46Z</time>
      </trkpt>
      <trkpt lat="45.46606" lon="4.5555">
        <ele>505.18170166016</ele>
        <time>2015-04-25T13:31:48Z</time>
      </trkpt>
      <trkpt lat="45.46606" lon="4.55557">
        <ele>505.69039916992</ele>
        <time>2015-04-25T13:31:50Z</time>
      </trkpt>
      <trkpt lat="45.46604" lon="4.55564">
        <ele>506.10696411133</ele>
        <time>2015-04-25T13:31:52Z</time>
      </trkpt>
      <trkpt lat="45.46603" lon="4.5557">
        <ele>506.5595703125</ele>
        <time>2015-04-25T13:31:54Z</time>
      </trkpt>
      <trkpt lat="45.46603" lon="4.55577">
        <ele>507.04824829102</ele>
        <time>2015-04-25T13:31:56Z</time>
      </trkpt>
      <trkpt lat="45.46602" lon="4.55583">
        <ele>507.544921875</ele>
        <time>2015-04-25T13:31:58Z</time>
      </trkpt>
      <trkpt lat="45.46602" lon="4.55588">
        <ele>508.05282592773</ele>
        <time>2015-04-25T13:32:00Z</time>
      </trkpt>
      <trkpt lat="45.46601" lon="4.55594">
        <ele>508.61380004883</ele>
        <time>2015-04-25T13:32:02Z</time>
      </trkpt>
      <trkpt lat="45.46601" lon="4.55601">
        <ele>509.18579101562</ele>
        <time>2015-04-25T13:32:04Z</time>
      </trkpt>
      <trkpt lat="45.466" lon="4.55606">
        <ele>509.74212646484</ele>
        <time>2015-04-25T13:32:06Z</time>
      </trkpt>
      <trkpt lat="45.466" lon="4.55612">
        <ele>510.23934936523</ele>
        <time>2015-04-25T13:32:08Z</time>
      </trkpt>
      <trkpt lat="45.46599" lon="4.55617">
        <ele>510.76666259766</ele>
        <time>2015-04-25T13:32:10Z</time>
      </trkpt>
      <trkpt lat="45.46598" lon="4.55623">
        <ele>511.29797363281</ele>
        <time>2015-04-25T13:32:12Z</time>
      </trkpt>
      <trkpt lat="45.46596" lon="4.55629">
        <ele>511.80587768555</ele>
        <time>2015-04-25T13:32:14Z</time>
      </trkpt>
      <trkpt lat="45.46594" lon="4.55635">
        <ele>512.25122070312</ele>
        <time>2015-04-25T13:32:16Z</time>
      </trkpt>
      <trkpt lat="45.46592" lon="4.55641">
        <ele>512.71551513672</ele>
        <time>2015-04-25T13:32:18Z</time>
      </trkpt>
      <trkpt lat="45.4659" lon="4.55647">
        <ele>513.24566650391</ele>
        <time>2015-04-25T13:32:20Z</time>
      </trkpt>
      <trkpt lat="45.46589" lon="4.55652">
        <ele>513.69744873047</ele>
        <time>2015-04-25T13:32:22Z</time>
      </trkpt>
      <trkpt lat="45.46587" lon="4.55658">
        <ele>514.20373535156</ele>
        <time>2015-04-25T13:32:24Z</time>
      </trkpt>
      <trkpt lat="45.46585" lon="4.55664">
        <ele>514.78082275391</ele>
        <time>2015-04-25T13:32:26Z</time>
      </trkpt>
      <trkpt lat="45.46582" lon="4.55669">
        <ele>515.27197265625</ele>
        <time>2015-04-25T13:32:28Z</time>
      </trkpt>
      <trkpt lat="45.46579" lon="4.55674">
        <ele>515.58850097656</ele>
        <time>2015-04-25T13:32:30Z</time>
      </trkpt>
      <trkpt lat="45.46576" lon="4.5568">
        <ele>515.97045898438</ele>
        <time>2015-04-25T13:32:32Z</time>
      </trkpt>
      <trkpt lat="45.46574" lon="4.55685">
        <ele>516.29571533203</ele>
        <time>2015-04-25T13:32:34Z</time>
      </trkpt>
      <trkpt lat="45.46571" lon="4.5569">
        <ele>516.71850585938</ele>
        <time>2015-04-25T13:32:36Z</time>
      </trkpt>
      <trkpt lat="45.4657" lon="4.55696">
        <ele>517.45806884766</ele>
        <time>2015-04-25T13:32:38Z</time>
      </trkpt>
      <trkpt lat="45.46569" lon="4.557">
        <ele>518.00689697266</ele>
        <time>2015-04-25T13:32:40Z</time>
      </trkpt>
      <trkpt lat="45.46566" lon="4.55706">
        <ele>518.52368164062</ele>
        <time>2015-04-25T13:32:42Z</time>
      </trkpt>
      <trkpt lat="45.46564" lon="4.55711">
        <ele>518.88427734375</ele>
        <time>2015-04-25T13:32:44Z</time>
      </trkpt>
      <trkpt lat="45.46563" lon="4.55716">
        <ele>519.38354492188</ele>
        <time>2015-04-25T13:32:46Z</time>
      </trkpt>
      <trkpt lat="45.46561" lon="4.5572">
        <ele>519.70233154297</ele>
        <time>2015-04-25T13:32:48Z</time>
      </trkpt>
      <trkpt lat="45.46559" lon="4.55723">
        <ele>519.85632324219</ele>
        <time>2015-04-25T13:32:50Z</time>
      </trkpt>
      <trkpt lat="45.46558" lon="4.55727">
        <ele>520.19110107422</ele>
        <time>2015-04-25T13:32:52Z</time>
      </trkpt>
      <trkpt lat="45.46556" lon="4.55732">
        <ele>520.60211181641</ele>
        <time>2015-04-25T13:32:54Z</time>
      </trkpt>
      <trkpt lat="45.46555" lon="4.55738">
        <ele>521.49359130859</ele>
        <time>2015-04-25T13:32:56Z</time>
      </trkpt>
      <trkpt lat="45.46554" lon="4.55745">
        <ele>522.27368164062</ele>
        <time>2015-04-25T13:32:58Z</time>
      </trkpt>
      <trkpt lat="45.46552" lon="4.55751">
        <ele>522.72131347656</ele>
        <time>2015-04-25T13:33:00Z</time>
      </trkpt>
      <trkpt lat="45.46551" lon="4.55756">
        <ele>523.02569580078</ele>
        <time>2015-04-25T13:33:02Z</time>
      </trkpt>
      <trkpt lat="45.46548" lon="4.55762">
        <ele>523.23455810547</ele>
        <time>2015-04-25T13:33:04Z</time>
      </trkpt>
      <trkpt lat="45.46546" lon="4.55766">
        <ele>523.30035400391</ele>
        <time>2015-04-25T13:33:06Z</time>
      </trkpt>
      <trkpt lat="45.46544" lon="4.55771">
        <ele>523.46575927734</ele>
        <time>2015-04-25T13:33:08Z</time>
      </trkpt>
      <trkpt lat="45.46543" lon="4.55774">
        <ele>523.62078857422</ele>
        <time>2015-04-25T13:33:10Z</time>
      </trkpt>
      <trkpt lat="45.46542" lon="4.55777">
        <ele>523.83331298828</ele>
        <time>2015-04-25T13:33:12Z</time>
      </trkpt>
      <trkpt lat="45.46541" lon="4.55781">
        <ele>524.07012939453</ele>
        <time>2015-04-25T13:33:14Z</time>
      </trkpt>
      <trkpt lat="45.46539" lon="4.55786">
        <ele>524.22027587891</ele>
        <time>2015-04-25T13:33:17Z</time>
      </trkpt>
      <trkpt lat="45.46538" lon="4.55789">
        <ele>524.49389648438</ele>
        <time>2015-04-25T13:33:19Z</time>
      </trkpt>
      <trkpt lat="45.46537" lon="4.55792">
        <ele>524.78375244141</ele>
        <time>2015-04-25T13:33:21Z</time>
      </trkpt>
      <trkpt lat="45.46536" lon="4.55795">
        <ele>524.91979980469</ele>
        <time>2015-04-25T13:33:23Z</time>
      </trkpt>
      <trkpt lat="45.46535" lon="4.55798">
        <ele>525.17120361328</ele>
        <time>2015-04-25T13:33:25Z</time>
      </trkpt>
      <trkpt lat="45.46534" lon="4.55801">
        <ele>525.42590332031</ele>
        <time>2015-04-25T13:33:27Z</time>
      </trkpt>
      <trkpt lat="45.46532" lon="4.55805">
        <ele>525.6826171875</ele>
        <time>2015-04-25T13:33:29Z</time>
      </trkpt>
      <trkpt lat="45.46531" lon="4.55809">
        <ele>525.95269775391</ele>
        <time>2015-04-25T13:33:31Z</time>
      </trkpt>
      <trkpt lat="45.4653" lon="4.55812">
        <ele>526.20477294922</ele>
        <time>2015-04-25T13:33:33Z</time>
      </trkpt>
      <trkpt lat="45.46529" lon="4.55815">
        <ele>526.42010498047</ele>
        <time>2015-04-25T13:33:35Z</time>
      </trkpt>
      <trkpt lat="45.46528" lon="4.55818">
        <ele>526.64575195312</ele>
        <time>2015-04-25T13:33:37Z</time>
      </trkpt>
      <trkpt lat="45.46527" lon="4.55821">
        <ele>526.9697265625</ele>
        <time>2015-04-25T13:33:39Z</time>
      </trkpt>
      <trkpt lat="45.46526" lon="4.55824">
        <ele>527.14031982422</ele>
        <time>2015-04-25T13:33:41Z</time>
      </trkpt>
      <trkpt lat="45.46525" lon="4.55827">
        <ele>527.4365234375</ele>
        <time>2015-04-25T13:33:43Z</time>
      </trkpt>
      <trkpt lat="45.46524" lon="4.5583">
        <ele>527.76251220703</ele>
        <time>2015-04-25T13:33:45Z</time>
      </trkpt>
      <trkpt lat="45.46523" lon="4.55833">
        <ele>528.01763916016</ele>
        <time>2015-04-25T13:33:47Z</time>
      </trkpt>
      <trkpt lat="45.46522" lon="4.55837">
        <ele>528.29974365234</ele>
        <time>2015-04-25T13:33:49Z</time>
      </trkpt>
      <trkpt lat="45.4652" lon="4.55842">
        <ele>528.70013427734</ele>
        <time>2015-04-25T13:33:51Z</time>
      </trkpt>
      <trkpt lat="45.46518" lon="4.55847">
        <ele>529.15338134766</ele>
        <time>2015-04-25T13:33:53Z</time>
      </trkpt>
      <trkpt lat="45.46516" lon="4.55853">
        <ele>529.66363525391</ele>
        <time>2015-04-25T13:33:55Z</time>
      </trkpt>
      <trkpt lat="45.46514" lon="4.55858">
        <ele>529.94555664062</ele>
        <time>2015-04-25T13:33:57Z</time>
      </trkpt>
      <trkpt lat="45.46512" lon="4.55863">
        <ele>530.29083251953</ele>
        <time>2015-04-25T13:33:59Z</time>
      </trkpt>
      <trkpt lat="45.4651" lon="4.55866">
        <ele>530.56488037109</ele>
        <time>2015-04-25T13:34:01Z</time>
      </trkpt>
      <trkpt lat="45.46509" lon="4.55871">
        <ele>530.99041748047</ele>
        <time>2015-04-25T13:34:03Z</time>
      </trkpt>
      <trkpt lat="45.46507" lon="4.55876">
        <ele>531.416015625</ele>
        <time>2015-04-25T13:34:05Z</time>
      </trkpt>
      <trkpt lat="45.46506" lon="4.5588">
        <ele>531.84716796875</ele>
        <time>2015-04-25T13:34:07Z</time>
      </trkpt>
      <trkpt lat="45.46504" lon="4.55885">
        <ele>532.32293701172</ele>
        <time>2015-04-25T13:34:09Z</time>
      </trkpt>
      <trkpt lat="45.46502" lon="4.5589">
        <ele>532.66009521484</ele>
        <time>2015-04-25T13:34:11Z</time>
      </trkpt>
      <trkpt lat="45.46501" lon="4.55893">
        <ele>532.98272705078</ele>
        <time>2015-04-25T13:34:13Z</time>
      </trkpt>
      <trkpt lat="45.465" lon="4.55896">
        <ele>533.23455810547</ele>
        <time>2015-04-25T13:34:15Z</time>
      </trkpt>
      <trkpt lat="45.46499" lon="4.559">
        <ele>533.56982421875</ele>
        <time>2015-04-25T13:34:17Z</time>
      </trkpt>
      <trkpt lat="45.46497" lon="4.55904">
        <ele>533.8125</ele>
        <time>2015-04-25T13:34:19Z</time>
      </trkpt>
      <trkpt lat="45.46496" lon="4.55907">
        <ele>533.87255859375</ele>
        <time>2015-04-25T13:34:21Z</time>
      </trkpt>
      <trkpt lat="45.46495" lon="4.5591">
        <ele>534.07336425781</ele>
        <time>2015-04-25T13:34:23Z</time>
      </trkpt>
      <trkpt lat="45.46494" lon="4.55914">
        <ele>534.28680419922</ele>
        <time>2015-04-25T13:34:25Z</time>
      </trkpt>
      <trkpt lat="45.46492" lon="4.55917">
        <ele>534.46130371094</ele>
        <time>2015-04-25T13:34:27Z</time>
      </trkpt>
      <trkpt lat="45.46492" lon="4.5592">
        <ele>534.72595214844</ele>
        <time>2015-04-25T13:34:29Z</time>
      </trkpt>
      <trkpt lat="45.4649" lon="4.55924">
        <ele>534.92004394531</ele>
        <time>2015-04-25T13:34:32Z</time>
      </trkpt>
      <trkpt lat="45.46489" lon="4.55928">
        <ele>535.08264160156</ele>
        <time>2015-04-25T13:34:34Z</time>
      </trkpt>
      <trkpt lat="45.46488" lon="4.55931">
        <ele>535.24737548828</ele>
        <time>2015-04-25T13:34:36Z</time>
      </trkpt>
      <trkpt lat="45.46487" lon="4.55934">
        <ele>535.42602539062</ele>
        <time>2015-04-25T13:34:38Z</time>
      </trkpt>
      <trkpt lat="45.46486" lon="4.55937">
        <ele>535.74609375</ele>
        <time>2015-04-25T13:34:40Z</time>
      </trkpt>
      <trkpt lat="45.46486" lon="4.5594">
        <ele>535.97979736328</ele>
        <time>2015-04-25T13:34:42Z</time>
      </trkpt>
      <trkpt lat="45.46484" lon="4.55945">
        <ele>536.2255859375</ele>
        <time>2015-04-25T13:34:45Z</time>
      </trkpt>
      <trkpt lat="45.46483" lon="4.55948">
        <ele>536.41839599609</ele>
        <time>2015-04-25T13:34:47Z</time>
      </trkpt>
      <trkpt lat="45.46482" lon="4.55951">
        <ele>536.607421875</ele>
        <time>2015-04-25T13:34:49Z</time>
      </trkpt>
      <trkpt lat="45.46481" lon="4.55955">
        <ele>536.82257080078</ele>
        <time>2015-04-25T13:34:51Z</time>
      </trkpt>
      <trkpt lat="45.46479" lon="4.55958">
        <ele>536.96795654297</ele>
        <time>2015-04-25T13:34:53Z</time>
      </trkpt>
      <trkpt lat="45.46478" lon="4.55963">
        <ele>537.21051025391</ele>
        <time>2015-04-25T13:34:56Z</time>
      </trkpt>
      <trkpt lat="45.46476" lon="4.55966">
        <ele>537.39727783203</ele>
        <time>2015-04-25T13:34:58Z</time>
      </trkpt>
      <trkpt lat="45.46475" lon="4.55971">
        <ele>537.74462890625</ele>
        <time>2015-04-25T13:35:00Z</time>
      </trkpt>
      <trkpt lat="45.46473" lon="4.55976">
        <ele>538.13293457031</ele>
        <time>2015-04-25T13:35:02Z</time>
      </trkpt>
      <trkpt lat="45.46471" lon="4.55981">
        <ele>538.45520019531</ele>
        <time>2015-04-25T13:35:04Z</time>
      </trkpt>
      <trkpt lat="45.46469" lon="4.55988">
        <ele>538.78442382812</ele>
        <time>2015-04-25T13:35:06Z</time>
      </trkpt>
      <trkpt lat="45.46467" lon="4.55994">
        <ele>539.22509765625</ele>
        <time>2015-04-25T13:35:08Z</time>
      </trkpt>
      <trkpt lat="45.46465" lon="4.55999">
        <ele>539.62335205078</ele>
        <time>2015-04-25T13:35:10Z</time>
      </trkpt>
      <trkpt lat="45.46463" lon="4.56004">
        <ele>539.9541015625</ele>
        <time>2015-04-25T13:35:12Z</time>
      </trkpt>
      <trkpt lat="45.46461" lon="4.5601">
        <ele>540.29699707031</ele>
        <time>2015-04-25T13:35:14Z</time>
      </trkpt>
      <trkpt lat="45.4646" lon="4.56015">
        <ele>540.64288330078</ele>
        <time>2015-04-25T13:35:16Z</time>
      </trkpt>
      <trkpt lat="45.46458" lon="4.56021">
        <ele>541.16748046875</ele>
        <time>2015-04-25T13:35:18Z</time>
      </trkpt>
      <trkpt lat="45.46457" lon="4.56027">
        <ele>541.61401367188</ele>
        <time>2015-04-25T13:35:20Z</time>
      </trkpt>
      <trkpt lat="45.46456" lon="4.56033">
        <ele>542.12249755859</ele>
        <time>2015-04-25T13:35:22Z</time>
      </trkpt>
      <trkpt lat="45.46454" lon="4.56037">
        <ele>542.35601806641</ele>
        <time>2015-04-25T13:35:24Z</time>
      </trkpt>
      <trkpt lat="45.46452" lon="4.56041">
        <ele>542.57440185547</ele>
        <time>2015-04-25T13:35:26Z</time>
      </trkpt>
      <trkpt lat="45.46451" lon="4.56044">
        <ele>542.70166015625</ele>
        <time>2015-04-25T13:35:28Z</time>
      </trkpt>
      <trkpt lat="45.4645" lon="4.56048">
        <ele>542.88690185547</ele>
        <time>2015-04-25T13:35:30Z</time>
      </trkpt>
      <trkpt lat="45.46449" lon="4.5605">
        <ele>542.96417236328</ele>
        <time>2015-04-25T13:35:32Z</time>
      </trkpt>
      <trkpt lat="45.46447" lon="4.56053">
        <ele>543.11145019531</ele>
        <time>2015-04-25T13:35:34Z</time>
      </trkpt>
      <trkpt lat="45.46445" lon="4.56058">
        <ele>543.34594726562</ele>
        <time>2015-04-25T13:35:36Z</time>
      </trkpt>
      <trkpt lat="45.46444" lon="4.56063">
        <ele>543.69091796875</ele>
        <time>2015-04-25T13:35:38Z</time>
      </trkpt>
      <trkpt lat="45.46442" lon="4.56069">
        <ele>544.11029052734</ele>
        <time>2015-04-25T13:35:40Z</time>
      </trkpt>
      <trkpt lat="45.46441" lon="4.56074">
        <ele>544.48388671875</ele>
        <time>2015-04-25T13:35:42Z</time>
      </trkpt>
      <trkpt lat="45.46439" lon="4.56081">
        <ele>544.92468261719</ele>
        <time>2015-04-25T13:35:44Z</time>
      </trkpt>
      <trkpt lat="45.46437" lon="4.56088">
        <ele>545.43170166016</ele>
        <time>2015-04-25T13:35:46Z</time>
      </trkpt>
      <trkpt lat="45.46435" lon="4.56095">
        <ele>546.02618408203</ele>
        <time>2015-04-25T13:35:48Z</time>
      </trkpt>
      <trkpt lat="45.46434" lon="4.56101">
        <ele>546.56408691406</ele>
        <time>2015-04-25T13:35:50Z</time>
      </trkpt>
      <trkpt lat="45.46432" lon="4.56107">
        <ele>546.97833251953</ele>
        <time>2015-04-25T13:35:52Z</time>
      </trkpt>
      <trkpt lat="45.4643" lon="4.56112">
        <ele>547.33599853516</ele>
        <time>2015-04-25T13:35:54Z</time>
      </trkpt>
      <trkpt lat="45.46429" lon="4.56117">
        <ele>547.751953125</ele>
        <time>2015-04-25T13:35:56Z</time>
      </trkpt>
      <trkpt lat="45.46427" lon="4.56123">
        <ele>548.14733886719</ele>
        <time>2015-04-25T13:35:58Z</time>
      </trkpt>
      <trkpt lat="45.46425" lon="4.56129">
        <ele>548.7041015625</ele>
        <time>2015-04-25T13:36:00Z</time>
      </trkpt>
      <trkpt lat="45.46423" lon="4.56135">
        <ele>549.12469482422</ele>
        <time>2015-04-25T13:36:02Z</time>
      </trkpt>
      <trkpt lat="45.46421" lon="4.56141">
        <ele>549.47833251953</ele>
        <time>2015-04-25T13:36:04Z</time>
      </trkpt>
      <trkpt lat="45.46419" lon="4.56147">
        <ele>549.80676269531</ele>
        <time>2015-04-25T13:36:06Z</time>
      </trkpt>
      <trkpt lat="45.46417" lon="4.56153">
        <ele>550.27136230469</ele>
        <time>2015-04-25T13:36:08Z</time>
      </trkpt>
      <trkpt lat="45.46414" lon="4.5616">
        <ele>550.61407470703</ele>
        <time>2015-04-25T13:36:10Z</time>
      </trkpt>
      <trkpt lat="45.46412" lon="4.56167">
        <ele>551.03076171875</ele>
        <time>2015-04-25T13:36:12Z</time>
      </trkpt>
      <trkpt lat="45.4641" lon="4.56173">
        <ele>551.42761230469</ele>
        <time>2015-04-25T13:36:14Z</time>
      </trkpt>
      <trkpt lat="45.46407" lon="4.56183">
        <ele>551.98638916016</ele>
        <time>2015-04-25T13:36:17Z</time>
      </trkpt>
      <trkpt lat="45.46405" lon="4.56189">
        <ele>552.26330566406</ele>
        <time>2015-04-25T13:36:19Z</time>
      </trkpt>
      <trkpt lat="45.46403" lon="4.56195">
        <ele>552.56701660156</ele>
        <time>2015-04-25T13:36:21Z</time>
      </trkpt>
      <trkpt lat="45.464" lon="4.56201">
        <ele>552.67205810547</ele>
        <time>2015-04-25T13:36:23Z</time>
      </trkpt>
      <trkpt lat="45.46397" lon="4.56209">
        <ele>553.01141357422</ele>
        <time>2015-04-25T13:36:26Z</time>
      </trkpt>
      <trkpt lat="45.46396" lon="4.56215">
        <ele>553.43005371094</ele>
        <time>2015-04-25T13:36:28Z</time>
      </trkpt>
      <trkpt lat="45.46394" lon="4.56221">
        <ele>553.85131835938</ele>
        <time>2015-04-25T13:36:30Z</time>
      </trkpt>
      <trkpt lat="45.46392" lon="4.56225">
        <ele>553.93121337891</ele>
        <time>2015-04-25T13:36:32Z</time>
      </trkpt>
      <trkpt lat="45.46391" lon="4.56229">
        <ele>554.13116455078</ele>
        <time>2015-04-25T13:36:34Z</time>
      </trkpt>
      <trkpt lat="45.46389" lon="4.56235">
        <ele>554.43615722656</ele>
        <time>2015-04-25T13:36:36Z</time>
      </trkpt>
      <trkpt lat="45.46387" lon="4.5624">
        <ele>554.77886962891</ele>
        <time>2015-04-25T13:36:38Z</time>
      </trkpt>
      <trkpt lat="45.46385" lon="4.56246">
        <ele>555.02117919922</ele>
        <time>2015-04-25T13:36:40Z</time>
      </trkpt>
      <trkpt lat="45.46383" lon="4.5625">
        <ele>555.17877197266</ele>
        <time>2015-04-25T13:36:42Z</time>
      </trkpt>
      <trkpt lat="45.46381" lon="4.56254">
        <ele>555.35760498047</ele>
        <time>2015-04-25T13:36:44Z</time>
      </trkpt>
      <trkpt lat="45.4638" lon="4.56257">
        <ele>555.52819824219</ele>
        <time>2015-04-25T13:36:46Z</time>
      </trkpt>
      <trkpt lat="45.46378" lon="4.56261">
        <ele>555.70391845703</ele>
        <time>2015-04-25T13:36:48Z</time>
      </trkpt>
      <trkpt lat="45.46376" lon="4.56265">
        <ele>555.93127441406</ele>
        <time>2015-04-25T13:36:51Z</time>
      </trkpt>
      <trkpt lat="45.46373" lon="4.5627">
        <ele>555.89312744141</ele>
        <time>2015-04-25T13:36:55Z</time>
      </trkpt>
      <trkpt lat="45.46372" lon="4.56274">
        <ele>556.16821289062</ele>
        <time>2015-04-25T13:36:57Z</time>
      </trkpt>
      <trkpt lat="45.46371" lon="4.56277">
        <ele>556.48852539062</ele>
        <time>2015-04-25T13:36:59Z</time>
      </trkpt>
      <trkpt lat="45.4637" lon="4.5628">
        <ele>556.62390136719</ele>
        <time>2015-04-25T13:37:01Z</time>
      </trkpt>
      <trkpt lat="45.46369" lon="4.56283">
        <ele>556.75720214844</ele>
        <time>2015-04-25T13:37:03Z</time>
      </trkpt>
      <trkpt lat="45.46368" lon="4.56287">
        <ele>557.14666748047</ele>
        <time>2015-04-25T13:37:05Z</time>
      </trkpt>
      <trkpt lat="45.46368" lon="4.5629">
        <ele>557.53204345703</ele>
        <time>2015-04-25T13:37:07Z</time>
      </trkpt>
      <trkpt lat="45.46369" lon="4.56292">
        <ele>558.11218261719</ele>
        <time>2015-04-25T13:37:09Z</time>
      </trkpt>
      <trkpt lat="45.4637" lon="4.56294">
        <ele>558.49328613281</ele>
        <time>2015-04-25T13:37:11Z</time>
      </trkpt>
      <trkpt lat="45.46371" lon="4.56296">
        <ele>559.05853271484</ele>
        <time>2015-04-25T13:37:13Z</time>
      </trkpt>
      <trkpt lat="45.46373" lon="4.56296">
        <ele>559.53240966797</ele>
        <time>2015-04-25T13:37:15Z</time>
      </trkpt>
      <trkpt lat="45.46378" lon="4.56295">
        <ele>560.28552246094</ele>
        <time>2015-04-25T13:37:18Z</time>
      </trkpt>
      <trkpt lat="45.46383" lon="4.56291">
        <ele>560.89825439453</ele>
        <time>2015-04-25T13:37:20Z</time>
      </trkpt>
      <trkpt lat="45.46387" lon="4.56288">
        <ele>561.25256347656</ele>
        <time>2015-04-25T13:37:23Z</time>
      </trkpt>
      <trkpt lat="45.46393" lon="4.56284">
        <ele>561.91479492188</ele>
        <time>2015-04-25T13:37:26Z</time>
      </trkpt>
      <trkpt lat="45.46399" lon="4.5628">
        <ele>562.62322998047</ele>
        <time>2015-04-25T13:37:29Z</time>
      </trkpt>
      <trkpt lat="45.46402" lon="4.56276">
        <ele>562.81726074219</ele>
        <time>2015-04-25T13:37:31Z</time>
      </trkpt>
      <trkpt lat="45.46405" lon="4.56272">
        <ele>562.80645751953</ele>
        <time>2015-04-25T13:37:33Z</time>
      </trkpt>
      <trkpt lat="45.4641" lon="4.56269">
        <ele>563.24609375</ele>
        <time>2015-04-25T13:37:35Z</time>
      </trkpt>
      <trkpt lat="45.46416" lon="4.56263">
        <ele>563.79736328125</ele>
        <time>2015-04-25T13:37:38Z</time>
      </trkpt>
      <trkpt lat="45.46421" lon="4.56258">
        <ele>564.15319824219</ele>
        <time>2015-04-25T13:37:42Z</time>
      </trkpt>
      <trkpt lat="45.46423" lon="4.56254">
        <ele>564.16693115234</ele>
        <time>2015-04-25T13:37:45Z</time>
      </trkpt>
      <trkpt lat="45.46426" lon="4.56251">
        <ele>564.25622558594</ele>
        <time>2015-04-25T13:37:48Z</time>
      </trkpt>
      <trkpt lat="45.46429" lon="4.56248">
        <ele>564.51226806641</ele>
        <time>2015-04-25T13:37:51Z</time>
      </trkpt>
      <trkpt lat="45.46433" lon="4.56244">
        <ele>564.90856933594</ele>
        <time>2015-04-25T13:37:54Z</time>
      </trkpt>
      <trkpt lat="45.46435" lon="4.56242">
        <ele>565.216796875</ele>
        <time>2015-04-25T13:37:56Z</time>
      </trkpt>
      <trkpt lat="45.46438" lon="4.56241">
        <ele>565.60107421875</ele>
        <time>2015-04-25T13:37:59Z</time>
      </trkpt>
      <trkpt lat="45.4644" lon="4.56238">
        <ele>565.72259521484</ele>
        <time>2015-04-25T13:38:02Z</time>
      </trkpt>
      <trkpt lat="45.46442" lon="4.56235">
        <ele>565.77874755859</ele>
        <time>2015-04-25T13:38:04Z</time>
      </trkpt>
      <trkpt lat="45.46443" lon="4.56233">
        <ele>565.74377441406</ele>
        <time>2015-04-25T13:38:06Z</time>
      </trkpt>
      <trkpt lat="45.46445" lon="4.5623">
        <ele>565.919921875</ele>
        <time>2015-04-25T13:38:08Z</time>
      </trkpt>
      <trkpt lat="45.46447" lon="4.56228">
        <ele>566.03967285156</ele>
        <time>2015-04-25T13:38:10Z</time>
      </trkpt>
      <trkpt lat="45.46451" lon="4.56222">
        <ele>566.03771972656</ele>
        <time>2015-04-25T13:38:14Z</time>
      </trkpt>
      <trkpt lat="45.46453" lon="4.56216">
        <ele>565.63519287109</ele>
        <time>2015-04-25T13:38:16Z</time>
      </trkpt>
      <trkpt lat="45.46458" lon="4.56213">
        <ele>566.18780517578</ele>
        <time>2015-04-25T13:38:19Z</time>
      </trkpt>
      <trkpt lat="45.46465" lon="4.56208">
        <ele>567.12524414062</ele>
        <time>2015-04-25T13:38:21Z</time>
      </trkpt>
      <trkpt lat="45.4647" lon="4.56204">
        <ele>567.60064697266</ele>
        <time>2015-04-25T13:38:24Z</time>
      </trkpt>
      <trkpt lat="45.46475" lon="4.56196">
        <ele>567.45886230469</ele>
        <time>2015-04-25T13:38:27Z</time>
      </trkpt>
      <trkpt lat="45.46481" lon="4.56188">
        <ele>567.52301025391</ele>
        <time>2015-04-25T13:38:30Z</time>
      </trkpt>
      <trkpt lat="45.46487" lon="4.56181">
        <ele>567.62176513672</ele>
        <time>2015-04-25T13:38:32Z</time>
      </trkpt>
      <trkpt lat="45.46491" lon="4.56176">
        <ele>567.63446044922</ele>
        <time>2015-04-25T13:38:35Z</time>
      </trkpt>
      <trkpt lat="45.46497" lon="4.56169">
        <ele>567.80499267578</ele>
        <time>2015-04-25T13:38:37Z</time>
      </trkpt>
      <trkpt lat="45.46502" lon="4.56164">
        <ele>567.84252929688</ele>
        <time>2015-04-25T13:38:40Z</time>
      </trkpt>
      <trkpt lat="45.46508" lon="4.56158">
        <ele>567.67077636719</ele>
        <time>2015-04-25T13:38:42Z</time>
      </trkpt>
      <trkpt lat="45.46512" lon="4.56153">
        <ele>567.53173828125</ele>
        <time>2015-04-25T13:38:45Z</time>
      </trkpt>
      <trkpt lat="45.46518" lon="4.56146">
        <ele>567.15686035156</ele>
        <time>2015-04-25T13:38:48Z</time>
      </trkpt>
      <trkpt lat="45.46522" lon="4.56142">
        <ele>567.0947265625</ele>
        <time>2015-04-25T13:38:50Z</time>
      </trkpt>
      <trkpt lat="45.46528" lon="4.56138">
        <ele>567.17449951172</ele>
        <time>2015-04-25T13:38:52Z</time>
      </trkpt>
      <trkpt lat="45.46534" lon="4.56139">
        <ele>567.77502441406</ele>
        <time>2015-04-25T13:38:55Z</time>
      </trkpt>
      <trkpt lat="45.46539" lon="4.56144">
        <ele>569.09844970703</ele>
        <time>2015-04-25T13:38:57Z</time>
      </trkpt>
      <trkpt lat="45.46542" lon="4.56148">
        <ele>569.97113037109</ele>
        <time>2015-04-25T13:39:00Z</time>
      </trkpt>
      <trkpt lat="45.46542" lon="4.56157">
        <ele>571.19598388672</ele>
        <time>2015-04-25T13:39:03Z</time>
      </trkpt>
      <trkpt lat="45.4654" lon="4.56165">
        <ele>572.05401611328</ele>
        <time>2015-04-25T13:39:06Z</time>
      </trkpt>
      <trkpt lat="45.46536" lon="4.56173">
        <ele>572.82592773438</ele>
        <time>2015-04-25T13:39:08Z</time>
      </trkpt>
      <trkpt lat="45.46534" lon="4.56178">
        <ele>573.38055419922</ele>
        <time>2015-04-25T13:39:11Z</time>
      </trkpt>
      <trkpt lat="45.4653" lon="4.56185">
        <ele>574.11016845703</ele>
        <time>2015-04-25T13:39:13Z</time>
      </trkpt>
      <trkpt lat="45.46529" lon="4.56191">
        <ele>574.73889160156</ele>
        <time>2015-04-25T13:39:16Z</time>
      </trkpt>
      <trkpt lat="45.46526" lon="4.56199">
        <ele>575.64001464844</ele>
        <time>2015-04-25T13:39:19Z</time>
      </trkpt>
      <trkpt lat="45.46524" lon="4.56204">
        <ele>576.28515625</ele>
        <time>2015-04-25T13:39:21Z</time>
      </trkpt>
      <trkpt lat="45.46523" lon="4.5621">
        <ele>577.00714111328</ele>
        <time>2015-04-25T13:39:23Z</time>
      </trkpt>
      <trkpt lat="45.46521" lon="4.56215">
        <ele>577.69067382812</ele>
        <time>2015-04-25T13:39:25Z</time>
      </trkpt>
      <trkpt lat="45.46518" lon="4.56221">
        <ele>578.38623046875</ele>
        <time>2015-04-25T13:39:28Z</time>
      </trkpt>
      <trkpt lat="45.46517" lon="4.56227">
        <ele>579.11224365234</ele>
        <time>2015-04-25T13:39:31Z</time>
      </trkpt>
      <trkpt lat="45.46516" lon="4.56232">
        <ele>579.74005126953</ele>
        <time>2015-04-25T13:39:33Z</time>
      </trkpt>
      <trkpt lat="45.46516" lon="4.56235">
        <ele>580.23028564453</ele>
        <time>2015-04-25T13:39:36Z</time>
      </trkpt>
      <trkpt lat="45.46514" lon="4.56241">
        <ele>580.93951416016</ele>
        <time>2015-04-25T13:39:38Z</time>
      </trkpt>
      <trkpt lat="45.46513" lon="4.56247">
        <ele>581.71008300781</ele>
        <time>2015-04-25T13:39:40Z</time>
      </trkpt>
      <trkpt lat="45.46512" lon="4.56253">
        <ele>582.55908203125</ele>
        <time>2015-04-25T13:39:42Z</time>
      </trkpt>
      <trkpt lat="45.46511" lon="4.56259">
        <ele>583.32373046875</ele>
        <time>2015-04-25T13:39:44Z</time>
      </trkpt>
      <trkpt lat="45.46511" lon="4.56266">
        <ele>584.2724609375</ele>
        <time>2015-04-25T13:39:47Z</time>
      </trkpt>
      <trkpt lat="45.4651" lon="4.56275">
        <ele>585.54095458984</ele>
        <time>2015-04-25T13:39:49Z</time>
      </trkpt>
      <trkpt lat="45.46511" lon="4.56281">
        <ele>586.39459228516</ele>
        <time>2015-04-25T13:39:52Z</time>
      </trkpt>
      <trkpt lat="45.4651" lon="4.5629">
        <ele>587.56787109375</ele>
        <time>2015-04-25T13:39:54Z</time>
      </trkpt>
      <trkpt lat="45.46509" lon="4.56295">
        <ele>588.21173095703</ele>
        <time>2015-04-25T13:39:56Z</time>
      </trkpt>
      <trkpt lat="45.46507" lon="4.56301">
        <ele>588.93762207031</ele>
        <time>2015-04-25T13:39:58Z</time>
      </trkpt>
      <trkpt lat="45.46507" lon="4.56307">
        <ele>589.72601318359</ele>
        <time>2015-04-25T13:40:01Z</time>
      </trkpt>
      <trkpt lat="45.46506" lon="4.56312">
        <ele>590.40454101562</ele>
        <time>2015-04-25T13:40:03Z</time>
      </trkpt>
      <trkpt lat="45.46505" lon="4.5632">
        <ele>591.48614501953</ele>
        <time>2015-04-25T13:40:06Z</time>
      </trkpt>
      <trkpt lat="45.46504" lon="4.56324">
        <ele>591.98364257812</ele>
        <time>2015-04-25T13:40:08Z</time>
      </trkpt>
      <trkpt lat="45.46503" lon="4.56332">
        <ele>592.97052001953</ele>
        <time>2015-04-25T13:40:10Z</time>
      </trkpt>
      <trkpt lat="45.46502" lon="4.56336">
        <ele>593.42095947266</ele>
        <time>2015-04-25T13:40:14Z</time>
      </trkpt>
      <trkpt lat="45.46502" lon="4.56339">
        <ele>593.71862792969</ele>
        <time>2015-04-25T13:40:16Z</time>
      </trkpt>
      <trkpt lat="45.46501" lon="4.56345">
        <ele>594.32330322266</ele>
        <time>2015-04-25T13:40:19Z</time>
      </trkpt>
      <trkpt lat="45.46501" lon="4.5635">
        <ele>594.87774658203</ele>
        <time>2015-04-25T13:40:21Z</time>
      </trkpt>
      <trkpt lat="45.46501" lon="4.56353">
        <ele>595.15093994141</ele>
        <time>2015-04-25T13:40:24Z</time>
      </trkpt>
      <trkpt lat="45.465" lon="4.56358">
        <ele>595.66552734375</ele>
        <time>2015-04-25T13:40:26Z</time>
      </trkpt>
      <trkpt lat="45.46499" lon="4.56362">
        <ele>595.9501953125</ele>
        <time>2015-04-25T13:40:29Z</time>
      </trkpt>
      <trkpt lat="45.46498" lon="4.56367">
        <ele>596.10455322266</ele>
        <time>2015-04-25T13:40:31Z</time>
      </trkpt>
      <trkpt lat="45.46497" lon="4.5637">
        <ele>596.31689453125</ele>
        <time>2015-04-25T13:40:34Z</time>
      </trkpt>
      <trkpt lat="45.46497" lon="4.56379">
        <ele>597.17352294922</ele>
        <time>2015-04-25T13:40:36Z</time>
      </trkpt>
      <trkpt lat="45.46497" lon="4.56387">
        <ele>598.15899658203</ele>
        <time>2015-04-25T13:40:39Z</time>
      </trkpt>
      <trkpt lat="45.46498" lon="4.56392">
        <ele>598.86804199219</ele>
        <time>2015-04-25T13:40:41Z</time>
      </trkpt>
      <trkpt lat="45.46497" lon="4.56399">
        <ele>599.42962646484</ele>
        <time>2015-04-25T13:40:43Z</time>
      </trkpt>
      <trkpt lat="45.46495" lon="4.5641">
        <ele>600.25677490234</ele>
        <time>2015-04-25T13:40:45Z</time>
      </trkpt>
      <trkpt lat="45.46495" lon="4.56416">
        <ele>600.8271484375</ele>
        <time>2015-04-25T13:40:47Z</time>
      </trkpt>
      <trkpt lat="45.46495" lon="4.56421">
        <ele>601.57415771484</ele>
        <time>2015-04-25T13:40:50Z</time>
      </trkpt>
      <trkpt lat="45.46494" lon="4.5643">
        <ele>602.28582763672</ele>
        <time>2015-04-25T13:40:52Z</time>
      </trkpt>
      <trkpt lat="45.46493" lon="4.56435">
        <ele>602.78112792969</ele>
        <time>2015-04-25T13:40:55Z</time>
      </trkpt>
      <trkpt lat="45.46491" lon="4.56441">
        <ele>603.12713623047</ele>
        <time>2015-04-25T13:40:57Z</time>
      </trkpt>
      <trkpt lat="45.46491" lon="4.56444">
        <ele>603.37493896484</ele>
        <time>2015-04-25T13:41:00Z</time>
      </trkpt>
      <trkpt lat="45.46491" lon="4.56448">
        <ele>603.89538574219</ele>
        <time>2015-04-25T13:41:02Z</time>
      </trkpt>
      <trkpt lat="45.4649" lon="4.56452">
        <ele>604.22027587891</ele>
        <time>2015-04-25T13:41:05Z</time>
      </trkpt>
      <trkpt lat="45.46489" lon="4.56457">
        <ele>604.69464111328</ele>
        <time>2015-04-25T13:41:07Z</time>
      </trkpt>
      <trkpt lat="45.46488" lon="4.56461">
        <ele>604.86096191406</ele>
        <time>2015-04-25T13:41:10Z</time>
      </trkpt>
      <trkpt lat="45.46487" lon="4.56464">
        <ele>605.00537109375</ele>
        <time>2015-04-25T13:41:12Z</time>
      </trkpt>
      <trkpt lat="45.46485" lon="4.56471">
        <ele>605.42614746094</ele>
        <time>2015-04-25T13:41:15Z</time>
      </trkpt>
      <trkpt lat="45.46484" lon="4.56476">
        <ele>605.82122802734</ele>
        <time>2015-04-25T13:41:17Z</time>
      </trkpt>
      <trkpt lat="45.46483" lon="4.56478">
        <ele>606.07269287109</ele>
        <time>2015-04-25T13:41:20Z</time>
      </trkpt>
      <trkpt lat="45.46482" lon="4.56483">
        <ele>606.54754638672</ele>
        <time>2015-04-25T13:41:22Z</time>
      </trkpt>
      <trkpt lat="45.46482" lon="4.56485">
        <ele>606.79797363281</ele>
        <time>2015-04-25T13:41:25Z</time>
      </trkpt>
      <trkpt lat="45.46481" lon="4.5649">
        <ele>607.13537597656</ele>
        <time>2015-04-25T13:41:27Z</time>
      </trkpt>
      <trkpt lat="45.4648" lon="4.56493">
        <ele>607.23986816406</ele>
        <time>2015-04-25T13:41:30Z</time>
      </trkpt>
      <trkpt lat="45.46478" lon="4.56497">
        <ele>607.41217041016</ele>
        <time>2015-04-25T13:41:32Z</time>
      </trkpt>
      <trkpt lat="45.46476" lon="4.56501">
        <ele>607.66015625</ele>
        <time>2015-04-25T13:41:35Z</time>
      </trkpt>
      <trkpt lat="45.46475" lon="4.56506">
        <ele>608.01623535156</ele>
        <time>2015-04-25T13:41:37Z</time>
      </trkpt>
      <trkpt lat="45.46474" lon="4.56509">
        <ele>608.12292480469</ele>
        <time>2015-04-25T13:41:40Z</time>
      </trkpt>
      <trkpt lat="45.46471" lon="4.56513">
        <ele>608.28704833984</ele>
        <time>2015-04-25T13:41:42Z</time>
      </trkpt>
      <trkpt lat="45.4647" lon="4.56517">
        <ele>608.57940673828</ele>
        <time>2015-04-25T13:41:44Z</time>
      </trkpt>
      <trkpt lat="45.4647" lon="4.56521">
        <ele>609.05999755859</ele>
        <time>2015-04-25T13:41:46Z</time>
      </trkpt>
      <trkpt lat="45.4647" lon="4.56524">
        <ele>609.55120849609</ele>
        <time>2015-04-25T13:41:48Z</time>
      </trkpt>
      <trkpt lat="45.46469" lon="4.56528">
        <ele>610.03430175781</ele>
        <time>2015-04-25T13:41:50Z</time>
      </trkpt>
      <trkpt lat="45.46468" lon="4.56531">
        <ele>610.24847412109</ele>
        <time>2015-04-25T13:41:52Z</time>
      </trkpt>
      <trkpt lat="45.46466" lon="4.56536">
        <ele>610.53448486328</ele>
        <time>2015-04-25T13:41:55Z</time>
      </trkpt>
      <trkpt lat="45.46465" lon="4.56541">
        <ele>610.96820068359</ele>
        <time>2015-04-25T13:41:57Z</time>
      </trkpt>
      <trkpt lat="45.46463" lon="4.56546">
        <ele>611.36767578125</ele>
        <time>2015-04-25T13:42:00Z</time>
      </trkpt>
      <trkpt lat="45.46461" lon="4.56551">
        <ele>611.82586669922</ele>
        <time>2015-04-25T13:42:02Z</time>
      </trkpt>
      <trkpt lat="45.46459" lon="4.56557">
        <ele>612.24200439453</ele>
        <time>2015-04-25T13:42:04Z</time>
      </trkpt>
      <trkpt lat="45.46455" lon="4.56566">
        <ele>612.89044189453</ele>
        <time>2015-04-25T13:42:06Z</time>
      </trkpt>
      <trkpt lat="45.46453" lon="4.56573">
        <ele>613.81298828125</ele>
        <time>2015-04-25T13:42:08Z</time>
      </trkpt>
      <trkpt lat="45.46453" lon="4.5658">
        <ele>614.70928955078</ele>
        <time>2015-04-25T13:42:11Z</time>
      </trkpt>
      <trkpt lat="45.46451" lon="4.56587">
        <ele>615.55786132812</ele>
        <time>2015-04-25T13:42:13Z</time>
      </trkpt>
      <trkpt lat="45.4645" lon="4.56592">
        <ele>616.03131103516</ele>
        <time>2015-04-25T13:42:16Z</time>
      </trkpt>
      <trkpt lat="45.46447" lon="4.566">
        <ele>616.81072998047</ele>
        <time>2015-04-25T13:42:18Z</time>
      </trkpt>
      <trkpt lat="45.46445" lon="4.56605">
        <ele>617.28698730469</ele>
        <time>2015-04-25T13:42:20Z</time>
      </trkpt>
      <trkpt lat="45.46442" lon="4.5661">
        <ele>617.84307861328</ele>
        <time>2015-04-25T13:42:22Z</time>
      </trkpt>
      <trkpt lat="45.4644" lon="4.56616">
        <ele>618.27716064453</ele>
        <time>2015-04-25T13:42:24Z</time>
      </trkpt>
      <trkpt lat="45.46436" lon="4.56619">
        <ele>618.19134521484</ele>
        <time>2015-04-25T13:42:26Z</time>
      </trkpt>
      <trkpt lat="45.46433" lon="4.56624">
        <ele>618.50744628906</ele>
        <time>2015-04-25T13:42:28Z</time>
      </trkpt>
      <trkpt lat="45.46428" lon="4.56629">
        <ele>618.67687988281</ele>
        <time>2015-04-25T13:42:30Z</time>
      </trkpt>
      <trkpt lat="45.46426" lon="4.56634">
        <ele>619.21032714844</ele>
        <time>2015-04-25T13:42:32Z</time>
      </trkpt>
      <trkpt lat="45.46425" lon="4.56639">
        <ele>619.84381103516</ele>
        <time>2015-04-25T13:42:34Z</time>
      </trkpt>
      <trkpt lat="45.46423" lon="4.56644">
        <ele>620.26489257812</ele>
        <time>2015-04-25T13:42:36Z</time>
      </trkpt>
      <trkpt lat="45.46421" lon="4.56649">
        <ele>620.83660888672</ele>
        <time>2015-04-25T13:42:38Z</time>
      </trkpt>
      <trkpt lat="45.46419" lon="4.56652">
        <ele>620.99560546875</ele>
        <time>2015-04-25T13:42:40Z</time>
      </trkpt>
      <trkpt lat="45.46416" lon="4.56657">
        <ele>621.45281982422</ele>
        <time>2015-04-25T13:42:43Z</time>
      </trkpt>
      <trkpt lat="45.46413" lon="4.56662">
        <ele>621.59948730469</ele>
        <time>2015-04-25T13:42:46Z</time>
      </trkpt>
      <trkpt lat="45.46412" lon="4.56665">
        <ele>621.82849121094</ele>
        <time>2015-04-25T13:42:48Z</time>
      </trkpt>
      <trkpt lat="45.4641" lon="4.56668">
        <ele>622.03204345703</ele>
        <time>2015-04-25T13:42:50Z</time>
      </trkpt>
      <trkpt lat="45.46408" lon="4.56671">
        <ele>622.16888427734</ele>
        <time>2015-04-25T13:42:52Z</time>
      </trkpt>
      <trkpt lat="45.46405" lon="4.56674">
        <ele>622.04064941406</ele>
        <time>2015-04-25T13:42:54Z</time>
      </trkpt>
      <trkpt lat="45.46403" lon="4.56677">
        <ele>622.13781738281</ele>
        <time>2015-04-25T13:42:57Z</time>
      </trkpt>
      <trkpt lat="45.464" lon="4.56683">
        <ele>622.74627685547</ele>
        <time>2015-04-25T13:42:59Z</time>
      </trkpt>
      <trkpt lat="45.46398" lon="4.56689">
        <ele>623.36706542969</ele>
        <time>2015-04-25T13:43:01Z</time>
      </trkpt>
      <trkpt lat="45.46395" lon="4.56693">
        <ele>623.525390625</ele>
        <time>2015-04-25T13:43:03Z</time>
      </trkpt>
      <trkpt lat="45.46393" lon="4.56697">
        <ele>623.70275878906</ele>
        <time>2015-04-25T13:43:05Z</time>
      </trkpt>
      <trkpt lat="45.4639" lon="4.56701">
        <ele>623.92749023438</ele>
        <time>2015-04-25T13:43:07Z</time>
      </trkpt>
      <trkpt lat="45.46388" lon="4.56704">
        <ele>624.16583251953</ele>
        <time>2015-04-25T13:43:09Z</time>
      </trkpt>
      <trkpt lat="45.46386" lon="4.56708">
        <ele>624.48773193359</ele>
        <time>2015-04-25T13:43:12Z</time>
      </trkpt>
      <trkpt lat="45.46384" lon="4.56712">
        <ele>624.82830810547</ele>
        <time>2015-04-25T13:43:14Z</time>
      </trkpt>
      <trkpt lat="45.46381" lon="4.56716">
        <ele>625.13104248047</ele>
        <time>2015-04-25T13:43:16Z</time>
      </trkpt>
      <trkpt lat="45.46381" lon="4.56719">
        <ele>625.49273681641</ele>
        <time>2015-04-25T13:43:19Z</time>
      </trkpt>
      <trkpt lat="45.46378" lon="4.56725">
        <ele>626.00994873047</ele>
        <time>2015-04-25T13:43:23Z</time>
      </trkpt>
      <trkpt lat="45.46376" lon="4.56727">
        <ele>626.21221923828</ele>
        <time>2015-04-25T13:43:25Z</time>
      </trkpt>
      <trkpt lat="45.46373" lon="4.56731">
        <ele>626.44299316406</ele>
        <time>2015-04-25T13:43:27Z</time>
      </trkpt>
      <trkpt lat="45.4637" lon="4.56739">
        <ele>627.32550048828</ele>
        <time>2015-04-25T13:43:29Z</time>
      </trkpt>
      <trkpt lat="45.46367" lon="4.56744">
        <ele>627.7666015625</ele>
        <time>2015-04-25T13:43:31Z</time>
      </trkpt>
      <trkpt lat="45.46363" lon="4.56749">
        <ele>628.12536621094</ele>
        <time>2015-04-25T13:43:33Z</time>
      </trkpt>
      <trkpt lat="45.46361" lon="4.56753">
        <ele>628.53002929688</ele>
        <time>2015-04-25T13:43:36Z</time>
      </trkpt>
      <trkpt lat="45.46358" lon="4.56757">
        <ele>629.13366699219</ele>
        <time>2015-04-25T13:43:38Z</time>
      </trkpt>
      <trkpt lat="45.46356" lon="4.56762">
        <ele>629.68817138672</ele>
        <time>2015-04-25T13:43:41Z</time>
      </trkpt>
      <trkpt lat="45.46355" lon="4.56764">
        <ele>629.96752929688</ele>
        <time>2015-04-25T13:43:43Z</time>
      </trkpt>
      <trkpt lat="45.46353" lon="4.56767">
        <ele>630.31243896484</ele>
        <time>2015-04-25T13:43:45Z</time>
      </trkpt>
      <trkpt lat="45.46351" lon="4.56769">
        <ele>630.60021972656</ele>
        <time>2015-04-25T13:43:47Z</time>
      </trkpt>
      <trkpt lat="45.46349" lon="4.56772">
        <ele>630.94128417969</ele>
        <time>2015-04-25T13:43:49Z</time>
      </trkpt>
      <trkpt lat="45.46347" lon="4.56776">
        <ele>631.33447265625</ele>
        <time>2015-04-25T13:43:51Z</time>
      </trkpt>
      <trkpt lat="45.46344" lon="4.56779">
        <ele>631.70166015625</ele>
        <time>2015-04-25T13:43:53Z</time>
      </trkpt>
      <trkpt lat="45.46343" lon="4.56782">
        <ele>632.15551757812</ele>
        <time>2015-04-25T13:43:56Z</time>
      </trkpt>
      <trkpt lat="45.46341" lon="4.56784">
        <ele>632.36730957031</ele>
        <time>2015-04-25T13:43:58Z</time>
      </trkpt>
      <trkpt lat="45.46339" lon="4.56787">
        <ele>632.6328125</ele>
        <time>2015-04-25T13:44:00Z</time>
      </trkpt>
      <trkpt lat="45.46336" lon="4.5679">
        <ele>633.10705566406</ele>
        <time>2015-04-25T13:44:02Z</time>
      </trkpt>
      <trkpt lat="45.46334" lon="4.56793">
        <ele>633.40209960938</ele>
        <time>2015-04-25T13:44:04Z</time>
      </trkpt>
      <trkpt lat="45.46332" lon="4.56796">
        <ele>633.83862304688</ele>
        <time>2015-04-25T13:44:06Z</time>
      </trkpt>
      <trkpt lat="45.46329" lon="4.568">
        <ele>634.44055175781</ele>
        <time>2015-04-25T13:44:08Z</time>
      </trkpt>
      <trkpt lat="45.46328" lon="4.56803">
        <ele>635.05969238281</ele>
        <time>2015-04-25T13:44:10Z</time>
      </trkpt>
      <trkpt lat="45.46324" lon="4.56807">
        <ele>635.71887207031</ele>
        <time>2015-04-25T13:44:13Z</time>
      </trkpt>
      <trkpt lat="45.46321" lon="4.5681">
        <ele>636.14575195312</ele>
        <time>2015-04-25T13:44:15Z</time>
      </trkpt>
      <trkpt lat="45.46319" lon="4.56812">
        <ele>636.56225585938</ele>
        <time>2015-04-25T13:44:18Z</time>
      </trkpt>
      <trkpt lat="45.46317" lon="4.56814">
        <ele>636.83923339844</ele>
        <time>2015-04-25T13:44:20Z</time>
      </trkpt>
      <trkpt lat="45.46315" lon="4.56817">
        <ele>637.35534667969</ele>
        <time>2015-04-25T13:44:22Z</time>
      </trkpt>
      <trkpt lat="45.46312" lon="4.56821">
        <ele>638.00653076172</ele>
        <time>2015-04-25T13:44:25Z</time>
      </trkpt>
      <trkpt lat="45.4631" lon="4.56821">
        <ele>638.06719970703</ele>
        <time>2015-04-25T13:44:27Z</time>
      </trkpt>
      <trkpt lat="45.46308" lon="4.56823">
        <ele>638.18505859375</ele>
        <time>2015-04-25T13:44:29Z</time>
      </trkpt>
      <trkpt lat="45.46304" lon="4.56825">
        <ele>638.3681640625</ele>
        <time>2015-04-25T13:44:31Z</time>
      </trkpt>
      <trkpt lat="45.46299" lon="4.56826">
        <ele>638.42309570312</ele>
        <time>2015-04-25T13:44:33Z</time>
      </trkpt>
      <trkpt lat="45.46295" lon="4.56828">
        <ele>638.48834228516</ele>
        <time>2015-04-25T13:44:35Z</time>
      </trkpt>
      <trkpt lat="45.46291" lon="4.5683">
        <ele>638.78247070312</ele>
        <time>2015-04-25T13:44:37Z</time>
      </trkpt>
      <trkpt lat="45.46286" lon="4.56832">
        <ele>638.96325683594</ele>
        <time>2015-04-25T13:44:39Z</time>
      </trkpt>
      <trkpt lat="45.46283" lon="4.56834">
        <ele>639.00842285156</ele>
        <time>2015-04-25T13:44:41Z</time>
      </trkpt>
      <trkpt lat="45.46277" lon="4.56836">
        <ele>638.98748779297</ele>
        <time>2015-04-25T13:44:44Z</time>
      </trkpt>
      <trkpt lat="45.46274" lon="4.56839">
        <ele>639.15625</ele>
        <time>2015-04-25T13:44:47Z</time>
      </trkpt>
      <trkpt lat="45.4627" lon="4.5684">
        <ele>639.17761230469</ele>
        <time>2015-04-25T13:44:50Z</time>
      </trkpt>
      <trkpt lat="45.46265" lon="4.56843">
        <ele>639.14910888672</ele>
        <time>2015-04-25T13:44:52Z</time>
      </trkpt>
      <trkpt lat="45.46262" lon="4.56844">
        <ele>639.13494873047</ele>
        <time>2015-04-25T13:44:54Z</time>
      </trkpt>
      <trkpt lat="45.46259" lon="4.56845">
        <ele>639.07635498047</ele>
        <time>2015-04-25T13:44:56Z</time>
      </trkpt>
      <trkpt lat="45.46257" lon="4.56846">
        <ele>639.01782226562</ele>
        <time>2015-04-25T13:44:58Z</time>
      </trkpt>
      <trkpt lat="45.46254" lon="4.56849">
        <ele>639.13677978516</ele>
        <time>2015-04-25T13:45:00Z</time>
      </trkpt>
      <trkpt lat="45.46251" lon="4.56851">
        <ele>639.16656494141</ele>
        <time>2015-04-25T13:45:02Z</time>
      </trkpt>
      <trkpt lat="45.46248" lon="4.56852">
        <ele>639.20385742188</ele>
        <time>2015-04-25T13:45:04Z</time>
      </trkpt>
      <trkpt lat="45.46245" lon="4.56853">
        <ele>639.3505859375</ele>
        <time>2015-04-25T13:45:06Z</time>
      </trkpt>
      <trkpt lat="45.46243" lon="4.56854">
        <ele>639.43878173828</ele>
        <time>2015-04-25T13:45:08Z</time>
      </trkpt>
      <trkpt lat="45.4624" lon="4.56855">
        <ele>639.54455566406</ele>
        <time>2015-04-25T13:45:10Z</time>
      </trkpt>
      <trkpt lat="45.46238" lon="4.56856">
        <ele>639.72235107422</ele>
        <time>2015-04-25T13:45:12Z</time>
      </trkpt>
      <trkpt lat="45.46236" lon="4.56858">
        <ele>639.91040039062</ele>
        <time>2015-04-25T13:45:14Z</time>
      </trkpt>
      <trkpt lat="45.46233" lon="4.56859">
        <ele>639.97399902344</ele>
        <time>2015-04-25T13:45:16Z</time>
      </trkpt>
      <trkpt lat="45.4623" lon="4.56862">
        <ele>640.30236816406</ele>
        <time>2015-04-25T13:45:19Z</time>
      </trkpt>
      <trkpt lat="45.46227" lon="4.56866">
        <ele>640.62615966797</ele>
        <time>2015-04-25T13:45:21Z</time>
      </trkpt>
      <trkpt lat="45.46224" lon="4.56869">
        <ele>640.90093994141</ele>
        <time>2015-04-25T13:45:24Z</time>
      </trkpt>
      <trkpt lat="45.46222" lon="4.5687">
        <ele>641.02178955078</ele>
        <time>2015-04-25T13:45:26Z</time>
      </trkpt>
      <trkpt lat="45.46219" lon="4.56874">
        <ele>641.29449462891</ele>
        <time>2015-04-25T13:45:28Z</time>
      </trkpt>
      <trkpt lat="45.46216" lon="4.56878">
        <ele>641.62493896484</ele>
        <time>2015-04-25T13:45:30Z</time>
      </trkpt>
      <trkpt lat="45.46212" lon="4.56881">
        <ele>641.89831542969</ele>
        <time>2015-04-25T13:45:32Z</time>
      </trkpt>
      <trkpt lat="45.46208" lon="4.56885">
        <ele>642.13714599609</ele>
        <time>2015-04-25T13:45:34Z</time>
      </trkpt>
      <trkpt lat="45.46203" lon="4.56888">
        <ele>642.322265625</ele>
        <time>2015-04-25T13:45:36Z</time>
      </trkpt>
      <trkpt lat="45.46199" lon="4.56893">
        <ele>642.60723876953</ele>
        <time>2015-04-25T13:45:38Z</time>
      </trkpt>
      <trkpt lat="45.46195" lon="4.56897">
        <ele>642.81329345703</ele>
        <time>2015-04-25T13:45:40Z</time>
      </trkpt>
      <trkpt lat="45.46191" lon="4.56902">
        <ele>642.97924804688</ele>
        <time>2015-04-25T13:45:42Z</time>
      </trkpt>
      <trkpt lat="45.46186" lon="4.56904">
        <ele>642.97174072266</ele>
        <time>2015-04-25T13:45:44Z</time>
      </trkpt>
      <trkpt lat="45.46181" lon="4.56904">
        <ele>642.83856201172</ele>
        <time>2015-04-25T13:45:46Z</time>
      </trkpt>
      <trkpt lat="45.46177" lon="4.56904">
        <ele>642.59027099609</ele>
        <time>2015-04-25T13:45:48Z</time>
      </trkpt>
      <trkpt lat="45.46172" lon="4.56902">
        <ele>642.2861328125</ele>
        <time>2015-04-25T13:45:50Z</time>
      </trkpt>
      <trkpt lat="45.46167" lon="4.56899">
        <ele>641.97082519531</ele>
        <time>2015-04-25T13:45:52Z</time>
      </trkpt>
      <trkpt lat="45.46162" lon="4.56897">
        <ele>641.91253662109</ele>
        <time>2015-04-25T13:45:54Z</time>
      </trkpt>
      <trkpt lat="45.46157" lon="4.56894">
        <ele>641.81530761719</ele>
        <time>2015-04-25T13:45:56Z</time>
      </trkpt>
      <trkpt lat="45.46152" lon="4.56892">
        <ele>641.7470703125</ele>
        <time>2015-04-25T13:45:58Z</time>
      </trkpt>
      <trkpt lat="45.46147" lon="4.5689">
        <ele>641.72601318359</ele>
        <time>2015-04-25T13:46:00Z</time>
      </trkpt>
      <trkpt lat="45.46143" lon="4.56889">
        <ele>641.736328125</ele>
        <time>2015-04-25T13:46:02Z</time>
      </trkpt>
      <trkpt lat="45.46138" lon="4.56887">
        <ele>641.71966552734</ele>
        <time>2015-04-25T13:46:04Z</time>
      </trkpt>
      <trkpt lat="45.46133" lon="4.56886">
        <ele>641.70275878906</ele>
        <time>2015-04-25T13:46:07Z</time>
      </trkpt>
      <trkpt lat="45.46128" lon="4.56884">
        <ele>641.69506835938</ele>
        <time>2015-04-25T13:46:09Z</time>
      </trkpt>
      <trkpt lat="45.4612" lon="4.56881">
        <ele>641.66204833984</ele>
        <time>2015-04-25T13:46:11Z</time>
      </trkpt>
      <trkpt lat="45.46115" lon="4.56879">
        <ele>641.64807128906</ele>
        <time>2015-04-25T13:46:13Z</time>
      </trkpt>
      <trkpt lat="45.46111" lon="4.56879">
        <ele>641.71783447266</ele>
        <time>2015-04-25T13:46:15Z</time>
      </trkpt>
      <trkpt lat="45.46106" lon="4.56879">
        <ele>641.81890869141</ele>
        <time>2015-04-25T13:46:17Z</time>
      </trkpt>
      <trkpt lat="45.461" lon="4.5688">
        <ele>641.92376708984</ele>
        <time>2015-04-25T13:46:19Z</time>
      </trkpt>
      <trkpt lat="45.46095" lon="4.56881">
        <ele>642.06903076172</ele>
        <time>2015-04-25T13:46:21Z</time>
      </trkpt>
      <trkpt lat="45.4609" lon="4.56882">
        <ele>642.22668457031</ele>
        <time>2015-04-25T13:46:23Z</time>
      </trkpt>
      <trkpt lat="45.46085" lon="4.56884">
        <ele>642.39831542969</ele>
        <time>2015-04-25T13:46:25Z</time>
      </trkpt>
      <trkpt lat="45.4608" lon="4.56886">
        <ele>642.58270263672</ele>
        <time>2015-04-25T13:46:27Z</time>
      </trkpt>
      <trkpt lat="45.46075" lon="4.56888">
        <ele>642.76397705078</ele>
        <time>2015-04-25T13:46:29Z</time>
      </trkpt>
      <trkpt lat="45.46069" lon="4.5689">
        <ele>642.94219970703</ele>
        <time>2015-04-25T13:46:31Z</time>
      </trkpt>
      <trkpt lat="45.46064" lon="4.56892">
        <ele>643.11145019531</ele>
        <time>2015-04-25T13:46:33Z</time>
      </trkpt>
      <trkpt lat="45.46059" lon="4.56894">
        <ele>643.26715087891</ele>
        <time>2015-04-25T13:46:35Z</time>
      </trkpt>
      <trkpt lat="45.46054" lon="4.56895">
        <ele>643.40991210938</ele>
        <time>2015-04-25T13:46:37Z</time>
      </trkpt>
      <trkpt lat="45.46049" lon="4.56897">
        <ele>643.56433105469</ele>
        <time>2015-04-25T13:46:39Z</time>
      </trkpt>
      <trkpt lat="45.46045" lon="4.56898">
        <ele>643.67468261719</ele>
        <time>2015-04-25T13:46:41Z</time>
      </trkpt>
      <trkpt lat="45.46039" lon="4.56899">
        <ele>643.81469726562</ele>
        <time>2015-04-25T13:46:43Z</time>
      </trkpt>
      <trkpt lat="45.46034" lon="4.56902">
        <ele>643.97387695312</ele>
        <time>2015-04-25T13:46:45Z</time>
      </trkpt>
      <trkpt lat="45.46028" lon="4.56903">
        <ele>644.11419677734</ele>
        <time>2015-04-25T13:46:47Z</time>
      </trkpt>
      <trkpt lat="45.46023" lon="4.56905">
        <ele>644.275390625</ele>
        <time>2015-04-25T13:46:49Z</time>
      </trkpt>
      <trkpt lat="45.46018" lon="4.56907">
        <ele>644.42547607422</ele>
        <time>2015-04-25T13:46:51Z</time>
      </trkpt>
      <trkpt lat="45.46013" lon="4.56909">
        <ele>644.56744384766</ele>
        <time>2015-04-25T13:46:53Z</time>
      </trkpt>
      <trkpt lat="45.46008" lon="4.56911">
        <ele>644.6884765625</ele>
        <time>2015-04-25T13:46:55Z</time>
      </trkpt>
      <trkpt lat="45.46003" lon="4.56912">
        <ele>644.78381347656</ele>
        <time>2015-04-25T13:46:57Z</time>
      </trkpt>
      <trkpt lat="45.45998" lon="4.56914">
        <ele>644.84045410156</ele>
        <time>2015-04-25T13:46:59Z</time>
      </trkpt>
      <trkpt lat="45.45993" lon="4.56916">
        <ele>644.80554199219</ele>
        <time>2015-04-25T13:47:01Z</time>
      </trkpt>
      <trkpt lat="45.45989" lon="4.56917">
        <ele>644.72802734375</ele>
        <time>2015-04-25T13:47:03Z</time>
      </trkpt>
      <trkpt lat="45.45984" lon="4.56919">
        <ele>644.26702880859</ele>
        <time>2015-04-25T13:47:05Z</time>
      </trkpt>
      <trkpt lat="45.45979" lon="4.56921">
        <ele>643.84466552734</ele>
        <time>2015-04-25T13:47:07Z</time>
      </trkpt>
      <trkpt lat="45.45973" lon="4.56921">
        <ele>643.8203125</ele>
        <time>2015-04-25T13:47:09Z</time>
      </trkpt>
      <trkpt lat="45.45967" lon="4.56918">
        <ele>644.08337402344</ele>
        <time>2015-04-25T13:47:11Z</time>
      </trkpt>
      <trkpt lat="45.45962" lon="4.56917">
        <ele>644.04888916016</ele>
        <time>2015-04-25T13:47:13Z</time>
      </trkpt>
      <trkpt lat="45.45957" lon="4.56916">
        <ele>643.96484375</ele>
        <time>2015-04-25T13:47:15Z</time>
      </trkpt>
      <trkpt lat="45.45952" lon="4.56915">
        <ele>643.82806396484</ele>
        <time>2015-04-25T13:47:17Z</time>
      </trkpt>
      <trkpt lat="45.45946" lon="4.56914">
        <ele>643.69128417969</ele>
        <time>2015-04-25T13:47:19Z</time>
      </trkpt>
      <trkpt lat="45.45941" lon="4.56911">
        <ele>643.56854248047</ele>
        <time>2015-04-25T13:47:21Z</time>
      </trkpt>
      <trkpt lat="45.45935" lon="4.5691">
        <ele>643.45104980469</ele>
        <time>2015-04-25T13:47:23Z</time>
      </trkpt>
      <trkpt lat="45.45929" lon="4.56909">
        <ele>643.33929443359</ele>
        <time>2015-04-25T13:47:25Z</time>
      </trkpt>
      <trkpt lat="45.45924" lon="4.56908">
        <ele>643.24084472656</ele>
        <time>2015-04-25T13:47:28Z</time>
      </trkpt>
      <trkpt lat="45.45919" lon="4.56907">
        <ele>643.15283203125</ele>
        <time>2015-04-25T13:47:30Z</time>
      </trkpt>
      <trkpt lat="45.4591" lon="4.56906">
        <ele>642.79797363281</ele>
        <time>2015-04-25T13:47:32Z</time>
      </trkpt>
      <trkpt lat="45.45905" lon="4.56904">
        <ele>642.54132080078</ele>
        <time>2015-04-25T13:47:34Z</time>
      </trkpt>
      <trkpt lat="45.459" lon="4.56901">
        <ele>642.34802246094</ele>
        <time>2015-04-25T13:47:36Z</time>
      </trkpt>
      <trkpt lat="45.45893" lon="4.56898">
        <ele>642.13006591797</ele>
        <time>2015-04-25T13:47:38Z</time>
      </trkpt>
      <trkpt lat="45.45888" lon="4.56895">
        <ele>642.00360107422</ele>
        <time>2015-04-25T13:47:40Z</time>
      </trkpt>
      <trkpt lat="45.45883" lon="4.56891">
        <ele>641.92401123047</ele>
        <time>2015-04-25T13:47:42Z</time>
      </trkpt>
      <trkpt lat="45.45879" lon="4.56887">
        <ele>641.86608886719</ele>
        <time>2015-04-25T13:47:44Z</time>
      </trkpt>
      <trkpt lat="45.45874" lon="4.56883">
        <ele>641.86535644531</ele>
        <time>2015-04-25T13:47:46Z</time>
      </trkpt>
      <trkpt lat="45.45868" lon="4.56879">
        <ele>641.87536621094</ele>
        <time>2015-04-25T13:47:48Z</time>
      </trkpt>
      <trkpt lat="45.45863" lon="4.56874">
        <ele>641.93035888672</ele>
        <time>2015-04-25T13:47:50Z</time>
      </trkpt>
      <trkpt lat="45.45858" lon="4.5687">
        <ele>642.02221679688</ele>
        <time>2015-04-25T13:47:52Z</time>
      </trkpt>
      <trkpt lat="45.45853" lon="4.56865">
        <ele>642.16021728516</ele>
        <time>2015-04-25T13:47:54Z</time>
      </trkpt>
      <trkpt lat="45.45849" lon="4.56861">
        <ele>642.31188964844</ele>
        <time>2015-04-25T13:47:56Z</time>
      </trkpt>
      <trkpt lat="45.45844" lon="4.56855">
        <ele>642.58551025391</ele>
        <time>2015-04-25T13:47:58Z</time>
      </trkpt>
      <trkpt lat="45.45839" lon="4.56849">
        <ele>642.93493652344</ele>
        <time>2015-04-25T13:48:00Z</time>
      </trkpt>
      <trkpt lat="45.45835" lon="4.56846">
        <ele>643.13470458984</ele>
        <time>2015-04-25T13:48:02Z</time>
      </trkpt>
      <trkpt lat="45.4583" lon="4.56842">
        <ele>643.32879638672</ele>
        <time>2015-04-25T13:48:04Z</time>
      </trkpt>
      <trkpt lat="45.45826" lon="4.56837">
        <ele>643.6533203125</ele>
        <time>2015-04-25T13:48:06Z</time>
      </trkpt>
      <trkpt lat="45.45822" lon="4.56833">
        <ele>643.84655761719</ele>
        <time>2015-04-25T13:48:08Z</time>
      </trkpt>
      <trkpt lat="45.45818" lon="4.56829">
        <ele>643.73303222656</ele>
        <time>2015-04-25T13:48:10Z</time>
      </trkpt>
      <trkpt lat="45.45814" lon="4.56824">
        <ele>643.64294433594</ele>
        <time>2015-04-25T13:48:12Z</time>
      </trkpt>
      <trkpt lat="45.4581" lon="4.56818">
        <ele>643.58489990234</ele>
        <time>2015-04-25T13:48:14Z</time>
      </trkpt>
      <trkpt lat="45.45806" lon="4.56814">
        <ele>643.58825683594</ele>
        <time>2015-04-25T13:48:16Z</time>
      </trkpt>
      <trkpt lat="45.45802" lon="4.56811">
        <ele>643.62725830078</ele>
        <time>2015-04-25T13:48:18Z</time>
      </trkpt>
      <trkpt lat="45.45798" lon="4.56808">
        <ele>643.69415283203</ele>
        <time>2015-04-25T13:48:20Z</time>
      </trkpt>
      <trkpt lat="45.45794" lon="4.56805">
        <ele>643.80438232422</ele>
        <time>2015-04-25T13:48:22Z</time>
      </trkpt>
      <trkpt lat="45.4579" lon="4.56801">
        <ele>643.93737792969</ele>
        <time>2015-04-25T13:48:24Z</time>
      </trkpt>
      <trkpt lat="45.45786" lon="4.56798">
        <ele>644.09332275391</ele>
        <time>2015-04-25T13:48:26Z</time>
      </trkpt>
      <trkpt lat="45.45782" lon="4.56795">
        <ele>644.27514648438</ele>
        <time>2015-04-25T13:48:28Z</time>
      </trkpt>
      <trkpt lat="45.45778" lon="4.56792">
        <ele>644.49261474609</ele>
        <time>2015-04-25T13:48:30Z</time>
      </trkpt>
      <trkpt lat="45.45774" lon="4.56789">
        <ele>644.74139404297</ele>
        <time>2015-04-25T13:48:32Z</time>
      </trkpt>
      <trkpt lat="45.4577" lon="4.56786">
        <ele>644.98687744141</ele>
        <time>2015-04-25T13:48:34Z</time>
      </trkpt>
      <trkpt lat="45.45766" lon="4.56783">
        <ele>645.30633544922</ele>
        <time>2015-04-25T13:48:36Z</time>
      </trkpt>
      <trkpt lat="45.45761" lon="4.56778">
        <ele>645.72259521484</ele>
        <time>2015-04-25T13:48:38Z</time>
      </trkpt>
      <trkpt lat="45.45758" lon="4.56774">
        <ele>646.13745117188</ele>
        <time>2015-04-25T13:48:40Z</time>
      </trkpt>
      <trkpt lat="45.45754" lon="4.5677">
        <ele>646.56518554688</ele>
        <time>2015-04-25T13:48:42Z</time>
      </trkpt>
      <trkpt lat="45.4575" lon="4.56766">
        <ele>647.05004882812</ele>
        <time>2015-04-25T13:48:44Z</time>
      </trkpt>
      <trkpt lat="45.45746" lon="4.56762">
        <ele>647.27740478516</ele>
        <time>2015-04-25T13:48:46Z</time>
      </trkpt>
      <trkpt lat="45.45742" lon="4.56757">
        <ele>647.55456542969</ele>
        <time>2015-04-25T13:48:48Z</time>
      </trkpt>
      <trkpt lat="45.45739" lon="4.56752">
        <ele>647.88159179688</ele>
        <time>2015-04-25T13:48:51Z</time>
      </trkpt>
      <trkpt lat="45.45735" lon="4.56747">
        <ele>647.85656738281</ele>
        <time>2015-04-25T13:48:53Z</time>
      </trkpt>
      <trkpt lat="45.45729" lon="4.56739">
        <ele>647.55651855469</ele>
        <time>2015-04-25T13:48:55Z</time>
      </trkpt>
      <trkpt lat="45.45726" lon="4.56734">
        <ele>647.42651367188</ele>
        <time>2015-04-25T13:48:57Z</time>
      </trkpt>
      <trkpt lat="45.45722" lon="4.56729">
        <ele>647.34356689453</ele>
        <time>2015-04-25T13:48:59Z</time>
      </trkpt>
      <trkpt lat="45.45717" lon="4.56724">
        <ele>647.31683349609</ele>
        <time>2015-04-25T13:49:01Z</time>
      </trkpt>
      <trkpt lat="45.45713" lon="4.56721">
        <ele>647.32965087891</ele>
        <time>2015-04-25T13:49:03Z</time>
      </trkpt>
      <trkpt lat="45.4571" lon="4.56718">
        <ele>647.35852050781</ele>
        <time>2015-04-25T13:49:05Z</time>
      </trkpt>
      <trkpt lat="45.45707" lon="4.56716">
        <ele>647.43280029297</ele>
        <time>2015-04-25T13:49:07Z</time>
      </trkpt>
      <trkpt lat="45.45704" lon="4.56714">
        <ele>647.52288818359</ele>
        <time>2015-04-25T13:49:09Z</time>
      </trkpt>
      <trkpt lat="45.457" lon="4.56711">
        <ele>647.60589599609</ele>
        <time>2015-04-25T13:49:11Z</time>
      </trkpt>
      <trkpt lat="45.45697" lon="4.56707">
        <ele>647.71820068359</ele>
        <time>2015-04-25T13:49:13Z</time>
      </trkpt>
      <trkpt lat="45.45694" lon="4.56704">
        <ele>647.81958007812</ele>
        <time>2015-04-25T13:49:15Z</time>
      </trkpt>
      <trkpt lat="45.45691" lon="4.56701">
        <ele>647.95892333984</ele>
        <time>2015-04-25T13:49:17Z</time>
      </trkpt>
      <trkpt lat="45.45688" lon="4.56697">
        <ele>648.14019775391</ele>
        <time>2015-04-25T13:49:19Z</time>
      </trkpt>
      <trkpt lat="45.45684" lon="4.56693">
        <ele>648.34527587891</ele>
        <time>2015-04-25T13:49:21Z</time>
      </trkpt>
      <trkpt lat="45.45682" lon="4.5669">
        <ele>648.50408935547</ele>
        <time>2015-04-25T13:49:23Z</time>
      </trkpt>
      <trkpt lat="45.45679" lon="4.56686">
        <ele>648.71221923828</ele>
        <time>2015-04-25T13:49:25Z</time>
      </trkpt>
      <trkpt lat="45.45676" lon="4.56682">
        <ele>649.01824951172</ele>
        <time>2015-04-25T13:49:27Z</time>
      </trkpt>
      <trkpt lat="45.45671" lon="4.56677">
        <ele>649.42327880859</ele>
        <time>2015-04-25T13:49:29Z</time>
      </trkpt>
      <trkpt lat="45.45667" lon="4.56674">
        <ele>649.77795410156</ele>
        <time>2015-04-25T13:49:31Z</time>
      </trkpt>
      <trkpt lat="45.45664" lon="4.5667">
        <ele>649.87329101562</ele>
        <time>2015-04-25T13:49:33Z</time>
      </trkpt>
      <trkpt lat="45.4566" lon="4.56666">
        <ele>649.89453125</ele>
        <time>2015-04-25T13:49:35Z</time>
      </trkpt>
      <trkpt lat="45.45657" lon="4.56663">
        <ele>649.63415527344</ele>
        <time>2015-04-25T13:49:37Z</time>
      </trkpt>
      <trkpt lat="45.45653" lon="4.56658">
        <ele>649.33404541016</ele>
        <time>2015-04-25T13:49:39Z</time>
      </trkpt>
      <trkpt lat="45.45649" lon="4.56654">
        <ele>649.05749511719</ele>
        <time>2015-04-25T13:49:41Z</time>
      </trkpt>
      <trkpt lat="45.45645" lon="4.5665">
        <ele>648.85266113281</ele>
        <time>2015-04-25T13:49:43Z</time>
      </trkpt>
      <trkpt lat="45.45641" lon="4.56646">
        <ele>648.66326904297</ele>
        <time>2015-04-25T13:49:45Z</time>
      </trkpt>
      <trkpt lat="45.45637" lon="4.56642">
        <ele>648.494140625</ele>
        <time>2015-04-25T13:49:47Z</time>
      </trkpt>
      <trkpt lat="45.45633" lon="4.56637">
        <ele>648.33612060547</ele>
        <time>2015-04-25T13:49:49Z</time>
      </trkpt>
      <trkpt lat="45.45629" lon="4.56633">
        <ele>648.21270751953</ele>
        <time>2015-04-25T13:49:51Z</time>
      </trkpt>
      <trkpt lat="45.45624" lon="4.56628">
        <ele>648.13732910156</ele>
        <time>2015-04-25T13:49:53Z</time>
      </trkpt>
      <trkpt lat="45.4562" lon="4.56623">
        <ele>648.07727050781</ele>
        <time>2015-04-25T13:49:55Z</time>
      </trkpt>
      <trkpt lat="45.45615" lon="4.56618">
        <ele>648.05676269531</ele>
        <time>2015-04-25T13:49:57Z</time>
      </trkpt>
      <trkpt lat="45.45611" lon="4.56614">
        <ele>648.07397460938</ele>
        <time>2015-04-25T13:49:59Z</time>
      </trkpt>
      <trkpt lat="45.45608" lon="4.5661">
        <ele>648.08752441406</ele>
        <time>2015-04-25T13:50:01Z</time>
      </trkpt>
      <trkpt lat="45.45604" lon="4.56605">
        <ele>648.13702392578</ele>
        <time>2015-04-25T13:50:03Z</time>
      </trkpt>
      <trkpt lat="45.456" lon="4.566">
        <ele>648.25421142578</ele>
        <time>2015-04-25T13:50:05Z</time>
      </trkpt>
      <trkpt lat="45.45596" lon="4.56595">
        <ele>648.38702392578</ele>
        <time>2015-04-25T13:50:07Z</time>
      </trkpt>
      <trkpt lat="45.45591" lon="4.56589">
        <ele>648.56018066406</ele>
        <time>2015-04-25T13:50:09Z</time>
      </trkpt>
      <trkpt lat="45.45588" lon="4.56584">
        <ele>648.74993896484</ele>
        <time>2015-04-25T13:50:12Z</time>
      </trkpt>
      <trkpt lat="45.45581" lon="4.56576">
        <ele>648.43121337891</ele>
        <time>2015-04-25T13:50:14Z</time>
      </trkpt>
      <trkpt lat="45.45578" lon="4.56571">
        <ele>647.90069580078</ele>
        <time>2015-04-25T13:50:16Z</time>
      </trkpt>
      <trkpt lat="45.45574" lon="4.56566">
        <ele>647.45587158203</ele>
        <time>2015-04-25T13:50:18Z</time>
      </trkpt>
      <trkpt lat="45.4557" lon="4.5656">
        <ele>647.06213378906</ele>
        <time>2015-04-25T13:50:20Z</time>
      </trkpt>
      <trkpt lat="45.45567" lon="4.56555">
        <ele>646.71325683594</ele>
        <time>2015-04-25T13:50:22Z</time>
      </trkpt>
      <trkpt lat="45.45564" lon="4.56549">
        <ele>646.35314941406</ele>
        <time>2015-04-25T13:50:24Z</time>
      </trkpt>
      <trkpt lat="45.45561" lon="4.56543">
        <ele>646.05169677734</ele>
        <time>2015-04-25T13:50:26Z</time>
      </trkpt>
      <trkpt lat="45.45557" lon="4.56538">
        <ele>645.85394287109</ele>
        <time>2015-04-25T13:50:28Z</time>
      </trkpt>
      <trkpt lat="45.45552" lon="4.56534">
        <ele>645.73834228516</ele>
        <time>2015-04-25T13:50:30Z</time>
      </trkpt>
      <trkpt lat="45.45547" lon="4.56531">
        <ele>645.67718505859</ele>
        <time>2015-04-25T13:50:32Z</time>
      </trkpt>
      <trkpt lat="45.45541" lon="4.56528">
        <ele>645.68090820312</ele>
        <time>2015-04-25T13:50:34Z</time>
      </trkpt>
      <trkpt lat="45.45536" lon="4.56525">
        <ele>645.70788574219</ele>
        <time>2015-04-25T13:50:36Z</time>
      </trkpt>
      <trkpt lat="45.4553" lon="4.56522">
        <ele>645.78289794922</ele>
        <time>2015-04-25T13:50:38Z</time>
      </trkpt>
      <trkpt lat="45.45525" lon="4.5652">
        <ele>645.88543701172</ele>
        <time>2015-04-25T13:50:40Z</time>
      </trkpt>
      <trkpt lat="45.45521" lon="4.56517">
        <ele>646.00146484375</ele>
        <time>2015-04-25T13:50:42Z</time>
      </trkpt>
      <trkpt lat="45.45516" lon="4.56513">
        <ele>646.16534423828</ele>
        <time>2015-04-25T13:50:44Z</time>
      </trkpt>
      <trkpt lat="45.45511" lon="4.56509">
        <ele>646.37274169922</ele>
        <time>2015-04-25T13:50:46Z</time>
      </trkpt>
      <trkpt lat="45.45507" lon="4.56506">
        <ele>646.57403564453</ele>
        <time>2015-04-25T13:50:48Z</time>
      </trkpt>
      <trkpt lat="45.45501" lon="4.56502">
        <ele>646.89117431641</ele>
        <time>2015-04-25T13:50:50Z</time>
      </trkpt>
      <trkpt lat="45.45497" lon="4.56498">
        <ele>647.0595703125</ele>
        <time>2015-04-25T13:50:52Z</time>
      </trkpt>
      <trkpt lat="45.45493" lon="4.56494">
        <ele>647.21954345703</ele>
        <time>2015-04-25T13:50:54Z</time>
      </trkpt>
      <trkpt lat="45.45488" lon="4.56491">
        <ele>647.40808105469</ele>
        <time>2015-04-25T13:50:56Z</time>
      </trkpt>
      <trkpt lat="45.45485" lon="4.56489">
        <ele>647.59411621094</ele>
        <time>2015-04-25T13:50:58Z</time>
      </trkpt>
      <trkpt lat="45.4548" lon="4.56486">
        <ele>647.84027099609</ele>
        <time>2015-04-25T13:51:00Z</time>
      </trkpt>
      <trkpt lat="45.45476" lon="4.56481">
        <ele>648.23223876953</ele>
        <time>2015-04-25T13:51:02Z</time>
      </trkpt>
      <trkpt lat="45.45472" lon="4.56479">
        <ele>648.52642822266</ele>
        <time>2015-04-25T13:51:04Z</time>
      </trkpt>
      <trkpt lat="45.45468" lon="4.56477">
        <ele>648.81811523438</ele>
        <time>2015-04-25T13:51:06Z</time>
      </trkpt>
      <trkpt lat="45.45464" lon="4.56475">
        <ele>649.12622070312</ele>
        <time>2015-04-25T13:51:08Z</time>
      </trkpt>
      <trkpt lat="45.4546" lon="4.56474">
        <ele>649.45623779297</ele>
        <time>2015-04-25T13:51:10Z</time>
      </trkpt>
      <trkpt lat="45.45456" lon="4.56472">
        <ele>649.79656982422</ele>
        <time>2015-04-25T13:51:12Z</time>
      </trkpt>
      <trkpt lat="45.45452" lon="4.5647">
        <ele>650.16693115234</ele>
        <time>2015-04-25T13:51:14Z</time>
      </trkpt>
      <trkpt lat="45.45448" lon="4.56469">
        <ele>650.54772949219</ele>
        <time>2015-04-25T13:51:16Z</time>
      </trkpt>
      <trkpt lat="45.45444" lon="4.56467">
        <ele>650.96295166016</ele>
        <time>2015-04-25T13:51:18Z</time>
      </trkpt>
      <trkpt lat="45.45441" lon="4.56464">
        <ele>651.5302734375</ele>
        <time>2015-04-25T13:51:20Z</time>
      </trkpt>
      <trkpt lat="45.45438" lon="4.56461">
        <ele>652.10162353516</ele>
        <time>2015-04-25T13:51:22Z</time>
      </trkpt>
      <trkpt lat="45.45435" lon="4.56458">
        <ele>652.66455078125</ele>
        <time>2015-04-25T13:51:24Z</time>
      </trkpt>
      <trkpt lat="45.45431" lon="4.56456">
        <ele>653.15460205078</ele>
        <time>2015-04-25T13:51:26Z</time>
      </trkpt>
      <trkpt lat="45.45428" lon="4.56454">
        <ele>653.65612792969</ele>
        <time>2015-04-25T13:51:28Z</time>
      </trkpt>
      <trkpt lat="45.45425" lon="4.56452">
        <ele>654.24816894531</ele>
        <time>2015-04-25T13:51:30Z</time>
      </trkpt>
      <trkpt lat="45.45421" lon="4.56451">
        <ele>654.71026611328</ele>
        <time>2015-04-25T13:51:33Z</time>
      </trkpt>
      <trkpt lat="45.45415" lon="4.56449">
        <ele>655.57940673828</ele>
        <time>2015-04-25T13:51:35Z</time>
      </trkpt>
      <trkpt lat="45.45411" lon="4.56447">
        <ele>656.27215576172</ele>
        <time>2015-04-25T13:51:37Z</time>
      </trkpt>
      <trkpt lat="45.45407" lon="4.56446">
        <ele>656.93676757812</ele>
        <time>2015-04-25T13:51:39Z</time>
      </trkpt>
      <trkpt lat="45.45404" lon="4.56445">
        <ele>657.49346923828</ele>
        <time>2015-04-25T13:51:41Z</time>
      </trkpt>
      <trkpt lat="45.45401" lon="4.56443">
        <ele>658.23577880859</ele>
        <time>2015-04-25T13:51:43Z</time>
      </trkpt>
      <trkpt lat="45.45397" lon="4.56442">
        <ele>658.99432373047</ele>
        <time>2015-04-25T13:51:45Z</time>
      </trkpt>
      <trkpt lat="45.45394" lon="4.5644">
        <ele>659.71215820312</ele>
        <time>2015-04-25T13:51:47Z</time>
      </trkpt>
      <trkpt lat="45.4539" lon="4.56437">
        <ele>660.63946533203</ele>
        <time>2015-04-25T13:51:50Z</time>
      </trkpt>
      <trkpt lat="45.45387" lon="4.56435">
        <ele>661.40069580078</ele>
        <time>2015-04-25T13:51:53Z</time>
      </trkpt>
      <trkpt lat="45.45385" lon="4.56433">
        <ele>662.01739501953</ele>
        <time>2015-04-25T13:51:55Z</time>
      </trkpt>
      <trkpt lat="45.45382" lon="4.56432">
        <ele>662.72644042969</ele>
        <time>2015-04-25T13:51:58Z</time>
      </trkpt>
      <trkpt lat="45.45378" lon="4.5643">
        <ele>663.46856689453</ele>
        <time>2015-04-25T13:52:01Z</time>
      </trkpt>
      <trkpt lat="45.45375" lon="4.56429">
        <ele>664.19635009766</ele>
        <time>2015-04-25T13:52:04Z</time>
      </trkpt>
      <trkpt lat="45.45372" lon="4.56428">
        <ele>664.87786865234</ele>
        <time>2015-04-25T13:52:07Z</time>
      </trkpt>
      <trkpt lat="45.4537" lon="4.56426">
        <ele>665.44659423828</ele>
        <time>2015-04-25T13:52:09Z</time>
      </trkpt>
      <trkpt lat="45.45367" lon="4.56426">
        <ele>665.87335205078</ele>
        <time>2015-04-25T13:52:11Z</time>
      </trkpt>
      <trkpt lat="45.45365" lon="4.56425">
        <ele>666.34899902344</ele>
        <time>2015-04-25T13:52:13Z</time>
      </trkpt>
      <trkpt lat="45.45361" lon="4.56425">
        <ele>667.02526855469</ele>
        <time>2015-04-25T13:52:15Z</time>
      </trkpt>
      <trkpt lat="45.45356" lon="4.56424">
        <ele>668.00280761719</ele>
        <time>2015-04-25T13:52:17Z</time>
      </trkpt>
      <trkpt lat="45.45352" lon="4.56425">
        <ele>668.41912841797</ele>
        <time>2015-04-25T13:52:19Z</time>
      </trkpt>
      <trkpt lat="45.45348" lon="4.56426">
        <ele>668.73022460938</ele>
        <time>2015-04-25T13:52:21Z</time>
      </trkpt>
      <trkpt lat="45.45344" lon="4.56425">
        <ele>669.43975830078</ele>
        <time>2015-04-25T13:52:23Z</time>
      </trkpt>
      <trkpt lat="45.4534" lon="4.56427">
        <ele>669.79693603516</ele>
        <time>2015-04-25T13:52:25Z</time>
      </trkpt>
      <trkpt lat="45.45335" lon="4.5643">
        <ele>669.61218261719</ele>
        <time>2015-04-25T13:52:27Z</time>
      </trkpt>
      <trkpt lat="45.4533" lon="4.56433">
        <ele>669.83050537109</ele>
        <time>2015-04-25T13:52:29Z</time>
      </trkpt>
      <trkpt lat="45.45326" lon="4.56436">
        <ele>669.70678710938</ele>
        <time>2015-04-25T13:52:31Z</time>
      </trkpt>
      <trkpt lat="45.45322" lon="4.56437">
        <ele>670.07629394531</ele>
        <time>2015-04-25T13:52:33Z</time>
      </trkpt>
      <trkpt lat="45.45316" lon="4.56438">
        <ele>670.52758789062</ele>
        <time>2015-04-25T13:52:35Z</time>
      </trkpt>
      <trkpt lat="45.45311" lon="4.5644">
        <ele>670.96783447266</ele>
        <time>2015-04-25T13:52:37Z</time>
      </trkpt>
      <trkpt lat="45.45307" lon="4.56441">
        <ele>671.43914794922</ele>
        <time>2015-04-25T13:52:39Z</time>
      </trkpt>
      <trkpt lat="45.45302" lon="4.56443">
        <ele>671.59191894531</ele>
        <time>2015-04-25T13:52:41Z</time>
      </trkpt>
      <trkpt lat="45.45298" lon="4.56446">
        <ele>671.60284423828</ele>
        <time>2015-04-25T13:52:43Z</time>
      </trkpt>
      <trkpt lat="45.45294" lon="4.5645">
        <ele>671.29144287109</ele>
        <time>2015-04-25T13:52:45Z</time>
      </trkpt>
      <trkpt lat="45.4529" lon="4.56455">
        <ele>670.74188232422</ele>
        <time>2015-04-25T13:52:47Z</time>
      </trkpt>
      <trkpt lat="45.45286" lon="4.5646">
        <ele>670.14141845703</ele>
        <time>2015-04-25T13:52:49Z</time>
      </trkpt>
      <trkpt lat="45.45282" lon="4.56465">
        <ele>669.66754150391</ele>
        <time>2015-04-25T13:52:51Z</time>
      </trkpt>
      <trkpt lat="45.45277" lon="4.56469">
        <ele>669.59344482422</ele>
        <time>2015-04-25T13:52:54Z</time>
      </trkpt>
      <trkpt lat="45.45269" lon="4.56477">
        <ele>669.07495117188</ele>
        <time>2015-04-25T13:52:56Z</time>
      </trkpt>
      <trkpt lat="45.45264" lon="4.5648">
        <ele>669.15850830078</ele>
        <time>2015-04-25T13:52:58Z</time>
      </trkpt>
      <trkpt lat="45.45258" lon="4.56484">
        <ele>669.22039794922</ele>
        <time>2015-04-25T13:53:00Z</time>
      </trkpt>
      <trkpt lat="45.45252" lon="4.56486">
        <ele>669.74572753906</ele>
        <time>2015-04-25T13:53:02Z</time>
      </trkpt>
      <trkpt lat="45.45247" lon="4.56488">
        <ele>669.82476806641</ele>
        <time>2015-04-25T13:53:04Z</time>
      </trkpt>
      <trkpt lat="45.45242" lon="4.56489">
        <ele>669.94000244141</ele>
        <time>2015-04-25T13:53:06Z</time>
      </trkpt>
      <trkpt lat="45.45237" lon="4.5649">
        <ele>669.98577880859</ele>
        <time>2015-04-25T13:53:08Z</time>
      </trkpt>
      <trkpt lat="45.45231" lon="4.56491">
        <ele>670.07653808594</ele>
        <time>2015-04-25T13:53:10Z</time>
      </trkpt>
      <trkpt lat="45.45224" lon="4.56493">
        <ele>670.11773681641</ele>
        <time>2015-04-25T13:53:12Z</time>
      </trkpt>
      <trkpt lat="45.45218" lon="4.56495">
        <ele>670.13482666016</ele>
        <time>2015-04-25T13:53:14Z</time>
      </trkpt>
      <trkpt lat="45.45211" lon="4.56496">
        <ele>670.20153808594</ele>
        <time>2015-04-25T13:53:16Z</time>
      </trkpt>
      <trkpt lat="45.45207" lon="4.56496">
        <ele>670.43646240234</ele>
        <time>2015-04-25T13:53:18Z</time>
      </trkpt>
      <trkpt lat="45.45201" lon="4.56495">
        <ele>671.11450195312</ele>
        <time>2015-04-25T13:53:20Z</time>
      </trkpt>
      <trkpt lat="45.45195" lon="4.56495">
        <ele>671.353515625</ele>
        <time>2015-04-25T13:53:22Z</time>
      </trkpt>
      <trkpt lat="45.4519" lon="4.56496">
        <ele>671.60266113281</ele>
        <time>2015-04-25T13:53:24Z</time>
      </trkpt>
      <trkpt lat="45.45184" lon="4.56496">
        <ele>671.92980957031</ele>
        <time>2015-04-25T13:53:26Z</time>
      </trkpt>
      <trkpt lat="45.45178" lon="4.56497">
        <ele>671.87738037109</ele>
        <time>2015-04-25T13:53:28Z</time>
      </trkpt>
      <trkpt lat="45.45172" lon="4.56497">
        <ele>672.35412597656</ele>
        <time>2015-04-25T13:53:30Z</time>
      </trkpt>
      <trkpt lat="45.45166" lon="4.56495">
        <ele>673.15539550781</ele>
        <time>2015-04-25T13:53:32Z</time>
      </trkpt>
      <trkpt lat="45.45161" lon="4.56494">
        <ele>672.826171875</ele>
        <time>2015-04-25T13:53:34Z</time>
      </trkpt>
      <trkpt lat="45.45157" lon="4.56492">
        <ele>672.91754150391</ele>
        <time>2015-04-25T13:53:36Z</time>
      </trkpt>
      <trkpt lat="45.45152" lon="4.56487">
        <ele>673.40374755859</ele>
        <time>2015-04-25T13:53:38Z</time>
      </trkpt>
      <trkpt lat="45.45146" lon="4.56483">
        <ele>673.98248291016</ele>
        <time>2015-04-25T13:53:40Z</time>
      </trkpt>
      <trkpt lat="45.45143" lon="4.56482">
        <ele>673.6923828125</ele>
        <time>2015-04-25T13:53:42Z</time>
      </trkpt>
      <trkpt lat="45.45138" lon="4.56483">
        <ele>673.15142822266</ele>
        <time>2015-04-25T13:53:44Z</time>
      </trkpt>
      <trkpt lat="45.45134" lon="4.56479">
        <ele>673.76525878906</ele>
        <time>2015-04-25T13:53:46Z</time>
      </trkpt>
      <trkpt lat="45.4513" lon="4.56474">
        <ele>674.40850830078</ele>
        <time>2015-04-25T13:53:48Z</time>
      </trkpt>
      <trkpt lat="45.45125" lon="4.56472">
        <ele>674.46319580078</ele>
        <time>2015-04-25T13:53:50Z</time>
      </trkpt>
      <trkpt lat="45.45121" lon="4.56471">
        <ele>674.40460205078</ele>
        <time>2015-04-25T13:53:52Z</time>
      </trkpt>
      <trkpt lat="45.45116" lon="4.5647">
        <ele>674.22979736328</ele>
        <time>2015-04-25T13:53:54Z</time>
      </trkpt>
      <trkpt lat="45.45112" lon="4.56468">
        <ele>674.50408935547</ele>
        <time>2015-04-25T13:53:56Z</time>
      </trkpt>
      <trkpt lat="45.45108" lon="4.56465">
        <ele>674.90289306641</ele>
        <time>2015-04-25T13:53:58Z</time>
      </trkpt>
      <trkpt lat="45.45103" lon="4.56457">
        <ele>676.56280517578</ele>
        <time>2015-04-25T13:54:00Z</time>
      </trkpt>
      <trkpt lat="45.45097" lon="4.56452">
        <ele>677.45416259766</ele>
        <time>2015-04-25T13:54:02Z</time>
      </trkpt>
      <trkpt lat="45.45094" lon="4.56448">
        <ele>678.23028564453</ele>
        <time>2015-04-25T13:54:04Z</time>
      </trkpt>
      <trkpt lat="45.4509" lon="4.56445">
        <ele>678.75128173828</ele>
        <time>2015-04-25T13:54:06Z</time>
      </trkpt>
      <trkpt lat="45.45086" lon="4.56444">
        <ele>678.65716552734</ele>
        <time>2015-04-25T13:54:08Z</time>
      </trkpt>
      <trkpt lat="45.45082" lon="4.56442">
        <ele>679.00939941406</ele>
        <time>2015-04-25T13:54:10Z</time>
      </trkpt>
      <trkpt lat="45.45078" lon="4.56438">
        <ele>679.62048339844</ele>
        <time>2015-04-25T13:54:12Z</time>
      </trkpt>
      <trkpt lat="45.45074" lon="4.56436">
        <ele>679.87371826172</ele>
        <time>2015-04-25T13:54:14Z</time>
      </trkpt>
      <trkpt lat="45.45068" lon="4.56429">
        <ele>681.17620849609</ele>
        <time>2015-04-25T13:54:17Z</time>
      </trkpt>
      <trkpt lat="45.45061" lon="4.56428">
        <ele>680.85931396484</ele>
        <time>2015-04-25T13:54:19Z</time>
      </trkpt>
      <trkpt lat="45.45055" lon="4.56426">
        <ele>680.98199462891</ele>
        <time>2015-04-25T13:54:21Z</time>
      </trkpt>
      <trkpt lat="45.4505" lon="4.56426">
        <ele>680.27404785156</ele>
        <time>2015-04-25T13:54:23Z</time>
      </trkpt>
      <trkpt lat="45.45044" lon="4.56425">
        <ele>680.11169433594</ele>
        <time>2015-04-25T13:54:25Z</time>
      </trkpt>
      <trkpt lat="45.45038" lon="4.56422">
        <ele>680.60162353516</ele>
        <time>2015-04-25T13:54:27Z</time>
      </trkpt>
      <trkpt lat="45.45034" lon="4.56419">
        <ele>681.17626953125</ele>
        <time>2015-04-25T13:54:29Z</time>
      </trkpt>
      <trkpt lat="45.45028" lon="4.56419">
        <ele>680.71795654297</ele>
        <time>2015-04-25T13:54:31Z</time>
      </trkpt>
      <trkpt lat="45.45023" lon="4.56416">
        <ele>681.04626464844</ele>
        <time>2015-04-25T13:54:33Z</time>
      </trkpt>
      <trkpt lat="45.45017" lon="4.56414">
        <ele>681.23297119141</ele>
        <time>2015-04-25T13:54:35Z</time>
      </trkpt>
      <trkpt lat="45.45012" lon="4.56414">
        <ele>681.12084960938</ele>
        <time>2015-04-25T13:54:37Z</time>
      </trkpt>
      <trkpt lat="45.45007" lon="4.56414">
        <ele>680.43341064453</ele>
        <time>2015-04-25T13:54:39Z</time>
      </trkpt>
      <trkpt lat="45.45003" lon="4.56413">
        <ele>680.49383544922</ele>
        <time>2015-04-25T13:54:41Z</time>
      </trkpt>
      <trkpt lat="45.44999" lon="4.56414">
        <ele>679.888671875</ele>
        <time>2015-04-25T13:54:43Z</time>
      </trkpt>
      <trkpt lat="45.44995" lon="4.56412">
        <ele>680.74084472656</ele>
        <time>2015-04-25T13:54:45Z</time>
      </trkpt>
      <trkpt lat="45.44992" lon="4.56408">
        <ele>682.18255615234</ele>
        <time>2015-04-25T13:54:47Z</time>
      </trkpt>
      <trkpt lat="45.44988" lon="4.56403">
        <ele>683.78900146484</ele>
        <time>2015-04-25T13:54:49Z</time>
      </trkpt>
      <trkpt lat="45.44986" lon="4.56398">
        <ele>685.55615234375</ele>
        <time>2015-04-25T13:54:51Z</time>
      </trkpt>
      <trkpt lat="45.44982" lon="4.56393">
        <ele>687.05346679688</ele>
        <time>2015-04-25T13:54:53Z</time>
      </trkpt>
      <trkpt lat="45.44978" lon="4.56389">
        <ele>688.40008544922</ele>
        <time>2015-04-25T13:54:55Z</time>
      </trkpt>
      <trkpt lat="45.44974" lon="4.56388">
        <ele>688.86676025391</ele>
        <time>2015-04-25T13:54:57Z</time>
      </trkpt>
      <trkpt lat="45.44969" lon="4.56384">
        <ele>689.96569824219</ele>
        <time>2015-04-25T13:54:59Z</time>
      </trkpt>
      <trkpt lat="45.44965" lon="4.56379">
        <ele>691.47442626953</ele>
        <time>2015-04-25T13:55:01Z</time>
      </trkpt>
      <trkpt lat="45.44961" lon="4.56375">
        <ele>692.73992919922</ele>
        <time>2015-04-25T13:55:03Z</time>
      </trkpt>
      <trkpt lat="45.44957" lon="4.5637">
        <ele>694.12194824219</ele>
        <time>2015-04-25T13:55:05Z</time>
      </trkpt>
      <trkpt lat="45.44954" lon="4.56368">
        <ele>694.68688964844</ele>
        <time>2015-04-25T13:55:07Z</time>
      </trkpt>
      <trkpt lat="45.44951" lon="4.56366">
        <ele>695.10278320312</ele>
        <time>2015-04-25T13:55:09Z</time>
      </trkpt>
      <trkpt lat="45.44945" lon="4.56366">
        <ele>694.70056152344</ele>
        <time>2015-04-25T13:55:11Z</time>
      </trkpt>
      <trkpt lat="45.4494" lon="4.56366">
        <ele>694.48590087891</ele>
        <time>2015-04-25T13:55:13Z</time>
      </trkpt>
      <trkpt lat="45.44935" lon="4.56365">
        <ele>694.630859375</ele>
        <time>2015-04-25T13:55:15Z</time>
      </trkpt>
      <trkpt lat="45.44931" lon="4.56362">
        <ele>695.22534179688</ele>
        <time>2015-04-25T13:55:17Z</time>
      </trkpt>
      <trkpt lat="45.44927" lon="4.56361">
        <ele>695.39697265625</ele>
        <time>2015-04-25T13:55:19Z</time>
      </trkpt>
      <trkpt lat="45.44923" lon="4.56358">
        <ele>695.87524414062</ele>
        <time>2015-04-25T13:55:21Z</time>
      </trkpt>
      <trkpt lat="45.4492" lon="4.56357">
        <ele>696.05133056641</ele>
        <time>2015-04-25T13:55:23Z</time>
      </trkpt>
      <trkpt lat="45.44917" lon="4.56355">
        <ele>696.57366943359</ele>
        <time>2015-04-25T13:55:25Z</time>
      </trkpt>
      <trkpt lat="45.44913" lon="4.56352">
        <ele>697.69903564453</ele>
        <time>2015-04-25T13:55:27Z</time>
      </trkpt>
      <trkpt lat="45.44909" lon="4.56351">
        <ele>698.37060546875</ele>
        <time>2015-04-25T13:55:29Z</time>
      </trkpt>
      <trkpt lat="45.44904" lon="4.56348">
        <ele>699.767578125</ele>
        <time>2015-04-25T13:55:31Z</time>
      </trkpt>
      <trkpt lat="45.44898" lon="4.56344">
        <ele>701.49169921875</ele>
        <time>2015-04-25T13:55:33Z</time>
      </trkpt>
      <trkpt lat="45.44892" lon="4.56344">
        <ele>701.87316894531</ele>
        <time>2015-04-25T13:55:35Z</time>
      </trkpt>
      <trkpt lat="45.44889" lon="4.56343">
        <ele>702.48168945312</ele>
        <time>2015-04-25T13:55:37Z</time>
      </trkpt>
      <trkpt lat="45.44886" lon="4.56342">
        <ele>702.88586425781</ele>
        <time>2015-04-25T13:55:39Z</time>
      </trkpt>
      <trkpt lat="45.44881" lon="4.56343">
        <ele>702.94641113281</ele>
        <time>2015-04-25T13:55:41Z</time>
      </trkpt>
      <trkpt lat="45.44877" lon="4.56344">
        <ele>703.04187011719</ele>
        <time>2015-04-25T13:55:43Z</time>
      </trkpt>
      <trkpt lat="45.44873" lon="4.56346">
        <ele>702.96575927734</ele>
        <time>2015-04-25T13:55:45Z</time>
      </trkpt>
      <trkpt lat="45.44868" lon="4.56348">
        <ele>702.95483398438</ele>
        <time>2015-04-25T13:55:47Z</time>
      </trkpt>
      <trkpt lat="45.44863" lon="4.56349">
        <ele>703.15740966797</ele>
        <time>2015-04-25T13:55:49Z</time>
      </trkpt>
      <trkpt lat="45.44858" lon="4.56348">
        <ele>703.84686279297</ele>
        <time>2015-04-25T13:55:51Z</time>
      </trkpt>
      <trkpt lat="45.44852" lon="4.56347">
        <ele>704.46197509766</ele>
        <time>2015-04-25T13:55:53Z</time>
      </trkpt>
      <trkpt lat="45.44847" lon="4.56346">
        <ele>705.33093261719</ele>
        <time>2015-04-25T13:55:55Z</time>
      </trkpt>
      <trkpt lat="45.44843" lon="4.56347">
        <ele>705.3359375</ele>
        <time>2015-04-25T13:55:57Z</time>
      </trkpt>
      <trkpt lat="45.44838" lon="4.5635">
        <ele>705.22027587891</ele>
        <time>2015-04-25T13:55:59Z</time>
      </trkpt>
      <trkpt lat="45.44834" lon="4.56351">
        <ele>705.28387451172</ele>
        <time>2015-04-25T13:56:01Z</time>
      </trkpt>
      <trkpt lat="45.4483" lon="4.56353">
        <ele>705.93035888672</ele>
        <time>2015-04-25T13:56:03Z</time>
      </trkpt>
      <trkpt lat="45.44826" lon="4.56355">
        <ele>706.44311523438</ele>
        <time>2015-04-25T13:56:05Z</time>
      </trkpt>
      <trkpt lat="45.44822" lon="4.56358">
        <ele>706.67456054688</ele>
        <time>2015-04-25T13:56:07Z</time>
      </trkpt>
      <trkpt lat="45.4482" lon="4.56359">
        <ele>707.12469482422</ele>
        <time>2015-04-25T13:56:09Z</time>
      </trkpt>
      <trkpt lat="45.44817" lon="4.56358">
        <ele>707.98577880859</ele>
        <time>2015-04-25T13:56:11Z</time>
      </trkpt>
      <trkpt lat="45.44814" lon="4.56358">
        <ele>708.61444091797</ele>
        <time>2015-04-25T13:56:13Z</time>
      </trkpt>
      <trkpt lat="45.4481" lon="4.5636">
        <ele>709.17358398438</ele>
        <time>2015-04-25T13:56:16Z</time>
      </trkpt>
      <trkpt lat="45.44807" lon="4.56361">
        <ele>709.8583984375</ele>
        <time>2015-04-25T13:56:18Z</time>
      </trkpt>
      <trkpt lat="45.44804" lon="4.56361">
        <ele>710.51373291016</ele>
        <time>2015-04-25T13:56:20Z</time>
      </trkpt>
      <trkpt lat="45.44801" lon="4.56361">
        <ele>711.07269287109</ele>
        <time>2015-04-25T13:56:22Z</time>
      </trkpt>
      <trkpt lat="45.44799" lon="4.56362">
        <ele>711.59320068359</ele>
        <time>2015-04-25T13:56:25Z</time>
      </trkpt>
      <trkpt lat="45.44795" lon="4.56364">
        <ele>712.16394042969</ele>
        <time>2015-04-25T13:56:28Z</time>
      </trkpt>
      <trkpt lat="45.44793" lon="4.56365">
        <ele>712.45098876953</ele>
        <time>2015-04-25T13:56:30Z</time>
      </trkpt>
      <trkpt lat="45.4479" lon="4.56367">
        <ele>712.84301757812</ele>
        <time>2015-04-25T13:56:32Z</time>
      </trkpt>
      <trkpt lat="45.44787" lon="4.56368">
        <ele>713.30975341797</ele>
        <time>2015-04-25T13:56:34Z</time>
      </trkpt>
      <trkpt lat="45.44783" lon="4.5637">
        <ele>714.09228515625</ele>
        <time>2015-04-25T13:56:36Z</time>
      </trkpt>
      <trkpt lat="45.4478" lon="4.56371">
        <ele>714.65008544922</ele>
        <time>2015-04-25T13:56:38Z</time>
      </trkpt>
      <trkpt lat="45.44775" lon="4.56374">
        <ele>715.27600097656</ele>
        <time>2015-04-25T13:56:41Z</time>
      </trkpt>
      <trkpt lat="45.44773" lon="4.56379">
        <ele>715.06042480469</ele>
        <time>2015-04-25T13:56:44Z</time>
      </trkpt>
      <trkpt lat="45.44771" lon="4.5638">
        <ele>715.49768066406</ele>
        <time>2015-04-25T13:56:46Z</time>
      </trkpt>
      <trkpt lat="45.44767" lon="4.56381">
        <ele>716.15802001953</ele>
        <time>2015-04-25T13:56:48Z</time>
      </trkpt>
      <trkpt lat="45.44765" lon="4.56384">
        <ele>716.07098388672</ele>
        <time>2015-04-25T13:56:50Z</time>
      </trkpt>
      <trkpt lat="45.44764" lon="4.56389">
        <ele>715.78851318359</ele>
        <time>2015-04-25T13:56:53Z</time>
      </trkpt>
      <trkpt lat="45.44762" lon="4.5639">
        <ele>715.89166259766</ele>
        <time>2015-04-25T13:56:55Z</time>
      </trkpt>
      <trkpt lat="45.44759" lon="4.56394">
        <ele>716.11791992188</ele>
        <time>2015-04-25T13:56:57Z</time>
      </trkpt>
      <trkpt lat="45.44756" lon="4.56398">
        <ele>716.49029541016</ele>
        <time>2015-04-25T13:56:59Z</time>
      </trkpt>
      <trkpt lat="45.44754" lon="4.56402">
        <ele>716.13226318359</ele>
        <time>2015-04-25T13:57:01Z</time>
      </trkpt>
      <trkpt lat="45.44752" lon="4.56407">
        <ele>716.03405761719</ele>
        <time>2015-04-25T13:57:03Z</time>
      </trkpt>
      <trkpt lat="45.44751" lon="4.56413">
        <ele>715.35949707031</ele>
        <time>2015-04-25T13:57:05Z</time>
      </trkpt>
      <trkpt lat="45.44749" lon="4.5642">
        <ele>714.67840576172</ele>
        <time>2015-04-25T13:57:07Z</time>
      </trkpt>
      <trkpt lat="45.44747" lon="4.56425">
        <ele>714.46765136719</ele>
        <time>2015-04-25T13:57:09Z</time>
      </trkpt>
      <trkpt lat="45.44745" lon="4.56431">
        <ele>714.17645263672</ele>
        <time>2015-04-25T13:57:11Z</time>
      </trkpt>
      <trkpt lat="45.44744" lon="4.56438">
        <ele>713.47735595703</ele>
        <time>2015-04-25T13:57:13Z</time>
      </trkpt>
      <trkpt lat="45.44741" lon="4.56445">
        <ele>713.27264404297</ele>
        <time>2015-04-25T13:57:15Z</time>
      </trkpt>
      <trkpt lat="45.4474" lon="4.56452">
        <ele>712.47882080078</ele>
        <time>2015-04-25T13:57:17Z</time>
      </trkpt>
      <trkpt lat="45.44739" lon="4.56461">
        <ele>711.44183349609</ele>
        <time>2015-04-25T13:57:19Z</time>
      </trkpt>
      <trkpt lat="45.44738" lon="4.5647">
        <ele>710.50213623047</ele>
        <time>2015-04-25T13:57:21Z</time>
      </trkpt>
      <trkpt lat="45.44738" lon="4.56477">
        <ele>709.40179443359</ele>
        <time>2015-04-25T13:57:23Z</time>
      </trkpt>
      <trkpt lat="45.44738" lon="4.56484">
        <ele>708.11804199219</ele>
        <time>2015-04-25T13:57:25Z</time>
      </trkpt>
      <trkpt lat="45.4474" lon="4.56489">
        <ele>706.80017089844</ele>
        <time>2015-04-25T13:57:27Z</time>
      </trkpt>
      <trkpt lat="45.44742" lon="4.56494">
        <ele>705.51470947266</ele>
        <time>2015-04-25T13:57:29Z</time>
      </trkpt>
      <trkpt lat="45.44743" lon="4.56501">
        <ele>704.22106933594</ele>
        <time>2015-04-25T13:57:31Z</time>
      </trkpt>
      <trkpt lat="45.44746" lon="4.56506">
        <ele>703.57830810547</ele>
        <time>2015-04-25T13:57:33Z</time>
      </trkpt>
      <trkpt lat="45.44749" lon="4.56513">
        <ele>703.02917480469</ele>
        <time>2015-04-25T13:57:35Z</time>
      </trkpt>
      <trkpt lat="45.4475" lon="4.5652">
        <ele>702.85949707031</ele>
        <time>2015-04-25T13:57:37Z</time>
      </trkpt>
      <trkpt lat="45.44752" lon="4.56526">
        <ele>702.49328613281</ele>
        <time>2015-04-25T13:57:39Z</time>
      </trkpt>
      <trkpt lat="45.44753" lon="4.56533">
        <ele>702.56884765625</ele>
        <time>2015-04-25T13:57:41Z</time>
      </trkpt>
      <trkpt lat="45.44754" lon="4.56541">
        <ele>702.65576171875</ele>
        <time>2015-04-25T13:57:43Z</time>
      </trkpt>
      <trkpt lat="45.44756" lon="4.56549">
        <ele>702.06756591797</ele>
        <time>2015-04-25T13:57:45Z</time>
      </trkpt>
      <trkpt lat="45.44759" lon="4.56555">
        <ele>701.40380859375</ele>
        <time>2015-04-25T13:57:47Z</time>
      </trkpt>
      <trkpt lat="45.44759" lon="4.5656">
        <ele>701.49304199219</ele>
        <time>2015-04-25T13:57:49Z</time>
      </trkpt>
      <trkpt lat="45.44759" lon="4.56566">
        <ele>701.81811523438</ele>
        <time>2015-04-25T13:57:51Z</time>
      </trkpt>
      <trkpt lat="45.44761" lon="4.56574">
        <ele>701.75170898438</ele>
        <time>2015-04-25T13:57:53Z</time>
      </trkpt>
      <trkpt lat="45.44762" lon="4.56581">
        <ele>701.70135498047</ele>
        <time>2015-04-25T13:57:55Z</time>
      </trkpt>
      <trkpt lat="45.44764" lon="4.56589">
        <ele>701.59649658203</ele>
        <time>2015-04-25T13:57:57Z</time>
      </trkpt>
      <trkpt lat="45.44766" lon="4.56597">
        <ele>701.47717285156</ele>
        <time>2015-04-25T13:57:59Z</time>
      </trkpt>
      <trkpt lat="45.44767" lon="4.56604">
        <ele>701.60852050781</ele>
        <time>2015-04-25T13:58:01Z</time>
      </trkpt>
      <trkpt lat="45.44767" lon="4.56611">
        <ele>702.22393798828</ele>
        <time>2015-04-25T13:58:03Z</time>
      </trkpt>
      <trkpt lat="45.44767" lon="4.56618">
        <ele>703.11480712891</ele>
        <time>2015-04-25T13:58:05Z</time>
      </trkpt>
      <trkpt lat="45.44767" lon="4.56624">
        <ele>703.31890869141</ele>
        <time>2015-04-25T13:58:07Z</time>
      </trkpt>
      <trkpt lat="45.44765" lon="4.5663">
        <ele>704.79626464844</ele>
        <time>2015-04-25T13:58:09Z</time>
      </trkpt>
      <trkpt lat="45.44764" lon="4.56635">
        <ele>705.54339599609</ele>
        <time>2015-04-25T13:58:11Z</time>
      </trkpt>
      <trkpt lat="45.44762" lon="4.5664">
        <ele>706.63952636719</ele>
        <time>2015-04-25T13:58:13Z</time>
      </trkpt>
      <trkpt lat="45.44761" lon="4.56644">
        <ele>707.21783447266</ele>
        <time>2015-04-25T13:58:15Z</time>
      </trkpt>
      <trkpt lat="45.44761" lon="4.56651">
        <ele>708.08508300781</ele>
        <time>2015-04-25T13:58:17Z</time>
      </trkpt>
      <trkpt lat="45.44761" lon="4.56659">
        <ele>708.69061279297</ele>
        <time>2015-04-25T13:58:19Z</time>
      </trkpt>
      <trkpt lat="45.44759" lon="4.56667">
        <ele>709.85272216797</ele>
        <time>2015-04-25T13:58:21Z</time>
      </trkpt>
      <trkpt lat="45.44758" lon="4.56675">
        <ele>710.37384033203</ele>
        <time>2015-04-25T13:58:23Z</time>
      </trkpt>
      <trkpt lat="45.44757" lon="4.5668">
        <ele>710.63433837891</ele>
        <time>2015-04-25T13:58:25Z</time>
      </trkpt>
      <trkpt lat="45.44756" lon="4.56686">
        <ele>710.89520263672</ele>
        <time>2015-04-25T13:58:27Z</time>
      </trkpt>
      <trkpt lat="45.44756" lon="4.56692">
        <ele>710.90026855469</ele>
        <time>2015-04-25T13:58:29Z</time>
      </trkpt>
      <trkpt lat="45.44757" lon="4.56696">
        <ele>710.65081787109</ele>
        <time>2015-04-25T13:58:31Z</time>
      </trkpt>
      <trkpt lat="45.44759" lon="4.567">
        <ele>710.02362060547</ele>
        <time>2015-04-25T13:58:33Z</time>
      </trkpt>
      <trkpt lat="45.44761" lon="4.56705">
        <ele>709.27294921875</ele>
        <time>2015-04-25T13:58:35Z</time>
      </trkpt>
      <trkpt lat="45.44764" lon="4.56711">
        <ele>708.40301513672</ele>
        <time>2015-04-25T13:58:37Z</time>
      </trkpt>
      <trkpt lat="45.44763" lon="4.56722">
        <ele>708.80108642578</ele>
        <time>2015-04-25T13:58:39Z</time>
      </trkpt>
      <trkpt lat="45.44763" lon="4.5673">
        <ele>708.69012451172</ele>
        <time>2015-04-25T13:58:41Z</time>
      </trkpt>
      <trkpt lat="45.44764" lon="4.56737">
        <ele>708.45483398438</ele>
        <time>2015-04-25T13:58:43Z</time>
      </trkpt>
      <trkpt lat="45.44765" lon="4.56744">
        <ele>708.22241210938</ele>
        <time>2015-04-25T13:58:45Z</time>
      </trkpt>
      <trkpt lat="45.44762" lon="4.56754">
        <ele>708.61199951172</ele>
        <time>2015-04-25T13:58:47Z</time>
      </trkpt>
      <trkpt lat="45.44762" lon="4.56764">
        <ele>708.12176513672</ele>
        <time>2015-04-25T13:58:49Z</time>
      </trkpt>
      <trkpt lat="45.44762" lon="4.56774">
        <ele>707.33209228516</ele>
        <time>2015-04-25T13:58:51Z</time>
      </trkpt>
      <trkpt lat="45.44762" lon="4.56785">
        <ele>706.1572265625</ele>
        <time>2015-04-25T13:58:53Z</time>
      </trkpt>
      <trkpt lat="45.44762" lon="4.56797">
        <ele>705.34796142578</ele>
        <time>2015-04-25T13:58:55Z</time>
      </trkpt>
      <trkpt lat="45.44764" lon="4.56808">
        <ele>703.59948730469</ele>
        <time>2015-04-25T13:58:57Z</time>
      </trkpt>
      <trkpt lat="45.44765" lon="4.56819">
        <ele>702.37622070312</ele>
        <time>2015-04-25T13:58:59Z</time>
      </trkpt>
      <trkpt lat="45.44768" lon="4.56832">
        <ele>700.14831542969</ele>
        <time>2015-04-25T13:59:01Z</time>
      </trkpt>
      <trkpt lat="45.44772" lon="4.56845">
        <ele>697.57489013672</ele>
        <time>2015-04-25T13:59:03Z</time>
      </trkpt>
      <trkpt lat="45.44776" lon="4.56856">
        <ele>695.41546630859</ele>
        <time>2015-04-25T13:59:05Z</time>
      </trkpt>
      <trkpt lat="45.44781" lon="4.56868">
        <ele>693.17211914062</ele>
        <time>2015-04-25T13:59:07Z</time>
      </trkpt>
      <trkpt lat="45.44786" lon="4.5688">
        <ele>690.78955078125</ele>
        <time>2015-04-25T13:59:10Z</time>
      </trkpt>
      <trkpt lat="45.44799" lon="4.56891">
        <ele>686.53088378906</ele>
        <time>2015-04-25T13:59:12Z</time>
      </trkpt>
      <trkpt lat="45.44797" lon="4.56898">
        <ele>686.8349609375</ele>
        <time>2015-04-25T13:59:14Z</time>
      </trkpt>
      <trkpt lat="45.44792" lon="4.56911">
        <ele>687.61737060547</ele>
        <time>2015-04-25T13:59:16Z</time>
      </trkpt>
      <trkpt lat="45.44789" lon="4.56924">
        <ele>687.32556152344</ele>
        <time>2015-04-25T13:59:18Z</time>
      </trkpt>
      <trkpt lat="45.44783" lon="4.56939">
        <ele>686.79864501953</ele>
        <time>2015-04-25T13:59:20Z</time>
      </trkpt>
      <trkpt lat="45.4478" lon="4.56951">
        <ele>685.89306640625</ele>
        <time>2015-04-25T13:59:22Z</time>
      </trkpt>
      <trkpt lat="45.44774" lon="4.5696">
        <ele>685.53527832031</ele>
        <time>2015-04-25T13:59:24Z</time>
      </trkpt>
      <trkpt lat="45.44771" lon="4.56965">
        <ele>685.40673828125</ele>
        <time>2015-04-25T13:59:26Z</time>
      </trkpt>
      <trkpt lat="45.44766" lon="4.56971">
        <ele>685.26635742188</ele>
        <time>2015-04-25T13:59:28Z</time>
      </trkpt>
      <trkpt lat="45.44758" lon="4.56975">
        <ele>685.76751708984</ele>
        <time>2015-04-25T13:59:30Z</time>
      </trkpt>
      <trkpt lat="45.44751" lon="4.56978">
        <ele>686.19940185547</ele>
        <time>2015-04-25T13:59:32Z</time>
      </trkpt>
      <trkpt lat="45.44744" lon="4.56981">
        <ele>686.51470947266</ele>
        <time>2015-04-25T13:59:34Z</time>
      </trkpt>
      <trkpt lat="45.44736" lon="4.56987">
        <ele>686.56066894531</ele>
        <time>2015-04-25T13:59:36Z</time>
      </trkpt>
      <trkpt lat="45.44731" lon="4.56992">
        <ele>686.23480224609</ele>
        <time>2015-04-25T13:59:38Z</time>
      </trkpt>
      <trkpt lat="45.44723" lon="4.56999">
        <ele>685.96875</ele>
        <time>2015-04-25T13:59:40Z</time>
      </trkpt>
      <trkpt lat="45.44716" lon="4.57005">
        <ele>685.84619140625</ele>
        <time>2015-04-25T13:59:42Z</time>
      </trkpt>
      <trkpt lat="45.44709" lon="4.57012">
        <ele>685.25726318359</ele>
        <time>2015-04-25T13:59:44Z</time>
      </trkpt>
      <trkpt lat="45.44701" lon="4.57017">
        <ele>685.11376953125</ele>
        <time>2015-04-25T13:59:46Z</time>
      </trkpt>
      <trkpt lat="45.44693" lon="4.5702">
        <ele>685.50775146484</ele>
        <time>2015-04-25T13:59:48Z</time>
      </trkpt>
      <trkpt lat="45.44684" lon="4.57027">
        <ele>684.91223144531</ele>
        <time>2015-04-25T13:59:50Z</time>
      </trkpt>
      <trkpt lat="45.44676" lon="4.57031">
        <ele>684.82208251953</ele>
        <time>2015-04-25T13:59:52Z</time>
      </trkpt>
      <trkpt lat="45.44672" lon="4.57029">
        <ele>685.82135009766</ele>
        <time>2015-04-25T13:59:54Z</time>
      </trkpt>
      <trkpt lat="45.44666" lon="4.57028">
        <ele>686.61279296875</ele>
        <time>2015-04-25T13:59:56Z</time>
      </trkpt>
      <trkpt lat="45.44659" lon="4.57028">
        <ele>687.17797851562</ele>
        <time>2015-04-25T13:59:58Z</time>
      </trkpt>
      <trkpt lat="45.44655" lon="4.57028">
        <ele>687.30725097656</ele>
        <time>2015-04-25T14:00:00Z</time>
      </trkpt>
      <trkpt lat="45.44651" lon="4.57028">
        <ele>687.63824462891</ele>
        <time>2015-04-25T14:00:02Z</time>
      </trkpt>
      <trkpt lat="45.44644" lon="4.5703">
        <ele>687.71911621094</ele>
        <time>2015-04-25T14:00:04Z</time>
      </trkpt>
      <trkpt lat="45.44637" lon="4.57033">
        <ele>687.42163085938</ele>
        <time>2015-04-25T14:00:06Z</time>
      </trkpt>
      <trkpt lat="45.44631" lon="4.57034">
        <ele>687.65051269531</ele>
        <time>2015-04-25T14:00:08Z</time>
      </trkpt>
      <trkpt lat="45.44627" lon="4.57034">
        <ele>688.09368896484</ele>
        <time>2015-04-25T14:00:10Z</time>
      </trkpt>
      <trkpt lat="45.44623" lon="4.57032">
        <ele>688.75885009766</ele>
        <time>2015-04-25T14:00:12Z</time>
      </trkpt>
      <trkpt lat="45.44618" lon="4.57033">
        <ele>688.92797851562</ele>
        <time>2015-04-25T14:00:14Z</time>
      </trkpt>
      <trkpt lat="45.44613" lon="4.57035">
        <ele>688.85339355469</ele>
        <time>2015-04-25T14:00:16Z</time>
      </trkpt>
      <trkpt lat="45.44607" lon="4.57038">
        <ele>688.58959960938</ele>
        <time>2015-04-25T14:00:18Z</time>
      </trkpt>
      <trkpt lat="45.44601" lon="4.57039">
        <ele>688.59875488281</ele>
        <time>2015-04-25T14:00:20Z</time>
      </trkpt>
      <trkpt lat="45.44596" lon="4.5704">
        <ele>688.81378173828</ele>
        <time>2015-04-25T14:00:22Z</time>
      </trkpt>
      <trkpt lat="45.4459" lon="4.57042">
        <ele>688.80126953125</ele>
        <time>2015-04-25T14:00:24Z</time>
      </trkpt>
      <trkpt lat="45.44584" lon="4.57045">
        <ele>688.72973632812</ele>
        <time>2015-04-25T14:00:26Z</time>
      </trkpt>
      <trkpt lat="45.44576" lon="4.57051">
        <ele>687.09161376953</ele>
        <time>2015-04-25T14:00:28Z</time>
      </trkpt>
      <trkpt lat="45.44569" lon="4.57056">
        <ele>685.81158447266</ele>
        <time>2015-04-25T14:00:30Z</time>
      </trkpt>
      <trkpt lat="45.44562" lon="4.57059">
        <ele>684.87536621094</ele>
        <time>2015-04-25T14:00:32Z</time>
      </trkpt>
      <trkpt lat="45.44556" lon="4.57061">
        <ele>684.12780761719</ele>
        <time>2015-04-25T14:00:34Z</time>
      </trkpt>
      <trkpt lat="45.4455" lon="4.57062">
        <ele>683.84661865234</ele>
        <time>2015-04-25T14:00:36Z</time>
      </trkpt>
      <trkpt lat="45.44544" lon="4.57059">
        <ele>684.20635986328</ele>
        <time>2015-04-25T14:00:38Z</time>
      </trkpt>
      <trkpt lat="45.44538" lon="4.57057">
        <ele>684.37872314453</ele>
        <time>2015-04-25T14:00:40Z</time>
      </trkpt>
      <trkpt lat="45.44532" lon="4.57052">
        <ele>685.19018554688</ele>
        <time>2015-04-25T14:00:42Z</time>
      </trkpt>
      <trkpt lat="45.44529" lon="4.57046">
        <ele>686.03137207031</ele>
        <time>2015-04-25T14:00:44Z</time>
      </trkpt>
      <trkpt lat="45.44524" lon="4.57043">
        <ele>686.37872314453</ele>
        <time>2015-04-25T14:00:46Z</time>
      </trkpt>
      <trkpt lat="45.4452" lon="4.57038">
        <ele>687.123046875</ele>
        <time>2015-04-25T14:00:48Z</time>
      </trkpt>
      <trkpt lat="45.44515" lon="4.57035">
        <ele>687.33526611328</ele>
        <time>2015-04-25T14:00:50Z</time>
      </trkpt>
      <trkpt lat="45.44509" lon="4.57032">
        <ele>687.52008056641</ele>
        <time>2015-04-25T14:00:52Z</time>
      </trkpt>
      <trkpt lat="45.44504" lon="4.57033">
        <ele>687.13415527344</ele>
        <time>2015-04-25T14:00:54Z</time>
      </trkpt>
      <trkpt lat="45.44499" lon="4.57029">
        <ele>687.25622558594</ele>
        <time>2015-04-25T14:00:56Z</time>
      </trkpt>
      <trkpt lat="45.44494" lon="4.57023">
        <ele>687.06323242188</ele>
        <time>2015-04-25T14:00:58Z</time>
      </trkpt>
      <trkpt lat="45.4449" lon="4.57016">
        <ele>687.21807861328</ele>
        <time>2015-04-25T14:01:00Z</time>
      </trkpt>
      <trkpt lat="45.44485" lon="4.5701">
        <ele>686.94201660156</ele>
        <time>2015-04-25T14:01:02Z</time>
      </trkpt>
      <trkpt lat="45.44479" lon="4.57004">
        <ele>686.55029296875</ele>
        <time>2015-04-25T14:01:04Z</time>
      </trkpt>
      <trkpt lat="45.44474" lon="4.56998">
        <ele>686.34466552734</ele>
        <time>2015-04-25T14:01:06Z</time>
      </trkpt>
      <trkpt lat="45.44469" lon="4.56993">
        <ele>686.22576904297</ele>
        <time>2015-04-25T14:01:08Z</time>
      </trkpt>
      <trkpt lat="45.44464" lon="4.56985">
        <ele>686.49487304688</ele>
        <time>2015-04-25T14:01:10Z</time>
      </trkpt>
      <trkpt lat="45.4446" lon="4.56978">
        <ele>686.69073486328</ele>
        <time>2015-04-25T14:01:12Z</time>
      </trkpt>
      <trkpt lat="45.44455" lon="4.56971">
        <ele>686.85430908203</ele>
        <time>2015-04-25T14:01:14Z</time>
      </trkpt>
      <trkpt lat="45.44451" lon="4.56965">
        <ele>686.82849121094</ele>
        <time>2015-04-25T14:01:16Z</time>
      </trkpt>
      <trkpt lat="45.44447" lon="4.56959">
        <ele>687.00860595703</ele>
        <time>2015-04-25T14:01:18Z</time>
      </trkpt>
      <trkpt lat="45.44443" lon="4.56952">
        <ele>687.28070068359</ele>
        <time>2015-04-25T14:01:20Z</time>
      </trkpt>
      <trkpt lat="45.44439" lon="4.56946">
        <ele>687.44622802734</ele>
        <time>2015-04-25T14:01:22Z</time>
      </trkpt>
      <trkpt lat="45.44435" lon="4.56938">
        <ele>687.79132080078</ele>
        <time>2015-04-25T14:01:24Z</time>
      </trkpt>
      <trkpt lat="45.4443" lon="4.5693">
        <ele>687.79779052734</ele>
        <time>2015-04-25T14:01:26Z</time>
      </trkpt>
      <trkpt lat="45.44426" lon="4.56924">
        <ele>688.046875</ele>
        <time>2015-04-25T14:01:28Z</time>
      </trkpt>
      <trkpt lat="45.44423" lon="4.56916">
        <ele>688.72454833984</ele>
        <time>2015-04-25T14:01:30Z</time>
      </trkpt>
      <trkpt lat="45.44419" lon="4.56909">
        <ele>688.90252685547</ele>
        <time>2015-04-25T14:01:32Z</time>
      </trkpt>
      <trkpt lat="45.44415" lon="4.56904">
        <ele>688.70104980469</ele>
        <time>2015-04-25T14:01:34Z</time>
      </trkpt>
      <trkpt lat="45.4441" lon="4.56898">
        <ele>688.19305419922</ele>
        <time>2015-04-25T14:01:36Z</time>
      </trkpt>
      <trkpt lat="45.44405" lon="4.56896">
        <ele>687.25457763672</ele>
        <time>2015-04-25T14:01:38Z</time>
      </trkpt>
      <trkpt lat="45.44399" lon="4.56895">
        <ele>685.92663574219</ele>
        <time>2015-04-25T14:01:40Z</time>
      </trkpt>
      <trkpt lat="45.44394" lon="4.56893">
        <ele>685.11322021484</ele>
        <time>2015-04-25T14:01:42Z</time>
      </trkpt>
      <trkpt lat="45.44388" lon="4.5689">
        <ele>684.24810791016</ele>
        <time>2015-04-25T14:01:44Z</time>
      </trkpt>
      <trkpt lat="45.44382" lon="4.56885">
        <ele>683.64099121094</ele>
        <time>2015-04-25T14:01:46Z</time>
      </trkpt>
      <trkpt lat="45.44377" lon="4.56881">
        <ele>683.14337158203</ele>
        <time>2015-04-25T14:01:48Z</time>
      </trkpt>
      <trkpt lat="45.44371" lon="4.56878">
        <ele>682.31011962891</ele>
        <time>2015-04-25T14:01:50Z</time>
      </trkpt>
      <trkpt lat="45.44366" lon="4.56873">
        <ele>681.89538574219</ele>
        <time>2015-04-25T14:01:52Z</time>
      </trkpt>
      <trkpt lat="45.44362" lon="4.56866">
        <ele>682.39599609375</ele>
        <time>2015-04-25T14:01:54Z</time>
      </trkpt>
      <trkpt lat="45.44358" lon="4.5686">
        <ele>682.57629394531</ele>
        <time>2015-04-25T14:01:56Z</time>
      </trkpt>
      <trkpt lat="45.44352" lon="4.56857">
        <ele>681.87927246094</ele>
        <time>2015-04-25T14:01:58Z</time>
      </trkpt>
      <trkpt lat="45.44347" lon="4.56853">
        <ele>681.75616455078</ele>
        <time>2015-04-25T14:02:00Z</time>
      </trkpt>
      <trkpt lat="45.44344" lon="4.56848">
        <ele>682.13159179688</ele>
        <time>2015-04-25T14:02:02Z</time>
      </trkpt>
      <trkpt lat="45.44342" lon="4.56842">
        <ele>682.98004150391</ele>
        <time>2015-04-25T14:02:04Z</time>
      </trkpt>
      <trkpt lat="45.44337" lon="4.56838">
        <ele>682.73120117188</ele>
        <time>2015-04-25T14:02:06Z</time>
      </trkpt>
      <trkpt lat="45.44332" lon="4.56835">
        <ele>682.41998291016</ele>
        <time>2015-04-25T14:02:08Z</time>
      </trkpt>
      <trkpt lat="45.44327" lon="4.56831">
        <ele>682.35791015625</ele>
        <time>2015-04-25T14:02:10Z</time>
      </trkpt>
      <trkpt lat="45.44321" lon="4.56828">
        <ele>681.72613525391</ele>
        <time>2015-04-25T14:02:12Z</time>
      </trkpt>
      <trkpt lat="45.44316" lon="4.56825">
        <ele>681.27661132812</ele>
        <time>2015-04-25T14:02:14Z</time>
      </trkpt>
      <trkpt lat="45.44311" lon="4.56819">
        <ele>681.37487792969</ele>
        <time>2015-04-25T14:02:16Z</time>
      </trkpt>
      <trkpt lat="45.44307" lon="4.56811">
        <ele>681.82415771484</ele>
        <time>2015-04-25T14:02:18Z</time>
      </trkpt>
      <trkpt lat="45.44303" lon="4.56805">
        <ele>681.85223388672</ele>
        <time>2015-04-25T14:02:20Z</time>
      </trkpt>
      <trkpt lat="45.44299" lon="4.56799">
        <ele>682.00024414062</ele>
        <time>2015-04-25T14:02:22Z</time>
      </trkpt>
      <trkpt lat="45.44297" lon="4.56791">
        <ele>682.52917480469</ele>
        <time>2015-04-25T14:02:24Z</time>
      </trkpt>
      <trkpt lat="45.44293" lon="4.56786">
        <ele>682.33795166016</ele>
        <time>2015-04-25T14:02:26Z</time>
      </trkpt>
      <trkpt lat="45.4429" lon="4.56779">
        <ele>682.55090332031</ele>
        <time>2015-04-25T14:02:28Z</time>
      </trkpt>
      <trkpt lat="45.44286" lon="4.56771">
        <ele>682.71557617188</ele>
        <time>2015-04-25T14:02:30Z</time>
      </trkpt>
      <trkpt lat="45.44283" lon="4.56763">
        <ele>682.99890136719</ele>
        <time>2015-04-25T14:02:32Z</time>
      </trkpt>
      <trkpt lat="45.4428" lon="4.56753">
        <ele>683.30322265625</ele>
        <time>2015-04-25T14:02:34Z</time>
      </trkpt>
      <trkpt lat="45.44278" lon="4.56743">
        <ele>683.05206298828</ele>
        <time>2015-04-25T14:02:36Z</time>
      </trkpt>
      <trkpt lat="45.44274" lon="4.56731">
        <ele>682.22314453125</ele>
        <time>2015-04-25T14:02:38Z</time>
      </trkpt>
      <trkpt lat="45.44271" lon="4.56719">
        <ele>681.56268310547</ele>
        <time>2015-04-25T14:02:40Z</time>
      </trkpt>
      <trkpt lat="45.44269" lon="4.56708">
        <ele>680.98474121094</ele>
        <time>2015-04-25T14:02:42Z</time>
      </trkpt>
      <trkpt lat="45.44268" lon="4.56698">
        <ele>680.85241699219</ele>
        <time>2015-04-25T14:02:44Z</time>
      </trkpt>
      <trkpt lat="45.44265" lon="4.56687">
        <ele>679.97845458984</ele>
        <time>2015-04-25T14:02:46Z</time>
      </trkpt>
      <trkpt lat="45.44263" lon="4.56677">
        <ele>679.31732177734</ele>
        <time>2015-04-25T14:02:48Z</time>
      </trkpt>
      <trkpt lat="45.44261" lon="4.56668">
        <ele>678.7431640625</ele>
        <time>2015-04-25T14:02:50Z</time>
      </trkpt>
      <trkpt lat="45.4426" lon="4.56659">
        <ele>678.79815673828</ele>
        <time>2015-04-25T14:02:52Z</time>
      </trkpt>
      <trkpt lat="45.4426" lon="4.56651">
        <ele>679.14001464844</ele>
        <time>2015-04-25T14:02:54Z</time>
      </trkpt>
      <trkpt lat="45.44259" lon="4.56642">
        <ele>679.00189208984</ele>
        <time>2015-04-25T14:02:56Z</time>
      </trkpt>
      <trkpt lat="45.44257" lon="4.56635">
        <ele>678.724609375</ele>
        <time>2015-04-25T14:02:58Z</time>
      </trkpt>
      <trkpt lat="45.44255" lon="4.56628">
        <ele>678.53515625</ele>
        <time>2015-04-25T14:03:00Z</time>
      </trkpt>
      <trkpt lat="45.44254" lon="4.56619">
        <ele>678.48504638672</ele>
        <time>2015-04-25T14:03:02Z</time>
      </trkpt>
      <trkpt lat="45.44253" lon="4.56609">
        <ele>678.712890625</ele>
        <time>2015-04-25T14:03:04Z</time>
      </trkpt>
      <trkpt lat="45.44252" lon="4.56601">
        <ele>678.73352050781</ele>
        <time>2015-04-25T14:03:06Z</time>
      </trkpt>
      <trkpt lat="45.44253" lon="4.56592">
        <ele>679.35961914062</ele>
        <time>2015-04-25T14:03:08Z</time>
      </trkpt>
      <trkpt lat="45.44254" lon="4.56584">
        <ele>680.05328369141</ele>
        <time>2015-04-25T14:03:10Z</time>
      </trkpt>
      <trkpt lat="45.44254" lon="4.56577">
        <ele>681.11071777344</ele>
        <time>2015-04-25T14:03:12Z</time>
      </trkpt>
      <trkpt lat="45.44254" lon="4.56572">
        <ele>682.22729492188</ele>
        <time>2015-04-25T14:03:14Z</time>
      </trkpt>
      <trkpt lat="45.44253" lon="4.56567">
        <ele>682.67523193359</ele>
        <time>2015-04-25T14:03:17Z</time>
      </trkpt>
      <trkpt lat="45.44247" lon="4.5657">
        <ele>680.72375488281</ele>
        <time>2015-04-25T14:03:19Z</time>
      </trkpt>
      <trkpt lat="45.44236" lon="4.56571">
        <ele>678.56518554688</ele>
        <time>2015-04-25T14:03:21Z</time>
      </trkpt>
      <trkpt lat="45.44227" lon="4.56571">
        <ele>676.91680908203</ele>
        <time>2015-04-25T14:03:23Z</time>
      </trkpt>
      <trkpt lat="45.4422" lon="4.56571">
        <ele>675.57543945312</ele>
        <time>2015-04-25T14:03:25Z</time>
      </trkpt>
      <trkpt lat="45.44212" lon="4.56569">
        <ele>674.44458007812</ele>
        <time>2015-04-25T14:03:27Z</time>
      </trkpt>
      <trkpt lat="45.44206" lon="4.5657">
        <ele>673.07006835938</ele>
        <time>2015-04-25T14:03:29Z</time>
      </trkpt>
      <trkpt lat="45.44201" lon="4.5657">
        <ele>672.06860351562</ele>
        <time>2015-04-25T14:03:31Z</time>
      </trkpt>
      <trkpt lat="45.44197" lon="4.56567">
        <ele>671.8740234375</ele>
        <time>2015-04-25T14:03:33Z</time>
      </trkpt>
      <trkpt lat="45.44194" lon="4.56562">
        <ele>671.96301269531</ele>
        <time>2015-04-25T14:03:35Z</time>
      </trkpt>
      <trkpt lat="45.44189" lon="4.56559">
        <ele>671.45867919922</ele>
        <time>2015-04-25T14:03:37Z</time>
      </trkpt>
      <trkpt lat="45.44184" lon="4.56554">
        <ele>671.37707519531</ele>
        <time>2015-04-25T14:03:39Z</time>
      </trkpt>
      <trkpt lat="45.4418" lon="4.56547">
        <ele>671.31207275391</ele>
        <time>2015-04-25T14:03:41Z</time>
      </trkpt>
      <trkpt lat="45.44175" lon="4.5654">
        <ele>671.36541748047</ele>
        <time>2015-04-25T14:03:43Z</time>
      </trkpt>
      <trkpt lat="45.44169" lon="4.56532">
        <ele>671.25042724609</ele>
        <time>2015-04-25T14:03:45Z</time>
      </trkpt>
      <trkpt lat="45.44165" lon="4.56525">
        <ele>671.13647460938</ele>
        <time>2015-04-25T14:03:47Z</time>
      </trkpt>
      <trkpt lat="45.44163" lon="4.56517">
        <ele>671.62164306641</ele>
        <time>2015-04-25T14:03:49Z</time>
      </trkpt>
      <trkpt lat="45.4416" lon="4.56508">
        <ele>671.92047119141</ele>
        <time>2015-04-25T14:03:51Z</time>
      </trkpt>
      <trkpt lat="45.44158" lon="4.565">
        <ele>672.35119628906</ele>
        <time>2015-04-25T14:03:53Z</time>
      </trkpt>
      <trkpt lat="45.44156" lon="4.5649">
        <ele>671.69641113281</ele>
        <time>2015-04-25T14:03:55Z</time>
      </trkpt>
      <trkpt lat="45.44154" lon="4.56478">
        <ele>671.02093505859</ele>
        <time>2015-04-25T14:03:57Z</time>
      </trkpt>
      <trkpt lat="45.44153" lon="4.56467">
        <ele>670.81469726562</ele>
        <time>2015-04-25T14:03:59Z</time>
      </trkpt>
      <trkpt lat="45.44154" lon="4.56459">
        <ele>671.23388671875</ele>
        <time>2015-04-25T14:04:01Z</time>
      </trkpt>
      <trkpt lat="45.44154" lon="4.56449">
        <ele>671.40850830078</ele>
        <time>2015-04-25T14:04:03Z</time>
      </trkpt>
      <trkpt lat="45.44154" lon="4.56439">
        <ele>671.45910644531</ele>
        <time>2015-04-25T14:04:05Z</time>
      </trkpt>
      <trkpt lat="45.44154" lon="4.56429">
        <ele>671.5068359375</ele>
        <time>2015-04-25T14:04:07Z</time>
      </trkpt>
      <trkpt lat="45.44156" lon="4.5642">
        <ele>672.09893798828</ele>
        <time>2015-04-25T14:04:09Z</time>
      </trkpt>
      <trkpt lat="45.44156" lon="4.56412">
        <ele>671.92431640625</ele>
        <time>2015-04-25T14:04:11Z</time>
      </trkpt>
      <trkpt lat="45.44158" lon="4.56405">
        <ele>672.49615478516</ele>
        <time>2015-04-25T14:04:13Z</time>
      </trkpt>
      <trkpt lat="45.44159" lon="4.56398">
        <ele>672.67333984375</ele>
        <time>2015-04-25T14:04:15Z</time>
      </trkpt>
      <trkpt lat="45.44159" lon="4.56391">
        <ele>672.39239501953</ele>
        <time>2015-04-25T14:04:17Z</time>
      </trkpt>
      <trkpt lat="45.4416" lon="4.56383">
        <ele>672.5166015625</ele>
        <time>2015-04-25T14:04:19Z</time>
      </trkpt>
      <trkpt lat="45.44162" lon="4.56375">
        <ele>672.65924072266</ele>
        <time>2015-04-25T14:04:21Z</time>
      </trkpt>
      <trkpt lat="45.44162" lon="4.56366">
        <ele>672.47528076172</ele>
        <time>2015-04-25T14:04:23Z</time>
      </trkpt>
      <trkpt lat="45.44162" lon="4.56357">
        <ele>672.12030029297</ele>
        <time>2015-04-25T14:04:25Z</time>
      </trkpt>
      <trkpt lat="45.44164" lon="4.5635">
        <ele>672.55786132812</ele>
        <time>2015-04-25T14:04:27Z</time>
      </trkpt>
      <trkpt lat="45.44166" lon="4.56342">
        <ele>672.98040771484</ele>
        <time>2015-04-25T14:04:29Z</time>
      </trkpt>
      <trkpt lat="45.44167" lon="4.56335">
        <ele>673.17834472656</ele>
        <time>2015-04-25T14:04:31Z</time>
      </trkpt>
      <trkpt lat="45.44167" lon="4.56329">
        <ele>673.2841796875</ele>
        <time>2015-04-25T14:04:33Z</time>
      </trkpt>
      <trkpt lat="45.44169" lon="4.56332">
        <ele>673.80603027344</ele>
        <time>2015-04-25T14:04:37Z</time>
      </trkpt>
      <trkpt lat="45.4417" lon="4.5634">
        <ele>674.57348632812</ele>
        <time>2015-04-25T14:04:39Z</time>
      </trkpt>
      <trkpt lat="45.4417" lon="4.56349">
        <ele>674.87524414062</ele>
        <time>2015-04-25T14:04:41Z</time>
      </trkpt>
      <trkpt lat="45.44172" lon="4.56357">
        <ele>675.67486572266</ele>
        <time>2015-04-25T14:04:43Z</time>
      </trkpt>
      <trkpt lat="45.44173" lon="4.56354">
        <ele>675.98492431641</ele>
        <time>2015-04-25T14:04:46Z</time>
      </trkpt>
      <trkpt lat="45.44174" lon="4.56347">
        <ele>676.00634765625</ele>
        <time>2015-04-25T14:04:48Z</time>
      </trkpt>
      <trkpt lat="45.44175" lon="4.56339">
        <ele>676.02496337891</ele>
        <time>2015-04-25T14:04:50Z</time>
      </trkpt>
      <trkpt lat="45.44176" lon="4.56333">
        <ele>676.53546142578</ele>
        <time>2015-04-25T14:04:52Z</time>
      </trkpt>
      <trkpt lat="45.44178" lon="4.56327">
        <ele>677.01837158203</ele>
        <time>2015-04-25T14:04:54Z</time>
      </trkpt>
      <trkpt lat="45.44179" lon="4.56319">
        <ele>677.66723632812</ele>
        <time>2015-04-25T14:04:56Z</time>
      </trkpt>
      <trkpt lat="45.4418" lon="4.56311">
        <ele>677.90417480469</ele>
        <time>2015-04-25T14:04:58Z</time>
      </trkpt>
      <trkpt lat="45.44181" lon="4.56305">
        <ele>678.66516113281</ele>
        <time>2015-04-25T14:05:00Z</time>
      </trkpt>
      <trkpt lat="45.44183" lon="4.56296">
        <ele>679.17327880859</ele>
        <time>2015-04-25T14:05:02Z</time>
      </trkpt>
      <trkpt lat="45.44186" lon="4.56289">
        <ele>680.35949707031</ele>
        <time>2015-04-25T14:05:04Z</time>
      </trkpt>
      <trkpt lat="45.4419" lon="4.56283">
        <ele>681.94219970703</ele>
        <time>2015-04-25T14:05:06Z</time>
      </trkpt>
      <trkpt lat="45.44191" lon="4.56279">
        <ele>682.54187011719</ele>
        <time>2015-04-25T14:05:08Z</time>
      </trkpt>
      <trkpt lat="45.44193" lon="4.56274">
        <ele>683.28460693359</ele>
        <time>2015-04-25T14:05:10Z</time>
      </trkpt>
      <trkpt lat="45.44196" lon="4.56269">
        <ele>684.17608642578</ele>
        <time>2015-04-25T14:05:12Z</time>
      </trkpt>
      <trkpt lat="45.44197" lon="4.56263">
        <ele>684.79748535156</ele>
        <time>2015-04-25T14:05:14Z</time>
      </trkpt>
      <trkpt lat="45.44198" lon="4.56257">
        <ele>685.27526855469</ele>
        <time>2015-04-25T14:05:16Z</time>
      </trkpt>
      <trkpt lat="45.44199" lon="4.5625">
        <ele>685.63061523438</ele>
        <time>2015-04-25T14:05:18Z</time>
      </trkpt>
      <trkpt lat="45.442" lon="4.56243">
        <ele>686.83795166016</ele>
        <time>2015-04-25T14:05:20Z</time>
      </trkpt>
      <trkpt lat="45.44201" lon="4.56238">
        <ele>687.779296875</ele>
        <time>2015-04-25T14:05:22Z</time>
      </trkpt>
      <trkpt lat="45.44202" lon="4.56231">
        <ele>688.76007080078</ele>
        <time>2015-04-25T14:05:24Z</time>
      </trkpt>
      <trkpt lat="45.44202" lon="4.56226">
        <ele>689.60406494141</ele>
        <time>2015-04-25T14:05:26Z</time>
      </trkpt>
      <trkpt lat="45.44202" lon="4.56221">
        <ele>690.23364257812</ele>
        <time>2015-04-25T14:05:28Z</time>
      </trkpt>
      <trkpt lat="45.44201" lon="4.56214">
        <ele>690.49731445312</ele>
        <time>2015-04-25T14:05:30Z</time>
      </trkpt>
      <trkpt lat="45.442" lon="4.56209">
        <ele>690.80145263672</ele>
        <time>2015-04-25T14:05:32Z</time>
      </trkpt>
      <trkpt lat="45.44199" lon="4.56204">
        <ele>691.06158447266</ele>
        <time>2015-04-25T14:05:34Z</time>
      </trkpt>
      <trkpt lat="45.44196" lon="4.56199">
        <ele>690.85083007812</ele>
        <time>2015-04-25T14:05:36Z</time>
      </trkpt>
      <trkpt lat="45.44195" lon="4.56193">
        <ele>691.10961914062</ele>
        <time>2015-04-25T14:05:38Z</time>
      </trkpt>
      <trkpt lat="45.44194" lon="4.5619">
        <ele>691.31793212891</ele>
        <time>2015-04-25T14:05:40Z</time>
      </trkpt>
      <trkpt lat="45.44193" lon="4.56186">
        <ele>691.53833007812</ele>
        <time>2015-04-25T14:05:42Z</time>
      </trkpt>
      <trkpt lat="45.44191" lon="4.5618">
        <ele>691.75762939453</ele>
        <time>2015-04-25T14:05:44Z</time>
      </trkpt>
      <trkpt lat="45.44189" lon="4.56172">
        <ele>692.09399414062</ele>
        <time>2015-04-25T14:05:46Z</time>
      </trkpt>
      <trkpt lat="45.44187" lon="4.56165">
        <ele>692.8076171875</ele>
        <time>2015-04-25T14:05:48Z</time>
      </trkpt>
      <trkpt lat="45.44186" lon="4.5616">
        <ele>693.29144287109</ele>
        <time>2015-04-25T14:05:50Z</time>
      </trkpt>
      <trkpt lat="45.44185" lon="4.56156">
        <ele>693.76837158203</ele>
        <time>2015-04-25T14:05:52Z</time>
      </trkpt>
      <trkpt lat="45.44183" lon="4.5615">
        <ele>694.32220458984</ele>
        <time>2015-04-25T14:05:54Z</time>
      </trkpt>
      <trkpt lat="45.44181" lon="4.56142">
        <ele>695.38336181641</ele>
        <time>2015-04-25T14:05:56Z</time>
      </trkpt>
      <trkpt lat="45.44179" lon="4.56135">
        <ele>696.14587402344</ele>
        <time>2015-04-25T14:05:58Z</time>
      </trkpt>
      <trkpt lat="45.44177" lon="4.56133">
        <ele>696.19543457031</ele>
        <time>2015-04-25T14:06:00Z</time>
      </trkpt>
      <trkpt lat="45.44174" lon="4.56128">
        <ele>696.34381103516</ele>
        <time>2015-04-25T14:06:02Z</time>
      </trkpt>
      <trkpt lat="45.44171" lon="4.56124">
        <ele>696.35083007812</ele>
        <time>2015-04-25T14:06:04Z</time>
      </trkpt>
      <trkpt lat="45.44168" lon="4.5612">
        <ele>696.26806640625</ele>
        <time>2015-04-25T14:06:06Z</time>
      </trkpt>
      <trkpt lat="45.44165" lon="4.56116">
        <ele>696.20379638672</ele>
        <time>2015-04-25T14:06:08Z</time>
      </trkpt>
      <trkpt lat="45.44162" lon="4.56114">
        <ele>696.07843017578</ele>
        <time>2015-04-25T14:06:10Z</time>
      </trkpt>
      <trkpt lat="45.44159" lon="4.5611">
        <ele>696.05432128906</ele>
        <time>2015-04-25T14:06:12Z</time>
      </trkpt>
      <trkpt lat="45.44155" lon="4.56105">
        <ele>696.12152099609</ele>
        <time>2015-04-25T14:06:14Z</time>
      </trkpt>
      <trkpt lat="45.44152" lon="4.56099">
        <ele>696.63360595703</ele>
        <time>2015-04-25T14:06:16Z</time>
      </trkpt>
      <trkpt lat="45.44148" lon="4.56094">
        <ele>696.78552246094</ele>
        <time>2015-04-25T14:06:18Z</time>
      </trkpt>
      <trkpt lat="45.44145" lon="4.56089">
        <ele>696.9560546875</ele>
        <time>2015-04-25T14:06:20Z</time>
      </trkpt>
      <trkpt lat="45.44141" lon="4.56086">
        <ele>696.71166992188</ele>
        <time>2015-04-25T14:06:22Z</time>
      </trkpt>
      <trkpt lat="45.44138" lon="4.5608">
        <ele>697.16815185547</ele>
        <time>2015-04-25T14:06:24Z</time>
      </trkpt>
      <trkpt lat="45.44136" lon="4.56074">
        <ele>697.94091796875</ele>
        <time>2015-04-25T14:06:26Z</time>
      </trkpt>
      <trkpt lat="45.44134" lon="4.5607">
        <ele>698.36608886719</ele>
        <time>2015-04-25T14:06:28Z</time>
      </trkpt>
      <trkpt lat="45.44133" lon="4.56066">
        <ele>698.79406738281</ele>
        <time>2015-04-25T14:06:30Z</time>
      </trkpt>
      <trkpt lat="45.44135" lon="4.56065">
        <ele>699.50573730469</ele>
        <time>2015-04-25T14:06:32Z</time>
      </trkpt>
      <trkpt lat="45.44138" lon="4.56064">
        <ele>700.33905029297</ele>
        <time>2015-04-25T14:06:35Z</time>
      </trkpt>
      <trkpt lat="45.44136" lon="4.56061">
        <ele>700.45953369141</ele>
        <time>2015-04-25T14:06:37Z</time>
      </trkpt>
      <trkpt lat="45.44135" lon="4.56059">
        <ele>700.57238769531</ele>
        <time>2015-04-25T14:06:39Z</time>
      </trkpt>
      <trkpt lat="45.44133" lon="4.56057">
        <ele>700.78088378906</ele>
        <time>2015-04-25T14:06:41Z</time>
      </trkpt>
      <trkpt lat="45.44131" lon="4.56051">
        <ele>701.41125488281</ele>
        <time>2015-04-25T14:06:44Z</time>
      </trkpt>
      <trkpt lat="45.44129" lon="4.56046">
        <ele>702.06115722656</ele>
        <time>2015-04-25T14:06:46Z</time>
      </trkpt>
      <trkpt lat="45.44126" lon="4.56038">
        <ele>702.85076904297</ele>
        <time>2015-04-25T14:06:48Z</time>
      </trkpt>
      <trkpt lat="45.44123" lon="4.56031">
        <ele>703.88916015625</ele>
        <time>2015-04-25T14:06:50Z</time>
      </trkpt>
      <trkpt lat="45.44123" lon="4.56025">
        <ele>704.95642089844</ele>
        <time>2015-04-25T14:06:52Z</time>
      </trkpt>
      <trkpt lat="45.4412" lon="4.56019">
        <ele>705.56658935547</ele>
        <time>2015-04-25T14:06:54Z</time>
      </trkpt>
      <trkpt lat="45.44116" lon="4.56013">
        <ele>706.08862304688</ele>
        <time>2015-04-25T14:06:56Z</time>
      </trkpt>
      <trkpt lat="45.44111" lon="4.56008">
        <ele>706.0703125</ele>
        <time>2015-04-25T14:06:58Z</time>
      </trkpt>
      <trkpt lat="45.44107" lon="4.56004">
        <ele>706.02117919922</ele>
        <time>2015-04-25T14:07:00Z</time>
      </trkpt>
      <trkpt lat="45.44102" lon="4.56004">
        <ele>705.10375976562</ele>
        <time>2015-04-25T14:07:03Z</time>
      </trkpt>
      <trkpt lat="45.44098" lon="4.56002">
        <ele>704.68731689453</ele>
        <time>2015-04-25T14:07:05Z</time>
      </trkpt>
      <trkpt lat="45.44094" lon="4.55997">
        <ele>705.04644775391</ele>
        <time>2015-04-25T14:07:07Z</time>
      </trkpt>
      <trkpt lat="45.44091" lon="4.55994">
        <ele>705.03936767578</ele>
        <time>2015-04-25T14:07:09Z</time>
      </trkpt>
      <trkpt lat="45.44088" lon="4.55992">
        <ele>704.93273925781</ele>
        <time>2015-04-25T14:07:11Z</time>
      </trkpt>
      <trkpt lat="45.44086" lon="4.55991">
        <ele>704.90301513672</ele>
        <time>2015-04-25T14:07:13Z</time>
      </trkpt>
      <trkpt lat="45.44083" lon="4.55989">
        <ele>704.60174560547</ele>
        <time>2015-04-25T14:07:16Z</time>
      </trkpt>
      <trkpt lat="45.4408" lon="4.55989">
        <ele>704.29901123047</ele>
        <time>2015-04-25T14:07:18Z</time>
      </trkpt>
      <trkpt lat="45.44078" lon="4.55986">
        <ele>704.51202392578</ele>
        <time>2015-04-25T14:07:20Z</time>
      </trkpt>
      <trkpt lat="45.44078" lon="4.55985">
        <ele>704.89855957031</ele>
        <time>2015-04-25T14:07:22Z</time>
      </trkpt>
      <trkpt lat="45.44076" lon="4.55983">
        <ele>705.10052490234</ele>
        <time>2015-04-25T14:07:24Z</time>
      </trkpt>
      <trkpt lat="45.44073" lon="4.55981">
        <ele>705.19696044922</ele>
        <time>2015-04-25T14:07:27Z</time>
      </trkpt>
      <trkpt lat="45.44072" lon="4.55977">
        <ele>705.94152832031</ele>
        <time>2015-04-25T14:07:29Z</time>
      </trkpt>
      <trkpt lat="45.44068" lon="4.55974">
        <ele>706.26898193359</ele>
        <time>2015-04-25T14:07:31Z</time>
      </trkpt>
      <trkpt lat="45.44065" lon="4.55972">
        <ele>706.14459228516</ele>
        <time>2015-04-25T14:07:34Z</time>
      </trkpt>
      <trkpt lat="45.44062" lon="4.55971">
        <ele>706.13909912109</ele>
        <time>2015-04-25T14:07:36Z</time>
      </trkpt>
      <trkpt lat="45.44062" lon="4.55969">
        <ele>706.60943603516</ele>
        <time>2015-04-25T14:07:38Z</time>
      </trkpt>
      <trkpt lat="45.44059" lon="4.55967">
        <ele>706.76409912109</ele>
        <time>2015-04-25T14:07:40Z</time>
      </trkpt>
      <trkpt lat="45.44057" lon="4.55964">
        <ele>707.34185791016</ele>
        <time>2015-04-25T14:07:42Z</time>
      </trkpt>
      <trkpt lat="45.44054" lon="4.5596">
        <ele>707.85406494141</ele>
        <time>2015-04-25T14:07:44Z</time>
      </trkpt>
      <trkpt lat="45.44051" lon="4.55957">
        <ele>708.36248779297</ele>
        <time>2015-04-25T14:07:46Z</time>
      </trkpt>
      <trkpt lat="45.44049" lon="4.55954">
        <ele>708.77911376953</ele>
        <time>2015-04-25T14:07:48Z</time>
      </trkpt>
      <trkpt lat="45.44046" lon="4.55951">
        <ele>709.05072021484</ele>
        <time>2015-04-25T14:07:51Z</time>
      </trkpt>
      <trkpt lat="45.44044" lon="4.55949">
        <ele>709.49041748047</ele>
        <time>2015-04-25T14:07:53Z</time>
      </trkpt>
      <trkpt lat="45.44042" lon="4.55946">
        <ele>709.873046875</ele>
        <time>2015-04-25T14:07:55Z</time>
      </trkpt>
      <trkpt lat="45.44039" lon="4.55944">
        <ele>710.09405517578</ele>
        <time>2015-04-25T14:07:57Z</time>
      </trkpt>
      <trkpt lat="45.44037" lon="4.55942">
        <ele>710.26605224609</ele>
        <time>2015-04-25T14:07:59Z</time>
      </trkpt>
      <trkpt lat="45.44035" lon="4.55942">
        <ele>710.21295166016</ele>
        <time>2015-04-25T14:08:01Z</time>
      </trkpt>
      <trkpt lat="45.44033" lon="4.5594">
        <ele>710.34051513672</ele>
        <time>2015-04-25T14:08:03Z</time>
      </trkpt>
      <trkpt lat="45.44031" lon="4.55937">
        <ele>710.89874267578</ele>
        <time>2015-04-25T14:08:05Z</time>
      </trkpt>
      <trkpt lat="45.44028" lon="4.55934">
        <ele>711.54205322266</ele>
        <time>2015-04-25T14:08:07Z</time>
      </trkpt>
      <trkpt lat="45.44023" lon="4.55931">
        <ele>711.73736572266</ele>
        <time>2015-04-25T14:08:09Z</time>
      </trkpt>
      <trkpt lat="45.44019" lon="4.55927">
        <ele>712.37414550781</ele>
        <time>2015-04-25T14:08:11Z</time>
      </trkpt>
      <trkpt lat="45.44017" lon="4.55925">
        <ele>712.63806152344</ele>
        <time>2015-04-25T14:08:13Z</time>
      </trkpt>
      <trkpt lat="45.44013" lon="4.55923">
        <ele>712.58679199219</ele>
        <time>2015-04-25T14:08:15Z</time>
      </trkpt>
      <trkpt lat="45.44008" lon="4.55922">
        <ele>712.57287597656</ele>
        <time>2015-04-25T14:08:17Z</time>
      </trkpt>
      <trkpt lat="45.44003" lon="4.55919">
        <ele>712.6376953125</ele>
        <time>2015-04-25T14:08:19Z</time>
      </trkpt>
      <trkpt lat="45.43997" lon="4.55915">
        <ele>712.75329589844</ele>
        <time>2015-04-25T14:08:21Z</time>
      </trkpt>
      <trkpt lat="45.43991" lon="4.55913">
        <ele>712.09680175781</ele>
        <time>2015-04-25T14:08:23Z</time>
      </trkpt>
      <trkpt lat="45.43986" lon="4.55909">
        <ele>712.41717529297</ele>
        <time>2015-04-25T14:08:25Z</time>
      </trkpt>
      <trkpt lat="45.43982" lon="4.55903">
        <ele>713.16491699219</ele>
        <time>2015-04-25T14:08:27Z</time>
      </trkpt>
      <trkpt lat="45.43979" lon="4.55901">
        <ele>713.12371826172</ele>
        <time>2015-04-25T14:08:30Z</time>
      </trkpt>
      <trkpt lat="45.43977" lon="4.55899">
        <ele>713.09875488281</ele>
        <time>2015-04-25T14:08:32Z</time>
      </trkpt>
      <trkpt lat="45.43974" lon="4.55899">
        <ele>712.67468261719</ele>
        <time>2015-04-25T14:08:34Z</time>
      </trkpt>
      <trkpt lat="45.43972" lon="4.55899">
        <ele>712.29779052734</ele>
        <time>2015-04-25T14:08:36Z</time>
      </trkpt>
      <trkpt lat="45.4397" lon="4.55897">
        <ele>712.50939941406</ele>
        <time>2015-04-25T14:08:38Z</time>
      </trkpt>
      <trkpt lat="45.43968" lon="4.55896">
        <ele>712.54516601562</ele>
        <time>2015-04-25T14:08:40Z</time>
      </trkpt>
      <trkpt lat="45.43967" lon="4.55894">
        <ele>712.77966308594</ele>
        <time>2015-04-25T14:08:42Z</time>
      </trkpt>
      <trkpt lat="45.43964" lon="4.55891">
        <ele>712.93188476562</ele>
        <time>2015-04-25T14:08:44Z</time>
      </trkpt>
      <trkpt lat="45.43962" lon="4.55888">
        <ele>713.37982177734</ele>
        <time>2015-04-25T14:08:46Z</time>
      </trkpt>
      <trkpt lat="45.4396" lon="4.55888">
        <ele>712.98657226562</ele>
        <time>2015-04-25T14:08:48Z</time>
      </trkpt>
      <trkpt lat="45.43958" lon="4.55887">
        <ele>713.02618408203</ele>
        <time>2015-04-25T14:08:50Z</time>
      </trkpt>
      <trkpt lat="45.43956" lon="4.55884">
        <ele>713.34283447266</ele>
        <time>2015-04-25T14:08:52Z</time>
      </trkpt>
      <trkpt lat="45.43954" lon="4.55882">
        <ele>713.59216308594</ele>
        <time>2015-04-25T14:08:54Z</time>
      </trkpt>
      <trkpt lat="45.43953" lon="4.55878">
        <ele>714.19171142578</ele>
        <time>2015-04-25T14:08:56Z</time>
      </trkpt>
      <trkpt lat="45.4395" lon="4.55875">
        <ele>714.5048828125</ele>
        <time>2015-04-25T14:08:59Z</time>
      </trkpt>
      <trkpt lat="45.43948" lon="4.55871">
        <ele>715.15692138672</ele>
        <time>2015-04-25T14:09:01Z</time>
      </trkpt>
      <trkpt lat="45.43945" lon="4.55866">
        <ele>716.18664550781</ele>
        <time>2015-04-25T14:09:03Z</time>
      </trkpt>
      <trkpt lat="45.43942" lon="4.55862">
        <ele>716.57391357422</ele>
        <time>2015-04-25T14:09:05Z</time>
      </trkpt>
      <trkpt lat="45.43937" lon="4.55858">
        <ele>716.97869873047</ele>
        <time>2015-04-25T14:09:07Z</time>
      </trkpt>
      <trkpt lat="45.43933" lon="4.55853">
        <ele>717.45715332031</ele>
        <time>2015-04-25T14:09:09Z</time>
      </trkpt>
      <trkpt lat="45.4393" lon="4.5585">
        <ele>717.74578857422</ele>
        <time>2015-04-25T14:09:11Z</time>
      </trkpt>
      <trkpt lat="45.43927" lon="4.55846">
        <ele>718.30120849609</ele>
        <time>2015-04-25T14:09:13Z</time>
      </trkpt>
      <trkpt lat="45.43922" lon="4.55843">
        <ele>718.44470214844</ele>
        <time>2015-04-25T14:09:15Z</time>
      </trkpt>
      <trkpt lat="45.43918" lon="4.55837">
        <ele>719.2646484375</ele>
        <time>2015-04-25T14:09:17Z</time>
      </trkpt>
      <trkpt lat="45.43914" lon="4.55833">
        <ele>719.94744873047</ele>
        <time>2015-04-25T14:09:19Z</time>
      </trkpt>
      <trkpt lat="45.4391" lon="4.55832">
        <ele>719.65539550781</ele>
        <time>2015-04-25T14:09:21Z</time>
      </trkpt>
      <trkpt lat="45.43906" lon="4.55829">
        <ele>720.22821044922</ele>
        <time>2015-04-25T14:09:23Z</time>
      </trkpt>
      <trkpt lat="45.43902" lon="4.55824">
        <ele>721.19287109375</ele>
        <time>2015-04-25T14:09:25Z</time>
      </trkpt>
      <trkpt lat="45.43899" lon="4.5582">
        <ele>722.12799072266</ele>
        <time>2015-04-25T14:09:27Z</time>
      </trkpt>
      <trkpt lat="45.43895" lon="4.55817">
        <ele>722.60314941406</ele>
        <time>2015-04-25T14:09:29Z</time>
      </trkpt>
      <trkpt lat="45.4389" lon="4.55814">
        <ele>722.97955322266</ele>
        <time>2015-04-25T14:09:31Z</time>
      </trkpt>
      <trkpt lat="45.43887" lon="4.5581">
        <ele>723.90905761719</ele>
        <time>2015-04-25T14:09:33Z</time>
      </trkpt>
      <trkpt lat="45.43884" lon="4.55804">
        <ele>725.18243408203</ele>
        <time>2015-04-25T14:09:35Z</time>
      </trkpt>
      <trkpt lat="45.4388" lon="4.55798">
        <ele>726.61608886719</ele>
        <time>2015-04-25T14:09:38Z</time>
      </trkpt>
      <trkpt lat="45.43876" lon="4.55793">
        <ele>727.51708984375</ele>
        <time>2015-04-25T14:09:40Z</time>
      </trkpt>
      <trkpt lat="45.43873" lon="4.55788">
        <ele>728.60241699219</ele>
        <time>2015-04-25T14:09:42Z</time>
      </trkpt>
      <trkpt lat="45.43868" lon="4.55782">
        <ele>729.71862792969</ele>
        <time>2015-04-25T14:09:44Z</time>
      </trkpt>
      <trkpt lat="45.43864" lon="4.55777">
        <ele>730.75860595703</ele>
        <time>2015-04-25T14:09:46Z</time>
      </trkpt>
      <trkpt lat="45.43858" lon="4.55774">
        <ele>730.77966308594</ele>
        <time>2015-04-25T14:09:48Z</time>
      </trkpt>
      <trkpt lat="45.43852" lon="4.55773">
        <ele>730.07495117188</ele>
        <time>2015-04-25T14:09:50Z</time>
      </trkpt>
      <trkpt lat="45.43846" lon="4.55768">
        <ele>730.71789550781</ele>
        <time>2015-04-25T14:09:52Z</time>
      </trkpt>
      <trkpt lat="45.4384" lon="4.55763">
        <ele>731.28332519531</ele>
        <time>2015-04-25T14:09:54Z</time>
      </trkpt>
      <trkpt lat="45.43833" lon="4.55758">
        <ele>731.75714111328</ele>
        <time>2015-04-25T14:09:56Z</time>
      </trkpt>
      <trkpt lat="45.43827" lon="4.55756">
        <ele>732.96105957031</ele>
        <time>2015-04-25T14:09:58Z</time>
      </trkpt>
      <trkpt lat="45.43821" lon="4.55756">
        <ele>733.71417236328</ele>
        <time>2015-04-25T14:10:00Z</time>
      </trkpt>
      <trkpt lat="45.43815" lon="4.55757">
        <ele>734.02294921875</ele>
        <time>2015-04-25T14:10:02Z</time>
      </trkpt>
      <trkpt lat="45.4381" lon="4.55757">
        <ele>734.42633056641</ele>
        <time>2015-04-25T14:10:04Z</time>
      </trkpt>
      <trkpt lat="45.43803" lon="4.5576">
        <ele>734.32800292969</ele>
        <time>2015-04-25T14:10:06Z</time>
      </trkpt>
      <trkpt lat="45.43798" lon="4.55762">
        <ele>734.37725830078</ele>
        <time>2015-04-25T14:10:08Z</time>
      </trkpt>
      <trkpt lat="45.43792" lon="4.55766">
        <ele>734.11193847656</ele>
        <time>2015-04-25T14:10:10Z</time>
      </trkpt>
      <trkpt lat="45.43787" lon="4.5577">
        <ele>733.71411132812</ele>
        <time>2015-04-25T14:10:12Z</time>
      </trkpt>
      <trkpt lat="45.43782" lon="4.55774">
        <ele>733.26086425781</ele>
        <time>2015-04-25T14:10:14Z</time>
      </trkpt>
      <trkpt lat="45.43778" lon="4.55779">
        <ele>732.40710449219</ele>
        <time>2015-04-25T14:10:16Z</time>
      </trkpt>
      <trkpt lat="45.43773" lon="4.55785">
        <ele>731.7333984375</ele>
        <time>2015-04-25T14:10:18Z</time>
      </trkpt>
      <trkpt lat="45.43769" lon="4.5579">
        <ele>730.93688964844</ele>
        <time>2015-04-25T14:10:20Z</time>
      </trkpt>
      <trkpt lat="45.43765" lon="4.55795">
        <ele>730.26116943359</ele>
        <time>2015-04-25T14:10:22Z</time>
      </trkpt>
      <trkpt lat="45.4376" lon="4.55801">
        <ele>729.55084228516</ele>
        <time>2015-04-25T14:10:24Z</time>
      </trkpt>
      <trkpt lat="45.43756" lon="4.55807">
        <ele>728.80548095703</ele>
        <time>2015-04-25T14:10:26Z</time>
      </trkpt>
      <trkpt lat="45.43753" lon="4.55813">
        <ele>727.96722412109</ele>
        <time>2015-04-25T14:10:28Z</time>
      </trkpt>
      <trkpt lat="45.4375" lon="4.5582">
        <ele>726.78546142578</ele>
        <time>2015-04-25T14:10:30Z</time>
      </trkpt>
      <trkpt lat="45.43746" lon="4.55827">
        <ele>727.00122070312</ele>
        <time>2015-04-25T14:10:32Z</time>
      </trkpt>
      <trkpt lat="45.43744" lon="4.55833">
        <ele>726.34362792969</ele>
        <time>2015-04-25T14:10:34Z</time>
      </trkpt>
      <trkpt lat="45.43743" lon="4.55839">
        <ele>726.22869873047</ele>
        <time>2015-04-25T14:10:36Z</time>
      </trkpt>
      <trkpt lat="45.43742" lon="4.55846">
        <ele>725.91143798828</ele>
        <time>2015-04-25T14:10:38Z</time>
      </trkpt>
      <trkpt lat="45.4374" lon="4.55853">
        <ele>725.69085693359</ele>
        <time>2015-04-25T14:10:40Z</time>
      </trkpt>
      <trkpt lat="45.43738" lon="4.55861">
        <ele>725.56365966797</ele>
        <time>2015-04-25T14:10:42Z</time>
      </trkpt>
      <trkpt lat="45.43735" lon="4.5587">
        <ele>725.53552246094</ele>
        <time>2015-04-25T14:10:44Z</time>
      </trkpt>
      <trkpt lat="45.4373" lon="4.55879">
        <ele>726.28985595703</ele>
        <time>2015-04-25T14:10:46Z</time>
      </trkpt>
      <trkpt lat="45.43726" lon="4.55889">
        <ele>726.77801513672</ele>
        <time>2015-04-25T14:10:48Z</time>
      </trkpt>
      <trkpt lat="45.43723" lon="4.55897">
        <ele>726.80200195312</ele>
        <time>2015-04-25T14:10:50Z</time>
      </trkpt>
      <trkpt lat="45.43722" lon="4.55907">
        <ele>725.89282226562</ele>
        <time>2015-04-25T14:10:52Z</time>
      </trkpt>
      <trkpt lat="45.4372" lon="4.55918">
        <ele>725.22229003906</ele>
        <time>2015-04-25T14:10:54Z</time>
      </trkpt>
      <trkpt lat="45.43721" lon="4.55927">
        <ele>723.45373535156</ele>
        <time>2015-04-25T14:10:56Z</time>
      </trkpt>
      <trkpt lat="45.43721" lon="4.55934">
        <ele>722.39343261719</ele>
        <time>2015-04-25T14:10:58Z</time>
      </trkpt>
      <trkpt lat="45.43719" lon="4.55942">
        <ele>721.72125244141</ele>
        <time>2015-04-25T14:11:00Z</time>
      </trkpt>
      <trkpt lat="45.43717" lon="4.5595">
        <ele>721.66998291016</ele>
        <time>2015-04-25T14:11:02Z</time>
      </trkpt>
      <trkpt lat="45.43715" lon="4.55958">
        <ele>721.38763427734</ele>
        <time>2015-04-25T14:11:04Z</time>
      </trkpt>
      <trkpt lat="45.43714" lon="4.55967">
        <ele>720.21936035156</ele>
        <time>2015-04-25T14:11:06Z</time>
      </trkpt>
      <trkpt lat="45.43713" lon="4.55977">
        <ele>719.14874267578</ele>
        <time>2015-04-25T14:11:08Z</time>
      </trkpt>
      <trkpt lat="45.43713" lon="4.55985">
        <ele>718.02642822266</ele>
        <time>2015-04-25T14:11:10Z</time>
      </trkpt>
      <trkpt lat="45.43711" lon="4.55992">
        <ele>717.62628173828</ele>
        <time>2015-04-25T14:11:12Z</time>
      </trkpt>
      <trkpt lat="45.43707" lon="4.55998">
        <ele>718.20190429688</ele>
        <time>2015-04-25T14:11:14Z</time>
      </trkpt>
      <trkpt lat="45.43704" lon="4.56003">
        <ele>718.87390136719</ele>
        <time>2015-04-25T14:11:16Z</time>
      </trkpt>
      <trkpt lat="45.43702" lon="4.56011">
        <ele>718.65991210938</ele>
        <time>2015-04-25T14:11:18Z</time>
      </trkpt>
      <trkpt lat="45.43697" lon="4.56019">
        <ele>719.34027099609</ele>
        <time>2015-04-25T14:11:20Z</time>
      </trkpt>
      <trkpt lat="45.43694" lon="4.56026">
        <ele>719.54339599609</ele>
        <time>2015-04-25T14:11:22Z</time>
      </trkpt>
      <trkpt lat="45.43689" lon="4.56033">
        <ele>720.67810058594</ele>
        <time>2015-04-25T14:11:24Z</time>
      </trkpt>
      <trkpt lat="45.43687" lon="4.56038">
        <ele>720.34790039062</ele>
        <time>2015-04-25T14:11:26Z</time>
      </trkpt>
      <trkpt lat="45.43682" lon="4.56044">
        <ele>721.85852050781</ele>
        <time>2015-04-25T14:11:28Z</time>
      </trkpt>
      <trkpt lat="45.43677" lon="4.5605">
        <ele>722.72485351562</ele>
        <time>2015-04-25T14:11:30Z</time>
      </trkpt>
      <trkpt lat="45.43674" lon="4.56056">
        <ele>723.03558349609</ele>
        <time>2015-04-25T14:11:32Z</time>
      </trkpt>
      <trkpt lat="45.43671" lon="4.56061">
        <ele>723.45440673828</ele>
        <time>2015-04-25T14:11:34Z</time>
      </trkpt>
      <trkpt lat="45.4367" lon="4.56069">
        <ele>723.04296875</ele>
        <time>2015-04-25T14:11:36Z</time>
      </trkpt>
      <trkpt lat="45.43667" lon="4.56076">
        <ele>723.04125976562</ele>
        <time>2015-04-25T14:11:38Z</time>
      </trkpt>
      <trkpt lat="45.43663" lon="4.56081">
        <ele>723.02313232422</ele>
        <time>2015-04-25T14:11:40Z</time>
      </trkpt>
      <trkpt lat="45.4366" lon="4.56086">
        <ele>723.26196289062</ele>
        <time>2015-04-25T14:11:42Z</time>
      </trkpt>
      <trkpt lat="45.43657" lon="4.56091">
        <ele>723.79547119141</ele>
        <time>2015-04-25T14:11:44Z</time>
      </trkpt>
      <trkpt lat="45.43656" lon="4.56099">
        <ele>723.75823974609</ele>
        <time>2015-04-25T14:11:46Z</time>
      </trkpt>
      <trkpt lat="45.43653" lon="4.56102">
        <ele>724.2724609375</ele>
        <time>2015-04-25T14:11:48Z</time>
      </trkpt>
      <trkpt lat="45.4365" lon="4.56106">
        <ele>724.57623291016</ele>
        <time>2015-04-25T14:11:50Z</time>
      </trkpt>
      <trkpt lat="45.43648" lon="4.5611">
        <ele>724.89788818359</ele>
        <time>2015-04-25T14:11:52Z</time>
      </trkpt>
      <trkpt lat="45.43646" lon="4.56117">
        <ele>725.08032226562</ele>
        <time>2015-04-25T14:11:54Z</time>
      </trkpt>
      <trkpt lat="45.43643" lon="4.56123">
        <ele>725.38446044922</ele>
        <time>2015-04-25T14:11:56Z</time>
      </trkpt>
      <trkpt lat="45.43641" lon="4.56129">
        <ele>725.58374023438</ele>
        <time>2015-04-25T14:11:58Z</time>
      </trkpt>
      <trkpt lat="45.43637" lon="4.56135">
        <ele>725.99853515625</ele>
        <time>2015-04-25T14:12:00Z</time>
      </trkpt>
      <trkpt lat="45.43634" lon="4.56141">
        <ele>726.41809082031</ele>
        <time>2015-04-25T14:12:02Z</time>
      </trkpt>
      <trkpt lat="45.4363" lon="4.5615">
        <ele>726.86108398438</ele>
        <time>2015-04-25T14:12:04Z</time>
      </trkpt>
      <trkpt lat="45.43627" lon="4.56155">
        <ele>727.12701416016</ele>
        <time>2015-04-25T14:12:06Z</time>
      </trkpt>
      <trkpt lat="45.43625" lon="4.5616">
        <ele>727.34265136719</ele>
        <time>2015-04-25T14:12:08Z</time>
      </trkpt>
      <trkpt lat="45.43621" lon="4.56166">
        <ele>727.77313232422</ele>
        <time>2015-04-25T14:12:10Z</time>
      </trkpt>
      <trkpt lat="45.43619" lon="4.56173">
        <ele>728.26550292969</ele>
        <time>2015-04-25T14:12:12Z</time>
      </trkpt>
      <trkpt lat="45.43617" lon="4.56179">
        <ele>728.70953369141</ele>
        <time>2015-04-25T14:12:14Z</time>
      </trkpt>
      <trkpt lat="45.43615" lon="4.56185">
        <ele>729.22448730469</ele>
        <time>2015-04-25T14:12:16Z</time>
      </trkpt>
      <trkpt lat="45.43613" lon="4.56192">
        <ele>729.67370605469</ele>
        <time>2015-04-25T14:12:18Z</time>
      </trkpt>
      <trkpt lat="45.4361" lon="4.56199">
        <ele>730.33856201172</ele>
        <time>2015-04-25T14:12:20Z</time>
      </trkpt>
      <trkpt lat="45.43607" lon="4.56205">
        <ele>730.92565917969</ele>
        <time>2015-04-25T14:12:22Z</time>
      </trkpt>
      <trkpt lat="45.43604" lon="4.56211">
        <ele>731.66040039062</ele>
        <time>2015-04-25T14:12:24Z</time>
      </trkpt>
      <trkpt lat="45.43602" lon="4.56216">
        <ele>732.08093261719</ele>
        <time>2015-04-25T14:12:26Z</time>
      </trkpt>
      <trkpt lat="45.43599" lon="4.56221">
        <ele>732.58618164062</ele>
        <time>2015-04-25T14:12:28Z</time>
      </trkpt>
      <trkpt lat="45.43597" lon="4.56227">
        <ele>733.02105712891</ele>
        <time>2015-04-25T14:12:30Z</time>
      </trkpt>
      <trkpt lat="45.43594" lon="4.56232">
        <ele>733.67053222656</ele>
        <time>2015-04-25T14:12:32Z</time>
      </trkpt>
      <trkpt lat="45.43592" lon="4.56237">
        <ele>734.23583984375</ele>
        <time>2015-04-25T14:12:34Z</time>
      </trkpt>
      <trkpt lat="45.43588" lon="4.56239">
        <ele>734.92535400391</ele>
        <time>2015-04-25T14:12:36Z</time>
      </trkpt>
      <trkpt lat="45.43584" lon="4.56241">
        <ele>735.75622558594</ele>
        <time>2015-04-25T14:12:38Z</time>
      </trkpt>
      <trkpt lat="45.43579" lon="4.56241">
        <ele>735.71929931641</ele>
        <time>2015-04-25T14:12:40Z</time>
      </trkpt>
      <trkpt lat="45.43573" lon="4.56242">
        <ele>735.46362304688</ele>
        <time>2015-04-25T14:12:42Z</time>
      </trkpt>
      <trkpt lat="45.43565" lon="4.56243">
        <ele>735.16168212891</ele>
        <time>2015-04-25T14:12:44Z</time>
      </trkpt>
      <trkpt lat="45.43559" lon="4.56243">
        <ele>734.89471435547</ele>
        <time>2015-04-25T14:12:46Z</time>
      </trkpt>
      <trkpt lat="45.43555" lon="4.56243">
        <ele>734.71435546875</ele>
        <time>2015-04-25T14:12:48Z</time>
      </trkpt>
      <trkpt lat="45.43549" lon="4.56243">
        <ele>734.49865722656</ele>
        <time>2015-04-25T14:12:50Z</time>
      </trkpt>
      <trkpt lat="45.43543" lon="4.56242">
        <ele>734.24133300781</ele>
        <time>2015-04-25T14:12:52Z</time>
      </trkpt>
      <trkpt lat="45.43538" lon="4.56241">
        <ele>734.04431152344</ele>
        <time>2015-04-25T14:12:54Z</time>
      </trkpt>
      <trkpt lat="45.43531" lon="4.56242">
        <ele>733.76507568359</ele>
        <time>2015-04-25T14:12:56Z</time>
      </trkpt>
      <trkpt lat="45.43526" lon="4.56235">
        <ele>733.80560302734</ele>
        <time>2015-04-25T14:12:58Z</time>
      </trkpt>
      <trkpt lat="45.43522" lon="4.56228">
        <ele>733.95690917969</ele>
        <time>2015-04-25T14:13:00Z</time>
      </trkpt>
      <trkpt lat="45.43518" lon="4.56222">
        <ele>734.10125732422</ele>
        <time>2015-04-25T14:13:02Z</time>
      </trkpt>
      <trkpt lat="45.43513" lon="4.56217">
        <ele>734.21209716797</ele>
        <time>2015-04-25T14:13:04Z</time>
      </trkpt>
      <trkpt lat="45.43509" lon="4.5621">
        <ele>734.54010009766</ele>
        <time>2015-04-25T14:13:06Z</time>
      </trkpt>
      <trkpt lat="45.43507" lon="4.56203">
        <ele>734.89837646484</ele>
        <time>2015-04-25T14:13:08Z</time>
      </trkpt>
      <trkpt lat="45.43505" lon="4.56196">
        <ele>735.23504638672</ele>
        <time>2015-04-25T14:13:10Z</time>
      </trkpt>
      <trkpt lat="45.43504" lon="4.56188">
        <ele>735.68322753906</ele>
        <time>2015-04-25T14:13:12Z</time>
      </trkpt>
      <trkpt lat="45.43502" lon="4.5618">
        <ele>736.18072509766</ele>
        <time>2015-04-25T14:13:14Z</time>
      </trkpt>
      <trkpt lat="45.43503" lon="4.56172">
        <ele>736.65362548828</ele>
        <time>2015-04-25T14:13:16Z</time>
      </trkpt>
      <trkpt lat="45.43502" lon="4.56166">
        <ele>736.99346923828</ele>
        <time>2015-04-25T14:13:18Z</time>
      </trkpt>
      <trkpt lat="45.43501" lon="4.56161">
        <ele>737.48980712891</ele>
        <time>2015-04-25T14:13:20Z</time>
      </trkpt>
      <trkpt lat="45.43502" lon="4.56157">
        <ele>737.90228271484</ele>
        <time>2015-04-25T14:13:22Z</time>
      </trkpt>
      <trkpt lat="45.43502" lon="4.56152">
        <ele>738.32690429688</ele>
        <time>2015-04-25T14:13:25Z</time>
      </trkpt>
      <trkpt lat="45.43502" lon="4.56149">
        <ele>738.64587402344</ele>
        <time>2015-04-25T14:13:27Z</time>
      </trkpt>
      <trkpt lat="45.43503" lon="4.56145">
        <ele>739.01867675781</ele>
        <time>2015-04-25T14:13:29Z</time>
      </trkpt>
      <trkpt lat="45.43503" lon="4.5614">
        <ele>739.42022705078</ele>
        <time>2015-04-25T14:13:33Z</time>
      </trkpt>
      <trkpt lat="45.43504" lon="4.56139">
        <ele>739.54638671875</ele>
        <time>2015-04-25T14:13:35Z</time>
      </trkpt>
      <trkpt lat="45.43504" lon="4.56136">
        <ele>739.82855224609</ele>
        <time>2015-04-25T14:13:37Z</time>
      </trkpt>
      <trkpt lat="45.43504" lon="4.56132">
        <ele>740.14410400391</ele>
        <time>2015-04-25T14:13:40Z</time>
      </trkpt>
      <trkpt lat="45.43503" lon="4.56128">
        <ele>740.58435058594</ele>
        <time>2015-04-25T14:13:42Z</time>
      </trkpt>
      <trkpt lat="45.43503" lon="4.56125">
        <ele>740.81896972656</ele>
        <time>2015-04-25T14:13:45Z</time>
      </trkpt>
      <trkpt lat="45.43502" lon="4.56121">
        <ele>741.31579589844</ele>
        <time>2015-04-25T14:13:48Z</time>
      </trkpt>
      <trkpt lat="45.43501" lon="4.56115">
        <ele>741.92724609375</ele>
        <time>2015-04-25T14:13:52Z</time>
      </trkpt>
      <trkpt lat="45.435" lon="4.5611">
        <ele>742.40582275391</ele>
        <time>2015-04-25T14:13:54Z</time>
      </trkpt>
      <trkpt lat="45.435" lon="4.56107">
        <ele>742.74896240234</ele>
        <time>2015-04-25T14:13:56Z</time>
      </trkpt>
      <trkpt lat="45.435" lon="4.56105">
        <ele>742.89532470703</ele>
        <time>2015-04-25T14:13:58Z</time>
      </trkpt>
      <trkpt lat="45.43499" lon="4.56102">
        <ele>743.0654296875</ele>
        <time>2015-04-25T14:14:00Z</time>
      </trkpt>
      <trkpt lat="45.43499" lon="4.56098">
        <ele>743.21319580078</ele>
        <time>2015-04-25T14:14:02Z</time>
      </trkpt>
      <trkpt lat="45.43497" lon="4.56093">
        <ele>743.3466796875</ele>
        <time>2015-04-25T14:14:05Z</time>
      </trkpt>
      <trkpt lat="45.43496" lon="4.56088">
        <ele>743.49224853516</ele>
        <time>2015-04-25T14:14:08Z</time>
      </trkpt>
      <trkpt lat="45.43496" lon="4.56084">
        <ele>743.87463378906</ele>
        <time>2015-04-25T14:14:10Z</time>
      </trkpt>
      <trkpt lat="45.43496" lon="4.56081">
        <ele>744.24334716797</ele>
        <time>2015-04-25T14:14:12Z</time>
      </trkpt>
      <trkpt lat="45.43497" lon="4.56077">
        <ele>744.87896728516</ele>
        <time>2015-04-25T14:14:14Z</time>
      </trkpt>
      <trkpt lat="45.43496" lon="4.56073">
        <ele>745.27087402344</ele>
        <time>2015-04-25T14:14:16Z</time>
      </trkpt>
      <trkpt lat="45.43497" lon="4.56069">
        <ele>745.96313476562</ele>
        <time>2015-04-25T14:14:18Z</time>
      </trkpt>
      <trkpt lat="45.43497" lon="4.56065">
        <ele>746.34387207031</ele>
        <time>2015-04-25T14:14:20Z</time>
      </trkpt>
      <trkpt lat="45.43496" lon="4.5606">
        <ele>746.60668945312</ele>
        <time>2015-04-25T14:14:22Z</time>
      </trkpt>
      <trkpt lat="45.43495" lon="4.56056">
        <ele>746.984375</ele>
        <time>2015-04-25T14:14:25Z</time>
      </trkpt>
      <trkpt lat="45.43494" lon="4.56052">
        <ele>747.19409179688</ele>
        <time>2015-04-25T14:14:28Z</time>
      </trkpt>
      <trkpt lat="45.43494" lon="4.56049">
        <ele>747.42919921875</ele>
        <time>2015-04-25T14:14:30Z</time>
      </trkpt>
      <trkpt lat="45.43493" lon="4.56044">
        <ele>747.86053466797</ele>
        <time>2015-04-25T14:14:32Z</time>
      </trkpt>
      <trkpt lat="45.43494" lon="4.56039">
        <ele>748.81518554688</ele>
        <time>2015-04-25T14:14:34Z</time>
      </trkpt>
      <trkpt lat="45.43492" lon="4.56034">
        <ele>748.73645019531</ele>
        <time>2015-04-25T14:14:37Z</time>
      </trkpt>
      <trkpt lat="45.43491" lon="4.56028">
        <ele>749.16821289062</ele>
        <time>2015-04-25T14:14:40Z</time>
      </trkpt>
      <trkpt lat="45.43489" lon="4.56024">
        <ele>749.42785644531</ele>
        <time>2015-04-25T14:14:42Z</time>
      </trkpt>
      <trkpt lat="45.43488" lon="4.56018">
        <ele>749.60009765625</ele>
        <time>2015-04-25T14:14:45Z</time>
      </trkpt>
      <trkpt lat="45.43487" lon="4.56014">
        <ele>750.00921630859</ele>
        <time>2015-04-25T14:14:47Z</time>
      </trkpt>
      <trkpt lat="45.43486" lon="4.56008">
        <ele>750.48492431641</ele>
        <time>2015-04-25T14:14:50Z</time>
      </trkpt>
      <trkpt lat="45.43482" lon="4.56004">
        <ele>750.01599121094</ele>
        <time>2015-04-25T14:14:52Z</time>
      </trkpt>
      <trkpt lat="45.43482" lon="4.56001">
        <ele>750.33148193359</ele>
        <time>2015-04-25T14:14:54Z</time>
      </trkpt>
      <trkpt lat="45.43481" lon="4.55996">
        <ele>750.97827148438</ele>
        <time>2015-04-25T14:14:56Z</time>
      </trkpt>
      <trkpt lat="45.4348" lon="4.55992">
        <ele>751.56829833984</ele>
        <time>2015-04-25T14:14:58Z</time>
      </trkpt>
      <trkpt lat="45.4348" lon="4.55986">
        <ele>752.7451171875</ele>
        <time>2015-04-25T14:15:01Z</time>
      </trkpt>
      <trkpt lat="45.4348" lon="4.55983">
        <ele>753.44720458984</ele>
        <time>2015-04-25T14:15:03Z</time>
      </trkpt>
      <trkpt lat="45.43479" lon="4.55978">
        <ele>754.10125732422</ele>
        <time>2015-04-25T14:15:06Z</time>
      </trkpt>
      <trkpt lat="45.43476" lon="4.5597">
        <ele>754.85375976562</ele>
        <time>2015-04-25T14:15:10Z</time>
      </trkpt>
      <trkpt lat="45.43475" lon="4.55968">
        <ele>755.01849365234</ele>
        <time>2015-04-25T14:15:12Z</time>
      </trkpt>
      <trkpt lat="45.43473" lon="4.55965">
        <ele>755.28656005859</ele>
        <time>2015-04-25T14:15:14Z</time>
      </trkpt>
      <trkpt lat="45.43472" lon="4.55963">
        <ele>755.33819580078</ele>
        <time>2015-04-25T14:15:16Z</time>
      </trkpt>
      <trkpt lat="45.43469" lon="4.55959">
        <ele>755.56890869141</ele>
        <time>2015-04-25T14:15:19Z</time>
      </trkpt>
      <trkpt lat="45.43467" lon="4.55956">
        <ele>755.86938476562</ele>
        <time>2015-04-25T14:15:21Z</time>
      </trkpt>
      <trkpt lat="45.4346" lon="4.55946">
        <ele>756.55725097656</ele>
        <time>2015-04-25T14:15:24Z</time>
      </trkpt>
      <trkpt lat="45.43457" lon="4.55939">
        <ele>757.23529052734</ele>
        <time>2015-04-25T14:15:26Z</time>
      </trkpt>
      <trkpt lat="45.43454" lon="4.55935">
        <ele>757.58227539062</ele>
        <time>2015-04-25T14:15:28Z</time>
      </trkpt>
      <trkpt lat="45.43449" lon="4.55929">
        <ele>757.94641113281</ele>
        <time>2015-04-25T14:15:31Z</time>
      </trkpt>
      <trkpt lat="45.43446" lon="4.55926">
        <ele>758.20434570312</ele>
        <time>2015-04-25T14:15:33Z</time>
      </trkpt>
      <trkpt lat="45.43443" lon="4.55921">
        <ele>758.66528320312</ele>
        <time>2015-04-25T14:15:35Z</time>
      </trkpt>
      <trkpt lat="45.43438" lon="4.55916">
        <ele>759.08636474609</ele>
        <time>2015-04-25T14:15:38Z</time>
      </trkpt>
      <trkpt lat="45.43433" lon="4.55909">
        <ele>760.07513427734</ele>
        <time>2015-04-25T14:15:41Z</time>
      </trkpt>
      <trkpt lat="45.43429" lon="4.55907">
        <ele>760.0888671875</ele>
        <time>2015-04-25T14:15:43Z</time>
      </trkpt>
      <trkpt lat="45.43421" lon="4.55901">
        <ele>760.23992919922</ele>
        <time>2015-04-25T14:15:46Z</time>
      </trkpt>
      <trkpt lat="45.43413" lon="4.55896">
        <ele>760.23870849609</ele>
        <time>2015-04-25T14:15:49Z</time>
      </trkpt>
      <trkpt lat="45.43406" lon="4.55892">
        <ele>759.93408203125</ele>
        <time>2015-04-25T14:15:52Z</time>
      </trkpt>
      <trkpt lat="45.43402" lon="4.5589">
        <ele>759.83245849609</ele>
        <time>2015-04-25T14:15:54Z</time>
      </trkpt>
      <trkpt lat="45.43394" lon="4.55886">
        <ele>759.50512695312</ele>
        <time>2015-04-25T14:15:57Z</time>
      </trkpt>
      <trkpt lat="45.43391" lon="4.55881">
        <ele>760.37377929688</ele>
        <time>2015-04-25T14:15:59Z</time>
      </trkpt>
      <trkpt lat="45.43386" lon="4.55872">
        <ele>762.04028320312</ele>
        <time>2015-04-25T14:16:02Z</time>
      </trkpt>
      <trkpt lat="45.43382" lon="4.55866">
        <ele>762.94567871094</ele>
        <time>2015-04-25T14:16:04Z</time>
      </trkpt>
      <trkpt lat="45.43377" lon="4.5586">
        <ele>764.00512695312</ele>
        <time>2015-04-25T14:16:06Z</time>
      </trkpt>
      <trkpt lat="45.43372" lon="4.55854">
        <ele>764.72583007812</ele>
        <time>2015-04-25T14:16:08Z</time>
      </trkpt>
      <trkpt lat="45.43367" lon="4.55847">
        <ele>766.00634765625</ele>
        <time>2015-04-25T14:16:11Z</time>
      </trkpt>
      <trkpt lat="45.43366" lon="4.55842">
        <ele>767.32751464844</ele>
        <time>2015-04-25T14:16:13Z</time>
      </trkpt>
      <trkpt lat="45.43361" lon="4.55836">
        <ele>767.93432617188</ele>
        <time>2015-04-25T14:16:16Z</time>
      </trkpt>
      <trkpt lat="45.43356" lon="4.55836">
        <ele>767.28485107422</ele>
        <time>2015-04-25T14:16:19Z</time>
      </trkpt>
      <trkpt lat="45.43353" lon="4.55836">
        <ele>766.68963623047</ele>
        <time>2015-04-25T14:16:22Z</time>
      </trkpt>
      <trkpt lat="45.43351" lon="4.55837">
        <ele>766.03753662109</ele>
        <time>2015-04-25T14:16:24Z</time>
      </trkpt>
      <trkpt lat="45.43346" lon="4.55836">
        <ele>765.43969726562</ele>
        <time>2015-04-25T14:16:27Z</time>
      </trkpt>
      <trkpt lat="45.43343" lon="4.55837">
        <ele>764.60772705078</ele>
        <time>2015-04-25T14:16:29Z</time>
      </trkpt>
      <trkpt lat="45.43338" lon="4.55836">
        <ele>763.94183349609</ele>
        <time>2015-04-25T14:16:32Z</time>
      </trkpt>
      <trkpt lat="45.43333" lon="4.55835">
        <ele>763.5107421875</ele>
        <time>2015-04-25T14:16:34Z</time>
      </trkpt>
      <trkpt lat="45.43328" lon="4.55831">
        <ele>764.32830810547</ele>
        <time>2015-04-25T14:16:38Z</time>
      </trkpt>
      <trkpt lat="45.43324" lon="4.55829">
        <ele>764.68786621094</ele>
        <time>2015-04-25T14:16:40Z</time>
      </trkpt>
      <trkpt lat="45.43319" lon="4.55828">
        <ele>764.37701416016</ele>
        <time>2015-04-25T14:16:42Z</time>
      </trkpt>
      <trkpt lat="45.43317" lon="4.55829">
        <ele>764.06451416016</ele>
        <time>2015-04-25T14:16:44Z</time>
      </trkpt>
      <trkpt lat="45.43314" lon="4.55829">
        <ele>763.73913574219</ele>
        <time>2015-04-25T14:16:46Z</time>
      </trkpt>
      <trkpt lat="45.43309" lon="4.55828">
        <ele>763.44586181641</ele>
        <time>2015-04-25T14:16:50Z</time>
      </trkpt>
      <trkpt lat="45.43304" lon="4.55826">
        <ele>763.623046875</ele>
        <time>2015-04-25T14:16:54Z</time>
      </trkpt>
      <trkpt lat="45.43302" lon="4.55825">
        <ele>763.86553955078</ele>
        <time>2015-04-25T14:16:56Z</time>
      </trkpt>
      <trkpt lat="45.43298" lon="4.55818">
        <ele>765.28118896484</ele>
        <time>2015-04-25T14:16:59Z</time>
      </trkpt>
      <trkpt lat="45.43293" lon="4.55813">
        <ele>766.23577880859</ele>
        <time>2015-04-25T14:17:01Z</time>
      </trkpt>
      <trkpt lat="45.43288" lon="4.55806">
        <ele>767.56872558594</ele>
        <time>2015-04-25T14:17:04Z</time>
      </trkpt>
      <trkpt lat="45.43285" lon="4.55801">
        <ele>768.56530761719</ele>
        <time>2015-04-25T14:17:06Z</time>
      </trkpt>
      <trkpt lat="45.43279" lon="4.55795">
        <ele>769.26812744141</ele>
        <time>2015-04-25T14:17:09Z</time>
      </trkpt>
      <trkpt lat="45.43275" lon="4.55793">
        <ele>769.54046630859</ele>
        <time>2015-04-25T14:17:11Z</time>
      </trkpt>
      <trkpt lat="45.43271" lon="4.55786">
        <ele>770.68621826172</ele>
        <time>2015-04-25T14:17:14Z</time>
      </trkpt>
      <trkpt lat="45.43266" lon="4.5578">
        <ele>771.5966796875</ele>
        <time>2015-04-25T14:17:16Z</time>
      </trkpt>
      <trkpt lat="45.43262" lon="4.55776">
        <ele>771.99682617188</ele>
        <time>2015-04-25T14:17:18Z</time>
      </trkpt>
      <trkpt lat="45.4326" lon="4.55771">
        <ele>772.66815185547</ele>
        <time>2015-04-25T14:17:20Z</time>
      </trkpt>
      <trkpt lat="45.43257" lon="4.5577">
        <ele>772.57598876953</ele>
        <time>2015-04-25T14:17:23Z</time>
      </trkpt>
      <trkpt lat="45.43251" lon="4.55767">
        <ele>772.30517578125</ele>
        <time>2015-04-25T14:17:26Z</time>
      </trkpt>
      <trkpt lat="45.43248" lon="4.55765">
        <ele>771.98052978516</ele>
        <time>2015-04-25T14:17:28Z</time>
      </trkpt>
      <trkpt lat="45.43243" lon="4.55759">
        <ele>772.15679931641</ele>
        <time>2015-04-25T14:17:31Z</time>
      </trkpt>
      <trkpt lat="45.43239" lon="4.55753">
        <ele>772.68371582031</ele>
        <time>2015-04-25T14:17:33Z</time>
      </trkpt>
      <trkpt lat="45.43235" lon="4.55746">
        <ele>772.93890380859</ele>
        <time>2015-04-25T14:17:36Z</time>
      </trkpt>
      <trkpt lat="45.43233" lon="4.5574">
        <ele>773.14202880859</ele>
        <time>2015-04-25T14:17:38Z</time>
      </trkpt>
      <trkpt lat="45.43228" lon="4.5573">
        <ele>773.22302246094</ele>
        <time>2015-04-25T14:17:41Z</time>
      </trkpt>
      <trkpt lat="45.43225" lon="4.55723">
        <ele>773.36444091797</ele>
        <time>2015-04-25T14:17:43Z</time>
      </trkpt>
      <trkpt lat="45.43221" lon="4.55713">
        <ele>773.57092285156</ele>
        <time>2015-04-25T14:17:46Z</time>
      </trkpt>
      <trkpt lat="45.43218" lon="4.55706">
        <ele>773.74255371094</ele>
        <time>2015-04-25T14:17:48Z</time>
      </trkpt>
      <trkpt lat="45.43216" lon="4.55694">
        <ele>774.48187255859</ele>
        <time>2015-04-25T14:17:51Z</time>
      </trkpt>
      <trkpt lat="45.43213" lon="4.55686">
        <ele>774.51330566406</ele>
        <time>2015-04-25T14:17:53Z</time>
      </trkpt>
      <trkpt lat="45.4321" lon="4.55677">
        <ele>774.87579345703</ele>
        <time>2015-04-25T14:17:55Z</time>
      </trkpt>
      <trkpt lat="45.43208" lon="4.55666">
        <ele>775.5791015625</ele>
        <time>2015-04-25T14:17:58Z</time>
      </trkpt>
      <trkpt lat="45.43203" lon="4.55653">
        <ele>775.29986572266</ele>
        <time>2015-04-25T14:18:01Z</time>
      </trkpt>
      <trkpt lat="45.432" lon="4.55644">
        <ele>775.17169189453</ele>
        <time>2015-04-25T14:18:03Z</time>
      </trkpt>
      <trkpt lat="45.43199" lon="4.55635">
        <ele>775.80798339844</ele>
        <time>2015-04-25T14:18:05Z</time>
      </trkpt>
      <trkpt lat="45.43199" lon="4.55629">
        <ele>776.31610107422</ele>
        <time>2015-04-25T14:18:07Z</time>
      </trkpt>
      <trkpt lat="45.43199" lon="4.55624">
        <ele>776.68231201172</ele>
        <time>2015-04-25T14:18:09Z</time>
      </trkpt>
      <trkpt lat="45.43199" lon="4.55617">
        <ele>777.42846679688</ele>
        <time>2015-04-25T14:18:12Z</time>
      </trkpt>
      <trkpt lat="45.43198" lon="4.55611">
        <ele>777.79467773438</ele>
        <time>2015-04-25T14:18:14Z</time>
      </trkpt>
      <trkpt lat="45.43197" lon="4.55604">
        <ele>778.04644775391</ele>
        <time>2015-04-25T14:18:16Z</time>
      </trkpt>
      <trkpt lat="45.43198" lon="4.55599">
        <ele>778.92077636719</ele>
        <time>2015-04-25T14:18:18Z</time>
      </trkpt>
      <trkpt lat="45.43198" lon="4.55592">
        <ele>779.42889404297</ele>
        <time>2015-04-25T14:18:20Z</time>
      </trkpt>
      <trkpt lat="45.43198" lon="4.55585">
        <ele>780.11096191406</ele>
        <time>2015-04-25T14:18:22Z</time>
      </trkpt>
      <trkpt lat="45.43195" lon="4.55572">
        <ele>780.00994873047</ele>
        <time>2015-04-25T14:18:25Z</time>
      </trkpt>
      <trkpt lat="45.43193" lon="4.55564">
        <ele>780.00854492188</ele>
        <time>2015-04-25T14:18:27Z</time>
      </trkpt>
      <trkpt lat="45.43193" lon="4.55552">
        <ele>780.51373291016</ele>
        <time>2015-04-25T14:18:30Z</time>
      </trkpt>
      <trkpt lat="45.43191" lon="4.55543">
        <ele>780.44592285156</ele>
        <time>2015-04-25T14:18:33Z</time>
      </trkpt>
      <trkpt lat="45.43191" lon="4.55536">
        <ele>780.84674072266</ele>
        <time>2015-04-25T14:18:36Z</time>
      </trkpt>
      <trkpt lat="45.43189" lon="4.55532">
        <ele>780.59674072266</ele>
        <time>2015-04-25T14:18:39Z</time>
      </trkpt>
      <trkpt lat="45.43188" lon="4.55525">
        <ele>780.57214355469</ele>
        <time>2015-04-25T14:18:43Z</time>
      </trkpt>
      <trkpt lat="45.43189" lon="4.5552">
        <ele>781.08605957031</ele>
        <time>2015-04-25T14:18:46Z</time>
      </trkpt>
      <trkpt lat="45.43189" lon="4.55517">
        <ele>781.38677978516</ele>
        <time>2015-04-25T14:18:49Z</time>
      </trkpt>
      <trkpt lat="45.4319" lon="4.55513">
        <ele>781.71160888672</ele>
        <time>2015-04-25T14:18:51Z</time>
      </trkpt>
      <trkpt lat="45.4319" lon="4.55508">
        <ele>782.23040771484</ele>
        <time>2015-04-25T14:18:53Z</time>
      </trkpt>
      <trkpt lat="45.4319" lon="4.55502">
        <ele>782.310546875</ele>
        <time>2015-04-25T14:18:55Z</time>
      </trkpt>
      <trkpt lat="45.4319" lon="4.55493">
        <ele>782.74365234375</ele>
        <time>2015-04-25T14:18:58Z</time>
      </trkpt>
      <trkpt lat="45.43191" lon="4.55483">
        <ele>783.08880615234</ele>
        <time>2015-04-25T14:19:01Z</time>
      </trkpt>
      <trkpt lat="45.43191" lon="4.55476">
        <ele>783.14862060547</ele>
        <time>2015-04-25T14:19:03Z</time>
      </trkpt>
      <trkpt lat="45.43192" lon="4.5547">
        <ele>783.61151123047</ele>
        <time>2015-04-25T14:19:05Z</time>
      </trkpt>
      <trkpt lat="45.43193" lon="4.55462">
        <ele>783.82598876953</ele>
        <time>2015-04-25T14:19:07Z</time>
      </trkpt>
      <trkpt lat="45.43194" lon="4.55452">
        <ele>784.34875488281</ele>
        <time>2015-04-25T14:19:10Z</time>
      </trkpt>
      <trkpt lat="45.43193" lon="4.55446">
        <ele>784.13262939453</ele>
        <time>2015-04-25T14:19:12Z</time>
      </trkpt>
      <trkpt lat="45.43195" lon="4.55437">
        <ele>785.09368896484</ele>
        <time>2015-04-25T14:19:15Z</time>
      </trkpt>
      <trkpt lat="45.43197" lon="4.55432">
        <ele>785.73944091797</ele>
        <time>2015-04-25T14:19:17Z</time>
      </trkpt>
      <trkpt lat="45.43196" lon="4.55426">
        <ele>785.53540039062</ele>
        <time>2015-04-25T14:19:19Z</time>
      </trkpt>
      <trkpt lat="45.43196" lon="4.55418">
        <ele>785.63726806641</ele>
        <time>2015-04-25T14:19:21Z</time>
      </trkpt>
      <trkpt lat="45.43196" lon="4.55412">
        <ele>785.66143798828</ele>
        <time>2015-04-25T14:19:23Z</time>
      </trkpt>
      <trkpt lat="45.43196" lon="4.55407">
        <ele>785.66510009766</ele>
        <time>2015-04-25T14:19:25Z</time>
      </trkpt>
      <trkpt lat="45.43196" lon="4.55402">
        <ele>785.51483154297</ele>
        <time>2015-04-25T14:19:27Z</time>
      </trkpt>
      <trkpt lat="45.43195" lon="4.55395">
        <ele>785.36431884766</ele>
        <time>2015-04-25T14:19:31Z</time>
      </trkpt>
      <trkpt lat="45.43196" lon="4.55389">
        <ele>785.52233886719</ele>
        <time>2015-04-25T14:19:35Z</time>
      </trkpt>
      <trkpt lat="45.43195" lon="4.55384">
        <ele>785.21209716797</ele>
        <time>2015-04-25T14:19:38Z</time>
      </trkpt>
      <trkpt lat="45.43195" lon="4.5538">
        <ele>785.36987304688</ele>
        <time>2015-04-25T14:19:40Z</time>
      </trkpt>
      <trkpt lat="45.43197" lon="4.55376">
        <ele>786.15985107422</ele>
        <time>2015-04-25T14:19:42Z</time>
      </trkpt>
      <trkpt lat="45.43198" lon="4.55372">
        <ele>786.32342529297</ele>
        <time>2015-04-25T14:19:44Z</time>
      </trkpt>
      <trkpt lat="45.432" lon="4.55368">
        <ele>787.44207763672</ele>
        <time>2015-04-25T14:19:46Z</time>
      </trkpt>
      <trkpt lat="45.43203" lon="4.55364">
        <ele>788.73272705078</ele>
        <time>2015-04-25T14:19:49Z</time>
      </trkpt>
      <trkpt lat="45.43204" lon="4.55359">
        <ele>789.0703125</ele>
        <time>2015-04-25T14:19:51Z</time>
      </trkpt>
      <trkpt lat="45.43207" lon="4.55354">
        <ele>790.22296142578</ele>
        <time>2015-04-25T14:19:54Z</time>
      </trkpt>
      <trkpt lat="45.43209" lon="4.55351">
        <ele>791.04919433594</ele>
        <time>2015-04-25T14:19:56Z</time>
      </trkpt>
      <trkpt lat="45.43211" lon="4.55346">
        <ele>792.05419921875</ele>
        <time>2015-04-25T14:20:00Z</time>
      </trkpt>
      <trkpt lat="45.43212" lon="4.55344">
        <ele>792.39672851562</ele>
        <time>2015-04-25T14:20:03Z</time>
      </trkpt>
      <trkpt lat="45.43212" lon="4.55338">
        <ele>792.60131835938</ele>
        <time>2015-04-25T14:20:06Z</time>
      </trkpt>
      <trkpt lat="45.43214" lon="4.55335">
        <ele>793.28454589844</ele>
        <time>2015-04-25T14:20:08Z</time>
      </trkpt>
      <trkpt lat="45.43215" lon="4.5533">
        <ele>793.71008300781</ele>
        <time>2015-04-25T14:20:11Z</time>
      </trkpt>
      <trkpt lat="45.43216" lon="4.55328">
        <ele>794.07934570312</ele>
        <time>2015-04-25T14:20:13Z</time>
      </trkpt>
      <trkpt lat="45.43218" lon="4.55322">
        <ele>794.34124755859</ele>
        <time>2015-04-25T14:20:16Z</time>
      </trkpt>
      <trkpt lat="45.43221" lon="4.55317">
        <ele>795.1669921875</ele>
        <time>2015-04-25T14:20:18Z</time>
      </trkpt>
      <trkpt lat="45.43223" lon="4.55306">
        <ele>795.43206787109</ele>
        <time>2015-04-25T14:20:21Z</time>
      </trkpt>
      <trkpt lat="45.43223" lon="4.55302">
        <ele>795.26397705078</ele>
        <time>2015-04-25T14:20:23Z</time>
      </trkpt>
      <trkpt lat="45.43225" lon="4.55292">
        <ele>795.63415527344</ele>
        <time>2015-04-25T14:20:26Z</time>
      </trkpt>
      <trkpt lat="45.43227" lon="4.55285">
        <ele>795.67443847656</ele>
        <time>2015-04-25T14:20:28Z</time>
      </trkpt>
      <trkpt lat="45.4323" lon="4.55277">
        <ele>796.71319580078</ele>
        <time>2015-04-25T14:20:31Z</time>
      </trkpt>
      <trkpt lat="45.43231" lon="4.5527">
        <ele>796.59576416016</ele>
        <time>2015-04-25T14:20:33Z</time>
      </trkpt>
      <trkpt lat="45.43233" lon="4.5526">
        <ele>796.91461181641</ele>
        <time>2015-04-25T14:20:36Z</time>
      </trkpt>
      <trkpt lat="45.43233" lon="4.55251">
        <ele>796.55023193359</ele>
        <time>2015-04-25T14:20:38Z</time>
      </trkpt>
      <trkpt lat="45.43235" lon="4.5524">
        <ele>796.04370117188</ele>
        <time>2015-04-25T14:20:41Z</time>
      </trkpt>
      <trkpt lat="45.43238" lon="4.55232">
        <ele>795.97875976562</ele>
        <time>2015-04-25T14:20:43Z</time>
      </trkpt>
      <trkpt lat="45.43238" lon="4.55223">
        <ele>794.8671875</ele>
        <time>2015-04-25T14:20:45Z</time>
      </trkpt>
      <trkpt lat="45.43244" lon="4.55215">
        <ele>796.68591308594</ele>
        <time>2015-04-25T14:20:48Z</time>
      </trkpt>
      <trkpt lat="45.43245" lon="4.55207">
        <ele>796.17492675781</ele>
        <time>2015-04-25T14:20:50Z</time>
      </trkpt>
      <trkpt lat="45.43247" lon="4.55199">
        <ele>796.08520507812</ele>
        <time>2015-04-25T14:20:52Z</time>
      </trkpt>
      <trkpt lat="45.43251" lon="4.55195">
        <ele>797.14599609375</ele>
        <time>2015-04-25T14:20:54Z</time>
      </trkpt>
      <trkpt lat="45.43254" lon="4.55186">
        <ele>797.33038330078</ele>
        <time>2015-04-25T14:20:56Z</time>
      </trkpt>
      <trkpt lat="45.43255" lon="4.55179">
        <ele>796.67486572266</ele>
        <time>2015-04-25T14:20:58Z</time>
      </trkpt>
      <trkpt lat="45.43257" lon="4.55171">
        <ele>796.67919921875</ele>
        <time>2015-04-25T14:21:00Z</time>
      </trkpt>
      <trkpt lat="45.43258" lon="4.55162">
        <ele>796.11193847656</ele>
        <time>2015-04-25T14:21:02Z</time>
      </trkpt>
      <trkpt lat="45.4326" lon="4.55154">
        <ele>795.99981689453</ele>
        <time>2015-04-25T14:21:04Z</time>
      </trkpt>
      <trkpt lat="45.43264" lon="4.55139">
        <ele>796.07983398438</ele>
        <time>2015-04-25T14:21:07Z</time>
      </trkpt>
      <trkpt lat="45.43266" lon="4.55131">
        <ele>795.65264892578</ele>
        <time>2015-04-25T14:21:09Z</time>
      </trkpt>
      <trkpt lat="45.43268" lon="4.55121">
        <ele>795.39270019531</ele>
        <time>2015-04-25T14:21:12Z</time>
      </trkpt>
      <trkpt lat="45.4327" lon="4.55114">
        <ele>795.32879638672</ele>
        <time>2015-04-25T14:21:14Z</time>
      </trkpt>
      <trkpt lat="45.4327" lon="4.55107">
        <ele>794.57312011719</ele>
        <time>2015-04-25T14:21:16Z</time>
      </trkpt>
      <trkpt lat="45.43271" lon="4.55099">
        <ele>794.21514892578</ele>
        <time>2015-04-25T14:21:18Z</time>
      </trkpt>
      <trkpt lat="45.43272" lon="4.55089">
        <ele>793.23284912109</ele>
        <time>2015-04-25T14:21:20Z</time>
      </trkpt>
      <trkpt lat="45.43271" lon="4.5508">
        <ele>792.02282714844</ele>
        <time>2015-04-25T14:21:22Z</time>
      </trkpt>
      <trkpt lat="45.43272" lon="4.55072">
        <ele>791.60211181641</ele>
        <time>2015-04-25T14:21:24Z</time>
      </trkpt>
      <trkpt lat="45.43274" lon="4.55063">
        <ele>791.37072753906</ele>
        <time>2015-04-25T14:21:26Z</time>
      </trkpt>
      <trkpt lat="45.43276" lon="4.55055">
        <ele>790.95227050781</ele>
        <time>2015-04-25T14:21:28Z</time>
      </trkpt>
      <trkpt lat="45.43278" lon="4.55046">
        <ele>790.67669677734</ele>
        <time>2015-04-25T14:21:30Z</time>
      </trkpt>
      <trkpt lat="45.43282" lon="4.5504">
        <ele>791.25500488281</ele>
        <time>2015-04-25T14:21:32Z</time>
      </trkpt>
      <trkpt lat="45.43285" lon="4.55033">
        <ele>791.68798828125</ele>
        <time>2015-04-25T14:21:34Z</time>
      </trkpt>
      <trkpt lat="45.43289" lon="4.55021">
        <ele>791.44268798828</ele>
        <time>2015-04-25T14:21:37Z</time>
      </trkpt>
      <trkpt lat="45.43292" lon="4.55012">
        <ele>791.10357666016</ele>
        <time>2015-04-25T14:21:39Z</time>
      </trkpt>
      <trkpt lat="45.43295" lon="4.55003">
        <ele>790.92114257812</ele>
        <time>2015-04-25T14:21:41Z</time>
      </trkpt>
      <trkpt lat="45.43298" lon="4.54995">
        <ele>790.99224853516</ele>
        <time>2015-04-25T14:21:43Z</time>
      </trkpt>
      <trkpt lat="45.43302" lon="4.54989">
        <ele>791.56140136719</ele>
        <time>2015-04-25T14:21:45Z</time>
      </trkpt>
      <trkpt lat="45.43304" lon="4.54981">
        <ele>791.40203857422</ele>
        <time>2015-04-25T14:21:47Z</time>
      </trkpt>
      <trkpt lat="45.43307" lon="4.54974">
        <ele>791.5908203125</ele>
        <time>2015-04-25T14:21:49Z</time>
      </trkpt>
      <trkpt lat="45.43309" lon="4.54966">
        <ele>791.59686279297</ele>
        <time>2015-04-25T14:21:51Z</time>
      </trkpt>
      <trkpt lat="45.43312" lon="4.54959">
        <ele>791.55963134766</ele>
        <time>2015-04-25T14:21:53Z</time>
      </trkpt>
      <trkpt lat="45.43313" lon="4.5495">
        <ele>791.02258300781</ele>
        <time>2015-04-25T14:21:55Z</time>
      </trkpt>
      <trkpt lat="45.43316" lon="4.54943">
        <ele>791.05212402344</ele>
        <time>2015-04-25T14:21:57Z</time>
      </trkpt>
      <trkpt lat="45.43319" lon="4.54937">
        <ele>791.42199707031</ele>
        <time>2015-04-25T14:21:59Z</time>
      </trkpt>
      <trkpt lat="45.43321" lon="4.54931">
        <ele>791.37554931641</ele>
        <time>2015-04-25T14:22:01Z</time>
      </trkpt>
      <trkpt lat="45.43323" lon="4.54924">
        <ele>791.16070556641</ele>
        <time>2015-04-25T14:22:03Z</time>
      </trkpt>
      <trkpt lat="45.43325" lon="4.54918">
        <ele>791.06842041016</ele>
        <time>2015-04-25T14:22:05Z</time>
      </trkpt>
      <trkpt lat="45.43327" lon="4.54906">
        <ele>790.76049804688</ele>
        <time>2015-04-25T14:22:08Z</time>
      </trkpt>
      <trkpt lat="45.43328" lon="4.54898">
        <ele>790.34881591797</ele>
        <time>2015-04-25T14:22:10Z</time>
      </trkpt>
      <trkpt lat="45.43329" lon="4.54887">
        <ele>789.75469970703</ele>
        <time>2015-04-25T14:22:13Z</time>
      </trkpt>
      <trkpt lat="45.43331" lon="4.5488">
        <ele>789.73980712891</ele>
        <time>2015-04-25T14:22:15Z</time>
      </trkpt>
      <trkpt lat="45.43333" lon="4.54868">
        <ele>789.45220947266</ele>
        <time>2015-04-25T14:22:18Z</time>
      </trkpt>
      <trkpt lat="45.43333" lon="4.54859">
        <ele>788.85205078125</ele>
        <time>2015-04-25T14:22:20Z</time>
      </trkpt>
      <trkpt lat="45.43336" lon="4.54846">
        <ele>787.9931640625</ele>
        <time>2015-04-25T14:22:23Z</time>
      </trkpt>
      <trkpt lat="45.43338" lon="4.54839">
        <ele>787.48712158203</ele>
        <time>2015-04-25T14:22:25Z</time>
      </trkpt>
      <trkpt lat="45.43341" lon="4.54826">
        <ele>786.40643310547</ele>
        <time>2015-04-25T14:22:28Z</time>
      </trkpt>
      <trkpt lat="45.43346" lon="4.54818">
        <ele>785.62817382812</ele>
        <time>2015-04-25T14:22:30Z</time>
      </trkpt>
      <trkpt lat="45.4335" lon="4.54804">
        <ele>784.27197265625</ele>
        <time>2015-04-25T14:22:33Z</time>
      </trkpt>
      <trkpt lat="45.43352" lon="4.54796">
        <ele>783.41815185547</ele>
        <time>2015-04-25T14:22:35Z</time>
      </trkpt>
      <trkpt lat="45.43351" lon="4.54779">
        <ele>781.76696777344</ele>
        <time>2015-04-25T14:22:38Z</time>
      </trkpt>
      <trkpt lat="45.43352" lon="4.54771">
        <ele>780.87683105469</ele>
        <time>2015-04-25T14:22:40Z</time>
      </trkpt>
      <trkpt lat="45.43353" lon="4.54764">
        <ele>780.14123535156</ele>
        <time>2015-04-25T14:23:06Z</time>
      </trkpt>
      <trkpt lat="45.43353" lon="4.54759">
        <ele>779.70812988281</ele>
        <time>2015-04-25T14:23:09Z</time>
      </trkpt>
      <trkpt lat="45.43355" lon="4.54757">
        <ele>779.42590332031</ele>
        <time>2015-04-25T14:23:11Z</time>
      </trkpt>
      <trkpt lat="45.43357" lon="4.54755">
        <ele>779.25085449219</ele>
        <time>2015-04-25T14:23:24Z</time>
      </trkpt>
      <trkpt lat="45.43359" lon="4.54756">
        <ele>779.33825683594</ele>
        <time>2015-04-25T14:23:43Z</time>
      </trkpt>
      <trkpt lat="45.43362" lon="4.54757">
        <ele>779.36285400391</ele>
        <time>2015-04-25T14:23:46Z</time>
      </trkpt>
      <trkpt lat="45.43364" lon="4.5476">
        <ele>779.62506103516</ele>
        <time>2015-04-25T14:23:48Z</time>
      </trkpt>
      <trkpt lat="45.43367" lon="4.54764">
        <ele>780.04382324219</ele>
        <time>2015-04-25T14:23:50Z</time>
      </trkpt>
      <trkpt lat="45.43369" lon="4.5477">
        <ele>780.64410400391</ele>
        <time>2015-04-25T14:23:52Z</time>
      </trkpt>
      <trkpt lat="45.43372" lon="4.54775">
        <ele>781.18572998047</ele>
        <time>2015-04-25T14:23:54Z</time>
      </trkpt>
      <trkpt lat="45.43375" lon="4.5478">
        <ele>781.73937988281</ele>
        <time>2015-04-25T14:23:56Z</time>
      </trkpt>
      <trkpt lat="45.43379" lon="4.54786">
        <ele>782.34625244141</ele>
        <time>2015-04-25T14:23:58Z</time>
      </trkpt>
      <trkpt lat="45.43383" lon="4.54789">
        <ele>782.72918701172</ele>
        <time>2015-04-25T14:24:00Z</time>
      </trkpt>
      <trkpt lat="45.43387" lon="4.54793">
        <ele>783.11401367188</ele>
        <time>2015-04-25T14:24:02Z</time>
      </trkpt>
      <trkpt lat="45.4339" lon="4.54797">
        <ele>783.62420654297</ele>
        <time>2015-04-25T14:24:04Z</time>
      </trkpt>
      <trkpt lat="45.43393" lon="4.54803">
        <ele>784.25982666016</ele>
        <time>2015-04-25T14:24:06Z</time>
      </trkpt>
      <trkpt lat="45.43397" lon="4.54808">
        <ele>784.8115234375</ele>
        <time>2015-04-25T14:24:08Z</time>
      </trkpt>
      <trkpt lat="45.434" lon="4.54812">
        <ele>785.36578369141</ele>
        <time>2015-04-25T14:24:10Z</time>
      </trkpt>
      <trkpt lat="45.43404" lon="4.54817">
        <ele>785.97912597656</ele>
        <time>2015-04-25T14:24:12Z</time>
      </trkpt>
      <trkpt lat="45.43407" lon="4.54822">
        <ele>786.59484863281</ele>
        <time>2015-04-25T14:24:14Z</time>
      </trkpt>
      <trkpt lat="45.43412" lon="4.54826">
        <ele>787.04449462891</ele>
        <time>2015-04-25T14:24:16Z</time>
      </trkpt>
      <trkpt lat="45.43415" lon="4.54831">
        <ele>787.68103027344</ele>
        <time>2015-04-25T14:24:18Z</time>
      </trkpt>
      <trkpt lat="45.4342" lon="4.54837">
        <ele>787.91650390625</ele>
        <time>2015-04-25T14:24:20Z</time>
      </trkpt>
      <trkpt lat="45.43423" lon="4.54843">
        <ele>788.05639648438</ele>
        <time>2015-04-25T14:24:22Z</time>
      </trkpt>
      <trkpt lat="45.43426" lon="4.54848">
        <ele>788.248046875</ele>
        <time>2015-04-25T14:24:24Z</time>
      </trkpt>
      <trkpt lat="45.4343" lon="4.54852">
        <ele>788.08056640625</ele>
        <time>2015-04-25T14:24:26Z</time>
      </trkpt>
      <trkpt lat="45.43433" lon="4.54857">
        <ele>788.05017089844</ele>
        <time>2015-04-25T14:24:28Z</time>
      </trkpt>
      <trkpt lat="45.43437" lon="4.54862">
        <ele>788.10028076172</ele>
        <time>2015-04-25T14:24:30Z</time>
      </trkpt>
      <trkpt lat="45.4344" lon="4.54867">
        <ele>788.22930908203</ele>
        <time>2015-04-25T14:24:32Z</time>
      </trkpt>
      <trkpt lat="45.43444" lon="4.54873">
        <ele>788.31573486328</ele>
        <time>2015-04-25T14:24:34Z</time>
      </trkpt>
      <trkpt lat="45.43448" lon="4.54878">
        <ele>788.35272216797</ele>
        <time>2015-04-25T14:24:36Z</time>
      </trkpt>
      <trkpt lat="45.43452" lon="4.54885">
        <ele>788.60113525391</ele>
        <time>2015-04-25T14:24:38Z</time>
      </trkpt>
      <trkpt lat="45.43455" lon="4.54891">
        <ele>788.90106201172</ele>
        <time>2015-04-25T14:24:40Z</time>
      </trkpt>
      <trkpt lat="45.43458" lon="4.54898">
        <ele>789.20648193359</ele>
        <time>2015-04-25T14:24:42Z</time>
      </trkpt>
      <trkpt lat="45.43461" lon="4.54904">
        <ele>789.48132324219</ele>
        <time>2015-04-25T14:24:44Z</time>
      </trkpt>
      <trkpt lat="45.43466" lon="4.54913">
        <ele>789.84466552734</ele>
        <time>2015-04-25T14:24:47Z</time>
      </trkpt>
      <trkpt lat="45.4347" lon="4.5492">
        <ele>790.20367431641</ele>
        <time>2015-04-25T14:24:49Z</time>
      </trkpt>
      <trkpt lat="45.43473" lon="4.54927">
        <ele>790.60620117188</ele>
        <time>2015-04-25T14:24:51Z</time>
      </trkpt>
      <trkpt lat="45.43476" lon="4.54934">
        <ele>791.06817626953</ele>
        <time>2015-04-25T14:24:53Z</time>
      </trkpt>
      <trkpt lat="45.43479" lon="4.5494">
        <ele>791.36920166016</ele>
        <time>2015-04-25T14:24:55Z</time>
      </trkpt>
      <trkpt lat="45.43482" lon="4.54945">
        <ele>791.56787109375</ele>
        <time>2015-04-25T14:24:57Z</time>
      </trkpt>
      <trkpt lat="45.43485" lon="4.54952">
        <ele>791.87005615234</ele>
        <time>2015-04-25T14:24:59Z</time>
      </trkpt>
      <trkpt lat="45.43488" lon="4.54961">
        <ele>792.4677734375</ele>
        <time>2015-04-25T14:25:02Z</time>
      </trkpt>
      <trkpt lat="45.43491" lon="4.54967">
        <ele>792.78155517578</ele>
        <time>2015-04-25T14:25:04Z</time>
      </trkpt>
      <trkpt lat="45.43493" lon="4.54973">
        <ele>793.14599609375</ele>
        <time>2015-04-25T14:25:06Z</time>
      </trkpt>
      <trkpt lat="45.43494" lon="4.54979">
        <ele>793.55053710938</ele>
        <time>2015-04-25T14:25:08Z</time>
      </trkpt>
      <trkpt lat="45.43496" lon="4.54985">
        <ele>793.88330078125</ele>
        <time>2015-04-25T14:25:10Z</time>
      </trkpt>
      <trkpt lat="45.43498" lon="4.54991">
        <ele>794.23809814453</ele>
        <time>2015-04-25T14:25:12Z</time>
      </trkpt>
      <trkpt lat="45.43501" lon="4.54997">
        <ele>794.47650146484</ele>
        <time>2015-04-25T14:25:14Z</time>
      </trkpt>
      <trkpt lat="45.43503" lon="4.55003">
        <ele>794.69134521484</ele>
        <time>2015-04-25T14:25:16Z</time>
      </trkpt>
      <trkpt lat="45.43506" lon="4.55009">
        <ele>795.08428955078</ele>
        <time>2015-04-25T14:25:18Z</time>
      </trkpt>
      <trkpt lat="45.43509" lon="4.55015">
        <ele>795.59460449219</ele>
        <time>2015-04-25T14:25:20Z</time>
      </trkpt>
      <trkpt lat="45.43511" lon="4.55021">
        <ele>796.1455078125</ele>
        <time>2015-04-25T14:25:22Z</time>
      </trkpt>
      <trkpt lat="45.43513" lon="4.55027">
        <ele>796.47637939453</ele>
        <time>2015-04-25T14:25:24Z</time>
      </trkpt>
      <trkpt lat="45.43516" lon="4.55032">
        <ele>796.79827880859</ele>
        <time>2015-04-25T14:25:26Z</time>
      </trkpt>
      <trkpt lat="45.43519" lon="4.55037">
        <ele>797.18737792969</ele>
        <time>2015-04-25T14:25:28Z</time>
      </trkpt>
      <trkpt lat="45.43521" lon="4.55043">
        <ele>797.58953857422</ele>
        <time>2015-04-25T14:25:30Z</time>
      </trkpt>
      <trkpt lat="45.43524" lon="4.55047">
        <ele>797.80798339844</ele>
        <time>2015-04-25T14:25:32Z</time>
      </trkpt>
      <trkpt lat="45.43527" lon="4.55053">
        <ele>798.24597167969</ele>
        <time>2015-04-25T14:25:34Z</time>
      </trkpt>
      <trkpt lat="45.4353" lon="4.55057">
        <ele>798.4365234375</ele>
        <time>2015-04-25T14:25:36Z</time>
      </trkpt>
      <trkpt lat="45.43533" lon="4.55063">
        <ele>799.005859375</ele>
        <time>2015-04-25T14:25:38Z</time>
      </trkpt>
      <trkpt lat="45.43535" lon="4.55067">
        <ele>799.32916259766</ele>
        <time>2015-04-25T14:25:40Z</time>
      </trkpt>
      <trkpt lat="45.43538" lon="4.55072">
        <ele>799.57531738281</ele>
        <time>2015-04-25T14:25:42Z</time>
      </trkpt>
      <trkpt lat="45.43541" lon="4.55077">
        <ele>799.99426269531</ele>
        <time>2015-04-25T14:25:44Z</time>
      </trkpt>
      <trkpt lat="45.43543" lon="4.55082">
        <ele>800.47442626953</ele>
        <time>2015-04-25T14:25:46Z</time>
      </trkpt>
      <trkpt lat="45.43545" lon="4.55087">
        <ele>801.18646240234</ele>
        <time>2015-04-25T14:25:48Z</time>
      </trkpt>
      <trkpt lat="45.43547" lon="4.55091">
        <ele>801.73840332031</ele>
        <time>2015-04-25T14:25:50Z</time>
      </trkpt>
      <trkpt lat="45.43548" lon="4.55093">
        <ele>801.97235107422</ele>
        <time>2015-04-25T14:25:52Z</time>
      </trkpt>
      <trkpt lat="45.43549" lon="4.55095">
        <ele>802.33392333984</ele>
        <time>2015-04-25T14:25:54Z</time>
      </trkpt>
      <trkpt lat="45.43552" lon="4.551">
        <ele>802.86901855469</ele>
        <time>2015-04-25T14:25:57Z</time>
      </trkpt>
      <trkpt lat="45.43555" lon="4.55103">
        <ele>802.88531494141</ele>
        <time>2015-04-25T14:25:59Z</time>
      </trkpt>
      <trkpt lat="45.43559" lon="4.55107">
        <ele>803.00708007812</ele>
        <time>2015-04-25T14:26:02Z</time>
      </trkpt>
      <trkpt lat="45.43562" lon="4.55109">
        <ele>802.80786132812</ele>
        <time>2015-04-25T14:26:04Z</time>
      </trkpt>
      <trkpt lat="45.43566" lon="4.55112">
        <ele>802.65496826172</ele>
        <time>2015-04-25T14:26:06Z</time>
      </trkpt>
      <trkpt lat="45.4357" lon="4.55117">
        <ele>802.76007080078</ele>
        <time>2015-04-25T14:26:10Z</time>
      </trkpt>
      <trkpt lat="45.43571" lon="4.5512">
        <ele>803.09106445312</ele>
        <time>2015-04-25T14:26:12Z</time>
      </trkpt>
      <trkpt lat="45.43572" lon="4.55122">
        <ele>803.47113037109</ele>
        <time>2015-04-25T14:26:14Z</time>
      </trkpt>
      <trkpt lat="45.43574" lon="4.55125">
        <ele>803.62463378906</ele>
        <time>2015-04-25T14:26:16Z</time>
      </trkpt>
      <trkpt lat="45.43577" lon="4.55129">
        <ele>803.72338867188</ele>
        <time>2015-04-25T14:26:19Z</time>
      </trkpt>
      <trkpt lat="45.43578" lon="4.55131">
        <ele>804.02838134766</ele>
        <time>2015-04-25T14:26:21Z</time>
      </trkpt>
      <trkpt lat="45.43581" lon="4.55133">
        <ele>803.80908203125</ele>
        <time>2015-04-25T14:26:23Z</time>
      </trkpt>
      <trkpt lat="45.43584" lon="4.55137">
        <ele>803.95178222656</ele>
        <time>2015-04-25T14:26:25Z</time>
      </trkpt>
      <trkpt lat="45.43588" lon="4.55142">
        <ele>804.32983398438</ele>
        <time>2015-04-25T14:26:27Z</time>
      </trkpt>
      <trkpt lat="45.43592" lon="4.55147">
        <ele>804.712890625</ele>
        <time>2015-04-25T14:26:29Z</time>
      </trkpt>
      <trkpt lat="45.43596" lon="4.55151">
        <ele>805.16973876953</ele>
        <time>2015-04-25T14:26:31Z</time>
      </trkpt>
      <trkpt lat="45.43598" lon="4.55156">
        <ele>805.92028808594</ele>
        <time>2015-04-25T14:26:33Z</time>
      </trkpt>
      <trkpt lat="45.436" lon="4.5516">
        <ele>806.59503173828</ele>
        <time>2015-04-25T14:26:35Z</time>
      </trkpt>
      <trkpt lat="45.43605" lon="4.55164">
        <ele>806.974609375</ele>
        <time>2015-04-25T14:26:37Z</time>
      </trkpt>
      <trkpt lat="45.43609" lon="4.55166">
        <ele>806.85192871094</ele>
        <time>2015-04-25T14:26:39Z</time>
      </trkpt>
      <trkpt lat="45.43614" lon="4.55169">
        <ele>806.94818115234</ele>
        <time>2015-04-25T14:26:41Z</time>
      </trkpt>
      <trkpt lat="45.43619" lon="4.55173">
        <ele>807.26904296875</ele>
        <time>2015-04-25T14:26:43Z</time>
      </trkpt>
      <trkpt lat="45.43623" lon="4.55177">
        <ele>807.70092773438</ele>
        <time>2015-04-25T14:26:45Z</time>
      </trkpt>
      <trkpt lat="45.43627" lon="4.5518">
        <ele>807.84240722656</ele>
        <time>2015-04-25T14:26:47Z</time>
      </trkpt>
      <trkpt lat="45.43631" lon="4.55183">
        <ele>808.02783203125</ele>
        <time>2015-04-25T14:26:49Z</time>
      </trkpt>
      <trkpt lat="45.43634" lon="4.55187">
        <ele>808.40521240234</ele>
        <time>2015-04-25T14:26:51Z</time>
      </trkpt>
      <trkpt lat="45.43638" lon="4.55191">
        <ele>808.87170410156</ele>
        <time>2015-04-25T14:26:53Z</time>
      </trkpt>
      <trkpt lat="45.43642" lon="4.55193">
        <ele>808.94085693359</ele>
        <time>2015-04-25T14:26:55Z</time>
      </trkpt>
      <trkpt lat="45.43646" lon="4.55196">
        <ele>809.00189208984</ele>
        <time>2015-04-25T14:26:57Z</time>
      </trkpt>
      <trkpt lat="45.43652" lon="4.55198">
        <ele>808.81994628906</ele>
        <time>2015-04-25T14:26:59Z</time>
      </trkpt>
      <trkpt lat="45.43656" lon="4.55201">
        <ele>808.71954345703</ele>
        <time>2015-04-25T14:27:01Z</time>
      </trkpt>
      <trkpt lat="45.43661" lon="4.55204">
        <ele>808.79174804688</ele>
        <time>2015-04-25T14:27:03Z</time>
      </trkpt>
      <trkpt lat="45.43666" lon="4.55207">
        <ele>808.74249267578</ele>
        <time>2015-04-25T14:27:05Z</time>
      </trkpt>
      <trkpt lat="45.43671" lon="4.5521">
        <ele>808.89685058594</ele>
        <time>2015-04-25T14:27:07Z</time>
      </trkpt>
      <trkpt lat="45.43675" lon="4.55214">
        <ele>809.14978027344</ele>
        <time>2015-04-25T14:27:09Z</time>
      </trkpt>
      <trkpt lat="45.43679" lon="4.55216">
        <ele>809.10400390625</ele>
        <time>2015-04-25T14:27:11Z</time>
      </trkpt>
      <trkpt lat="45.43683" lon="4.55219">
        <ele>809.24932861328</ele>
        <time>2015-04-25T14:27:13Z</time>
      </trkpt>
      <trkpt lat="45.43689" lon="4.55222">
        <ele>809.27795410156</ele>
        <time>2015-04-25T14:27:15Z</time>
      </trkpt>
      <trkpt lat="45.43694" lon="4.55226">
        <ele>809.48162841797</ele>
        <time>2015-04-25T14:27:17Z</time>
      </trkpt>
      <trkpt lat="45.43699" lon="4.55229">
        <ele>809.60180664062</ele>
        <time>2015-04-25T14:27:19Z</time>
      </trkpt>
      <trkpt lat="45.43705" lon="4.55231">
        <ele>809.25158691406</ele>
        <time>2015-04-25T14:27:21Z</time>
      </trkpt>
      <trkpt lat="45.4371" lon="4.55233">
        <ele>809.19665527344</ele>
        <time>2015-04-25T14:27:23Z</time>
      </trkpt>
      <trkpt lat="45.43715" lon="4.55236">
        <ele>809.18408203125</ele>
        <time>2015-04-25T14:27:25Z</time>
      </trkpt>
      <trkpt lat="45.4372" lon="4.55238">
        <ele>809.12915039062</ele>
        <time>2015-04-25T14:27:27Z</time>
      </trkpt>
      <trkpt lat="45.43725" lon="4.55241">
        <ele>809.07995605469</ele>
        <time>2015-04-25T14:27:29Z</time>
      </trkpt>
      <trkpt lat="45.43729" lon="4.55243">
        <ele>808.96325683594</ele>
        <time>2015-04-25T14:27:31Z</time>
      </trkpt>
      <trkpt lat="45.43734" lon="4.55245">
        <ele>808.84191894531</ele>
        <time>2015-04-25T14:27:33Z</time>
      </trkpt>
      <trkpt lat="45.43739" lon="4.55248">
        <ele>808.80297851562</ele>
        <time>2015-04-25T14:27:35Z</time>
      </trkpt>
      <trkpt lat="45.43744" lon="4.55251">
        <ele>808.90185546875</ele>
        <time>2015-04-25T14:27:37Z</time>
      </trkpt>
      <trkpt lat="45.43748" lon="4.55254">
        <ele>809.04248046875</ele>
        <time>2015-04-25T14:27:39Z</time>
      </trkpt>
      <trkpt lat="45.43753" lon="4.55258">
        <ele>809.47015380859</ele>
        <time>2015-04-25T14:27:41Z</time>
      </trkpt>
      <trkpt lat="45.43758" lon="4.55261">
        <ele>809.73712158203</ele>
        <time>2015-04-25T14:27:43Z</time>
      </trkpt>
      <trkpt lat="45.43763" lon="4.55265">
        <ele>809.99273681641</ele>
        <time>2015-04-25T14:27:45Z</time>
      </trkpt>
      <trkpt lat="45.43769" lon="4.55268">
        <ele>810.18725585938</ele>
        <time>2015-04-25T14:27:47Z</time>
      </trkpt>
      <trkpt lat="45.43774" lon="4.5527">
        <ele>810.22357177734</ele>
        <time>2015-04-25T14:27:49Z</time>
      </trkpt>
      <trkpt lat="45.43778" lon="4.55273">
        <ele>810.54528808594</ele>
        <time>2015-04-25T14:27:51Z</time>
      </trkpt>
      <trkpt lat="45.43783" lon="4.55276">
        <ele>810.6171875</ele>
        <time>2015-04-25T14:27:53Z</time>
      </trkpt>
      <trkpt lat="45.43787" lon="4.55277">
        <ele>810.40386962891</ele>
        <time>2015-04-25T14:27:55Z</time>
      </trkpt>
      <trkpt lat="45.43792" lon="4.55279">
        <ele>810.28887939453</ele>
        <time>2015-04-25T14:27:57Z</time>
      </trkpt>
      <trkpt lat="45.43798" lon="4.5528">
        <ele>810.06616210938</ele>
        <time>2015-04-25T14:27:59Z</time>
      </trkpt>
      <trkpt lat="45.43802" lon="4.55282">
        <ele>810.14038085938</ele>
        <time>2015-04-25T14:28:01Z</time>
      </trkpt>
      <trkpt lat="45.43807" lon="4.55285">
        <ele>810.17211914062</ele>
        <time>2015-04-25T14:28:03Z</time>
      </trkpt>
      <trkpt lat="45.43812" lon="4.55288">
        <ele>810.29907226562</ele>
        <time>2015-04-25T14:28:05Z</time>
      </trkpt>
      <trkpt lat="45.43817" lon="4.5529">
        <ele>810.32580566406</ele>
        <time>2015-04-25T14:28:07Z</time>
      </trkpt>
      <trkpt lat="45.43821" lon="4.55294">
        <ele>810.67999267578</ele>
        <time>2015-04-25T14:28:09Z</time>
      </trkpt>
      <trkpt lat="45.43826" lon="4.55298">
        <ele>810.94116210938</ele>
        <time>2015-04-25T14:28:11Z</time>
      </trkpt>
      <trkpt lat="45.4383" lon="4.55301">
        <ele>811.05480957031</ele>
        <time>2015-04-25T14:28:13Z</time>
      </trkpt>
      <trkpt lat="45.43835" lon="4.55304">
        <ele>811.30773925781</ele>
        <time>2015-04-25T14:28:15Z</time>
      </trkpt>
      <trkpt lat="45.4384" lon="4.55308">
        <ele>811.73803710938</ele>
        <time>2015-04-25T14:28:17Z</time>
      </trkpt>
      <trkpt lat="45.43845" lon="4.55311">
        <ele>811.90283203125</ele>
        <time>2015-04-25T14:28:19Z</time>
      </trkpt>
      <trkpt lat="45.4385" lon="4.55314">
        <ele>812.12255859375</ele>
        <time>2015-04-25T14:28:21Z</time>
      </trkpt>
      <trkpt lat="45.43854" lon="4.55316">
        <ele>812.26904296875</ele>
        <time>2015-04-25T14:28:23Z</time>
      </trkpt>
      <trkpt lat="45.43859" lon="4.55318">
        <ele>812.25988769531</ele>
        <time>2015-04-25T14:28:25Z</time>
      </trkpt>
      <trkpt lat="45.43864" lon="4.55323">
        <ele>812.8916015625</ele>
        <time>2015-04-25T14:28:27Z</time>
      </trkpt>
      <trkpt lat="45.43868" lon="4.55328">
        <ele>813.43176269531</ele>
        <time>2015-04-25T14:28:29Z</time>
      </trkpt>
      <trkpt lat="45.43873" lon="4.5533">
        <ele>813.51416015625</ele>
        <time>2015-04-25T14:28:31Z</time>
      </trkpt>
      <trkpt lat="45.43877" lon="4.55334">
        <ele>813.86370849609</ele>
        <time>2015-04-25T14:28:33Z</time>
      </trkpt>
      <trkpt lat="45.43882" lon="4.55337">
        <ele>813.77844238281</ele>
        <time>2015-04-25T14:28:35Z</time>
      </trkpt>
      <trkpt lat="45.43887" lon="4.55338">
        <ele>813.51208496094</ele>
        <time>2015-04-25T14:28:37Z</time>
      </trkpt>
      <trkpt lat="45.43891" lon="4.55341">
        <ele>813.51385498047</ele>
        <time>2015-04-25T14:28:39Z</time>
      </trkpt>
      <trkpt lat="45.43896" lon="4.55344">
        <ele>813.41979980469</ele>
        <time>2015-04-25T14:28:41Z</time>
      </trkpt>
      <trkpt lat="45.439" lon="4.55345">
        <ele>813.24237060547</ele>
        <time>2015-04-25T14:28:43Z</time>
      </trkpt>
      <trkpt lat="45.43905" lon="4.55348">
        <ele>813.13677978516</ele>
        <time>2015-04-25T14:28:45Z</time>
      </trkpt>
      <trkpt lat="45.43909" lon="4.5535">
        <ele>813.11840820312</ele>
        <time>2015-04-25T14:28:47Z</time>
      </trkpt>
      <trkpt lat="45.43914" lon="4.55353">
        <ele>813.01049804688</ele>
        <time>2015-04-25T14:28:50Z</time>
      </trkpt>
      <trkpt lat="45.4392" lon="4.55355">
        <ele>812.63372802734</ele>
        <time>2015-04-25T14:28:52Z</time>
      </trkpt>
      <trkpt lat="45.43924" lon="4.55358">
        <ele>812.45965576172</ele>
        <time>2015-04-25T14:28:54Z</time>
      </trkpt>
      <trkpt lat="45.43929" lon="4.55361">
        <ele>812.15576171875</ele>
        <time>2015-04-25T14:28:56Z</time>
      </trkpt>
      <trkpt lat="45.43935" lon="4.55364">
        <ele>811.80950927734</ele>
        <time>2015-04-25T14:28:58Z</time>
      </trkpt>
      <trkpt lat="45.4394" lon="4.55369">
        <ele>811.70635986328</ele>
        <time>2015-04-25T14:29:00Z</time>
      </trkpt>
      <trkpt lat="45.43945" lon="4.55372">
        <ele>811.46087646484</ele>
        <time>2015-04-25T14:29:02Z</time>
      </trkpt>
      <trkpt lat="45.43951" lon="4.55375">
        <ele>811.01782226562</ele>
        <time>2015-04-25T14:29:04Z</time>
      </trkpt>
      <trkpt lat="45.43955" lon="4.55378">
        <ele>810.95336914062</ele>
        <time>2015-04-25T14:29:06Z</time>
      </trkpt>
      <trkpt lat="45.43959" lon="4.55382">
        <ele>810.93237304688</ele>
        <time>2015-04-25T14:29:08Z</time>
      </trkpt>
      <trkpt lat="45.43964" lon="4.55386">
        <ele>810.8671875</ele>
        <time>2015-04-25T14:29:10Z</time>
      </trkpt>
      <trkpt lat="45.43969" lon="4.5539">
        <ele>810.85382080078</ele>
        <time>2015-04-25T14:29:12Z</time>
      </trkpt>
      <trkpt lat="45.43973" lon="4.55395">
        <ele>811.00604248047</ele>
        <time>2015-04-25T14:29:14Z</time>
      </trkpt>
      <trkpt lat="45.43977" lon="4.55399">
        <ele>811.03656005859</ele>
        <time>2015-04-25T14:29:16Z</time>
      </trkpt>
      <trkpt lat="45.43982" lon="4.55405">
        <ele>811.30871582031</ele>
        <time>2015-04-25T14:29:18Z</time>
      </trkpt>
      <trkpt lat="45.43987" lon="4.55409">
        <ele>811.28833007812</ele>
        <time>2015-04-25T14:29:20Z</time>
      </trkpt>
      <trkpt lat="45.43992" lon="4.55414">
        <ele>811.4775390625</ele>
        <time>2015-04-25T14:29:22Z</time>
      </trkpt>
      <trkpt lat="45.43997" lon="4.55419">
        <ele>811.26153564453</ele>
        <time>2015-04-25T14:29:24Z</time>
      </trkpt>
      <trkpt lat="45.44" lon="4.55426">
        <ele>811.01190185547</ele>
        <time>2015-04-25T14:29:26Z</time>
      </trkpt>
      <trkpt lat="45.44006" lon="4.55433">
        <ele>810.35607910156</ele>
        <time>2015-04-25T14:29:28Z</time>
      </trkpt>
      <trkpt lat="45.44012" lon="4.55439">
        <ele>809.63024902344</ele>
        <time>2015-04-25T14:29:30Z</time>
      </trkpt>
      <trkpt lat="45.44017" lon="4.55446">
        <ele>809.09948730469</ele>
        <time>2015-04-25T14:29:32Z</time>
      </trkpt>
      <trkpt lat="45.44022" lon="4.55452">
        <ele>808.54522705078</ele>
        <time>2015-04-25T14:29:34Z</time>
      </trkpt>
      <trkpt lat="45.44026" lon="4.55456">
        <ele>808.19750976562</ele>
        <time>2015-04-25T14:29:36Z</time>
      </trkpt>
      <trkpt lat="45.44027" lon="4.55458">
        <ele>808.04833984375</ele>
        <time>2015-04-25T14:29:38Z</time>
      </trkpt>
      <trkpt lat="45.44028" lon="4.55462">
        <ele>807.99328613281</ele>
        <time>2015-04-25T14:29:40Z</time>
      </trkpt>
      <trkpt lat="45.44031" lon="4.55464">
        <ele>807.68933105469</ele>
        <time>2015-04-25T14:29:42Z</time>
      </trkpt>
      <trkpt lat="45.44033" lon="4.55468">
        <ele>807.47955322266</ele>
        <time>2015-04-25T14:29:45Z</time>
      </trkpt>
      <trkpt lat="45.44033" lon="4.55466">
        <ele>807.50067138672</ele>
        <time>2015-04-25T14:29:49Z</time>
      </trkpt>
      <trkpt lat="45.44034" lon="4.55465">
        <ele>807.37054443359</ele>
        <time>2015-04-25T14:29:51Z</time>
      </trkpt>
      <trkpt lat="45.44036" lon="4.55465">
        <ele>807.16711425781</ele>
        <time>2015-04-25T14:29:54Z</time>
      </trkpt>
      <trkpt lat="45.44036" lon="4.55463">
        <ele>807.1923828125</ele>
        <time>2015-04-25T14:30:06Z</time>
      </trkpt>
      <trkpt lat="45.44035" lon="4.55462">
        <ele>807.30017089844</ele>
        <time>2015-04-25T14:30:08Z</time>
      </trkpt>
      <trkpt lat="45.44036" lon="4.55461">
        <ele>807.16937255859</ele>
        <time>2015-04-25T14:30:13Z</time>
      </trkpt>
      <trkpt lat="45.44037" lon="4.55461">
        <ele>807.00830078125</ele>
        <time>2015-04-25T14:30:24Z</time>
      </trkpt>
      <trkpt lat="45.44038" lon="4.55462">
        <ele>806.89776611328</ele>
        <time>2015-04-25T14:30:27Z</time>
      </trkpt>
      <trkpt lat="45.4404" lon="4.55463">
        <ele>806.78576660156</ele>
        <time>2015-04-25T14:30:29Z</time>
      </trkpt>
      <trkpt lat="45.44041" lon="4.55465">
        <ele>806.68444824219</ele>
        <time>2015-04-25T14:30:31Z</time>
      </trkpt>
      <trkpt lat="45.44041" lon="4.55468">
        <ele>806.63598632812</ele>
        <time>2015-04-25T14:30:33Z</time>
      </trkpt>
      <trkpt lat="45.44041" lon="4.55471">
        <ele>806.71282958984</ele>
        <time>2015-04-25T14:30:35Z</time>
      </trkpt>
      <trkpt lat="45.44044" lon="4.55475">
        <ele>806.44140625</ele>
        <time>2015-04-25T14:30:37Z</time>
      </trkpt>
      <trkpt lat="45.44048" lon="4.55482">
        <ele>806.15057373047</ele>
        <time>2015-04-25T14:30:39Z</time>
      </trkpt>
      <trkpt lat="45.44051" lon="4.5549">
        <ele>806.00128173828</ele>
        <time>2015-04-25T14:30:41Z</time>
      </trkpt>
      <trkpt lat="45.44054" lon="4.55498">
        <ele>805.78527832031</ele>
        <time>2015-04-25T14:30:43Z</time>
      </trkpt>
      <trkpt lat="45.44057" lon="4.55507">
        <ele>805.17218017578</ele>
        <time>2015-04-25T14:30:45Z</time>
      </trkpt>
      <trkpt lat="45.44059" lon="4.55513">
        <ele>804.59014892578</ele>
        <time>2015-04-25T14:30:47Z</time>
      </trkpt>
      <trkpt lat="45.44062" lon="4.55519">
        <ele>804.02551269531</ele>
        <time>2015-04-25T14:30:49Z</time>
      </trkpt>
      <trkpt lat="45.44067" lon="4.55527">
        <ele>803.25842285156</ele>
        <time>2015-04-25T14:30:51Z</time>
      </trkpt>
      <trkpt lat="45.4407" lon="4.55533">
        <ele>802.73498535156</ele>
        <time>2015-04-25T14:30:53Z</time>
      </trkpt>
      <trkpt lat="45.44071" lon="4.55541">
        <ele>802.28265380859</ele>
        <time>2015-04-25T14:30:55Z</time>
      </trkpt>
      <trkpt lat="45.44072" lon="4.55549">
        <ele>801.82574462891</ele>
        <time>2015-04-25T14:30:57Z</time>
      </trkpt>
      <trkpt lat="45.44074" lon="4.55557">
        <ele>801.36889648438</ele>
        <time>2015-04-25T14:30:59Z</time>
      </trkpt>
      <trkpt lat="45.44076" lon="4.55567">
        <ele>800.87451171875</ele>
        <time>2015-04-25T14:31:01Z</time>
      </trkpt>
      <trkpt lat="45.44078" lon="4.55576">
        <ele>800.40496826172</ele>
        <time>2015-04-25T14:31:03Z</time>
      </trkpt>
      <trkpt lat="45.44079" lon="4.55585">
        <ele>799.94708251953</ele>
        <time>2015-04-25T14:31:05Z</time>
      </trkpt>
      <trkpt lat="45.44081" lon="4.55593">
        <ele>798.94616699219</ele>
        <time>2015-04-25T14:31:07Z</time>
      </trkpt>
      <trkpt lat="45.44085" lon="4.55601">
        <ele>797.908203125</ele>
        <time>2015-04-25T14:31:09Z</time>
      </trkpt>
      <trkpt lat="45.44091" lon="4.55606">
        <ele>796.65045166016</ele>
        <time>2015-04-25T14:31:11Z</time>
      </trkpt>
      <trkpt lat="45.44097" lon="4.55611">
        <ele>795.29937744141</ele>
        <time>2015-04-25T14:31:13Z</time>
      </trkpt>
      <trkpt lat="45.44103" lon="4.55617">
        <ele>794.09161376953</ele>
        <time>2015-04-25T14:31:15Z</time>
      </trkpt>
      <trkpt lat="45.44109" lon="4.55623">
        <ele>792.91540527344</ele>
        <time>2015-04-25T14:31:17Z</time>
      </trkpt>
      <trkpt lat="45.44115" lon="4.55628">
        <ele>791.87115478516</ele>
        <time>2015-04-25T14:31:19Z</time>
      </trkpt>
      <trkpt lat="45.44122" lon="4.55633">
        <ele>790.8095703125</ele>
        <time>2015-04-25T14:31:21Z</time>
      </trkpt>
      <trkpt lat="45.4413" lon="4.55639">
        <ele>789.76800537109</ele>
        <time>2015-04-25T14:31:23Z</time>
      </trkpt>
      <trkpt lat="45.44136" lon="4.55647">
        <ele>788.78967285156</ele>
        <time>2015-04-25T14:31:25Z</time>
      </trkpt>
      <trkpt lat="45.44141" lon="4.55656">
        <ele>788.00231933594</ele>
        <time>2015-04-25T14:31:27Z</time>
      </trkpt>
      <trkpt lat="45.44146" lon="4.55663">
        <ele>787.33837890625</ele>
        <time>2015-04-25T14:31:29Z</time>
      </trkpt>
      <trkpt lat="45.44155" lon="4.55675">
        <ele>785.50164794922</ele>
        <time>2015-04-25T14:31:32Z</time>
      </trkpt>
      <trkpt lat="45.4416" lon="4.55681">
        <ele>784.30078125</ele>
        <time>2015-04-25T14:31:34Z</time>
      </trkpt>
      <trkpt lat="45.44164" lon="4.55686">
        <ele>783.52209472656</ele>
        <time>2015-04-25T14:31:36Z</time>
      </trkpt>
      <trkpt lat="45.4417" lon="4.55692">
        <ele>782.18707275391</ele>
        <time>2015-04-25T14:31:38Z</time>
      </trkpt>
      <trkpt lat="45.44175" lon="4.55697">
        <ele>780.59448242188</ele>
        <time>2015-04-25T14:31:40Z</time>
      </trkpt>
      <trkpt lat="45.44182" lon="4.55702">
        <ele>778.90380859375</ele>
        <time>2015-04-25T14:31:42Z</time>
      </trkpt>
      <trkpt lat="45.44189" lon="4.55708">
        <ele>777.25286865234</ele>
        <time>2015-04-25T14:31:44Z</time>
      </trkpt>
      <trkpt lat="45.44195" lon="4.55713">
        <ele>775.78149414062</ele>
        <time>2015-04-25T14:31:46Z</time>
      </trkpt>
      <trkpt lat="45.44201" lon="4.55719">
        <ele>774.49987792969</ele>
        <time>2015-04-25T14:31:48Z</time>
      </trkpt>
      <trkpt lat="45.44206" lon="4.55727">
        <ele>773.12847900391</ele>
        <time>2015-04-25T14:31:50Z</time>
      </trkpt>
      <trkpt lat="45.4421" lon="4.55734">
        <ele>772.05438232422</ele>
        <time>2015-04-25T14:31:52Z</time>
      </trkpt>
      <trkpt lat="45.44212" lon="4.55742">
        <ele>771.19927978516</ele>
        <time>2015-04-25T14:31:54Z</time>
      </trkpt>
      <trkpt lat="45.44217" lon="4.5575">
        <ele>770.17156982422</ele>
        <time>2015-04-25T14:31:56Z</time>
      </trkpt>
      <trkpt lat="45.44221" lon="4.55758">
        <ele>768.92144775391</ele>
        <time>2015-04-25T14:31:58Z</time>
      </trkpt>
      <trkpt lat="45.44226" lon="4.55763">
        <ele>767.95288085938</ele>
        <time>2015-04-25T14:32:00Z</time>
      </trkpt>
      <trkpt lat="45.44231" lon="4.55769">
        <ele>767.13757324219</ele>
        <time>2015-04-25T14:32:02Z</time>
      </trkpt>
      <trkpt lat="45.44236" lon="4.55775">
        <ele>766.38903808594</ele>
        <time>2015-04-25T14:32:04Z</time>
      </trkpt>
      <trkpt lat="45.44242" lon="4.55783">
        <ele>765.59979248047</ele>
        <time>2015-04-25T14:32:06Z</time>
      </trkpt>
      <trkpt lat="45.44246" lon="4.55792">
        <ele>765.03283691406</ele>
        <time>2015-04-25T14:32:08Z</time>
      </trkpt>
      <trkpt lat="45.4425" lon="4.55798">
        <ele>764.65954589844</ele>
        <time>2015-04-25T14:32:10Z</time>
      </trkpt>
      <trkpt lat="45.44255" lon="4.55806">
        <ele>763.73626708984</ele>
        <time>2015-04-25T14:32:12Z</time>
      </trkpt>
      <trkpt lat="45.4426" lon="4.55814">
        <ele>762.82281494141</ele>
        <time>2015-04-25T14:32:14Z</time>
      </trkpt>
      <trkpt lat="45.44265" lon="4.55823">
        <ele>762.07385253906</ele>
        <time>2015-04-25T14:32:16Z</time>
      </trkpt>
      <trkpt lat="45.4427" lon="4.55829">
        <ele>761.38751220703</ele>
        <time>2015-04-25T14:32:18Z</time>
      </trkpt>
      <trkpt lat="45.44276" lon="4.55836">
        <ele>760.59808349609</ele>
        <time>2015-04-25T14:32:20Z</time>
      </trkpt>
      <trkpt lat="45.44279" lon="4.55844">
        <ele>759.69488525391</ele>
        <time>2015-04-25T14:32:22Z</time>
      </trkpt>
      <trkpt lat="45.44284" lon="4.55853">
        <ele>758.78643798828</ele>
        <time>2015-04-25T14:32:24Z</time>
      </trkpt>
      <trkpt lat="45.44287" lon="4.55862">
        <ele>757.99389648438</ele>
        <time>2015-04-25T14:32:26Z</time>
      </trkpt>
      <trkpt lat="45.44291" lon="4.5587">
        <ele>757.35217285156</ele>
        <time>2015-04-25T14:32:28Z</time>
      </trkpt>
      <trkpt lat="45.44295" lon="4.55878">
        <ele>756.7509765625</ele>
        <time>2015-04-25T14:32:30Z</time>
      </trkpt>
      <trkpt lat="45.44299" lon="4.55886">
        <ele>756.30181884766</ele>
        <time>2015-04-25T14:32:32Z</time>
      </trkpt>
      <trkpt lat="45.44304" lon="4.55892">
        <ele>755.98626708984</ele>
        <time>2015-04-25T14:32:34Z</time>
      </trkpt>
      <trkpt lat="45.4431" lon="4.55898">
        <ele>755.78125</ele>
        <time>2015-04-25T14:32:36Z</time>
      </trkpt>
      <trkpt lat="45.44317" lon="4.55903">
        <ele>755.73785400391</ele>
        <time>2015-04-25T14:32:38Z</time>
      </trkpt>
      <trkpt lat="45.44321" lon="4.55907">
        <ele>755.73236083984</ele>
        <time>2015-04-25T14:32:40Z</time>
      </trkpt>
      <trkpt lat="45.44326" lon="4.55912">
        <ele>755.78063964844</ele>
        <time>2015-04-25T14:32:42Z</time>
      </trkpt>
      <trkpt lat="45.44331" lon="4.55918">
        <ele>755.85913085938</ele>
        <time>2015-04-25T14:32:44Z</time>
      </trkpt>
      <trkpt lat="45.44336" lon="4.55924">
        <ele>755.40057373047</ele>
        <time>2015-04-25T14:32:46Z</time>
      </trkpt>
      <trkpt lat="45.44342" lon="4.5593">
        <ele>754.77813720703</ele>
        <time>2015-04-25T14:32:48Z</time>
      </trkpt>
      <trkpt lat="45.44347" lon="4.55936">
        <ele>754.22253417969</ele>
        <time>2015-04-25T14:32:50Z</time>
      </trkpt>
      <trkpt lat="45.44352" lon="4.55942">
        <ele>753.75512695312</ele>
        <time>2015-04-25T14:32:52Z</time>
      </trkpt>
      <trkpt lat="45.4436" lon="4.55949">
        <ele>753.20672607422</ele>
        <time>2015-04-25T14:32:55Z</time>
      </trkpt>
      <trkpt lat="45.44365" lon="4.55955">
        <ele>752.87731933594</ele>
        <time>2015-04-25T14:32:57Z</time>
      </trkpt>
      <trkpt lat="45.4437" lon="4.55958">
        <ele>752.62866210938</ele>
        <time>2015-04-25T14:32:59Z</time>
      </trkpt>
      <trkpt lat="45.44376" lon="4.55962">
        <ele>752.39447021484</ele>
        <time>2015-04-25T14:33:01Z</time>
      </trkpt>
      <trkpt lat="45.44383" lon="4.55965">
        <ele>752.20495605469</ele>
        <time>2015-04-25T14:33:03Z</time>
      </trkpt>
      <trkpt lat="45.4439" lon="4.55967">
        <ele>752.03430175781</ele>
        <time>2015-04-25T14:33:05Z</time>
      </trkpt>
      <trkpt lat="45.44395" lon="4.55969">
        <ele>751.93988037109</ele>
        <time>2015-04-25T14:33:07Z</time>
      </trkpt>
      <trkpt lat="45.44401" lon="4.55972">
        <ele>751.85791015625</ele>
        <time>2015-04-25T14:33:09Z</time>
      </trkpt>
      <trkpt lat="45.44407" lon="4.55975">
        <ele>751.79754638672</ele>
        <time>2015-04-25T14:33:11Z</time>
      </trkpt>
      <trkpt lat="45.44413" lon="4.55977">
        <ele>751.76007080078</ele>
        <time>2015-04-25T14:33:13Z</time>
      </trkpt>
      <trkpt lat="45.44419" lon="4.5598">
        <ele>751.64245605469</ele>
        <time>2015-04-25T14:33:15Z</time>
      </trkpt>
      <trkpt lat="45.44425" lon="4.55982">
        <ele>751.36102294922</ele>
        <time>2015-04-25T14:33:17Z</time>
      </trkpt>
      <trkpt lat="45.44431" lon="4.55984">
        <ele>751.09649658203</ele>
        <time>2015-04-25T14:33:19Z</time>
      </trkpt>
      <trkpt lat="45.44438" lon="4.55986">
        <ele>750.84881591797</ele>
        <time>2015-04-25T14:33:21Z</time>
      </trkpt>
      <trkpt lat="45.44444" lon="4.55988">
        <ele>750.68383789062</ele>
        <time>2015-04-25T14:33:23Z</time>
      </trkpt>
      <trkpt lat="45.4445" lon="4.55991">
        <ele>750.56994628906</ele>
        <time>2015-04-25T14:33:25Z</time>
      </trkpt>
      <trkpt lat="45.44456" lon="4.55992">
        <ele>750.44262695312</ele>
        <time>2015-04-25T14:33:27Z</time>
      </trkpt>
      <trkpt lat="45.44462" lon="4.55994">
        <ele>750.39801025391</ele>
        <time>2015-04-25T14:33:29Z</time>
      </trkpt>
      <trkpt lat="45.44468" lon="4.55996">
        <ele>750.38104248047</ele>
        <time>2015-04-25T14:33:31Z</time>
      </trkpt>
      <trkpt lat="45.44474" lon="4.55997">
        <ele>750.30517578125</ele>
        <time>2015-04-25T14:33:33Z</time>
      </trkpt>
      <trkpt lat="45.4448" lon="4.55999">
        <ele>750.39459228516</ele>
        <time>2015-04-25T14:33:35Z</time>
      </trkpt>
      <trkpt lat="45.44486" lon="4.56002">
        <ele>750.54370117188</ele>
        <time>2015-04-25T14:33:37Z</time>
      </trkpt>
      <trkpt lat="45.44492" lon="4.56004">
        <ele>750.74761962891</ele>
        <time>2015-04-25T14:33:39Z</time>
      </trkpt>
      <trkpt lat="45.44498" lon="4.56006">
        <ele>750.796875</ele>
        <time>2015-04-25T14:33:41Z</time>
      </trkpt>
      <trkpt lat="45.44503" lon="4.56007">
        <ele>750.69787597656</ele>
        <time>2015-04-25T14:33:43Z</time>
      </trkpt>
      <trkpt lat="45.44509" lon="4.56009">
        <ele>750.53338623047</ele>
        <time>2015-04-25T14:33:45Z</time>
      </trkpt>
      <trkpt lat="45.44515" lon="4.56012">
        <ele>750.41577148438</ele>
        <time>2015-04-25T14:33:47Z</time>
      </trkpt>
      <trkpt lat="45.44521" lon="4.56014">
        <ele>750.37219238281</ele>
        <time>2015-04-25T14:33:49Z</time>
      </trkpt>
      <trkpt lat="45.44527" lon="4.56016">
        <ele>750.16412353516</ele>
        <time>2015-04-25T14:33:51Z</time>
      </trkpt>
      <trkpt lat="45.44533" lon="4.56017">
        <ele>749.89495849609</ele>
        <time>2015-04-25T14:33:53Z</time>
      </trkpt>
      <trkpt lat="45.44539" lon="4.56018">
        <ele>749.71789550781</ele>
        <time>2015-04-25T14:33:55Z</time>
      </trkpt>
      <trkpt lat="45.44545" lon="4.56019">
        <ele>749.52020263672</ele>
        <time>2015-04-25T14:33:57Z</time>
      </trkpt>
      <trkpt lat="45.44551" lon="4.56021">
        <ele>749.35290527344</ele>
        <time>2015-04-25T14:33:59Z</time>
      </trkpt>
      <trkpt lat="45.44558" lon="4.56022">
        <ele>749.21868896484</ele>
        <time>2015-04-25T14:34:01Z</time>
      </trkpt>
      <trkpt lat="45.44564" lon="4.56023">
        <ele>749.01092529297</ele>
        <time>2015-04-25T14:34:03Z</time>
      </trkpt>
      <trkpt lat="45.4457" lon="4.56025">
        <ele>748.86315917969</ele>
        <time>2015-04-25T14:34:05Z</time>
      </trkpt>
      <trkpt lat="45.44577" lon="4.56027">
        <ele>748.97662353516</ele>
        <time>2015-04-25T14:34:07Z</time>
      </trkpt>
      <trkpt lat="45.44582" lon="4.56029">
        <ele>749.00885009766</ele>
        <time>2015-04-25T14:34:09Z</time>
      </trkpt>
      <trkpt lat="45.44588" lon="4.5603">
        <ele>748.77502441406</ele>
        <time>2015-04-25T14:34:11Z</time>
      </trkpt>
      <trkpt lat="45.44596" lon="4.56031">
        <ele>748.41394042969</ele>
        <time>2015-04-25T14:34:14Z</time>
      </trkpt>
      <trkpt lat="45.44601" lon="4.56034">
        <ele>748.66973876953</ele>
        <time>2015-04-25T14:34:16Z</time>
      </trkpt>
      <trkpt lat="45.44606" lon="4.56037">
        <ele>748.94152832031</ele>
        <time>2015-04-25T14:34:18Z</time>
      </trkpt>
      <trkpt lat="45.44611" lon="4.56037">
        <ele>748.52954101562</ele>
        <time>2015-04-25T14:34:20Z</time>
      </trkpt>
      <trkpt lat="45.44617" lon="4.56039">
        <ele>748.44024658203</ele>
        <time>2015-04-25T14:34:22Z</time>
      </trkpt>
      <trkpt lat="45.44624" lon="4.56039">
        <ele>748.11755371094</ele>
        <time>2015-04-25T14:34:24Z</time>
      </trkpt>
      <trkpt lat="45.44629" lon="4.56042">
        <ele>748.28747558594</ele>
        <time>2015-04-25T14:34:26Z</time>
      </trkpt>
      <trkpt lat="45.44635" lon="4.56042">
        <ele>747.76220703125</ele>
        <time>2015-04-25T14:34:28Z</time>
      </trkpt>
      <trkpt lat="45.44642" lon="4.5604">
        <ele>747.01489257812</ele>
        <time>2015-04-25T14:34:30Z</time>
      </trkpt>
      <trkpt lat="45.44649" lon="4.56043">
        <ele>747.06353759766</ele>
        <time>2015-04-25T14:34:32Z</time>
      </trkpt>
      <trkpt lat="45.44655" lon="4.56044">
        <ele>746.88671875</ele>
        <time>2015-04-25T14:34:34Z</time>
      </trkpt>
      <trkpt lat="45.44661" lon="4.56045">
        <ele>746.59320068359</ele>
        <time>2015-04-25T14:34:36Z</time>
      </trkpt>
      <trkpt lat="45.44667" lon="4.56048">
        <ele>746.72595214844</ele>
        <time>2015-04-25T14:34:38Z</time>
      </trkpt>
      <trkpt lat="45.44672" lon="4.56051">
        <ele>747.07293701172</ele>
        <time>2015-04-25T14:34:40Z</time>
      </trkpt>
      <trkpt lat="45.44677" lon="4.56054">
        <ele>747.22821044922</ele>
        <time>2015-04-25T14:34:42Z</time>
      </trkpt>
      <trkpt lat="45.44682" lon="4.56057">
        <ele>747.49835205078</ele>
        <time>2015-04-25T14:34:44Z</time>
      </trkpt>
      <trkpt lat="45.44688" lon="4.56059">
        <ele>747.66143798828</ele>
        <time>2015-04-25T14:34:46Z</time>
      </trkpt>
      <trkpt lat="45.44693" lon="4.56062">
        <ele>747.81805419922</ele>
        <time>2015-04-25T14:34:48Z</time>
      </trkpt>
      <trkpt lat="45.44698" lon="4.56064">
        <ele>747.92578125</ele>
        <time>2015-04-25T14:34:50Z</time>
      </trkpt>
      <trkpt lat="45.44703" lon="4.56067">
        <ele>748.13024902344</ele>
        <time>2015-04-25T14:34:52Z</time>
      </trkpt>
      <trkpt lat="45.44707" lon="4.56071">
        <ele>748.52191162109</ele>
        <time>2015-04-25T14:34:54Z</time>
      </trkpt>
      <trkpt lat="45.44712" lon="4.56073">
        <ele>748.69036865234</ele>
        <time>2015-04-25T14:34:56Z</time>
      </trkpt>
      <trkpt lat="45.44717" lon="4.56075">
        <ele>748.791015625</ele>
        <time>2015-04-25T14:34:58Z</time>
      </trkpt>
      <trkpt lat="45.44722" lon="4.56079">
        <ele>749.19604492188</ele>
        <time>2015-04-25T14:35:00Z</time>
      </trkpt>
      <trkpt lat="45.44727" lon="4.56083">
        <ele>749.55944824219</ele>
        <time>2015-04-25T14:35:02Z</time>
      </trkpt>
      <trkpt lat="45.4473" lon="4.56085">
        <ele>749.50506591797</ele>
        <time>2015-04-25T14:35:04Z</time>
      </trkpt>
      <trkpt lat="45.44733" lon="4.56086">
        <ele>749.40655517578</ele>
        <time>2015-04-25T14:35:06Z</time>
      </trkpt>
      <trkpt lat="45.44734" lon="4.56087">
        <ele>749.41625976562</ele>
        <time>2015-04-25T14:35:09Z</time>
      </trkpt>
      <trkpt lat="45.44736" lon="4.56088">
        <ele>749.36987304688</ele>
        <time>2015-04-25T14:35:11Z</time>
      </trkpt>
      <trkpt lat="45.44738" lon="4.56089">
        <ele>749.22436523438</ele>
        <time>2015-04-25T14:35:13Z</time>
      </trkpt>
      <trkpt lat="45.44741" lon="4.56091">
        <ele>749.11962890625</ele>
        <time>2015-04-25T14:35:16Z</time>
      </trkpt>
      <trkpt lat="45.44744" lon="4.56093">
        <ele>749.00933837891</ele>
        <time>2015-04-25T14:35:19Z</time>
      </trkpt>
      <trkpt lat="45.44748" lon="4.56094">
        <ele>748.75109863281</ele>
        <time>2015-04-25T14:35:22Z</time>
      </trkpt>
      <trkpt lat="45.4475" lon="4.56095">
        <ele>748.69995117188</ele>
        <time>2015-04-25T14:35:25Z</time>
      </trkpt>
      <trkpt lat="45.44753" lon="4.56096">
        <ele>748.55218505859</ele>
        <time>2015-04-25T14:35:27Z</time>
      </trkpt>
      <trkpt lat="45.44756" lon="4.56097">
        <ele>748.41625976562</ele>
        <time>2015-04-25T14:35:29Z</time>
      </trkpt>
      <trkpt lat="45.4476" lon="4.56098">
        <ele>748.23858642578</ele>
        <time>2015-04-25T14:35:31Z</time>
      </trkpt>
      <trkpt lat="45.44765" lon="4.561">
        <ele>748.00622558594</ele>
        <time>2015-04-25T14:35:33Z</time>
      </trkpt>
      <trkpt lat="45.44773" lon="4.56101">
        <ele>747.6572265625</ele>
        <time>2015-04-25T14:35:36Z</time>
      </trkpt>
      <trkpt lat="45.44778" lon="4.56102">
        <ele>747.38427734375</ele>
        <time>2015-04-25T14:35:38Z</time>
      </trkpt>
      <trkpt lat="45.44783" lon="4.56102">
        <ele>747.09185791016</ele>
        <time>2015-04-25T14:35:40Z</time>
      </trkpt>
      <trkpt lat="45.4479" lon="4.56102">
        <ele>746.63714599609</ele>
        <time>2015-04-25T14:35:42Z</time>
      </trkpt>
      <trkpt lat="45.44796" lon="4.56103">
        <ele>746.28839111328</ele>
        <time>2015-04-25T14:35:44Z</time>
      </trkpt>
      <trkpt lat="45.44801" lon="4.56104">
        <ele>745.99694824219</ele>
        <time>2015-04-25T14:35:46Z</time>
      </trkpt>
      <trkpt lat="45.44809" lon="4.56105">
        <ele>745.58795166016</ele>
        <time>2015-04-25T14:35:48Z</time>
      </trkpt>
      <trkpt lat="45.44816" lon="4.56108">
        <ele>745.29650878906</ele>
        <time>2015-04-25T14:35:50Z</time>
      </trkpt>
      <trkpt lat="45.44822" lon="4.56113">
        <ele>745.181640625</ele>
        <time>2015-04-25T14:35:52Z</time>
      </trkpt>
      <trkpt lat="45.44827" lon="4.56118">
        <ele>745.08337402344</ele>
        <time>2015-04-25T14:35:54Z</time>
      </trkpt>
      <trkpt lat="45.44833" lon="4.56123">
        <ele>744.96612548828</ele>
        <time>2015-04-25T14:35:56Z</time>
      </trkpt>
      <trkpt lat="45.44838" lon="4.56129">
        <ele>744.84240722656</ele>
        <time>2015-04-25T14:35:58Z</time>
      </trkpt>
      <trkpt lat="45.44843" lon="4.56133">
        <ele>744.68450927734</ele>
        <time>2015-04-25T14:36:00Z</time>
      </trkpt>
      <trkpt lat="45.44847" lon="4.56136">
        <ele>744.544921875</ele>
        <time>2015-04-25T14:36:02Z</time>
      </trkpt>
      <trkpt lat="45.44852" lon="4.5614">
        <ele>744.37097167969</ele>
        <time>2015-04-25T14:36:04Z</time>
      </trkpt>
      <trkpt lat="45.44857" lon="4.56143">
        <ele>744.16723632812</ele>
        <time>2015-04-25T14:36:06Z</time>
      </trkpt>
      <trkpt lat="45.44865" lon="4.56147">
        <ele>743.79187011719</ele>
        <time>2015-04-25T14:36:08Z</time>
      </trkpt>
      <trkpt lat="45.4487" lon="4.5615">
        <ele>743.55615234375</ele>
        <time>2015-04-25T14:36:10Z</time>
      </trkpt>
      <trkpt lat="45.44876" lon="4.56154">
        <ele>743.28601074219</ele>
        <time>2015-04-25T14:36:12Z</time>
      </trkpt>
      <trkpt lat="45.44881" lon="4.56158">
        <ele>743.18530273438</ele>
        <time>2015-04-25T14:36:14Z</time>
      </trkpt>
      <trkpt lat="45.44884" lon="4.56158">
        <ele>742.94274902344</ele>
        <time>2015-04-25T14:36:16Z</time>
      </trkpt>
      <trkpt lat="45.44889" lon="4.5616">
        <ele>742.71838378906</ele>
        <time>2015-04-25T14:36:18Z</time>
      </trkpt>
      <trkpt lat="45.44896" lon="4.56163">
        <ele>742.29956054688</ele>
        <time>2015-04-25T14:36:20Z</time>
      </trkpt>
      <trkpt lat="45.44901" lon="4.56166">
        <ele>742.11877441406</ele>
        <time>2015-04-25T14:36:22Z</time>
      </trkpt>
      <trkpt lat="45.44907" lon="4.56169">
        <ele>741.38012695312</ele>
        <time>2015-04-25T14:36:24Z</time>
      </trkpt>
      <trkpt lat="45.44916" lon="4.56171">
        <ele>740.62445068359</ele>
        <time>2015-04-25T14:36:26Z</time>
      </trkpt>
      <trkpt lat="45.44923" lon="4.56174">
        <ele>739.58251953125</ele>
        <time>2015-04-25T14:36:28Z</time>
      </trkpt>
      <trkpt lat="45.44931" lon="4.56177">
        <ele>738.54486083984</ele>
        <time>2015-04-25T14:36:30Z</time>
      </trkpt>
      <trkpt lat="45.44939" lon="4.56181">
        <ele>737.3125</ele>
        <time>2015-04-25T14:36:32Z</time>
      </trkpt>
      <trkpt lat="45.44945" lon="4.56183">
        <ele>736.53802490234</ele>
        <time>2015-04-25T14:36:34Z</time>
      </trkpt>
      <trkpt lat="45.4495" lon="4.56187">
        <ele>735.76745605469</ele>
        <time>2015-04-25T14:36:36Z</time>
      </trkpt>
      <trkpt lat="45.44957" lon="4.5619">
        <ele>734.89129638672</ele>
        <time>2015-04-25T14:36:38Z</time>
      </trkpt>
      <trkpt lat="45.44963" lon="4.56195">
        <ele>734.01147460938</ele>
        <time>2015-04-25T14:36:40Z</time>
      </trkpt>
      <trkpt lat="45.44971" lon="4.56201">
        <ele>733.00036621094</ele>
        <time>2015-04-25T14:36:42Z</time>
      </trkpt>
      <trkpt lat="45.44978" lon="4.56206">
        <ele>732.18841552734</ele>
        <time>2015-04-25T14:36:44Z</time>
      </trkpt>
      <trkpt lat="45.44984" lon="4.56211">
        <ele>731.49841308594</ele>
        <time>2015-04-25T14:36:46Z</time>
      </trkpt>
      <trkpt lat="45.4499" lon="4.56213">
        <ele>731.01843261719</ele>
        <time>2015-04-25T14:36:48Z</time>
      </trkpt>
      <trkpt lat="45.44995" lon="4.56219">
        <ele>730.42999267578</ele>
        <time>2015-04-25T14:36:50Z</time>
      </trkpt>
      <trkpt lat="45.44999" lon="4.56223">
        <ele>730.0244140625</ele>
        <time>2015-04-25T14:36:53Z</time>
      </trkpt>
      <trkpt lat="45.45002" lon="4.56229">
        <ele>729.64007568359</ele>
        <time>2015-04-25T14:36:55Z</time>
      </trkpt>
      <trkpt lat="45.45011" lon="4.56233">
        <ele>728.79852294922</ele>
        <time>2015-04-25T14:36:58Z</time>
      </trkpt>
      <trkpt lat="45.45024" lon="4.56241">
        <ele>727.4482421875</ele>
        <time>2015-04-25T14:37:00Z</time>
      </trkpt>
      <trkpt lat="45.45035" lon="4.56247">
        <ele>726.22991943359</ele>
        <time>2015-04-25T14:37:02Z</time>
      </trkpt>
      <trkpt lat="45.45043" lon="4.56253">
        <ele>724.82061767578</ele>
        <time>2015-04-25T14:37:04Z</time>
      </trkpt>
      <trkpt lat="45.4505" lon="4.56257">
        <ele>723.33520507812</ele>
        <time>2015-04-25T14:37:06Z</time>
      </trkpt>
      <trkpt lat="45.45057" lon="4.56262">
        <ele>721.81750488281</ele>
        <time>2015-04-25T14:37:08Z</time>
      </trkpt>
      <trkpt lat="45.45064" lon="4.56266">
        <ele>720.62359619141</ele>
        <time>2015-04-25T14:37:10Z</time>
      </trkpt>
      <trkpt lat="45.4507" lon="4.5627">
        <ele>719.40454101562</ele>
        <time>2015-04-25T14:37:12Z</time>
      </trkpt>
      <trkpt lat="45.45077" lon="4.56274">
        <ele>718.07409667969</ele>
        <time>2015-04-25T14:37:14Z</time>
      </trkpt>
      <trkpt lat="45.45083" lon="4.56279">
        <ele>716.84808349609</ele>
        <time>2015-04-25T14:37:16Z</time>
      </trkpt>
      <trkpt lat="45.45089" lon="4.56284">
        <ele>716.31243896484</ele>
        <time>2015-04-25T14:37:18Z</time>
      </trkpt>
      <trkpt lat="45.45094" lon="4.56289">
        <ele>715.52160644531</ele>
        <time>2015-04-25T14:37:20Z</time>
      </trkpt>
      <trkpt lat="45.45098" lon="4.56296">
        <ele>714.70465087891</ele>
        <time>2015-04-25T14:37:22Z</time>
      </trkpt>
      <trkpt lat="45.45102" lon="4.56302">
        <ele>713.84869384766</ele>
        <time>2015-04-25T14:37:24Z</time>
      </trkpt>
      <trkpt lat="45.45107" lon="4.56308">
        <ele>713.07037353516</ele>
        <time>2015-04-25T14:37:26Z</time>
      </trkpt>
      <trkpt lat="45.45112" lon="4.56315">
        <ele>712.31097412109</ele>
        <time>2015-04-25T14:37:28Z</time>
      </trkpt>
      <trkpt lat="45.45115" lon="4.56322">
        <ele>711.12774658203</ele>
        <time>2015-04-25T14:37:30Z</time>
      </trkpt>
      <trkpt lat="45.45119" lon="4.56328">
        <ele>710.45648193359</ele>
        <time>2015-04-25T14:37:32Z</time>
      </trkpt>
      <trkpt lat="45.45122" lon="4.56334">
        <ele>709.61798095703</ele>
        <time>2015-04-25T14:37:34Z</time>
      </trkpt>
      <trkpt lat="45.45128" lon="4.56341">
        <ele>708.17120361328</ele>
        <time>2015-04-25T14:37:36Z</time>
      </trkpt>
      <trkpt lat="45.45134" lon="4.56348">
        <ele>706.81896972656</ele>
        <time>2015-04-25T14:37:38Z</time>
      </trkpt>
      <trkpt lat="45.45139" lon="4.56358">
        <ele>704.68914794922</ele>
        <time>2015-04-25T14:37:40Z</time>
      </trkpt>
      <trkpt lat="45.45144" lon="4.56364">
        <ele>703.26129150391</ele>
        <time>2015-04-25T14:37:42Z</time>
      </trkpt>
      <trkpt lat="45.4515" lon="4.56373">
        <ele>701.40368652344</ele>
        <time>2015-04-25T14:37:44Z</time>
      </trkpt>
      <trkpt lat="45.45156" lon="4.56376">
        <ele>700.98260498047</ele>
        <time>2015-04-25T14:37:46Z</time>
      </trkpt>
      <trkpt lat="45.45161" lon="4.56379">
        <ele>700.49334716797</ele>
        <time>2015-04-25T14:37:48Z</time>
      </trkpt>
      <trkpt lat="45.45168" lon="4.56383">
        <ele>699.80023193359</ele>
        <time>2015-04-25T14:37:50Z</time>
      </trkpt>
      <trkpt lat="45.45177" lon="4.56385">
        <ele>698.76568603516</ele>
        <time>2015-04-25T14:37:52Z</time>
      </trkpt>
      <trkpt lat="45.45183" lon="4.56387">
        <ele>697.71966552734</ele>
        <time>2015-04-25T14:37:54Z</time>
      </trkpt>
      <trkpt lat="45.45187" lon="4.56391">
        <ele>696.3349609375</ele>
        <time>2015-04-25T14:37:56Z</time>
      </trkpt>
      <trkpt lat="45.45191" lon="4.56397">
        <ele>694.52679443359</ele>
        <time>2015-04-25T14:37:58Z</time>
      </trkpt>
      <trkpt lat="45.45195" lon="4.56398">
        <ele>693.7314453125</ele>
        <time>2015-04-25T14:38:00Z</time>
      </trkpt>
      <trkpt lat="45.45201" lon="4.56401">
        <ele>692.70257568359</ele>
        <time>2015-04-25T14:38:02Z</time>
      </trkpt>
      <trkpt lat="45.45207" lon="4.56402">
        <ele>691.84997558594</ele>
        <time>2015-04-25T14:38:04Z</time>
      </trkpt>
      <trkpt lat="45.45214" lon="4.56405">
        <ele>690.75134277344</ele>
        <time>2015-04-25T14:38:06Z</time>
      </trkpt>
      <trkpt lat="45.45221" lon="4.56406">
        <ele>689.74890136719</ele>
        <time>2015-04-25T14:38:08Z</time>
      </trkpt>
      <trkpt lat="45.45226" lon="4.5641">
        <ele>688.54840087891</ele>
        <time>2015-04-25T14:38:10Z</time>
      </trkpt>
      <trkpt lat="45.45231" lon="4.56414">
        <ele>687.13616943359</ele>
        <time>2015-04-25T14:38:12Z</time>
      </trkpt>
      <trkpt lat="45.45237" lon="4.56414">
        <ele>686.58569335938</ele>
        <time>2015-04-25T14:38:14Z</time>
      </trkpt>
      <trkpt lat="45.45243" lon="4.56416">
        <ele>685.80407714844</ele>
        <time>2015-04-25T14:38:16Z</time>
      </trkpt>
      <trkpt lat="45.45253" lon="4.56417">
        <ele>684.48602294922</ele>
        <time>2015-04-25T14:38:18Z</time>
      </trkpt>
      <trkpt lat="45.45264" lon="4.56417">
        <ele>682.91955566406</ele>
        <time>2015-04-25T14:38:20Z</time>
      </trkpt>
      <trkpt lat="45.45271" lon="4.56415">
        <ele>682.25109863281</ele>
        <time>2015-04-25T14:38:22Z</time>
      </trkpt>
      <trkpt lat="45.45281" lon="4.56415">
        <ele>680.88018798828</ele>
        <time>2015-04-25T14:38:24Z</time>
      </trkpt>
      <trkpt lat="45.45291" lon="4.56415">
        <ele>679.54650878906</ele>
        <time>2015-04-25T14:38:26Z</time>
      </trkpt>
      <trkpt lat="45.45298" lon="4.56413">
        <ele>678.86920166016</ele>
        <time>2015-04-25T14:38:28Z</time>
      </trkpt>
      <trkpt lat="45.45305" lon="4.56412">
        <ele>678.00231933594</ele>
        <time>2015-04-25T14:38:30Z</time>
      </trkpt>
      <trkpt lat="45.45311" lon="4.56411">
        <ele>677.41778564453</ele>
        <time>2015-04-25T14:38:32Z</time>
      </trkpt>
      <trkpt lat="45.45316" lon="4.56409">
        <ele>676.77734375</ele>
        <time>2015-04-25T14:38:34Z</time>
      </trkpt>
      <trkpt lat="45.45322" lon="4.56408">
        <ele>676.10150146484</ele>
        <time>2015-04-25T14:38:36Z</time>
      </trkpt>
      <trkpt lat="45.4533" lon="4.56409">
        <ele>674.75122070312</ele>
        <time>2015-04-25T14:38:38Z</time>
      </trkpt>
      <trkpt lat="45.45336" lon="4.56411">
        <ele>673.38458251953</ele>
        <time>2015-04-25T14:38:40Z</time>
      </trkpt>
      <trkpt lat="45.4534" lon="4.56414">
        <ele>672.26031494141</ele>
        <time>2015-04-25T14:38:42Z</time>
      </trkpt>
      <trkpt lat="45.45346" lon="4.56417">
        <ele>671.04443359375</ele>
        <time>2015-04-25T14:38:44Z</time>
      </trkpt>
      <trkpt lat="45.45353" lon="4.5642">
        <ele>669.34875488281</ele>
        <time>2015-04-25T14:38:46Z</time>
      </trkpt>
      <trkpt lat="45.45358" lon="4.56421">
        <ele>668.23107910156</ele>
        <time>2015-04-25T14:38:48Z</time>
      </trkpt>
      <trkpt lat="45.45364" lon="4.56423">
        <ele>666.93109130859</ele>
        <time>2015-04-25T14:38:50Z</time>
      </trkpt>
      <trkpt lat="45.45372" lon="4.56426">
        <ele>665.16625976562</ele>
        <time>2015-04-25T14:38:52Z</time>
      </trkpt>
      <trkpt lat="45.4538" lon="4.56431">
        <ele>663.173828125</ele>
        <time>2015-04-25T14:38:54Z</time>
      </trkpt>
      <trkpt lat="45.45387" lon="4.56434">
        <ele>661.63250732422</ele>
        <time>2015-04-25T14:38:56Z</time>
      </trkpt>
      <trkpt lat="45.45396" lon="4.56438">
        <ele>659.62060546875</ele>
        <time>2015-04-25T14:38:58Z</time>
      </trkpt>
      <trkpt lat="45.45403" lon="4.56442">
        <ele>658.09368896484</ele>
        <time>2015-04-25T14:39:00Z</time>
      </trkpt>
      <trkpt lat="45.45411" lon="4.56446">
        <ele>656.59686279297</ele>
        <time>2015-04-25T14:39:02Z</time>
      </trkpt>
      <trkpt lat="45.45417" lon="4.56448">
        <ele>655.46173095703</ele>
        <time>2015-04-25T14:39:04Z</time>
      </trkpt>
      <trkpt lat="45.45424" lon="4.5645">
        <ele>654.51794433594</ele>
        <time>2015-04-25T14:39:06Z</time>
      </trkpt>
      <trkpt lat="45.4543" lon="4.56453">
        <ele>653.60900878906</ele>
        <time>2015-04-25T14:39:08Z</time>
      </trkpt>
      <trkpt lat="45.45435" lon="4.56457">
        <ele>652.66442871094</ele>
        <time>2015-04-25T14:39:10Z</time>
      </trkpt>
      <trkpt lat="45.4544" lon="4.56461">
        <ele>651.90869140625</ele>
        <time>2015-04-25T14:39:12Z</time>
      </trkpt>
      <trkpt lat="45.45445" lon="4.56464">
        <ele>651.19171142578</ele>
        <time>2015-04-25T14:39:14Z</time>
      </trkpt>
      <trkpt lat="45.45451" lon="4.56468">
        <ele>650.45648193359</ele>
        <time>2015-04-25T14:39:16Z</time>
      </trkpt>
      <trkpt lat="45.45457" lon="4.56471">
        <ele>649.77374267578</ele>
        <time>2015-04-25T14:39:18Z</time>
      </trkpt>
      <trkpt lat="45.45465" lon="4.56475">
        <ele>649.1162109375</ele>
        <time>2015-04-25T14:39:20Z</time>
      </trkpt>
      <trkpt lat="45.45472" lon="4.56479">
        <ele>648.55090332031</ele>
        <time>2015-04-25T14:39:22Z</time>
      </trkpt>
      <trkpt lat="45.45478" lon="4.56482">
        <ele>648.13031005859</ele>
        <time>2015-04-25T14:39:24Z</time>
      </trkpt>
      <trkpt lat="45.45483" lon="4.56486">
        <ele>647.74682617188</ele>
        <time>2015-04-25T14:39:26Z</time>
      </trkpt>
      <trkpt lat="45.4549" lon="4.5649">
        <ele>647.404296875</ele>
        <time>2015-04-25T14:39:28Z</time>
      </trkpt>
      <trkpt lat="45.45496" lon="4.56494">
        <ele>647.15307617188</ele>
        <time>2015-04-25T14:39:30Z</time>
      </trkpt>
      <trkpt lat="45.45502" lon="4.56498">
        <ele>646.89581298828</ele>
        <time>2015-04-25T14:39:32Z</time>
      </trkpt>
      <trkpt lat="45.45509" lon="4.56503">
        <ele>646.51190185547</ele>
        <time>2015-04-25T14:39:34Z</time>
      </trkpt>
      <trkpt lat="45.45515" lon="4.56507">
        <ele>646.21343994141</ele>
        <time>2015-04-25T14:39:36Z</time>
      </trkpt>
      <trkpt lat="45.45521" lon="4.56512">
        <ele>645.98864746094</ele>
        <time>2015-04-25T14:39:38Z</time>
      </trkpt>
      <trkpt lat="45.45527" lon="4.56512">
        <ele>645.79528808594</ele>
        <time>2015-04-25T14:39:40Z</time>
      </trkpt>
      <trkpt lat="45.45532" lon="4.56509">
        <ele>645.58160400391</ele>
        <time>2015-04-25T14:39:42Z</time>
      </trkpt>
      <trkpt lat="45.45536" lon="4.56503">
        <ele>645.31774902344</ele>
        <time>2015-04-25T14:39:44Z</time>
      </trkpt>
      <trkpt lat="45.45539" lon="4.56494">
        <ele>644.87036132812</ele>
        <time>2015-04-25T14:39:46Z</time>
      </trkpt>
      <trkpt lat="45.45541" lon="4.56486">
        <ele>644.36267089844</ele>
        <time>2015-04-25T14:39:48Z</time>
      </trkpt>
      <trkpt lat="45.45544" lon="4.56479">
        <ele>643.79437255859</ele>
        <time>2015-04-25T14:39:50Z</time>
      </trkpt>
      <trkpt lat="45.45546" lon="4.56471">
        <ele>643.17095947266</ele>
        <time>2015-04-25T14:39:52Z</time>
      </trkpt>
      <trkpt lat="45.45548" lon="4.56464">
        <ele>642.64239501953</ele>
        <time>2015-04-25T14:39:54Z</time>
      </trkpt>
      <trkpt lat="45.45549" lon="4.56456">
        <ele>642.06976318359</ele>
        <time>2015-04-25T14:39:56Z</time>
      </trkpt>
      <trkpt lat="45.45551" lon="4.56447">
        <ele>641.32312011719</ele>
        <time>2015-04-25T14:39:58Z</time>
      </trkpt>
      <trkpt lat="45.45553" lon="4.56438">
        <ele>640.45928955078</ele>
        <time>2015-04-25T14:40:00Z</time>
      </trkpt>
      <trkpt lat="45.45557" lon="4.56431">
        <ele>639.36950683594</ele>
        <time>2015-04-25T14:40:02Z</time>
      </trkpt>
      <trkpt lat="45.45561" lon="4.56427">
        <ele>638.48059082031</ele>
        <time>2015-04-25T14:40:04Z</time>
      </trkpt>
      <trkpt lat="45.45567" lon="4.56421">
        <ele>637.19689941406</ele>
        <time>2015-04-25T14:40:06Z</time>
      </trkpt>
      <trkpt lat="45.4557" lon="4.56414">
        <ele>636.01062011719</ele>
        <time>2015-04-25T14:40:08Z</time>
      </trkpt>
      <trkpt lat="45.45572" lon="4.56407">
        <ele>635.18890380859</ele>
        <time>2015-04-25T14:40:10Z</time>
      </trkpt>
      <trkpt lat="45.45573" lon="4.56399">
        <ele>634.4638671875</ele>
        <time>2015-04-25T14:40:12Z</time>
      </trkpt>
      <trkpt lat="45.45574" lon="4.56393">
        <ele>633.82580566406</ele>
        <time>2015-04-25T14:40:14Z</time>
      </trkpt>
      <trkpt lat="45.45575" lon="4.56386">
        <ele>633.03668212891</ele>
        <time>2015-04-25T14:40:16Z</time>
      </trkpt>
      <trkpt lat="45.45576" lon="4.56379">
        <ele>632.26538085938</ele>
        <time>2015-04-25T14:40:18Z</time>
      </trkpt>
      <trkpt lat="45.45577" lon="4.5637">
        <ele>631.45544433594</ele>
        <time>2015-04-25T14:40:20Z</time>
      </trkpt>
      <trkpt lat="45.45577" lon="4.56363">
        <ele>630.91607666016</ele>
        <time>2015-04-25T14:40:22Z</time>
      </trkpt>
      <trkpt lat="45.45576" lon="4.56354">
        <ele>630.42364501953</ele>
        <time>2015-04-25T14:40:24Z</time>
      </trkpt>
      <trkpt lat="45.45576" lon="4.56344">
        <ele>629.6591796875</ele>
        <time>2015-04-25T14:40:26Z</time>
      </trkpt>
      <trkpt lat="45.45576" lon="4.56332">
        <ele>628.84246826172</ele>
        <time>2015-04-25T14:40:28Z</time>
      </trkpt>
      <trkpt lat="45.45577" lon="4.56322">
        <ele>628.79138183594</ele>
        <time>2015-04-25T14:40:30Z</time>
      </trkpt>
      <trkpt lat="45.4558" lon="4.56314">
        <ele>628.11999511719</ele>
        <time>2015-04-25T14:40:32Z</time>
      </trkpt>
      <trkpt lat="45.45584" lon="4.56304">
        <ele>627.26550292969</ele>
        <time>2015-04-25T14:40:34Z</time>
      </trkpt>
      <trkpt lat="45.45588" lon="4.56295">
        <ele>626.40179443359</ele>
        <time>2015-04-25T14:40:36Z</time>
      </trkpt>
      <trkpt lat="45.45592" lon="4.56287">
        <ele>625.55029296875</ele>
        <time>2015-04-25T14:40:38Z</time>
      </trkpt>
      <trkpt lat="45.45595" lon="4.56279">
        <ele>624.73132324219</ele>
        <time>2015-04-25T14:40:40Z</time>
      </trkpt>
      <trkpt lat="45.45599" lon="4.56273">
        <ele>623.66961669922</ele>
        <time>2015-04-25T14:40:42Z</time>
      </trkpt>
      <trkpt lat="45.45603" lon="4.56267">
        <ele>622.75482177734</ele>
        <time>2015-04-25T14:40:44Z</time>
      </trkpt>
      <trkpt lat="45.45605" lon="4.56257">
        <ele>622.07025146484</ele>
        <time>2015-04-25T14:40:46Z</time>
      </trkpt>
      <trkpt lat="45.45607" lon="4.56248">
        <ele>621.45745849609</ele>
        <time>2015-04-25T14:40:48Z</time>
      </trkpt>
      <trkpt lat="45.4561" lon="4.56239">
        <ele>621.04620361328</ele>
        <time>2015-04-25T14:40:50Z</time>
      </trkpt>
      <trkpt lat="45.45613" lon="4.56228">
        <ele>620.64947509766</ele>
        <time>2015-04-25T14:40:52Z</time>
      </trkpt>
      <trkpt lat="45.45615" lon="4.56219">
        <ele>620.42596435547</ele>
        <time>2015-04-25T14:40:54Z</time>
      </trkpt>
      <trkpt lat="45.45618" lon="4.56211">
        <ele>619.80554199219</ele>
        <time>2015-04-25T14:40:56Z</time>
      </trkpt>
      <trkpt lat="45.4562" lon="4.56206">
        <ele>619.193359375</ele>
        <time>2015-04-25T14:40:58Z</time>
      </trkpt>
      <trkpt lat="45.45627" lon="4.56195">
        <ele>617.58660888672</ele>
        <time>2015-04-25T14:41:01Z</time>
      </trkpt>
      <trkpt lat="45.4563" lon="4.56186">
        <ele>616.93176269531</ele>
        <time>2015-04-25T14:41:03Z</time>
      </trkpt>
      <trkpt lat="45.45633" lon="4.5618">
        <ele>616.06085205078</ele>
        <time>2015-04-25T14:41:05Z</time>
      </trkpt>
      <trkpt lat="45.45636" lon="4.56171">
        <ele>615.34484863281</ele>
        <time>2015-04-25T14:41:07Z</time>
      </trkpt>
      <trkpt lat="45.45638" lon="4.56163">
        <ele>615.1787109375</ele>
        <time>2015-04-25T14:41:09Z</time>
      </trkpt>
      <trkpt lat="45.4564" lon="4.56154">
        <ele>614.63299560547</ele>
        <time>2015-04-25T14:41:11Z</time>
      </trkpt>
      <trkpt lat="45.45643" lon="4.56146">
        <ele>613.72729492188</ele>
        <time>2015-04-25T14:41:13Z</time>
      </trkpt>
      <trkpt lat="45.45646" lon="4.56138">
        <ele>613.07623291016</ele>
        <time>2015-04-25T14:41:15Z</time>
      </trkpt>
      <trkpt lat="45.45649" lon="4.5613">
        <ele>612.1904296875</ele>
        <time>2015-04-25T14:41:17Z</time>
      </trkpt>
      <trkpt lat="45.45652" lon="4.56122">
        <ele>611.66320800781</ele>
        <time>2015-04-25T14:41:19Z</time>
      </trkpt>
      <trkpt lat="45.45656" lon="4.56115">
        <ele>610.54248046875</ele>
        <time>2015-04-25T14:41:21Z</time>
      </trkpt>
      <trkpt lat="45.45658" lon="4.56107">
        <ele>610.02777099609</ele>
        <time>2015-04-25T14:41:23Z</time>
      </trkpt>
      <trkpt lat="45.45662" lon="4.56099">
        <ele>609.06823730469</ele>
        <time>2015-04-25T14:41:25Z</time>
      </trkpt>
      <trkpt lat="45.45667" lon="4.5609">
        <ele>607.87707519531</ele>
        <time>2015-04-25T14:41:27Z</time>
      </trkpt>
      <trkpt lat="45.4567" lon="4.56084">
        <ele>606.86236572266</ele>
        <time>2015-04-25T14:41:29Z</time>
      </trkpt>
      <trkpt lat="45.45673" lon="4.56079">
        <ele>605.31140136719</ele>
        <time>2015-04-25T14:41:31Z</time>
      </trkpt>
      <trkpt lat="45.45673" lon="4.56069">
        <ele>604.33819580078</ele>
        <time>2015-04-25T14:41:33Z</time>
      </trkpt>
      <trkpt lat="45.45673" lon="4.56061">
        <ele>603.47424316406</ele>
        <time>2015-04-25T14:41:35Z</time>
      </trkpt>
      <trkpt lat="45.45674" lon="4.56052">
        <ele>602.47064208984</ele>
        <time>2015-04-25T14:41:37Z</time>
      </trkpt>
      <trkpt lat="45.45676" lon="4.56043">
        <ele>600.87634277344</ele>
        <time>2015-04-25T14:41:39Z</time>
      </trkpt>
      <trkpt lat="45.45678" lon="4.56032">
        <ele>599.33001708984</ele>
        <time>2015-04-25T14:41:41Z</time>
      </trkpt>
      <trkpt lat="45.45681" lon="4.56022">
        <ele>597.74560546875</ele>
        <time>2015-04-25T14:41:43Z</time>
      </trkpt>
      <trkpt lat="45.45685" lon="4.56014">
        <ele>595.92901611328</ele>
        <time>2015-04-25T14:41:45Z</time>
      </trkpt>
      <trkpt lat="45.45687" lon="4.56005">
        <ele>594.82824707031</ele>
        <time>2015-04-25T14:41:47Z</time>
      </trkpt>
      <trkpt lat="45.45688" lon="4.55996">
        <ele>593.96118164062</ele>
        <time>2015-04-25T14:41:49Z</time>
      </trkpt>
      <trkpt lat="45.45691" lon="4.55987">
        <ele>592.75433349609</ele>
        <time>2015-04-25T14:41:51Z</time>
      </trkpt>
      <trkpt lat="45.45693" lon="4.55978">
        <ele>591.66662597656</ele>
        <time>2015-04-25T14:41:53Z</time>
      </trkpt>
      <trkpt lat="45.45695" lon="4.55969">
        <ele>590.52355957031</ele>
        <time>2015-04-25T14:41:55Z</time>
      </trkpt>
      <trkpt lat="45.45696" lon="4.55961">
        <ele>589.79388427734</ele>
        <time>2015-04-25T14:41:57Z</time>
      </trkpt>
      <trkpt lat="45.45698" lon="4.55952">
        <ele>588.80078125</ele>
        <time>2015-04-25T14:41:59Z</time>
      </trkpt>
      <trkpt lat="45.45701" lon="4.55942">
        <ele>587.49029541016</ele>
        <time>2015-04-25T14:42:01Z</time>
      </trkpt>
      <trkpt lat="45.45702" lon="4.55932">
        <ele>586.54455566406</ele>
        <time>2015-04-25T14:42:03Z</time>
      </trkpt>
      <trkpt lat="45.45701" lon="4.55924">
        <ele>586.556640625</ele>
        <time>2015-04-25T14:42:05Z</time>
      </trkpt>
      <trkpt lat="45.457" lon="4.55916">
        <ele>586.45245361328</ele>
        <time>2015-04-25T14:42:07Z</time>
      </trkpt>
      <trkpt lat="45.457" lon="4.55907">
        <ele>585.98590087891</ele>
        <time>2015-04-25T14:42:09Z</time>
      </trkpt>
      <trkpt lat="45.45701" lon="4.55899">
        <ele>585.33770751953</ele>
        <time>2015-04-25T14:42:11Z</time>
      </trkpt>
      <trkpt lat="45.45704" lon="4.55891">
        <ele>584.37396240234</ele>
        <time>2015-04-25T14:42:13Z</time>
      </trkpt>
      <trkpt lat="45.45707" lon="4.55882">
        <ele>583.38146972656</ele>
        <time>2015-04-25T14:42:15Z</time>
      </trkpt>
      <trkpt lat="45.4571" lon="4.55871">
        <ele>582.25616455078</ele>
        <time>2015-04-25T14:42:17Z</time>
      </trkpt>
      <trkpt lat="45.45712" lon="4.55862">
        <ele>581.49096679688</ele>
        <time>2015-04-25T14:42:19Z</time>
      </trkpt>
      <trkpt lat="45.45715" lon="4.55852">
        <ele>580.78637695312</ele>
        <time>2015-04-25T14:42:21Z</time>
      </trkpt>
      <trkpt lat="45.45716" lon="4.55843">
        <ele>580.21612548828</ele>
        <time>2015-04-25T14:42:23Z</time>
      </trkpt>
      <trkpt lat="45.45719" lon="4.55833">
        <ele>579.53173828125</ele>
        <time>2015-04-25T14:42:25Z</time>
      </trkpt>
      <trkpt lat="45.45722" lon="4.55825">
        <ele>578.5537109375</ele>
        <time>2015-04-25T14:42:27Z</time>
      </trkpt>
      <trkpt lat="45.45724" lon="4.55816">
        <ele>577.67449951172</ele>
        <time>2015-04-25T14:42:29Z</time>
      </trkpt>
      <trkpt lat="45.45725" lon="4.55807">
        <ele>577.04815673828</ele>
        <time>2015-04-25T14:42:31Z</time>
      </trkpt>
      <trkpt lat="45.45726" lon="4.55798">
        <ele>576.46228027344</ele>
        <time>2015-04-25T14:42:33Z</time>
      </trkpt>
      <trkpt lat="45.45727" lon="4.55789">
        <ele>575.96563720703</ele>
        <time>2015-04-25T14:42:35Z</time>
      </trkpt>
      <trkpt lat="45.45726" lon="4.55781">
        <ele>575.59674072266</ele>
        <time>2015-04-25T14:42:37Z</time>
      </trkpt>
      <trkpt lat="45.45728" lon="4.55773">
        <ele>575.12060546875</ele>
        <time>2015-04-25T14:42:39Z</time>
      </trkpt>
      <trkpt lat="45.4573" lon="4.55765">
        <ele>574.65399169922</ele>
        <time>2015-04-25T14:42:41Z</time>
      </trkpt>
      <trkpt lat="45.45732" lon="4.55757">
        <ele>574.27770996094</ele>
        <time>2015-04-25T14:42:43Z</time>
      </trkpt>
      <trkpt lat="45.45735" lon="4.55749">
        <ele>573.87579345703</ele>
        <time>2015-04-25T14:42:45Z</time>
      </trkpt>
      <trkpt lat="45.45739" lon="4.5574">
        <ele>573.01452636719</ele>
        <time>2015-04-25T14:42:47Z</time>
      </trkpt>
      <trkpt lat="45.45743" lon="4.55734">
        <ele>572.490234375</ele>
        <time>2015-04-25T14:42:49Z</time>
      </trkpt>
      <trkpt lat="45.45747" lon="4.55726">
        <ele>571.9443359375</ele>
        <time>2015-04-25T14:42:51Z</time>
      </trkpt>
      <trkpt lat="45.45752" lon="4.55719">
        <ele>571.18896484375</ele>
        <time>2015-04-25T14:42:53Z</time>
      </trkpt>
      <trkpt lat="45.45756" lon="4.55712">
        <ele>570.15747070312</ele>
        <time>2015-04-25T14:42:55Z</time>
      </trkpt>
      <trkpt lat="45.45761" lon="4.55703">
        <ele>569.10272216797</ele>
        <time>2015-04-25T14:42:57Z</time>
      </trkpt>
      <trkpt lat="45.45766" lon="4.55697">
        <ele>568.41613769531</ele>
        <time>2015-04-25T14:42:59Z</time>
      </trkpt>
      <trkpt lat="45.45773" lon="4.55692">
        <ele>567.70574951172</ele>
        <time>2015-04-25T14:43:01Z</time>
      </trkpt>
      <trkpt lat="45.45778" lon="4.55688">
        <ele>567.26501464844</ele>
        <time>2015-04-25T14:43:03Z</time>
      </trkpt>
      <trkpt lat="45.45784" lon="4.55685">
        <ele>566.89410400391</ele>
        <time>2015-04-25T14:43:05Z</time>
      </trkpt>
      <trkpt lat="45.45789" lon="4.5568">
        <ele>566.58959960938</ele>
        <time>2015-04-25T14:43:07Z</time>
      </trkpt>
      <trkpt lat="45.45794" lon="4.55676">
        <ele>566.42926025391</ele>
        <time>2015-04-25T14:43:09Z</time>
      </trkpt>
      <trkpt lat="45.45799" lon="4.5567">
        <ele>566.36199951172</ele>
        <time>2015-04-25T14:43:11Z</time>
      </trkpt>
      <trkpt lat="45.45804" lon="4.55665">
        <ele>566.23645019531</ele>
        <time>2015-04-25T14:43:13Z</time>
      </trkpt>
      <trkpt lat="45.45809" lon="4.55659">
        <ele>565.89270019531</ele>
        <time>2015-04-25T14:43:15Z</time>
      </trkpt>
      <trkpt lat="45.45815" lon="4.55653">
        <ele>565.54144287109</ele>
        <time>2015-04-25T14:43:17Z</time>
      </trkpt>
      <trkpt lat="45.45819" lon="4.55646">
        <ele>565.30114746094</ele>
        <time>2015-04-25T14:43:19Z</time>
      </trkpt>
      <trkpt lat="45.45824" lon="4.5564">
        <ele>565.14135742188</ele>
        <time>2015-04-25T14:43:21Z</time>
      </trkpt>
      <trkpt lat="45.45828" lon="4.55632">
        <ele>564.99383544922</ele>
        <time>2015-04-25T14:43:23Z</time>
      </trkpt>
      <trkpt lat="45.45833" lon="4.55625">
        <ele>564.97418212891</ele>
        <time>2015-04-25T14:43:25Z</time>
      </trkpt>
      <trkpt lat="45.45838" lon="4.55618">
        <ele>564.20477294922</ele>
        <time>2015-04-25T14:43:27Z</time>
      </trkpt>
      <trkpt lat="45.45842" lon="4.55613">
        <ele>563.55303955078</ele>
        <time>2015-04-25T14:43:29Z</time>
      </trkpt>
      <trkpt lat="45.45847" lon="4.55608">
        <ele>562.89959716797</ele>
        <time>2015-04-25T14:43:31Z</time>
      </trkpt>
      <trkpt lat="45.45852" lon="4.55602">
        <ele>562.21661376953</ele>
        <time>2015-04-25T14:43:33Z</time>
      </trkpt>
      <trkpt lat="45.45857" lon="4.55599">
        <ele>561.59722900391</ele>
        <time>2015-04-25T14:43:35Z</time>
      </trkpt>
      <trkpt lat="45.45862" lon="4.55592">
        <ele>561.14739990234</ele>
        <time>2015-04-25T14:43:37Z</time>
      </trkpt>
      <trkpt lat="45.45865" lon="4.55585">
        <ele>560.89874267578</ele>
        <time>2015-04-25T14:43:39Z</time>
      </trkpt>
      <trkpt lat="45.45868" lon="4.55578">
        <ele>560.45697021484</ele>
        <time>2015-04-25T14:43:41Z</time>
      </trkpt>
      <trkpt lat="45.45871" lon="4.55566">
        <ele>559.7197265625</ele>
        <time>2015-04-25T14:43:44Z</time>
      </trkpt>
      <trkpt lat="45.45873" lon="4.55559">
        <ele>559.36614990234</ele>
        <time>2015-04-25T14:43:46Z</time>
      </trkpt>
      <trkpt lat="45.45875" lon="4.5555">
        <ele>559.00860595703</ele>
        <time>2015-04-25T14:43:48Z</time>
      </trkpt>
      <trkpt lat="45.45879" lon="4.55545">
        <ele>558.75152587891</ele>
        <time>2015-04-25T14:43:50Z</time>
      </trkpt>
      <trkpt lat="45.45882" lon="4.55538">
        <ele>558.56463623047</ele>
        <time>2015-04-25T14:43:52Z</time>
      </trkpt>
      <trkpt lat="45.45886" lon="4.55531">
        <ele>558.45434570312</ele>
        <time>2015-04-25T14:43:54Z</time>
      </trkpt>
      <trkpt lat="45.4589" lon="4.55526">
        <ele>558.45452880859</ele>
        <time>2015-04-25T14:43:56Z</time>
      </trkpt>
      <trkpt lat="45.45895" lon="4.55521">
        <ele>558.54931640625</ele>
        <time>2015-04-25T14:43:58Z</time>
      </trkpt>
      <trkpt lat="45.459" lon="4.55518">
        <ele>558.71154785156</ele>
        <time>2015-04-25T14:44:00Z</time>
      </trkpt>
      <trkpt lat="45.45906" lon="4.55515">
        <ele>558.92938232422</ele>
        <time>2015-04-25T14:44:02Z</time>
      </trkpt>
      <trkpt lat="45.45913" lon="4.55513">
        <ele>559.21771240234</ele>
        <time>2015-04-25T14:44:04Z</time>
      </trkpt>
      <trkpt lat="45.45918" lon="4.55513">
        <ele>559.17028808594</ele>
        <time>2015-04-25T14:44:06Z</time>
      </trkpt>
      <trkpt lat="45.45923" lon="4.55515">
        <ele>558.17077636719</ele>
        <time>2015-04-25T14:44:08Z</time>
      </trkpt>
      <trkpt lat="45.45928" lon="4.55519">
        <ele>557.03234863281</ele>
        <time>2015-04-25T14:44:10Z</time>
      </trkpt>
      <trkpt lat="45.45931" lon="4.5552">
        <ele>556.33850097656</ele>
        <time>2015-04-25T14:44:13Z</time>
      </trkpt>
      <trkpt lat="45.4593" lon="4.55522">
        <ele>556.50256347656</ele>
        <time>2015-04-25T14:44:37Z</time>
      </trkpt>
      <trkpt lat="45.4593" lon="4.55519">
        <ele>556.61022949219</ele>
        <time>2015-04-25T14:44:41Z</time>
      </trkpt>
      <trkpt lat="45.45932" lon="4.55514">
        <ele>556.48474121094</ele>
        <time>2015-04-25T14:44:43Z</time>
      </trkpt>
      <trkpt lat="45.45935" lon="4.55509">
        <ele>556.28063964844</ele>
        <time>2015-04-25T14:44:45Z</time>
      </trkpt>
      <trkpt lat="45.45939" lon="4.55503">
        <ele>556.06860351562</ele>
        <time>2015-04-25T14:44:47Z</time>
      </trkpt>
      <trkpt lat="45.45943" lon="4.55497">
        <ele>555.37384033203</ele>
        <time>2015-04-25T14:44:49Z</time>
      </trkpt>
      <trkpt lat="45.45948" lon="4.55491">
        <ele>554.40087890625</ele>
        <time>2015-04-25T14:44:51Z</time>
      </trkpt>
      <trkpt lat="45.45952" lon="4.55484">
        <ele>553.56665039062</ele>
        <time>2015-04-25T14:44:53Z</time>
      </trkpt>
      <trkpt lat="45.45956" lon="4.55479">
        <ele>552.85931396484</ele>
        <time>2015-04-25T14:44:55Z</time>
      </trkpt>
      <trkpt lat="45.45961" lon="4.55474">
        <ele>552.03369140625</ele>
        <time>2015-04-25T14:44:57Z</time>
      </trkpt>
      <trkpt lat="45.45967" lon="4.5547">
        <ele>551.22973632812</ele>
        <time>2015-04-25T14:44:59Z</time>
      </trkpt>
      <trkpt lat="45.45972" lon="4.55464">
        <ele>550.54229736328</ele>
        <time>2015-04-25T14:45:01Z</time>
      </trkpt>
      <trkpt lat="45.45978" lon="4.55459">
        <ele>549.85510253906</ele>
        <time>2015-04-25T14:45:03Z</time>
      </trkpt>
      <trkpt lat="45.45983" lon="4.55454">
        <ele>549.37707519531</ele>
        <time>2015-04-25T14:45:05Z</time>
      </trkpt>
      <trkpt lat="45.45987" lon="4.55448">
        <ele>549.08813476562</ele>
        <time>2015-04-25T14:45:07Z</time>
      </trkpt>
      <trkpt lat="45.45991" lon="4.55444">
        <ele>548.79486083984</ele>
        <time>2015-04-25T14:45:09Z</time>
      </trkpt>
      <trkpt lat="45.45994" lon="4.55436">
        <ele>548.78179931641</ele>
        <time>2015-04-25T14:45:11Z</time>
      </trkpt>
      <trkpt lat="45.45996" lon="4.55427">
        <ele>548.86700439453</ele>
        <time>2015-04-25T14:45:13Z</time>
      </trkpt>
      <trkpt lat="45.45999" lon="4.55419">
        <ele>548.97094726562</ele>
        <time>2015-04-25T14:45:15Z</time>
      </trkpt>
      <trkpt lat="45.46002" lon="4.5541">
        <ele>547.93060302734</ele>
        <time>2015-04-25T14:45:17Z</time>
      </trkpt>
      <trkpt lat="45.46006" lon="4.55402">
        <ele>546.39410400391</ele>
        <time>2015-04-25T14:45:19Z</time>
      </trkpt>
      <trkpt lat="45.46009" lon="4.55395">
        <ele>544.97259521484</ele>
        <time>2015-04-25T14:45:21Z</time>
      </trkpt>
      <trkpt lat="45.46012" lon="4.55388">
        <ele>543.58178710938</ele>
        <time>2015-04-25T14:45:23Z</time>
      </trkpt>
      <trkpt lat="45.46016" lon="4.55381">
        <ele>542.26348876953</ele>
        <time>2015-04-25T14:45:25Z</time>
      </trkpt>
      <trkpt lat="45.46019" lon="4.55373">
        <ele>541.07708740234</ele>
        <time>2015-04-25T14:45:27Z</time>
      </trkpt>
      <trkpt lat="45.46022" lon="4.55367">
        <ele>540.07019042969</ele>
        <time>2015-04-25T14:45:29Z</time>
      </trkpt>
      <trkpt lat="45.46025" lon="4.55359">
        <ele>538.87811279297</ele>
        <time>2015-04-25T14:45:31Z</time>
      </trkpt>
      <trkpt lat="45.46028" lon="4.55353">
        <ele>537.96142578125</ele>
        <time>2015-04-25T14:45:33Z</time>
      </trkpt>
      <trkpt lat="45.4603" lon="4.55346">
        <ele>537.16607666016</ele>
        <time>2015-04-25T14:45:35Z</time>
      </trkpt>
      <trkpt lat="45.46034" lon="4.55338">
        <ele>535.90850830078</ele>
        <time>2015-04-25T14:45:37Z</time>
      </trkpt>
      <trkpt lat="45.46037" lon="4.55328">
        <ele>534.51019287109</ele>
        <time>2015-04-25T14:45:39Z</time>
      </trkpt>
      <trkpt lat="45.46039" lon="4.55319">
        <ele>533.22149658203</ele>
        <time>2015-04-25T14:45:41Z</time>
      </trkpt>
      <trkpt lat="45.46044" lon="4.55311">
        <ele>531.19720458984</ele>
        <time>2015-04-25T14:45:43Z</time>
      </trkpt>
      <trkpt lat="45.46045" lon="4.55303">
        <ele>530.22271728516</ele>
        <time>2015-04-25T14:45:45Z</time>
      </trkpt>
      <trkpt lat="45.46048" lon="4.55296">
        <ele>528.93634033203</ele>
        <time>2015-04-25T14:45:47Z</time>
      </trkpt>
      <trkpt lat="45.46052" lon="4.5529">
        <ele>527.74743652344</ele>
        <time>2015-04-25T14:45:49Z</time>
      </trkpt>
      <trkpt lat="45.46056" lon="4.55284">
        <ele>526.51623535156</ele>
        <time>2015-04-25T14:45:51Z</time>
      </trkpt>
      <trkpt lat="45.46059" lon="4.55277">
        <ele>525.40295410156</ele>
        <time>2015-04-25T14:45:53Z</time>
      </trkpt>
      <trkpt lat="45.46062" lon="4.55269">
        <ele>524.27575683594</ele>
        <time>2015-04-25T14:45:55Z</time>
      </trkpt>
      <trkpt lat="45.46067" lon="4.55263">
        <ele>523.10461425781</ele>
        <time>2015-04-25T14:45:57Z</time>
      </trkpt>
      <trkpt lat="45.46072" lon="4.55256">
        <ele>521.81701660156</ele>
        <time>2015-04-25T14:45:59Z</time>
      </trkpt>
      <trkpt lat="45.46076" lon="4.55248">
        <ele>520.83489990234</ele>
        <time>2015-04-25T14:46:01Z</time>
      </trkpt>
      <trkpt lat="45.4608" lon="4.55241">
        <ele>519.64373779297</ele>
        <time>2015-04-25T14:46:03Z</time>
      </trkpt>
      <trkpt lat="45.46085" lon="4.55234">
        <ele>518.26495361328</ele>
        <time>2015-04-25T14:46:05Z</time>
      </trkpt>
      <trkpt lat="45.46088" lon="4.55226">
        <ele>516.87481689453</ele>
        <time>2015-04-25T14:46:07Z</time>
      </trkpt>
      <trkpt lat="45.4609" lon="4.55219">
        <ele>515.78466796875</ele>
        <time>2015-04-25T14:46:09Z</time>
      </trkpt>
      <trkpt lat="45.46092" lon="4.55211">
        <ele>514.80645751953</ele>
        <time>2015-04-25T14:46:11Z</time>
      </trkpt>
      <trkpt lat="45.46095" lon="4.55203">
        <ele>513.56323242188</ele>
        <time>2015-04-25T14:46:13Z</time>
      </trkpt>
      <trkpt lat="45.46099" lon="4.55196">
        <ele>512.13659667969</ele>
        <time>2015-04-25T14:46:15Z</time>
      </trkpt>
      <trkpt lat="45.46104" lon="4.55189">
        <ele>510.83532714844</ele>
        <time>2015-04-25T14:46:17Z</time>
      </trkpt>
      <trkpt lat="45.46106" lon="4.55182">
        <ele>509.82266235352</ele>
        <time>2015-04-25T14:46:19Z</time>
      </trkpt>
      <trkpt lat="45.46109" lon="4.55174">
        <ele>508.791015625</ele>
        <time>2015-04-25T14:46:21Z</time>
      </trkpt>
      <trkpt lat="45.46112" lon="4.55167">
        <ele>507.90670776367</ele>
        <time>2015-04-25T14:46:23Z</time>
      </trkpt>
      <trkpt lat="45.46115" lon="4.5516">
        <ele>506.65051269531</ele>
        <time>2015-04-25T14:46:25Z</time>
      </trkpt>
      <trkpt lat="45.4612" lon="4.55152">
        <ele>504.97494506836</ele>
        <time>2015-04-25T14:46:27Z</time>
      </trkpt>
      <trkpt lat="45.46126" lon="4.55143">
        <ele>503.29064941406</ele>
        <time>2015-04-25T14:46:29Z</time>
      </trkpt>
      <trkpt lat="45.46129" lon="4.55136">
        <ele>502.13909912109</ele>
        <time>2015-04-25T14:46:31Z</time>
      </trkpt>
      <trkpt lat="45.46133" lon="4.55128">
        <ele>500.95562744141</ele>
        <time>2015-04-25T14:46:33Z</time>
      </trkpt>
      <trkpt lat="45.46135" lon="4.55121">
        <ele>499.96755981445</ele>
        <time>2015-04-25T14:46:35Z</time>
      </trkpt>
      <trkpt lat="45.46137" lon="4.55113">
        <ele>499.15374755859</ele>
        <time>2015-04-25T14:46:37Z</time>
      </trkpt>
      <trkpt lat="45.4614" lon="4.55106">
        <ele>498.23861694336</ele>
        <time>2015-04-25T14:46:39Z</time>
      </trkpt>
      <trkpt lat="45.46144" lon="4.55098">
        <ele>497.26684570312</ele>
        <time>2015-04-25T14:46:41Z</time>
      </trkpt>
      <trkpt lat="45.46147" lon="4.55091">
        <ele>496.4443359375</ele>
        <time>2015-04-25T14:46:43Z</time>
      </trkpt>
      <trkpt lat="45.4615" lon="4.55084">
        <ele>495.63482666016</ele>
        <time>2015-04-25T14:46:45Z</time>
      </trkpt>
      <trkpt lat="45.46151" lon="4.55077">
        <ele>494.47030639648</ele>
        <time>2015-04-25T14:46:47Z</time>
      </trkpt>
      <trkpt lat="45.46153" lon="4.55067">
        <ele>492.79272460938</ele>
        <time>2015-04-25T14:46:49Z</time>
      </trkpt>
      <trkpt lat="45.46156" lon="4.55058">
        <ele>491.34063720703</ele>
        <time>2015-04-25T14:46:51Z</time>
      </trkpt>
      <trkpt lat="45.46158" lon="4.55052">
        <ele>490.17300415039</ele>
        <time>2015-04-25T14:46:53Z</time>
      </trkpt>
      <trkpt lat="45.46158" lon="4.55044">
        <ele>488.96069335938</ele>
        <time>2015-04-25T14:46:55Z</time>
      </trkpt>
      <trkpt lat="45.46157" lon="4.55034">
        <ele>487.68597412109</ele>
        <time>2015-04-25T14:46:57Z</time>
      </trkpt>
      <trkpt lat="45.46154" lon="4.55027">
        <ele>486.75259399414</ele>
        <time>2015-04-25T14:46:59Z</time>
      </trkpt>
      <trkpt lat="45.46153" lon="4.55019">
        <ele>485.62149047852</ele>
        <time>2015-04-25T14:47:01Z</time>
      </trkpt>
      <trkpt lat="45.46153" lon="4.55011">
        <ele>484.40725708008</ele>
        <time>2015-04-25T14:47:03Z</time>
      </trkpt>
      <trkpt lat="45.46154" lon="4.55002">
        <ele>483.12689208984</ele>
        <time>2015-04-25T14:47:05Z</time>
      </trkpt>
      <trkpt lat="45.46154" lon="4.54993">
        <ele>481.59548950195</ele>
        <time>2015-04-25T14:47:07Z</time>
      </trkpt>
      <trkpt lat="45.46157" lon="4.54986">
        <ele>480.11633300781</ele>
        <time>2015-04-25T14:47:09Z</time>
      </trkpt>
      <trkpt lat="45.46161" lon="4.54981">
        <ele>479.00860595703</ele>
        <time>2015-04-25T14:47:11Z</time>
      </trkpt>
      <trkpt lat="45.46166" lon="4.54978">
        <ele>478.34094238281</ele>
        <time>2015-04-25T14:47:13Z</time>
      </trkpt>
      <trkpt lat="45.46172" lon="4.54979">
        <ele>477.75717163086</ele>
        <time>2015-04-25T14:47:15Z</time>
      </trkpt>
      <trkpt lat="45.46177" lon="4.54981">
        <ele>477.29653930664</ele>
        <time>2015-04-25T14:47:17Z</time>
      </trkpt>
      <trkpt lat="45.46183" lon="4.54986">
        <ele>477.15405273438</ele>
        <time>2015-04-25T14:47:19Z</time>
      </trkpt>
      <trkpt lat="45.46187" lon="4.54991">
        <ele>477.34609985352</ele>
        <time>2015-04-25T14:47:21Z</time>
      </trkpt>
      <trkpt lat="45.46193" lon="4.54996">
        <ele>477.3518371582</ele>
        <time>2015-04-25T14:47:23Z</time>
      </trkpt>
      <trkpt lat="45.46197" lon="4.55002">
        <ele>477.56393432617</ele>
        <time>2015-04-25T14:47:25Z</time>
      </trkpt>
      <trkpt lat="45.46201" lon="4.55009">
        <ele>477.8069152832</ele>
        <time>2015-04-25T14:47:27Z</time>
      </trkpt>
      <trkpt lat="45.46204" lon="4.55014">
        <ele>477.86303710938</ele>
        <time>2015-04-25T14:47:29Z</time>
      </trkpt>
      <trkpt lat="45.46209" lon="4.5502">
        <ele>477.77307128906</ele>
        <time>2015-04-25T14:47:31Z</time>
      </trkpt>
      <trkpt lat="45.46213" lon="4.55026">
        <ele>477.8196105957</ele>
        <time>2015-04-25T14:47:33Z</time>
      </trkpt>
      <trkpt lat="45.46217" lon="4.55032">
        <ele>477.86901855469</ele>
        <time>2015-04-25T14:47:35Z</time>
      </trkpt>
      <trkpt lat="45.46221" lon="4.55038">
        <ele>477.80218505859</ele>
        <time>2015-04-25T14:47:37Z</time>
      </trkpt>
      <trkpt lat="45.46226" lon="4.55044">
        <ele>477.64807128906</ele>
        <time>2015-04-25T14:47:39Z</time>
      </trkpt>
      <trkpt lat="45.4623" lon="4.55051">
        <ele>477.58410644531</ele>
        <time>2015-04-25T14:47:41Z</time>
      </trkpt>
      <trkpt lat="45.46234" lon="4.55057">
        <ele>477.57089233398</ele>
        <time>2015-04-25T14:47:43Z</time>
      </trkpt>
      <trkpt lat="45.46238" lon="4.55063">
        <ele>477.42056274414</ele>
        <time>2015-04-25T14:47:45Z</time>
      </trkpt>
      <trkpt lat="45.46242" lon="4.55069">
        <ele>477.16397094727</ele>
        <time>2015-04-25T14:47:47Z</time>
      </trkpt>
      <trkpt lat="45.46247" lon="4.55075">
        <ele>476.72259521484</ele>
        <time>2015-04-25T14:47:49Z</time>
      </trkpt>
      <trkpt lat="45.46252" lon="4.55081">
        <ele>476.13177490234</ele>
        <time>2015-04-25T14:47:51Z</time>
      </trkpt>
      <trkpt lat="45.46258" lon="4.55086">
        <ele>474.94760131836</ele>
        <time>2015-04-25T14:47:53Z</time>
      </trkpt>
      <trkpt lat="45.46263" lon="4.5509">
        <ele>473.81674194336</ele>
        <time>2015-04-25T14:47:55Z</time>
      </trkpt>
      <trkpt lat="45.46267" lon="4.55096">
        <ele>473.10940551758</ele>
        <time>2015-04-25T14:47:57Z</time>
      </trkpt>
      <trkpt lat="45.46271" lon="4.55101">
        <ele>472.1467590332</ele>
        <time>2015-04-25T14:47:59Z</time>
      </trkpt>
      <trkpt lat="45.46275" lon="4.55106">
        <ele>471.2887878418</ele>
        <time>2015-04-25T14:48:01Z</time>
      </trkpt>
      <trkpt lat="45.46279" lon="4.55113">
        <ele>470.34902954102</ele>
        <time>2015-04-25T14:48:03Z</time>
      </trkpt>
      <trkpt lat="45.46283" lon="4.55121">
        <ele>469.49493408203</ele>
        <time>2015-04-25T14:48:05Z</time>
      </trkpt>
      <trkpt lat="45.46286" lon="4.55127">
        <ele>468.80685424805</ele>
        <time>2015-04-25T14:48:07Z</time>
      </trkpt>
      <trkpt lat="45.46289" lon="4.55134">
        <ele>468.10388183594</ele>
        <time>2015-04-25T14:48:09Z</time>
      </trkpt>
      <trkpt lat="45.46291" lon="4.55142">
        <ele>467.72961425781</ele>
        <time>2015-04-25T14:48:11Z</time>
      </trkpt>
      <trkpt lat="45.46292" lon="4.5515">
        <ele>467.58535766602</ele>
        <time>2015-04-25T14:48:13Z</time>
      </trkpt>
      <trkpt lat="45.46291" lon="4.55159">
        <ele>467.91751098633</ele>
        <time>2015-04-25T14:48:15Z</time>
      </trkpt>
      <trkpt lat="45.46291" lon="4.55167">
        <ele>468.09658813477</ele>
        <time>2015-04-25T14:48:17Z</time>
      </trkpt>
      <trkpt lat="45.46293" lon="4.55174">
        <ele>467.53668212891</ele>
        <time>2015-04-25T14:48:19Z</time>
      </trkpt>
      <trkpt lat="45.46293" lon="4.55183">
        <ele>467.43222045898</ele>
        <time>2015-04-25T14:48:21Z</time>
      </trkpt>
      <trkpt lat="45.46294" lon="4.55191">
        <ele>467.10620117188</ele>
        <time>2015-04-25T14:48:23Z</time>
      </trkpt>
      <trkpt lat="45.46295" lon="4.55199">
        <ele>466.66610717773</ele>
        <time>2015-04-25T14:48:25Z</time>
      </trkpt>
      <trkpt lat="45.46295" lon="4.55207">
        <ele>466.466796875</ele>
        <time>2015-04-25T14:48:27Z</time>
      </trkpt>
      <trkpt lat="45.46296" lon="4.55215">
        <ele>466.25982666016</ele>
        <time>2015-04-25T14:48:29Z</time>
      </trkpt>
      <trkpt lat="45.46296" lon="4.55225">
        <ele>466.04187011719</ele>
        <time>2015-04-25T14:48:31Z</time>
      </trkpt>
      <trkpt lat="45.46297" lon="4.55235">
        <ele>465.60147094727</ele>
        <time>2015-04-25T14:48:33Z</time>
      </trkpt>
      <trkpt lat="45.46299" lon="4.55244">
        <ele>464.83755493164</ele>
        <time>2015-04-25T14:48:35Z</time>
      </trkpt>
      <trkpt lat="45.46302" lon="4.55255">
        <ele>463.83233642578</ele>
        <time>2015-04-25T14:48:37Z</time>
      </trkpt>
      <trkpt lat="45.46303" lon="4.55264">
        <ele>463.57244873047</ele>
        <time>2015-04-25T14:48:39Z</time>
      </trkpt>
      <trkpt lat="45.46302" lon="4.55273">
        <ele>463.52734375</ele>
        <time>2015-04-25T14:48:41Z</time>
      </trkpt>
      <trkpt lat="45.46303" lon="4.55283">
        <ele>463.18701171875</ele>
        <time>2015-04-25T14:48:43Z</time>
      </trkpt>
      <trkpt lat="45.46303" lon="4.55293">
        <ele>463.12530517578</ele>
        <time>2015-04-25T14:48:45Z</time>
      </trkpt>
      <trkpt lat="45.46302" lon="4.55302">
        <ele>463.06140136719</ele>
        <time>2015-04-25T14:48:47Z</time>
      </trkpt>
      <trkpt lat="45.46303" lon="4.55311">
        <ele>462.76049804688</ele>
        <time>2015-04-25T14:48:49Z</time>
      </trkpt>
      <trkpt lat="45.46305" lon="4.55319">
        <ele>462.34103393555</ele>
        <time>2015-04-25T14:48:51Z</time>
      </trkpt>
      <trkpt lat="45.46306" lon="4.55328">
        <ele>461.93460083008</ele>
        <time>2015-04-25T14:48:53Z</time>
      </trkpt>
      <trkpt lat="45.46311" lon="4.55337">
        <ele>460.99169921875</ele>
        <time>2015-04-25T14:48:55Z</time>
      </trkpt>
      <trkpt lat="45.46315" lon="4.55346">
        <ele>460.17770385742</ele>
        <time>2015-04-25T14:48:57Z</time>
      </trkpt>
      <trkpt lat="45.4632" lon="4.55356">
        <ele>459.16567993164</ele>
        <time>2015-04-25T14:48:59Z</time>
      </trkpt>
      <trkpt lat="45.46323" lon="4.55364">
        <ele>458.44674682617</ele>
        <time>2015-04-25T14:49:01Z</time>
      </trkpt>
      <trkpt lat="45.46326" lon="4.55372">
        <ele>457.74099731445</ele>
        <time>2015-04-25T14:49:03Z</time>
      </trkpt>
      <trkpt lat="45.4633" lon="4.5538">
        <ele>456.97634887695</ele>
        <time>2015-04-25T14:49:05Z</time>
      </trkpt>
      <trkpt lat="45.46335" lon="4.55387">
        <ele>456.44619750977</ele>
        <time>2015-04-25T14:49:07Z</time>
      </trkpt>
      <trkpt lat="45.4634" lon="4.55394">
        <ele>456.68640136719</ele>
        <time>2015-04-25T14:49:09Z</time>
      </trkpt>
      <trkpt lat="45.46344" lon="4.55403">
        <ele>456.90759277344</ele>
        <time>2015-04-25T14:49:11Z</time>
      </trkpt>
      <trkpt lat="45.46347" lon="4.55411">
        <ele>457.12261962891</ele>
        <time>2015-04-25T14:49:13Z</time>
      </trkpt>
      <trkpt lat="45.46349" lon="4.55419">
        <ele>457.45947265625</ele>
        <time>2015-04-25T14:49:15Z</time>
      </trkpt>
      <trkpt lat="45.46352" lon="4.55428">
        <ele>458.37371826172</ele>
        <time>2015-04-25T14:49:17Z</time>
      </trkpt>
      <trkpt lat="45.46354" lon="4.55436">
        <ele>459.25381469727</ele>
        <time>2015-04-25T14:49:19Z</time>
      </trkpt>
      <trkpt lat="45.46355" lon="4.55443">
        <ele>459.89810180664</ele>
        <time>2015-04-25T14:49:21Z</time>
      </trkpt>
      <trkpt lat="45.46359" lon="4.55447">
        <ele>460.5881652832</ele>
        <time>2015-04-25T14:49:24Z</time>
      </trkpt>
      <trkpt lat="45.46363" lon="4.55444">
        <ele>460.75036621094</ele>
        <time>2015-04-25T14:49:26Z</time>
      </trkpt>
      <trkpt lat="45.46367" lon="4.55439">
        <ele>460.66488647461</ele>
        <time>2015-04-25T14:49:28Z</time>
      </trkpt>
      <trkpt lat="45.4637" lon="4.55433">
        <ele>460.41525268555</ele>
        <time>2015-04-25T14:49:30Z</time>
      </trkpt>
      <trkpt lat="45.4637" lon="4.55425">
        <ele>459.74703979492</ele>
        <time>2015-04-25T14:49:32Z</time>
      </trkpt>
      <trkpt lat="45.4637" lon="4.55418">
        <ele>459.21789550781</ele>
        <time>2015-04-25T14:49:34Z</time>
      </trkpt>
      <trkpt lat="45.46371" lon="4.55409">
        <ele>458.9792175293</ele>
        <time>2015-04-25T14:49:36Z</time>
      </trkpt>
      <trkpt lat="45.46371" lon="4.55398">
        <ele>458.80746459961</ele>
        <time>2015-04-25T14:49:38Z</time>
      </trkpt>
      <trkpt lat="45.46373" lon="4.5539">
        <ele>458.70718383789</ele>
        <time>2015-04-25T14:49:40Z</time>
      </trkpt>
      <trkpt lat="45.46374" lon="4.55382">
        <ele>458.60723876953</ele>
        <time>2015-04-25T14:49:42Z</time>
      </trkpt>
      <trkpt lat="45.46374" lon="4.55375">
        <ele>458.45169067383</ele>
        <time>2015-04-25T14:49:44Z</time>
      </trkpt>
      <trkpt lat="45.46376" lon="4.55368">
        <ele>458.36825561523</ele>
        <time>2015-04-25T14:49:46Z</time>
      </trkpt>
      <trkpt lat="45.46378" lon="4.55359">
        <ele>458.20938110352</ele>
        <time>2015-04-25T14:49:48Z</time>
      </trkpt>
      <trkpt lat="45.46379" lon="4.5535">
        <ele>457.99188232422</ele>
        <time>2015-04-25T14:49:50Z</time>
      </trkpt>
      <trkpt lat="45.4638" lon="4.55339">
        <ele>457.72344970703</ele>
        <time>2015-04-25T14:49:52Z</time>
      </trkpt>
      <trkpt lat="45.46381" lon="4.5533">
        <ele>457.48202514648</ele>
        <time>2015-04-25T14:49:54Z</time>
      </trkpt>
      <trkpt lat="45.46382" lon="4.55322">
        <ele>457.22747802734</ele>
        <time>2015-04-25T14:49:56Z</time>
      </trkpt>
      <trkpt lat="45.46383" lon="4.55314">
        <ele>457.00820922852</ele>
        <time>2015-04-25T14:49:58Z</time>
      </trkpt>
      <trkpt lat="45.46386" lon="4.55306">
        <ele>456.78048706055</ele>
        <time>2015-04-25T14:50:00Z</time>
      </trkpt>
      <trkpt lat="45.46388" lon="4.55299">
        <ele>456.55151367188</ele>
        <time>2015-04-25T14:50:02Z</time>
      </trkpt>
      <trkpt lat="45.4639" lon="4.55289">
        <ele>456.25238037109</ele>
        <time>2015-04-25T14:50:04Z</time>
      </trkpt>
      <trkpt lat="45.46391" lon="4.5528">
        <ele>455.98474121094</ele>
        <time>2015-04-25T14:50:06Z</time>
      </trkpt>
      <trkpt lat="45.46393" lon="4.55272">
        <ele>455.72723388672</ele>
        <time>2015-04-25T14:50:08Z</time>
      </trkpt>
      <trkpt lat="45.46395" lon="4.55266">
        <ele>455.52719116211</ele>
        <time>2015-04-25T14:50:10Z</time>
      </trkpt>
      <trkpt lat="45.46396" lon="4.55256">
        <ele>455.1975402832</ele>
        <time>2015-04-25T14:50:12Z</time>
      </trkpt>
      <trkpt lat="45.46395" lon="4.55246">
        <ele>454.76254272461</ele>
        <time>2015-04-25T14:50:14Z</time>
      </trkpt>
      <trkpt lat="45.46397" lon="4.55243">
        <ele>454.53018188477</ele>
        <time>2015-04-25T14:50:16Z</time>
      </trkpt>
      <trkpt lat="45.46398" lon="4.55237">
        <ele>454.16339111328</ele>
        <time>2015-04-25T14:50:18Z</time>
      </trkpt>
      <trkpt lat="45.464" lon="4.55231">
        <ele>453.71633911133</ele>
        <time>2015-04-25T14:50:20Z</time>
      </trkpt>
      <trkpt lat="45.46402" lon="4.55225">
        <ele>453.298828125</ele>
        <time>2015-04-25T14:50:22Z</time>
      </trkpt>
      <trkpt lat="45.46406" lon="4.55222">
        <ele>452.96768188477</ele>
        <time>2015-04-25T14:50:24Z</time>
      </trkpt>
      <trkpt lat="45.46411" lon="4.55217">
        <ele>452.37310791016</ele>
        <time>2015-04-25T14:50:26Z</time>
      </trkpt>
      <trkpt lat="45.46414" lon="4.55209">
        <ele>451.69119262695</ele>
        <time>2015-04-25T14:50:28Z</time>
      </trkpt>
      <trkpt lat="45.46417" lon="4.55202">
        <ele>451.13265991211</ele>
        <time>2015-04-25T14:50:30Z</time>
      </trkpt>
      <trkpt lat="45.4642" lon="4.55196">
        <ele>451.0915222168</ele>
        <time>2015-04-25T14:50:32Z</time>
      </trkpt>
      <trkpt lat="45.46422" lon="4.55189">
        <ele>451.04315185547</ele>
        <time>2015-04-25T14:50:34Z</time>
      </trkpt>
      <trkpt lat="45.46424" lon="4.55183">
        <ele>451.0771484375</ele>
        <time>2015-04-25T14:50:36Z</time>
      </trkpt>
      <trkpt lat="45.46427" lon="4.55176">
        <ele>451.04336547852</ele>
        <time>2015-04-25T14:50:38Z</time>
      </trkpt>
      <trkpt lat="45.46429" lon="4.55169">
        <ele>450.92788696289</ele>
        <time>2015-04-25T14:50:40Z</time>
      </trkpt>
      <trkpt lat="45.46432" lon="4.55165">
        <ele>451.42840576172</ele>
        <time>2015-04-25T14:50:42Z</time>
      </trkpt>
      <trkpt lat="45.46435" lon="4.55158">
        <ele>451.7282409668</ele>
        <time>2015-04-25T14:50:44Z</time>
      </trkpt>
      <trkpt lat="45.46437" lon="4.55154">
        <ele>452.0212097168</ele>
        <time>2015-04-25T14:50:46Z</time>
      </trkpt>
      <trkpt lat="45.46436" lon="4.5514">
        <ele>451.18807983398</ele>
        <time>2015-04-25T14:50:48Z</time>
      </trkpt>
      <trkpt lat="45.46436" lon="4.55129">
        <ele>450.65707397461</ele>
        <time>2015-04-25T14:50:50Z</time>
      </trkpt>
      <trkpt lat="45.46438" lon="4.55121">
        <ele>450.61129760742</ele>
        <time>2015-04-25T14:50:52Z</time>
      </trkpt>
      <trkpt lat="45.46439" lon="4.55114">
        <ele>450.46252441406</ele>
        <time>2015-04-25T14:50:54Z</time>
      </trkpt>
      <trkpt lat="45.4644" lon="4.5511">
        <ele>450.54034423828</ele>
        <time>2015-04-25T14:50:56Z</time>
      </trkpt>
      <trkpt lat="45.46442" lon="4.55106">
        <ele>450.86077880859</ele>
        <time>2015-04-25T14:50:58Z</time>
      </trkpt>
      <trkpt lat="45.46444" lon="4.55099">
        <ele>450.99353027344</ele>
        <time>2015-04-25T14:51:00Z</time>
      </trkpt>
      <trkpt lat="45.46445" lon="4.55092">
        <ele>450.88595581055</ele>
        <time>2015-04-25T14:51:02Z</time>
      </trkpt>
      <trkpt lat="45.46447" lon="4.55085">
        <ele>450.88366699219</ele>
        <time>2015-04-25T14:51:04Z</time>
      </trkpt>
      <trkpt lat="45.46449" lon="4.55078">
        <ele>451.205078125</ele>
        <time>2015-04-25T14:51:06Z</time>
      </trkpt>
      <trkpt lat="45.4645" lon="4.5507">
        <ele>451.39068603516</ele>
        <time>2015-04-25T14:51:08Z</time>
      </trkpt>
      <trkpt lat="45.46451" lon="4.5506">
        <ele>451.66040039062</ele>
        <time>2015-04-25T14:51:10Z</time>
      </trkpt>
      <trkpt lat="45.46452" lon="4.55053">
        <ele>451.77725219727</ele>
        <time>2015-04-25T14:51:12Z</time>
      </trkpt>
      <trkpt lat="45.46453" lon="4.55046">
        <ele>452.08853149414</ele>
        <time>2015-04-25T14:51:14Z</time>
      </trkpt>
      <trkpt lat="45.46456" lon="4.55038">
        <ele>452.59359741211</ele>
        <time>2015-04-25T14:51:16Z</time>
      </trkpt>
      <trkpt lat="45.46458" lon="4.5503">
        <ele>453.11276245117</ele>
        <time>2015-04-25T14:51:18Z</time>
      </trkpt>
      <trkpt lat="45.4646" lon="4.55023">
        <ele>453.5505065918</ele>
        <time>2015-04-25T14:51:20Z</time>
      </trkpt>
      <trkpt lat="45.4646" lon="4.55016">
        <ele>453.61001586914</ele>
        <time>2015-04-25T14:51:22Z</time>
      </trkpt>
      <trkpt lat="45.46461" lon="4.55008">
        <ele>453.76876831055</ele>
        <time>2015-04-25T14:51:24Z</time>
      </trkpt>
      <trkpt lat="45.46462" lon="4.55">
        <ele>454.03402709961</ele>
        <time>2015-04-25T14:51:26Z</time>
      </trkpt>
      <trkpt lat="45.46464" lon="4.54993">
        <ele>454.01449584961</ele>
        <time>2015-04-25T14:51:28Z</time>
      </trkpt>
      <trkpt lat="45.46466" lon="4.54985">
        <ele>453.8600769043</ele>
        <time>2015-04-25T14:51:30Z</time>
      </trkpt>
      <trkpt lat="45.46465" lon="4.54976">
        <ele>453.0651550293</ele>
        <time>2015-04-25T14:51:32Z</time>
      </trkpt>
      <trkpt lat="45.46466" lon="4.5497">
        <ele>452.7014465332</ele>
        <time>2015-04-25T14:51:34Z</time>
      </trkpt>
      <trkpt lat="45.46466" lon="4.54964">
        <ele>452.44790649414</ele>
        <time>2015-04-25T14:51:36Z</time>
      </trkpt>
      <trkpt lat="45.46468" lon="4.54958">
        <ele>452.40133666992</ele>
        <time>2015-04-25T14:51:38Z</time>
      </trkpt>
      <trkpt lat="45.46471" lon="4.54953">
        <ele>452.66976928711</ele>
        <time>2015-04-25T14:51:40Z</time>
      </trkpt>
      <trkpt lat="45.46475" lon="4.54949">
        <ele>453.10321044922</ele>
        <time>2015-04-25T14:51:42Z</time>
      </trkpt>
      <trkpt lat="45.46478" lon="4.54945">
        <ele>453.54403686523</ele>
        <time>2015-04-25T14:51:44Z</time>
      </trkpt>
      <trkpt lat="45.46484" lon="4.54944">
        <ele>454.5498046875</ele>
        <time>2015-04-25T14:51:46Z</time>
      </trkpt>
      <trkpt lat="45.46487" lon="4.54941">
        <ele>454.94998168945</ele>
        <time>2015-04-25T14:51:48Z</time>
      </trkpt>
      <trkpt lat="45.46491" lon="4.54936">
        <ele>455.37188720703</ele>
        <time>2015-04-25T14:51:50Z</time>
      </trkpt>
      <trkpt lat="45.46495" lon="4.54933">
        <ele>455.81478881836</ele>
        <time>2015-04-25T14:51:52Z</time>
      </trkpt>
      <trkpt lat="45.465" lon="4.5493">
        <ele>456.40203857422</ele>
        <time>2015-04-25T14:51:54Z</time>
      </trkpt>
      <trkpt lat="45.46505" lon="4.54928">
        <ele>456.26177978516</ele>
        <time>2015-04-25T14:51:56Z</time>
      </trkpt>
      <trkpt lat="45.4651" lon="4.54924">
        <ele>456.00939941406</ele>
        <time>2015-04-25T14:51:58Z</time>
      </trkpt>
      <trkpt lat="45.46515" lon="4.54923">
        <ele>455.93365478516</ele>
        <time>2015-04-25T14:52:00Z</time>
      </trkpt>
      <trkpt lat="45.4652" lon="4.5492">
        <ele>455.80578613281</ele>
        <time>2015-04-25T14:52:02Z</time>
      </trkpt>
      <trkpt lat="45.46525" lon="4.54918">
        <ele>455.71984863281</ele>
        <time>2015-04-25T14:52:04Z</time>
      </trkpt>
      <trkpt lat="45.46532" lon="4.54916">
        <ele>455.64587402344</ele>
        <time>2015-04-25T14:52:06Z</time>
      </trkpt>
      <trkpt lat="45.46536" lon="4.54912">
        <ele>455.39688110352</ele>
        <time>2015-04-25T14:52:08Z</time>
      </trkpt>
      <trkpt lat="45.46542" lon="4.54908">
        <ele>455.25872802734</ele>
        <time>2015-04-25T14:52:10Z</time>
      </trkpt>
      <trkpt lat="45.46548" lon="4.54906">
        <ele>455.22451782227</ele>
        <time>2015-04-25T14:52:12Z</time>
      </trkpt>
      <trkpt lat="45.46553" lon="4.54903">
        <ele>455.17541503906</ele>
        <time>2015-04-25T14:52:14Z</time>
      </trkpt>
      <trkpt lat="45.46558" lon="4.54899">
        <ele>455.07516479492</ele>
        <time>2015-04-25T14:52:16Z</time>
      </trkpt>
      <trkpt lat="45.46564" lon="4.54897">
        <ele>455.21740722656</ele>
        <time>2015-04-25T14:52:18Z</time>
      </trkpt>
      <trkpt lat="45.4657" lon="4.54895">
        <ele>455.34194946289</ele>
        <time>2015-04-25T14:52:20Z</time>
      </trkpt>
      <trkpt lat="45.46574" lon="4.54892">
        <ele>455.36181640625</ele>
        <time>2015-04-25T14:52:22Z</time>
      </trkpt>
      <trkpt lat="45.46579" lon="4.5489">
        <ele>455.48165893555</ele>
        <time>2015-04-25T14:52:24Z</time>
      </trkpt>
      <trkpt lat="45.46583" lon="4.54887">
        <ele>455.55661010742</ele>
        <time>2015-04-25T14:52:26Z</time>
      </trkpt>
      <trkpt lat="45.46588" lon="4.54886">
        <ele>455.55401611328</ele>
        <time>2015-04-25T14:52:28Z</time>
      </trkpt>
      <trkpt lat="45.46592" lon="4.54883">
        <ele>455.49304199219</ele>
        <time>2015-04-25T14:52:30Z</time>
      </trkpt>
      <trkpt lat="45.46597" lon="4.54881">
        <ele>455.45236206055</ele>
        <time>2015-04-25T14:52:32Z</time>
      </trkpt>
      <trkpt lat="45.46601" lon="4.54879">
        <ele>455.38067626953</ele>
        <time>2015-04-25T14:52:34Z</time>
      </trkpt>
      <trkpt lat="45.46605" lon="4.54877">
        <ele>455.3268737793</ele>
        <time>2015-04-25T14:52:36Z</time>
      </trkpt>
      <trkpt lat="45.46609" lon="4.54874">
        <ele>455.28085327148</ele>
        <time>2015-04-25T14:52:38Z</time>
      </trkpt>
      <trkpt lat="45.46613" lon="4.54873">
        <ele>455.26184082031</ele>
        <time>2015-04-25T14:52:40Z</time>
      </trkpt>
      <trkpt lat="45.46616" lon="4.54872">
        <ele>455.25714111328</ele>
        <time>2015-04-25T14:52:42Z</time>
      </trkpt>
      <trkpt lat="45.46618" lon="4.54871">
        <ele>455.25109863281</ele>
        <time>2015-04-25T14:52:44Z</time>
      </trkpt>
      <trkpt lat="45.4662" lon="4.5487">
        <ele>455.23880004883</ele>
        <time>2015-04-25T14:52:46Z</time>
      </trkpt>
      <trkpt lat="45.46621" lon="4.5487">
        <ele>455.25942993164</ele>
        <time>2015-04-25T14:52:50Z</time>
      </trkpt>
      <trkpt lat="45.46623" lon="4.5487">
        <ele>455.27310180664</ele>
        <time>2015-04-25T14:52:52Z</time>
      </trkpt>
      <trkpt lat="45.46624" lon="4.54868">
        <ele>455.22827148438</ele>
        <time>2015-04-25T14:52:54Z</time>
      </trkpt>
      <trkpt lat="45.46626" lon="4.54868">
        <ele>455.2551574707</ele>
        <time>2015-04-25T14:52:56Z</time>
      </trkpt>
      <trkpt lat="45.46628" lon="4.54867">
        <ele>455.25149536133</ele>
        <time>2015-04-25T14:52:59Z</time>
      </trkpt>
      <trkpt lat="45.46629" lon="4.54866">
        <ele>455.24459838867</ele>
        <time>2015-04-25T14:53:01Z</time>
      </trkpt>
      <trkpt lat="45.46631" lon="4.54865">
        <ele>455.2346496582</ele>
        <time>2015-04-25T14:53:04Z</time>
      </trkpt>
      <trkpt lat="45.46633" lon="4.54864">
        <ele>455.21459960938</ele>
        <time>2015-04-25T14:53:06Z</time>
      </trkpt>
      <trkpt lat="45.46635" lon="4.54862">
        <ele>455.19107055664</ele>
        <time>2015-04-25T14:53:08Z</time>
      </trkpt>
      <trkpt lat="45.46637" lon="4.5486">
        <ele>455.17138671875</ele>
        <time>2015-04-25T14:53:10Z</time>
      </trkpt>
      <trkpt lat="45.46639" lon="4.5486">
        <ele>455.17630004883</ele>
        <time>2015-04-25T14:53:12Z</time>
      </trkpt>
      <trkpt lat="45.46641" lon="4.54859">
        <ele>455.19293212891</ele>
        <time>2015-04-25T14:53:14Z</time>
      </trkpt>
      <trkpt lat="45.46643" lon="4.54857">
        <ele>455.17761230469</ele>
        <time>2015-04-25T14:53:16Z</time>
      </trkpt>
      <trkpt lat="45.46645" lon="4.54856">
        <ele>455.15875244141</ele>
        <time>2015-04-25T14:53:18Z</time>
      </trkpt>
      <trkpt lat="45.46646" lon="4.54854">
        <ele>455.14657592773</ele>
        <time>2015-04-25T14:53:20Z</time>
      </trkpt>
      <trkpt lat="45.46648" lon="4.54852">
        <ele>455.10241699219</ele>
        <time>2015-04-25T14:53:22Z</time>
      </trkpt>
      <trkpt lat="45.46649" lon="4.5485">
        <ele>455.05871582031</ele>
        <time>2015-04-25T14:53:29Z</time>
      </trkpt>
      <trkpt lat="45.46651" lon="4.54847">
        <ele>455.02127075195</ele>
        <time>2015-04-25T14:53:31Z</time>
      </trkpt>
      <trkpt lat="45.46652" lon="4.54845">
        <ele>454.96588134766</ele>
        <time>2015-04-25T14:53:33Z</time>
      </trkpt>
      <trkpt lat="45.46653" lon="4.5484">
        <ele>454.8576965332</ele>
        <time>2015-04-25T14:53:35Z</time>
      </trkpt>
      <trkpt lat="45.46655" lon="4.54833">
        <ele>454.66918945312</ele>
        <time>2015-04-25T14:53:37Z</time>
      </trkpt>
      <trkpt lat="45.46656" lon="4.54825">
        <ele>454.2448425293</ele>
        <time>2015-04-25T14:53:39Z</time>
      </trkpt>
      <trkpt lat="45.46657" lon="4.54817">
        <ele>453.83193969727</ele>
        <time>2015-04-25T14:53:41Z</time>
      </trkpt>
      <trkpt lat="45.4666" lon="4.54812">
        <ele>453.56060791016</ele>
        <time>2015-04-25T14:53:43Z</time>
      </trkpt>
      <trkpt lat="45.46664" lon="4.54809">
        <ele>453.45776367188</ele>
        <time>2015-04-25T14:53:45Z</time>
      </trkpt>
      <trkpt lat="45.46669" lon="4.54808">
        <ele>453.24209594727</ele>
        <time>2015-04-25T14:53:47Z</time>
      </trkpt>
      <trkpt lat="45.46674" lon="4.54805">
        <ele>452.53701782227</ele>
        <time>2015-04-25T14:53:49Z</time>
      </trkpt>
      <trkpt lat="45.4668" lon="4.54804">
        <ele>451.78701782227</ele>
        <time>2015-04-25T14:53:51Z</time>
      </trkpt>
      <trkpt lat="45.46685" lon="4.54803">
        <ele>451.13647460938</ele>
        <time>2015-04-25T14:53:53Z</time>
      </trkpt>
      <trkpt lat="45.4669" lon="4.54801">
        <ele>450.4958190918</ele>
        <time>2015-04-25T14:53:55Z</time>
      </trkpt>
      <trkpt lat="45.46695" lon="4.548">
        <ele>449.82028198242</ele>
        <time>2015-04-25T14:53:57Z</time>
      </trkpt>
      <trkpt lat="45.46701" lon="4.54798">
        <ele>449.15692138672</ele>
        <time>2015-04-25T14:53:59Z</time>
      </trkpt>
      <trkpt lat="45.46705" lon="4.54797">
        <ele>448.59329223633</ele>
        <time>2015-04-25T14:54:01Z</time>
      </trkpt>
      <trkpt lat="45.46711" lon="4.54795">
        <ele>447.85842895508</ele>
        <time>2015-04-25T14:54:03Z</time>
      </trkpt>
      <trkpt lat="45.46717" lon="4.54791">
        <ele>447.08108520508</ele>
        <time>2015-04-25T14:54:05Z</time>
      </trkpt>
      <trkpt lat="45.46723" lon="4.54788">
        <ele>446.23751831055</ele>
        <time>2015-04-25T14:54:07Z</time>
      </trkpt>
      <trkpt lat="45.46729" lon="4.54784">
        <ele>445.47708129883</ele>
        <time>2015-04-25T14:54:09Z</time>
      </trkpt>
      <trkpt lat="45.46735" lon="4.54781">
        <ele>444.65014648438</ele>
        <time>2015-04-25T14:54:11Z</time>
      </trkpt>
      <trkpt lat="45.46741" lon="4.54778">
        <ele>443.88684082031</ele>
        <time>2015-04-25T14:54:13Z</time>
      </trkpt>
      <trkpt lat="45.46748" lon="4.54775">
        <ele>443.07006835938</ele>
        <time>2015-04-25T14:54:15Z</time>
      </trkpt>
      <trkpt lat="45.46754" lon="4.54772">
        <ele>442.15487670898</ele>
        <time>2015-04-25T14:54:17Z</time>
      </trkpt>
      <trkpt lat="45.4676" lon="4.54769">
        <ele>441.24166870117</ele>
        <time>2015-04-25T14:54:19Z</time>
      </trkpt>
      <trkpt lat="45.46767" lon="4.54766">
        <ele>440.19436645508</ele>
        <time>2015-04-25T14:54:21Z</time>
      </trkpt>
      <trkpt lat="45.46773" lon="4.54764">
        <ele>439.36077880859</ele>
        <time>2015-04-25T14:54:23Z</time>
      </trkpt>
      <trkpt lat="45.46778" lon="4.54761">
        <ele>438.50537109375</ele>
        <time>2015-04-25T14:54:25Z</time>
      </trkpt>
      <trkpt lat="45.46785" lon="4.54758">
        <ele>437.49850463867</ele>
        <time>2015-04-25T14:54:27Z</time>
      </trkpt>
      <trkpt lat="45.4679" lon="4.54754">
        <ele>436.75680541992</ele>
        <time>2015-04-25T14:54:29Z</time>
      </trkpt>
      <trkpt lat="45.46795" lon="4.54748">
        <ele>436.00454711914</ele>
        <time>2015-04-25T14:54:31Z</time>
      </trkpt>
      <trkpt lat="45.46801" lon="4.54742">
        <ele>434.93997192383</ele>
        <time>2015-04-25T14:54:33Z</time>
      </trkpt>
      <trkpt lat="45.46806" lon="4.54738">
        <ele>434.11773681641</ele>
        <time>2015-04-25T14:54:35Z</time>
      </trkpt>
      <trkpt lat="45.46809" lon="4.54731">
        <ele>433.48852539062</ele>
        <time>2015-04-25T14:54:37Z</time>
      </trkpt>
      <trkpt lat="45.46813" lon="4.54725">
        <ele>432.82354736328</ele>
        <time>2015-04-25T14:54:39Z</time>
      </trkpt>
      <trkpt lat="45.46817" lon="4.54721">
        <ele>432.22994995117</ele>
        <time>2015-04-25T14:54:41Z</time>
      </trkpt>
      <trkpt lat="45.4682" lon="4.54715">
        <ele>431.70184326172</ele>
        <time>2015-04-25T14:54:43Z</time>
      </trkpt>
      <trkpt lat="45.46824" lon="4.54711">
        <ele>431.04922485352</ele>
        <time>2015-04-25T14:54:45Z</time>
      </trkpt>
      <trkpt lat="45.46829" lon="4.54706">
        <ele>430.38989257812</ele>
        <time>2015-04-25T14:54:47Z</time>
      </trkpt>
      <trkpt lat="45.46833" lon="4.547">
        <ele>429.8742980957</ele>
        <time>2015-04-25T14:54:49Z</time>
      </trkpt>
      <trkpt lat="45.46838" lon="4.54695">
        <ele>429.03930664062</ele>
        <time>2015-04-25T14:54:51Z</time>
      </trkpt>
      <trkpt lat="45.46843" lon="4.54689">
        <ele>428.03903198242</ele>
        <time>2015-04-25T14:54:53Z</time>
      </trkpt>
      <trkpt lat="45.46848" lon="4.54683">
        <ele>427.24395751953</ele>
        <time>2015-04-25T14:54:55Z</time>
      </trkpt>
      <trkpt lat="45.46853" lon="4.54678">
        <ele>426.30178833008</ele>
        <time>2015-04-25T14:54:57Z</time>
      </trkpt>
      <trkpt lat="45.46857" lon="4.54673">
        <ele>425.42764282227</ele>
        <time>2015-04-25T14:54:59Z</time>
      </trkpt>
      <trkpt lat="45.46862" lon="4.54668">
        <ele>424.61947631836</ele>
        <time>2015-04-25T14:55:01Z</time>
      </trkpt>
      <trkpt lat="45.46866" lon="4.54664">
        <ele>423.72128295898</ele>
        <time>2015-04-25T14:55:03Z</time>
      </trkpt>
      <trkpt lat="45.46871" lon="4.54665">
        <ele>422.99575805664</ele>
        <time>2015-04-25T14:55:05Z</time>
      </trkpt>
      <trkpt lat="45.46879" lon="4.5467">
        <ele>421.96234130859</ele>
        <time>2015-04-25T14:55:08Z</time>
      </trkpt>
      <trkpt lat="45.46884" lon="4.54673">
        <ele>421.36810302734</ele>
        <time>2015-04-25T14:55:10Z</time>
      </trkpt>
      <trkpt lat="45.46889" lon="4.54677">
        <ele>420.70108032227</ele>
        <time>2015-04-25T14:55:12Z</time>
      </trkpt>
      <trkpt lat="45.46894" lon="4.5468">
        <ele>420.06448364258</ele>
        <time>2015-04-25T14:55:14Z</time>
      </trkpt>
      <trkpt lat="45.46899" lon="4.5468">
        <ele>419.37365722656</ele>
        <time>2015-04-25T14:55:16Z</time>
      </trkpt>
      <trkpt lat="45.46907" lon="4.54675">
        <ele>417.92413330078</ele>
        <time>2015-04-25T14:55:19Z</time>
      </trkpt>
      <trkpt lat="45.46912" lon="4.5467">
        <ele>416.92895507812</ele>
        <time>2015-04-25T14:55:21Z</time>
      </trkpt>
      <trkpt lat="45.46917" lon="4.54666">
        <ele>415.87490844727</ele>
        <time>2015-04-25T14:55:23Z</time>
      </trkpt>
      <trkpt lat="45.46923" lon="4.54662">
        <ele>414.79147338867</ele>
        <time>2015-04-25T14:55:25Z</time>
      </trkpt>
      <trkpt lat="45.46927" lon="4.54657">
        <ele>413.82757568359</ele>
        <time>2015-04-25T14:55:27Z</time>
      </trkpt>
      <trkpt lat="45.46924" lon="4.54643">
        <ele>413.24868774414</ele>
        <time>2015-04-25T14:55:30Z</time>
      </trkpt>
      <trkpt lat="45.46922" lon="4.54636">
        <ele>413.11328125</ele>
        <time>2015-04-25T14:55:32Z</time>
      </trkpt>
      <trkpt lat="45.46919" lon="4.54628">
        <ele>412.94314575195</ele>
        <time>2015-04-25T14:55:34Z</time>
      </trkpt>
      <trkpt lat="45.46917" lon="4.54616">
        <ele>412.40017700195</ele>
        <time>2015-04-25T14:55:37Z</time>
      </trkpt>
      <trkpt lat="45.46917" lon="4.54604">
        <ele>411.41690063477</ele>
        <time>2015-04-25T14:55:40Z</time>
      </trkpt>
      <trkpt lat="45.46919" lon="4.54596">
        <ele>410.60528564453</ele>
        <time>2015-04-25T14:55:42Z</time>
      </trkpt>
      <trkpt lat="45.46922" lon="4.54582">
        <ele>409.32836914062</ele>
        <time>2015-04-25T14:55:45Z</time>
      </trkpt>
      <trkpt lat="45.46924" lon="4.54573">
        <ele>408.76898193359</ele>
        <time>2015-04-25T14:55:47Z</time>
      </trkpt>
      <trkpt lat="45.46925" lon="4.54563">
        <ele>408.2106628418</ele>
        <time>2015-04-25T14:55:49Z</time>
      </trkpt>
      <trkpt lat="45.46925" lon="4.54555">
        <ele>407.89093017578</ele>
        <time>2015-04-25T14:55:51Z</time>
      </trkpt>
      <trkpt lat="45.46925" lon="4.54546">
        <ele>407.57476806641</ele>
        <time>2015-04-25T14:55:53Z</time>
      </trkpt>
      <trkpt lat="45.46925" lon="4.54538">
        <ele>407.38348388672</ele>
        <time>2015-04-25T14:55:55Z</time>
      </trkpt>
      <trkpt lat="45.46923" lon="4.54531">
        <ele>407.26196289062</ele>
        <time>2015-04-25T14:55:57Z</time>
      </trkpt>
      <trkpt lat="45.46922" lon="4.54524">
        <ele>407.23037719727</ele>
        <time>2015-04-25T14:55:59Z</time>
      </trkpt>
      <trkpt lat="45.46919" lon="4.54517">
        <ele>407.26971435547</ele>
        <time>2015-04-25T14:56:01Z</time>
      </trkpt>
      <trkpt lat="45.46917" lon="4.54509">
        <ele>407.29302978516</ele>
        <time>2015-04-25T14:56:03Z</time>
      </trkpt>
      <trkpt lat="45.46914" lon="4.54498">
        <ele>407.17858886719</ele>
        <time>2015-04-25T14:56:06Z</time>
      </trkpt>
      <trkpt lat="45.46913" lon="4.5449">
        <ele>407.01483154297</ele>
        <time>2015-04-25T14:56:08Z</time>
      </trkpt>
      <trkpt lat="45.46913" lon="4.54482">
        <ele>406.76593017578</ele>
        <time>2015-04-25T14:56:10Z</time>
      </trkpt>
      <trkpt lat="45.46913" lon="4.54473">
        <ele>406.42922973633</ele>
        <time>2015-04-25T14:56:12Z</time>
      </trkpt>
      <trkpt lat="45.46915" lon="4.54464">
        <ele>405.94012451172</ele>
        <time>2015-04-25T14:56:14Z</time>
      </trkpt>
      <trkpt lat="45.46917" lon="4.54452">
        <ele>405.18701171875</ele>
        <time>2015-04-25T14:56:17Z</time>
      </trkpt>
      <trkpt lat="45.4692" lon="4.54444">
        <ele>404.56848144531</ele>
        <time>2015-04-25T14:56:19Z</time>
      </trkpt>
      <trkpt lat="45.46923" lon="4.54436">
        <ele>403.88079833984</ele>
        <time>2015-04-25T14:56:21Z</time>
      </trkpt>
      <trkpt lat="45.46926" lon="4.54429">
        <ele>403.28350830078</ele>
        <time>2015-04-25T14:56:23Z</time>
      </trkpt>
      <trkpt lat="45.46928" lon="4.54421">
        <ele>402.79241943359</ele>
        <time>2015-04-25T14:56:25Z</time>
      </trkpt>
      <trkpt lat="45.4693" lon="4.5441">
        <ele>402.65051269531</ele>
        <time>2015-04-25T14:56:28Z</time>
      </trkpt>
      <trkpt lat="45.46931" lon="4.54402">
        <ele>402.68591308594</ele>
        <time>2015-04-25T14:56:30Z</time>
      </trkpt>
      <trkpt lat="45.46933" lon="4.54391">
        <ele>402.67831420898</ele>
        <time>2015-04-25T14:56:33Z</time>
      </trkpt>
      <trkpt lat="45.46935" lon="4.54383">
        <ele>402.61392211914</ele>
        <time>2015-04-25T14:56:35Z</time>
      </trkpt>
      <trkpt lat="45.46937" lon="4.54376">
        <ele>402.529296875</ele>
        <time>2015-04-25T14:56:37Z</time>
      </trkpt>
      <trkpt lat="45.46939" lon="4.54364">
        <ele>402.45687866211</ele>
        <time>2015-04-25T14:56:40Z</time>
      </trkpt>
      <trkpt lat="45.46941" lon="4.54357">
        <ele>402.45138549805</ele>
        <time>2015-04-25T14:56:42Z</time>
      </trkpt>
      <trkpt lat="45.46944" lon="4.54349">
        <ele>402.14996337891</ele>
        <time>2015-04-25T14:56:44Z</time>
      </trkpt>
      <trkpt lat="45.46946" lon="4.54341">
        <ele>401.93896484375</ele>
        <time>2015-04-25T14:56:46Z</time>
      </trkpt>
      <trkpt lat="45.46947" lon="4.54332">
        <ele>401.89117431641</ele>
        <time>2015-04-25T14:56:48Z</time>
      </trkpt>
      <trkpt lat="45.46949" lon="4.54324">
        <ele>401.9150390625</ele>
        <time>2015-04-25T14:56:50Z</time>
      </trkpt>
      <trkpt lat="45.46951" lon="4.54312">
        <ele>402.18643188477</ele>
        <time>2015-04-25T14:56:53Z</time>
      </trkpt>
      <trkpt lat="45.46951" lon="4.543">
        <ele>402.66903686523</ele>
        <time>2015-04-25T14:56:56Z</time>
      </trkpt>
      <trkpt lat="45.46951" lon="4.54292">
        <ele>403.09274291992</ele>
        <time>2015-04-25T14:56:58Z</time>
      </trkpt>
      <trkpt lat="45.4695" lon="4.54285">
        <ele>403.54086303711</ele>
        <time>2015-04-25T14:57:00Z</time>
      </trkpt>
      <trkpt lat="45.46949" lon="4.54276">
        <ele>403.97091674805</ele>
        <time>2015-04-25T14:57:02Z</time>
      </trkpt>
      <trkpt lat="45.46948" lon="4.54264">
        <ele>404.75430297852</ele>
        <time>2015-04-25T14:57:05Z</time>
      </trkpt>
      <trkpt lat="45.46947" lon="4.54252">
        <ele>405.44326782227</ele>
        <time>2015-04-25T14:57:08Z</time>
      </trkpt>
      <trkpt lat="45.46946" lon="4.54245">
        <ele>405.44345092773</ele>
        <time>2015-04-25T14:57:10Z</time>
      </trkpt>
      <trkpt lat="45.46946" lon="4.54237">
        <ele>405.20587158203</ele>
        <time>2015-04-25T14:57:12Z</time>
      </trkpt>
      <trkpt lat="45.46945" lon="4.54229">
        <ele>405.03106689453</ele>
        <time>2015-04-25T14:57:14Z</time>
      </trkpt>
      <trkpt lat="45.46945" lon="4.54221">
        <ele>404.76452636719</ele>
        <time>2015-04-25T14:57:16Z</time>
      </trkpt>
      <trkpt lat="45.46944" lon="4.54212">
        <ele>404.47515869141</ele>
        <time>2015-04-25T14:57:18Z</time>
      </trkpt>
      <trkpt lat="45.46944" lon="4.542">
        <ele>403.98300170898</ele>
        <time>2015-04-25T14:57:21Z</time>
      </trkpt>
      <trkpt lat="45.46944" lon="4.54187">
        <ele>403.61437988281</ele>
        <time>2015-04-25T14:57:24Z</time>
      </trkpt>
      <trkpt lat="45.46944" lon="4.54179">
        <ele>403.2844543457</ele>
        <time>2015-04-25T14:57:26Z</time>
      </trkpt>
      <trkpt lat="45.46944" lon="4.54167">
        <ele>402.79345703125</ele>
        <time>2015-04-25T14:57:29Z</time>
      </trkpt>
      <trkpt lat="45.46944" lon="4.54153">
        <ele>401.86883544922</ele>
        <time>2015-04-25T14:57:32Z</time>
      </trkpt>
      <trkpt lat="45.46942" lon="4.54146">
        <ele>401.55313110352</ele>
        <time>2015-04-25T14:57:34Z</time>
      </trkpt>
      <trkpt lat="45.4694" lon="4.54135">
        <ele>401.03527832031</ele>
        <time>2015-04-25T14:57:37Z</time>
      </trkpt>
      <trkpt lat="45.46938" lon="4.54123">
        <ele>400.41958618164</ele>
        <time>2015-04-25T14:57:40Z</time>
      </trkpt>
      <trkpt lat="45.46936" lon="4.54116">
        <ele>400.06448364258</ele>
        <time>2015-04-25T14:57:42Z</time>
      </trkpt>
      <trkpt lat="45.46934" lon="4.5411">
        <ele>399.81121826172</ele>
        <time>2015-04-25T14:57:44Z</time>
      </trkpt>
      <trkpt lat="45.46931" lon="4.54104">
        <ele>399.69689941406</ele>
        <time>2015-04-25T14:57:46Z</time>
      </trkpt>
      <trkpt lat="45.46928" lon="4.54098">
        <ele>399.37200927734</ele>
        <time>2015-04-25T14:57:48Z</time>
      </trkpt>
      <trkpt lat="45.46923" lon="4.54092">
        <ele>399.27075195312</ele>
        <time>2015-04-25T14:57:51Z</time>
      </trkpt>
      <trkpt lat="45.46919" lon="4.54089">
        <ele>399.34356689453</ele>
        <time>2015-04-25T14:57:53Z</time>
      </trkpt>
      <trkpt lat="45.46914" lon="4.54086">
        <ele>399.42309570312</ele>
        <time>2015-04-25T14:57:55Z</time>
      </trkpt>
      <trkpt lat="45.46909" lon="4.54082">
        <ele>399.39465332031</ele>
        <time>2015-04-25T14:57:57Z</time>
      </trkpt>
      <trkpt lat="45.46904" lon="4.54079">
        <ele>399.28536987305</ele>
        <time>2015-04-25T14:57:59Z</time>
      </trkpt>
      <trkpt lat="45.46898" lon="4.54071">
        <ele>398.81729125977</ele>
        <time>2015-04-25T14:58:02Z</time>
      </trkpt>
      <trkpt lat="45.46893" lon="4.54066">
        <ele>398.55120849609</ele>
        <time>2015-04-25T14:58:04Z</time>
      </trkpt>
      <trkpt lat="45.46888" lon="4.54062">
        <ele>398.41619873047</ele>
        <time>2015-04-25T14:58:06Z</time>
      </trkpt>
      <trkpt lat="45.46881" lon="4.54056">
        <ele>398.15069580078</ele>
        <time>2015-04-25T14:58:09Z</time>
      </trkpt>
      <trkpt lat="45.46874" lon="4.5405">
        <ele>397.94470214844</ele>
        <time>2015-04-25T14:58:12Z</time>
      </trkpt>
      <trkpt lat="45.46869" lon="4.54046">
        <ele>397.82223510742</ele>
        <time>2015-04-25T14:58:14Z</time>
      </trkpt>
      <trkpt lat="45.46861" lon="4.5404">
        <ele>397.66488647461</ele>
        <time>2015-04-25T14:58:17Z</time>
      </trkpt>
      <trkpt lat="45.46856" lon="4.54037">
        <ele>397.642578125</ele>
        <time>2015-04-25T14:58:19Z</time>
      </trkpt>
      <trkpt lat="45.46847" lon="4.54032">
        <ele>397.65686035156</ele>
        <time>2015-04-25T14:58:22Z</time>
      </trkpt>
      <trkpt lat="45.46841" lon="4.54029">
        <ele>397.59335327148</ele>
        <time>2015-04-25T14:58:24Z</time>
      </trkpt>
      <trkpt lat="45.46837" lon="4.54019">
        <ele>396.87408447266</ele>
        <time>2015-04-25T14:58:27Z</time>
      </trkpt>
      <trkpt lat="45.4684" lon="4.54011">
        <ele>395.84869384766</ele>
        <time>2015-04-25T14:58:29Z</time>
      </trkpt>
      <trkpt lat="45.46848" lon="4.54006">
        <ele>394.75064086914</ele>
        <time>2015-04-25T14:58:32Z</time>
      </trkpt>
      <trkpt lat="45.46855" lon="4.54005">
        <ele>394.23049926758</ele>
        <time>2015-04-25T14:58:34Z</time>
      </trkpt>
      <trkpt lat="45.46867" lon="4.54003">
        <ele>393.3046875</ele>
        <time>2015-04-25T14:58:37Z</time>
      </trkpt>
      <trkpt lat="45.46873" lon="4.54002">
        <ele>392.80169677734</ele>
        <time>2015-04-25T14:58:39Z</time>
      </trkpt>
      <trkpt lat="45.46882" lon="4.53997">
        <ele>391.87524414062</ele>
        <time>2015-04-25T14:58:42Z</time>
      </trkpt>
      <trkpt lat="45.46888" lon="4.53994">
        <ele>391.38610839844</ele>
        <time>2015-04-25T14:58:44Z</time>
      </trkpt>
      <trkpt lat="45.46896" lon="4.5399">
        <ele>390.763671875</ele>
        <time>2015-04-25T14:58:47Z</time>
      </trkpt>
      <trkpt lat="45.46901" lon="4.53987">
        <ele>390.33865356445</ele>
        <time>2015-04-25T14:58:49Z</time>
      </trkpt>
      <trkpt lat="45.4691" lon="4.53982">
        <ele>389.66967773438</ele>
        <time>2015-04-25T14:58:52Z</time>
      </trkpt>
      <trkpt lat="45.46916" lon="4.53979">
        <ele>389.28289794922</ele>
        <time>2015-04-25T14:58:54Z</time>
      </trkpt>
      <trkpt lat="45.46924" lon="4.5397">
        <ele>388.56848144531</ele>
        <time>2015-04-25T14:58:57Z</time>
      </trkpt>
      <trkpt lat="45.46928" lon="4.53963">
        <ele>388.11053466797</ele>
        <time>2015-04-25T14:58:59Z</time>
      </trkpt>
      <trkpt lat="45.4693" lon="4.53949">
        <ele>387.55249023438</ele>
        <time>2015-04-25T14:59:02Z</time>
      </trkpt>
      <trkpt lat="45.46931" lon="4.53938">
        <ele>387.17095947266</ele>
        <time>2015-04-25T14:59:04Z</time>
      </trkpt>
      <trkpt lat="45.46931" lon="4.53929">
        <ele>386.86480712891</ele>
        <time>2015-04-25T14:59:06Z</time>
      </trkpt>
      <trkpt lat="45.4693" lon="4.53919">
        <ele>386.58297729492</ele>
        <time>2015-04-25T14:59:08Z</time>
      </trkpt>
      <trkpt lat="45.46931" lon="4.53911">
        <ele>386.39709472656</ele>
        <time>2015-04-25T14:59:10Z</time>
      </trkpt>
      <trkpt lat="45.46931" lon="4.53904">
        <ele>386.25119018555</ele>
        <time>2015-04-25T14:59:12Z</time>
      </trkpt>
      <trkpt lat="45.46932" lon="4.53895">
        <ele>386.08074951172</ele>
        <time>2015-04-25T14:59:14Z</time>
      </trkpt>
      <trkpt lat="45.46932" lon="4.53884">
        <ele>385.87860107422</ele>
        <time>2015-04-25T14:59:17Z</time>
      </trkpt>
      <trkpt lat="45.46933" lon="4.53876">
        <ele>385.73059082031</ele>
        <time>2015-04-25T14:59:19Z</time>
      </trkpt>
      <trkpt lat="45.46933" lon="4.53869">
        <ele>385.5998840332</ele>
        <time>2015-04-25T14:59:21Z</time>
      </trkpt>
      <trkpt lat="45.46933" lon="4.5386">
        <ele>385.44436645508</ele>
        <time>2015-04-25T14:59:23Z</time>
      </trkpt>
      <trkpt lat="45.46934" lon="4.53851">
        <ele>385.29895019531</ele>
        <time>2015-04-25T14:59:25Z</time>
      </trkpt>
      <trkpt lat="45.46934" lon="4.53839">
        <ele>385.10137939453</ele>
        <time>2015-04-25T14:59:28Z</time>
      </trkpt>
      <trkpt lat="45.46934" lon="4.53831">
        <ele>385.10641479492</ele>
        <time>2015-04-25T14:59:30Z</time>
      </trkpt>
      <trkpt lat="45.46934" lon="4.53819">
        <ele>385.81362915039</ele>
        <time>2015-04-25T14:59:33Z</time>
      </trkpt>
      <trkpt lat="45.46935" lon="4.53812">
        <ele>386.24160766602</ele>
        <time>2015-04-25T14:59:35Z</time>
      </trkpt>
      <trkpt lat="45.46935" lon="4.538">
        <ele>386.8955078125</ele>
        <time>2015-04-25T14:59:38Z</time>
      </trkpt>
      <trkpt lat="45.46935" lon="4.53793">
        <ele>387.29986572266</ele>
        <time>2015-04-25T14:59:40Z</time>
      </trkpt>
      <trkpt lat="45.46935" lon="4.53781">
        <ele>387.984375</ele>
        <time>2015-04-25T14:59:43Z</time>
      </trkpt>
      <trkpt lat="45.46934" lon="4.53774">
        <ele>388.42318725586</ele>
        <time>2015-04-25T14:59:45Z</time>
      </trkpt>
      <trkpt lat="45.46931" lon="4.53763">
        <ele>389.08627319336</ele>
        <time>2015-04-25T14:59:48Z</time>
      </trkpt>
      <trkpt lat="45.4693" lon="4.53755">
        <ele>389.55053710938</ele>
        <time>2015-04-25T14:59:50Z</time>
      </trkpt>
      <trkpt lat="45.46925" lon="4.53745">
        <ele>389.97860717773</ele>
        <time>2015-04-25T14:59:53Z</time>
      </trkpt>
      <trkpt lat="45.46921" lon="4.5374">
        <ele>390.09246826172</ele>
        <time>2015-04-25T14:59:55Z</time>
      </trkpt>
      <trkpt lat="45.46917" lon="4.53734">
        <ele>390.19128417969</ele>
        <time>2015-04-25T14:59:57Z</time>
      </trkpt>
      <trkpt lat="45.46913" lon="4.53729">
        <ele>390.49465942383</ele>
        <time>2015-04-25T14:59:59Z</time>
      </trkpt>
      <trkpt lat="45.4691" lon="4.53724">
        <ele>390.78970336914</ele>
        <time>2015-04-25T15:00:01Z</time>
      </trkpt>
      <trkpt lat="45.46907" lon="4.53719">
        <ele>391.05075073242</ele>
        <time>2015-04-25T15:00:03Z</time>
      </trkpt>
      <trkpt lat="45.46904" lon="4.53714">
        <ele>391.25546264648</ele>
        <time>2015-04-25T15:00:06Z</time>
      </trkpt>
      <trkpt lat="45.46903" lon="4.53711">
        <ele>391.38220214844</ele>
        <time>2015-04-25T15:00:08Z</time>
      </trkpt>
      <trkpt lat="45.46902" lon="4.53709">
        <ele>391.48403930664</ele>
        <time>2015-04-25T15:00:10Z</time>
      </trkpt>
      <trkpt lat="45.46901" lon="4.53706">
        <ele>391.58361816406</ele>
        <time>2015-04-25T15:00:12Z</time>
      </trkpt>
      <trkpt lat="45.46899" lon="4.53703">
        <ele>391.71139526367</ele>
        <time>2015-04-25T15:00:14Z</time>
      </trkpt>
      <trkpt lat="45.46898" lon="4.537">
        <ele>391.81402587891</ele>
        <time>2015-04-25T15:00:16Z</time>
      </trkpt>
      <trkpt lat="45.46896" lon="4.53697">
        <ele>391.94110107422</ele>
        <time>2015-04-25T15:00:18Z</time>
      </trkpt>
      <trkpt lat="45.46895" lon="4.53694">
        <ele>392.04156494141</ele>
        <time>2015-04-25T15:00:20Z</time>
      </trkpt>
      <trkpt lat="45.46894" lon="4.53691">
        <ele>392.16693115234</ele>
        <time>2015-04-25T15:00:22Z</time>
      </trkpt>
      <trkpt lat="45.46891" lon="4.53685">
        <ele>392.40795898438</ele>
        <time>2015-04-25T15:00:26Z</time>
      </trkpt>
      <trkpt lat="45.46888" lon="4.53681">
        <ele>392.58316040039</ele>
        <time>2015-04-25T15:00:29Z</time>
      </trkpt>
      <trkpt lat="45.46886" lon="4.53677">
        <ele>392.77880859375</ele>
        <time>2015-04-25T15:00:32Z</time>
      </trkpt>
      <trkpt lat="45.46884" lon="4.53675">
        <ele>392.89331054688</ele>
        <time>2015-04-25T15:00:34Z</time>
      </trkpt>
      <trkpt lat="45.46883" lon="4.53672">
        <ele>393.00790405273</ele>
        <time>2015-04-25T15:00:36Z</time>
      </trkpt>
      <trkpt lat="45.46881" lon="4.53668">
        <ele>393.14547729492</ele>
        <time>2015-04-25T15:00:38Z</time>
      </trkpt>
      <trkpt lat="45.46879" lon="4.53665">
        <ele>393.27709960938</ele>
        <time>2015-04-25T15:00:40Z</time>
      </trkpt>
      <trkpt lat="45.46877" lon="4.53661">
        <ele>393.51751708984</ele>
        <time>2015-04-25T15:00:43Z</time>
      </trkpt>
      <trkpt lat="45.46875" lon="4.53658">
        <ele>393.63958740234</ele>
        <time>2015-04-25T15:00:45Z</time>
      </trkpt>
      <trkpt lat="45.46874" lon="4.53654">
        <ele>393.76617431641</ele>
        <time>2015-04-25T15:00:47Z</time>
      </trkpt>
      <trkpt lat="45.46872" lon="4.53649">
        <ele>393.99468994141</ele>
        <time>2015-04-25T15:00:50Z</time>
      </trkpt>
      <trkpt lat="45.4687" lon="4.53644">
        <ele>394.17330932617</ele>
        <time>2015-04-25T15:00:52Z</time>
      </trkpt>
      <trkpt lat="45.46867" lon="4.53639">
        <ele>394.35992431641</ele>
        <time>2015-04-25T15:00:54Z</time>
      </trkpt>
      <trkpt lat="45.46864" lon="4.53633">
        <ele>394.6022644043</ele>
        <time>2015-04-25T15:00:56Z</time>
      </trkpt>
      <trkpt lat="45.46861" lon="4.53628">
        <ele>394.78463745117</ele>
        <time>2015-04-25T15:00:58Z</time>
      </trkpt>
      <trkpt lat="45.46858" lon="4.53623">
        <ele>394.97943115234</ele>
        <time>2015-04-25T15:01:00Z</time>
      </trkpt>
      <trkpt lat="45.46855" lon="4.53617">
        <ele>395.17593383789</ele>
        <time>2015-04-25T15:01:02Z</time>
      </trkpt>
      <trkpt lat="45.46852" lon="4.53611">
        <ele>395.31359863281</ele>
        <time>2015-04-25T15:01:04Z</time>
      </trkpt>
      <trkpt lat="45.46848" lon="4.53602">
        <ele>395.54479980469</ele>
        <time>2015-04-25T15:01:07Z</time>
      </trkpt>
      <trkpt lat="45.46845" lon="4.53597">
        <ele>395.65628051758</ele>
        <time>2015-04-25T15:01:09Z</time>
      </trkpt>
      <trkpt lat="45.4684" lon="4.53587">
        <ele>395.83050537109</ele>
        <time>2015-04-25T15:01:12Z</time>
      </trkpt>
      <trkpt lat="45.46837" lon="4.53581">
        <ele>395.99029541016</ele>
        <time>2015-04-25T15:01:14Z</time>
      </trkpt>
      <trkpt lat="45.46834" lon="4.53575">
        <ele>396.27404785156</ele>
        <time>2015-04-25T15:01:16Z</time>
      </trkpt>
      <trkpt lat="45.46831" lon="4.5357">
        <ele>396.56240844727</ele>
        <time>2015-04-25T15:01:18Z</time>
      </trkpt>
      <trkpt lat="45.46828" lon="4.53565">
        <ele>396.84878540039</ele>
        <time>2015-04-25T15:01:20Z</time>
      </trkpt>
      <trkpt lat="45.46825" lon="4.53559">
        <ele>397.1535949707</ele>
        <time>2015-04-25T15:01:22Z</time>
      </trkpt>
      <trkpt lat="45.46824" lon="4.53552">
        <ele>397.43072509766</ele>
        <time>2015-04-25T15:01:24Z</time>
      </trkpt>
      <trkpt lat="45.46822" lon="4.53545">
        <ele>397.7444152832</ele>
        <time>2015-04-25T15:01:26Z</time>
      </trkpt>
      <trkpt lat="45.4682" lon="4.53538">
        <ele>398.02807617188</ele>
        <time>2015-04-25T15:01:28Z</time>
      </trkpt>
      <trkpt lat="45.46819" lon="4.53531">
        <ele>398.30133056641</ele>
        <time>2015-04-25T15:01:30Z</time>
      </trkpt>
      <trkpt lat="45.46819" lon="4.53522">
        <ele>398.58279418945</ele>
        <time>2015-04-25T15:01:32Z</time>
      </trkpt>
      <trkpt lat="45.46819" lon="4.53514">
        <ele>398.8610534668</ele>
        <time>2015-04-25T15:01:34Z</time>
      </trkpt>
      <trkpt lat="45.4682" lon="4.53502">
        <ele>399.26034545898</ele>
        <time>2015-04-25T15:01:37Z</time>
      </trkpt>
      <trkpt lat="45.46821" lon="4.53493">
        <ele>399.52987670898</ele>
        <time>2015-04-25T15:01:39Z</time>
      </trkpt>
      <trkpt lat="45.46822" lon="4.53485">
        <ele>399.76947021484</ele>
        <time>2015-04-25T15:01:41Z</time>
      </trkpt>
      <trkpt lat="45.46824" lon="4.53477">
        <ele>400.02346801758</ele>
        <time>2015-04-25T15:01:43Z</time>
      </trkpt>
      <trkpt lat="45.46824" lon="4.5347">
        <ele>400.28277587891</ele>
        <time>2015-04-25T15:01:45Z</time>
      </trkpt>
      <trkpt lat="45.46825" lon="4.53462">
        <ele>400.52133178711</ele>
        <time>2015-04-25T15:01:47Z</time>
      </trkpt>
      <trkpt lat="45.46826" lon="4.53453">
        <ele>400.80474853516</ele>
        <time>2015-04-25T15:01:49Z</time>
      </trkpt>
      <trkpt lat="45.46826" lon="4.53446">
        <ele>401.05947875977</ele>
        <time>2015-04-25T15:01:51Z</time>
      </trkpt>
      <trkpt lat="45.46826" lon="4.53437">
        <ele>401.37509155273</ele>
        <time>2015-04-25T15:01:53Z</time>
      </trkpt>
      <trkpt lat="45.46826" lon="4.53428">
        <ele>401.69689941406</ele>
        <time>2015-04-25T15:01:55Z</time>
      </trkpt>
      <trkpt lat="45.46825" lon="4.5342">
        <ele>401.98300170898</ele>
        <time>2015-04-25T15:01:57Z</time>
      </trkpt>
      <trkpt lat="45.46824" lon="4.53412">
        <ele>402.14807128906</ele>
        <time>2015-04-25T15:01:59Z</time>
      </trkpt>
      <trkpt lat="45.46825" lon="4.53404">
        <ele>402.22457885742</ele>
        <time>2015-04-25T15:02:01Z</time>
      </trkpt>
      <trkpt lat="45.46824" lon="4.53395">
        <ele>402.31146240234</ele>
        <time>2015-04-25T15:02:03Z</time>
      </trkpt>
      <trkpt lat="45.46823" lon="4.53386">
        <ele>402.40017700195</ele>
        <time>2015-04-25T15:02:05Z</time>
      </trkpt>
      <trkpt lat="45.46824" lon="4.53378">
        <ele>402.47442626953</ele>
        <time>2015-04-25T15:02:07Z</time>
      </trkpt>
      <trkpt lat="45.46825" lon="4.53371">
        <ele>402.54348754883</ele>
        <time>2015-04-25T15:02:09Z</time>
      </trkpt>
      <trkpt lat="45.46825" lon="4.5336">
        <ele>402.65054321289</ele>
        <time>2015-04-25T15:02:12Z</time>
      </trkpt>
      <trkpt lat="45.46827" lon="4.53352">
        <ele>402.73327636719</ele>
        <time>2015-04-25T15:02:14Z</time>
      </trkpt>
      <trkpt lat="45.46827" lon="4.53345">
        <ele>402.8078918457</ele>
        <time>2015-04-25T15:02:16Z</time>
      </trkpt>
      <trkpt lat="45.46828" lon="4.53339">
        <ele>402.88049316406</ele>
        <time>2015-04-25T15:02:18Z</time>
      </trkpt>
      <trkpt lat="45.46828" lon="4.53332">
        <ele>402.93832397461</ele>
        <time>2015-04-25T15:02:20Z</time>
      </trkpt>
      <trkpt lat="45.46828" lon="4.53324">
        <ele>402.94418334961</ele>
        <time>2015-04-25T15:02:22Z</time>
      </trkpt>
      <trkpt lat="45.46828" lon="4.53316">
        <ele>402.95367431641</ele>
        <time>2015-04-25T15:02:24Z</time>
      </trkpt>
      <trkpt lat="45.46828" lon="4.53308">
        <ele>402.95928955078</ele>
        <time>2015-04-25T15:02:26Z</time>
      </trkpt>
      <trkpt lat="45.4683" lon="4.53301">
        <ele>402.97271728516</ele>
        <time>2015-04-25T15:02:28Z</time>
      </trkpt>
      <trkpt lat="45.46833" lon="4.53294">
        <ele>402.99572753906</ele>
        <time>2015-04-25T15:02:30Z</time>
      </trkpt>
      <trkpt lat="45.46833" lon="4.53285">
        <ele>402.99835205078</ele>
        <time>2015-04-25T15:02:32Z</time>
      </trkpt>
      <trkpt lat="45.46833" lon="4.53279">
        <ele>402.99719238281</ele>
        <time>2015-04-25T15:02:34Z</time>
      </trkpt>
      <trkpt lat="45.46834" lon="4.53271">
        <ele>402.99017333984</ele>
        <time>2015-04-25T15:02:36Z</time>
      </trkpt>
      <trkpt lat="45.46835" lon="4.53263">
        <ele>402.96426391602</ele>
        <time>2015-04-25T15:02:38Z</time>
      </trkpt>
      <trkpt lat="45.46836" lon="4.53254">
        <ele>402.92663574219</ele>
        <time>2015-04-25T15:02:40Z</time>
      </trkpt>
      <trkpt lat="45.46838" lon="4.53246">
        <ele>402.82794189453</ele>
        <time>2015-04-25T15:02:42Z</time>
      </trkpt>
      <trkpt lat="45.4684" lon="4.53238">
        <ele>402.66525268555</ele>
        <time>2015-04-25T15:02:44Z</time>
      </trkpt>
      <trkpt lat="45.46842" lon="4.53226">
        <ele>402.44705200195</ele>
        <time>2015-04-25T15:02:47Z</time>
      </trkpt>
      <trkpt lat="45.46842" lon="4.53218">
        <ele>402.32723999023</ele>
        <time>2015-04-25T15:02:49Z</time>
      </trkpt>
      <trkpt lat="45.46845" lon="4.53206">
        <ele>402.04937744141</ele>
        <time>2015-04-25T15:02:52Z</time>
      </trkpt>
      <trkpt lat="45.46846" lon="4.53199">
        <ele>401.91989135742</ele>
        <time>2015-04-25T15:02:54Z</time>
      </trkpt>
      <trkpt lat="45.46848" lon="4.53192">
        <ele>401.72128295898</ele>
        <time>2015-04-25T15:02:56Z</time>
      </trkpt>
      <trkpt lat="45.46849" lon="4.53183">
        <ele>401.51010131836</ele>
        <time>2015-04-25T15:02:58Z</time>
      </trkpt>
      <trkpt lat="45.46851" lon="4.53175">
        <ele>401.27883911133</ele>
        <time>2015-04-25T15:03:00Z</time>
      </trkpt>
      <trkpt lat="45.46854" lon="4.53169">
        <ele>401.07577514648</ele>
        <time>2015-04-25T15:03:02Z</time>
      </trkpt>
      <trkpt lat="45.46858" lon="4.53171">
        <ele>400.90682983398</ele>
        <time>2015-04-25T15:03:04Z</time>
      </trkpt>
      <trkpt lat="45.46862" lon="4.53173">
        <ele>400.7287902832</ele>
        <time>2015-04-25T15:03:06Z</time>
      </trkpt>
      <trkpt lat="45.46867" lon="4.53173">
        <ele>400.51092529297</ele>
        <time>2015-04-25T15:03:08Z</time>
      </trkpt>
      <trkpt lat="45.46873" lon="4.53172">
        <ele>400.24584960938</ele>
        <time>2015-04-25T15:03:10Z</time>
      </trkpt>
      <trkpt lat="45.46878" lon="4.53172">
        <ele>399.99606323242</ele>
        <time>2015-04-25T15:03:12Z</time>
      </trkpt>
      <trkpt lat="45.46882" lon="4.53173">
        <ele>399.81155395508</ele>
        <time>2015-04-25T15:03:14Z</time>
      </trkpt>
      <trkpt lat="45.46887" lon="4.53174">
        <ele>399.62423706055</ele>
        <time>2015-04-25T15:03:16Z</time>
      </trkpt>
      <trkpt lat="45.46891" lon="4.53171">
        <ele>399.33755493164</ele>
        <time>2015-04-25T15:03:18Z</time>
      </trkpt>
      <trkpt lat="45.46894" lon="4.53164">
        <ele>399.06118774414</ele>
        <time>2015-04-25T15:03:20Z</time>
      </trkpt>
      <trkpt lat="45.46897" lon="4.53156">
        <ele>398.86059570312</ele>
        <time>2015-04-25T15:03:22Z</time>
      </trkpt>
      <trkpt lat="45.46899" lon="4.53148">
        <ele>398.68902587891</ele>
        <time>2015-04-25T15:03:24Z</time>
      </trkpt>
      <trkpt lat="45.46901" lon="4.53141">
        <ele>398.50521850586</ele>
        <time>2015-04-25T15:03:26Z</time>
      </trkpt>
      <trkpt lat="45.46903" lon="4.53133">
        <ele>398.32928466797</ele>
        <time>2015-04-25T15:03:28Z</time>
      </trkpt>
      <trkpt lat="45.46906" lon="4.53126">
        <ele>398.09191894531</ele>
        <time>2015-04-25T15:03:30Z</time>
      </trkpt>
      <trkpt lat="45.46909" lon="4.5312">
        <ele>397.88302612305</ele>
        <time>2015-04-25T15:03:32Z</time>
      </trkpt>
      <trkpt lat="45.46916" lon="4.5311">
        <ele>397.3674621582</ele>
        <time>2015-04-25T15:03:35Z</time>
      </trkpt>
      <trkpt lat="45.46919" lon="4.531">
        <ele>397.1589050293</ele>
        <time>2015-04-25T15:03:38Z</time>
      </trkpt>
      <trkpt lat="45.46923" lon="4.53094">
        <ele>397.02297973633</ele>
        <time>2015-04-25T15:03:40Z</time>
      </trkpt>
      <trkpt lat="45.46928" lon="4.53085">
        <ele>396.87985229492</ele>
        <time>2015-04-25T15:03:43Z</time>
      </trkpt>
      <trkpt lat="45.46931" lon="4.5308">
        <ele>396.98403930664</ele>
        <time>2015-04-25T15:03:45Z</time>
      </trkpt>
      <trkpt lat="45.46939" lon="4.53072">
        <ele>397.18356323242</ele>
        <time>2015-04-25T15:03:48Z</time>
      </trkpt>
      <trkpt lat="45.46943" lon="4.53066">
        <ele>397.33639526367</ele>
        <time>2015-04-25T15:03:50Z</time>
      </trkpt>
      <trkpt lat="45.46946" lon="4.53059">
        <ele>397.50848388672</ele>
        <time>2015-04-25T15:03:52Z</time>
      </trkpt>
      <trkpt lat="45.46949" lon="4.53053">
        <ele>397.64114379883</ele>
        <time>2015-04-25T15:03:54Z</time>
      </trkpt>
      <trkpt lat="45.46953" lon="4.53046">
        <ele>397.77087402344</ele>
        <time>2015-04-25T15:03:56Z</time>
      </trkpt>
      <trkpt lat="45.46958" lon="4.53039">
        <ele>397.83782958984</ele>
        <time>2015-04-25T15:03:58Z</time>
      </trkpt>
      <trkpt lat="45.46961" lon="4.53033">
        <ele>397.9348449707</ele>
        <time>2015-04-25T15:04:00Z</time>
      </trkpt>
      <trkpt lat="45.46965" lon="4.53023">
        <ele>398.0774230957</ele>
        <time>2015-04-25T15:04:03Z</time>
      </trkpt>
      <trkpt lat="45.46968" lon="4.53017">
        <ele>398.11434936523</ele>
        <time>2015-04-25T15:04:05Z</time>
      </trkpt>
      <trkpt lat="45.46965" lon="4.53011">
        <ele>398.37567138672</ele>
        <time>2015-04-25T15:04:07Z</time>
      </trkpt>
      <trkpt lat="45.46961" lon="4.53006">
        <ele>398.70025634766</ele>
        <time>2015-04-25T15:04:09Z</time>
      </trkpt>
      <trkpt lat="45.46957" lon="4.53002">
        <ele>399.02667236328</ele>
        <time>2015-04-25T15:04:11Z</time>
      </trkpt>
      <trkpt lat="45.46953" lon="4.52997">
        <ele>399.24786376953</ele>
        <time>2015-04-25T15:04:13Z</time>
      </trkpt>
      <trkpt lat="45.4695" lon="4.52991">
        <ele>399.34854125977</ele>
        <time>2015-04-25T15:04:15Z</time>
      </trkpt>
      <trkpt lat="45.46949" lon="4.52983">
        <ele>399.36724853516</ele>
        <time>2015-04-25T15:04:17Z</time>
      </trkpt>
      <trkpt lat="45.46949" lon="4.52976">
        <ele>399.31405639648</ele>
        <time>2015-04-25T15:04:19Z</time>
      </trkpt>
      <trkpt lat="45.46951" lon="4.52969">
        <ele>399.20181274414</ele>
        <time>2015-04-25T15:04:21Z</time>
      </trkpt>
      <trkpt lat="45.46954" lon="4.52962">
        <ele>398.98635864258</ele>
        <time>2015-04-25T15:04:23Z</time>
      </trkpt>
      <trkpt lat="45.46958" lon="4.52956">
        <ele>398.74716186523</ele>
        <time>2015-04-25T15:04:25Z</time>
      </trkpt>
      <trkpt lat="45.46962" lon="4.52951">
        <ele>398.50427246094</ele>
        <time>2015-04-25T15:04:27Z</time>
      </trkpt>
      <trkpt lat="45.46966" lon="4.52945">
        <ele>398.23303222656</ele>
        <time>2015-04-25T15:04:29Z</time>
      </trkpt>
      <trkpt lat="45.46972" lon="4.5294">
        <ele>397.88970947266</ele>
        <time>2015-04-25T15:04:31Z</time>
      </trkpt>
      <trkpt lat="45.46975" lon="4.52934">
        <ele>397.64459228516</ele>
        <time>2015-04-25T15:04:33Z</time>
      </trkpt>
      <trkpt lat="45.4698" lon="4.52927">
        <ele>397.30001831055</ele>
        <time>2015-04-25T15:04:35Z</time>
      </trkpt>
      <trkpt lat="45.46984" lon="4.52921">
        <ele>397.00076293945</ele>
        <time>2015-04-25T15:04:37Z</time>
      </trkpt>
      <trkpt lat="45.46989" lon="4.52916">
        <ele>396.7073059082</ele>
        <time>2015-04-25T15:04:39Z</time>
      </trkpt>
      <trkpt lat="45.46993" lon="4.52911">
        <ele>396.62655639648</ele>
        <time>2015-04-25T15:04:41Z</time>
      </trkpt>
      <trkpt lat="45.46998" lon="4.52906">
        <ele>396.51788330078</ele>
        <time>2015-04-25T15:04:43Z</time>
      </trkpt>
      <trkpt lat="45.47003" lon="4.52901">
        <ele>396.51913452148</ele>
        <time>2015-04-25T15:04:45Z</time>
      </trkpt>
      <trkpt lat="45.47007" lon="4.52898">
        <ele>396.58892822266</ele>
        <time>2015-04-25T15:04:47Z</time>
      </trkpt>
      <trkpt lat="45.47012" lon="4.52899">
        <ele>396.50823974609</ele>
        <time>2015-04-25T15:04:49Z</time>
      </trkpt>
      <trkpt lat="45.47015" lon="4.52905">
        <ele>396.25305175781</ele>
        <time>2015-04-25T15:04:51Z</time>
      </trkpt>
      <trkpt lat="45.47019" lon="4.52913">
        <ele>395.91888427734</ele>
        <time>2015-04-25T15:04:53Z</time>
      </trkpt>
      <trkpt lat="45.47024" lon="4.52919">
        <ele>395.73233032227</ele>
        <time>2015-04-25T15:04:55Z</time>
      </trkpt>
      <trkpt lat="45.47029" lon="4.52925">
        <ele>395.71319580078</ele>
        <time>2015-04-25T15:04:57Z</time>
      </trkpt>
      <trkpt lat="45.47039" lon="4.52936">
        <ele>395.65301513672</ele>
        <time>2015-04-25T15:05:00Z</time>
      </trkpt>
      <trkpt lat="45.47044" lon="4.52942">
        <ele>395.61285400391</ele>
        <time>2015-04-25T15:05:02Z</time>
      </trkpt>
      <trkpt lat="45.47044" lon="4.52942">
        <ele>395.61285400391</ele>
        <time>2015-04-25T15:05:03Z</time>
      </trkpt>
    </trkseg>
  </trk>
</gpx>